<?xml version="1.0" encoding="UTF-8"?>
<gpx xmlns="http://www.topografix.com/GPX/1/1"
     creator="GpsDump 4.73"
     version="1.1"
     xmlns:xsi="http://www.w3.org/2001/XMLSchema-instance"
     xsi:schemaLocation="http://www.topografix.com/GPX/1/1 http://www.topografix.com/GPX/1/1/gpx.xsd">
  <metadata>
    <link href="http://www.gethome.no/stein.sorensen/">
      <text>GPS dump for www.flightlog.org</text>
    </link>
    <time>2014-04-19T18:53:21Z</time>
    <bounds minlat="42.974617" minlon="-3.020917" maxlat="43.109317" maxlon="-2.913500"/>
  </metadata>
  <trk>
    <name>Track 001</name>
    <trkseg>
      <trkpt lat="43.106517" lon="-2.940233">
        <ele>663.0</ele>
        <time>2014-04-19T12:47:31Z</time>
      </trkpt>
      <trkpt lat="43.106483" lon="-2.940133">
        <ele>633.0</ele>
        <time>2014-04-19T12:47:32Z</time>
      </trkpt>
      <trkpt lat="43.106450" lon="-2.939967">
        <ele>634.0</ele>
        <time>2014-04-19T12:47:33Z</time>
      </trkpt>
      <trkpt lat="43.106317" lon="-2.939767">
        <ele>633.0</ele>
        <time>2014-04-19T12:47:34Z</time>
      </trkpt>
      <trkpt lat="43.106200" lon="-2.939683">
        <ele>662.0</ele>
        <time>2014-04-19T12:47:35Z</time>
      </trkpt>
      <trkpt lat="43.106183" lon="-2.939683">
        <ele>683.0</ele>
        <time>2014-04-19T12:47:36Z</time>
      </trkpt>
      <trkpt lat="43.106167" lon="-2.939733">
        <ele>690.0</ele>
        <time>2014-04-19T12:47:37Z</time>
      </trkpt>
      <trkpt lat="43.106167" lon="-2.939767">
        <ele>690.0</ele>
        <time>2014-04-19T12:47:38Z</time>
      </trkpt>
      <trkpt lat="43.106167" lon="-2.939817">
        <ele>690.0</ele>
        <time>2014-04-19T12:47:39Z</time>
      </trkpt>
      <trkpt lat="43.106200" lon="-2.939950">
        <ele>689.0</ele>
        <time>2014-04-19T12:47:40Z</time>
      </trkpt>
      <trkpt lat="43.106250" lon="-2.940133">
        <ele>685.0</ele>
        <time>2014-04-19T12:47:41Z</time>
      </trkpt>
      <trkpt lat="43.106283" lon="-2.940217">
        <ele>680.0</ele>
        <time>2014-04-19T12:47:42Z</time>
      </trkpt>
      <trkpt lat="43.106300" lon="-2.940267">
        <ele>677.0</ele>
        <time>2014-04-19T12:47:43Z</time>
      </trkpt>
      <trkpt lat="43.106317" lon="-2.940283">
        <ele>675.0</ele>
        <time>2014-04-19T12:47:44Z</time>
      </trkpt>
      <trkpt lat="43.106317" lon="-2.940300">
        <ele>673.0</ele>
        <time>2014-04-19T12:47:45Z</time>
      </trkpt>
      <trkpt lat="43.106317" lon="-2.940300">
        <ele>672.0</ele>
        <time>2014-04-19T12:47:46Z</time>
      </trkpt>
      <trkpt lat="43.106333" lon="-2.940300">
        <ele>671.0</ele>
        <time>2014-04-19T12:47:47Z</time>
      </trkpt>
      <trkpt lat="43.106333" lon="-2.940317">
        <ele>670.0</ele>
        <time>2014-04-19T12:47:48Z</time>
      </trkpt>
      <trkpt lat="43.106333" lon="-2.940333">
        <ele>670.0</ele>
        <time>2014-04-19T12:47:49Z</time>
      </trkpt>
      <trkpt lat="43.106350" lon="-2.940333">
        <ele>669.0</ele>
        <time>2014-04-19T12:47:50Z</time>
      </trkpt>
      <trkpt lat="43.106350" lon="-2.940350">
        <ele>668.0</ele>
        <time>2014-04-19T12:47:51Z</time>
      </trkpt>
      <trkpt lat="43.106350" lon="-2.940367">
        <ele>667.0</ele>
        <time>2014-04-19T12:47:52Z</time>
      </trkpt>
      <trkpt lat="43.106367" lon="-2.940367">
        <ele>667.0</ele>
        <time>2014-04-19T12:47:53Z</time>
      </trkpt>
      <trkpt lat="43.106367" lon="-2.940367">
        <ele>666.0</ele>
        <time>2014-04-19T12:47:54Z</time>
      </trkpt>
      <trkpt lat="43.106367" lon="-2.940367">
        <ele>665.0</ele>
        <time>2014-04-19T12:47:55Z</time>
      </trkpt>
      <trkpt lat="43.106367" lon="-2.940367">
        <ele>665.0</ele>
        <time>2014-04-19T12:47:56Z</time>
      </trkpt>
      <trkpt lat="43.106367" lon="-2.940367">
        <ele>665.0</ele>
        <time>2014-04-19T12:47:57Z</time>
      </trkpt>
      <trkpt lat="43.106367" lon="-2.940367">
        <ele>665.0</ele>
        <time>2014-04-19T12:47:58Z</time>
      </trkpt>
      <trkpt lat="43.106367" lon="-2.940383">
        <ele>664.0</ele>
        <time>2014-04-19T12:47:59Z</time>
      </trkpt>
      <trkpt lat="43.106350" lon="-2.940383">
        <ele>664.0</ele>
        <time>2014-04-19T12:48:00Z</time>
      </trkpt>
      <trkpt lat="43.106350" lon="-2.940417">
        <ele>664.0</ele>
        <time>2014-04-19T12:48:01Z</time>
      </trkpt>
      <trkpt lat="43.106333" lon="-2.940417">
        <ele>664.0</ele>
        <time>2014-04-19T12:48:02Z</time>
      </trkpt>
      <trkpt lat="43.106333" lon="-2.940417">
        <ele>663.0</ele>
        <time>2014-04-19T12:48:03Z</time>
      </trkpt>
      <trkpt lat="43.106333" lon="-2.940417">
        <ele>663.0</ele>
        <time>2014-04-19T12:48:04Z</time>
      </trkpt>
      <trkpt lat="43.106333" lon="-2.940417">
        <ele>663.0</ele>
        <time>2014-04-19T12:48:05Z</time>
      </trkpt>
      <trkpt lat="43.106333" lon="-2.940400">
        <ele>663.0</ele>
        <time>2014-04-19T12:48:06Z</time>
      </trkpt>
      <trkpt lat="43.106333" lon="-2.940417">
        <ele>663.0</ele>
        <time>2014-04-19T12:48:07Z</time>
      </trkpt>
      <trkpt lat="43.106333" lon="-2.940417">
        <ele>663.0</ele>
        <time>2014-04-19T12:48:08Z</time>
      </trkpt>
      <trkpt lat="43.106333" lon="-2.940417">
        <ele>662.0</ele>
        <time>2014-04-19T12:48:09Z</time>
      </trkpt>
      <trkpt lat="43.106333" lon="-2.940417">
        <ele>662.0</ele>
        <time>2014-04-19T12:48:10Z</time>
      </trkpt>
      <trkpt lat="43.106333" lon="-2.940417">
        <ele>662.0</ele>
        <time>2014-04-19T12:48:11Z</time>
      </trkpt>
      <trkpt lat="43.106333" lon="-2.940417">
        <ele>662.0</ele>
        <time>2014-04-19T12:48:12Z</time>
      </trkpt>
      <trkpt lat="43.106333" lon="-2.940417">
        <ele>662.0</ele>
        <time>2014-04-19T12:48:13Z</time>
      </trkpt>
      <trkpt lat="43.106333" lon="-2.940417">
        <ele>662.0</ele>
        <time>2014-04-19T12:48:14Z</time>
      </trkpt>
      <trkpt lat="43.106333" lon="-2.940417">
        <ele>661.0</ele>
        <time>2014-04-19T12:48:15Z</time>
      </trkpt>
      <trkpt lat="43.106333" lon="-2.940417">
        <ele>661.0</ele>
        <time>2014-04-19T12:48:16Z</time>
      </trkpt>
      <trkpt lat="43.106333" lon="-2.940417">
        <ele>661.0</ele>
        <time>2014-04-19T12:48:17Z</time>
      </trkpt>
      <trkpt lat="43.106333" lon="-2.940433">
        <ele>661.0</ele>
        <time>2014-04-19T12:48:18Z</time>
      </trkpt>
      <trkpt lat="43.106333" lon="-2.940417">
        <ele>660.0</ele>
        <time>2014-04-19T12:48:19Z</time>
      </trkpt>
      <trkpt lat="43.106333" lon="-2.940417">
        <ele>660.0</ele>
        <time>2014-04-19T12:48:20Z</time>
      </trkpt>
      <trkpt lat="43.106333" lon="-2.940433">
        <ele>660.0</ele>
        <time>2014-04-19T12:48:21Z</time>
      </trkpt>
      <trkpt lat="43.106350" lon="-2.940433">
        <ele>660.0</ele>
        <time>2014-04-19T12:48:22Z</time>
      </trkpt>
      <trkpt lat="43.106350" lon="-2.940433">
        <ele>660.0</ele>
        <time>2014-04-19T12:48:23Z</time>
      </trkpt>
      <trkpt lat="43.106350" lon="-2.940433">
        <ele>659.0</ele>
        <time>2014-04-19T12:48:24Z</time>
      </trkpt>
      <trkpt lat="43.106367" lon="-2.940417">
        <ele>659.0</ele>
        <time>2014-04-19T12:48:25Z</time>
      </trkpt>
      <trkpt lat="43.106367" lon="-2.940417">
        <ele>659.0</ele>
        <time>2014-04-19T12:48:26Z</time>
      </trkpt>
      <trkpt lat="43.106367" lon="-2.940417">
        <ele>659.0</ele>
        <time>2014-04-19T12:48:27Z</time>
      </trkpt>
      <trkpt lat="43.106383" lon="-2.940417">
        <ele>659.0</ele>
        <time>2014-04-19T12:48:28Z</time>
      </trkpt>
      <trkpt lat="43.106383" lon="-2.940417">
        <ele>659.0</ele>
        <time>2014-04-19T12:48:29Z</time>
      </trkpt>
      <trkpt lat="43.106383" lon="-2.940417">
        <ele>659.0</ele>
        <time>2014-04-19T12:48:30Z</time>
      </trkpt>
      <trkpt lat="43.106383" lon="-2.940417">
        <ele>659.0</ele>
        <time>2014-04-19T12:48:31Z</time>
      </trkpt>
      <trkpt lat="43.106383" lon="-2.940417">
        <ele>659.0</ele>
        <time>2014-04-19T12:48:32Z</time>
      </trkpt>
      <trkpt lat="43.106383" lon="-2.940417">
        <ele>658.0</ele>
        <time>2014-04-19T12:48:33Z</time>
      </trkpt>
      <trkpt lat="43.106383" lon="-2.940417">
        <ele>658.0</ele>
        <time>2014-04-19T12:48:34Z</time>
      </trkpt>
      <trkpt lat="43.106383" lon="-2.940417">
        <ele>658.0</ele>
        <time>2014-04-19T12:48:35Z</time>
      </trkpt>
      <trkpt lat="43.106383" lon="-2.940417">
        <ele>658.0</ele>
        <time>2014-04-19T12:48:36Z</time>
      </trkpt>
      <trkpt lat="43.106383" lon="-2.940417">
        <ele>658.0</ele>
        <time>2014-04-19T12:48:37Z</time>
      </trkpt>
      <trkpt lat="43.106383" lon="-2.940417">
        <ele>658.0</ele>
        <time>2014-04-19T12:48:38Z</time>
      </trkpt>
      <trkpt lat="43.106383" lon="-2.940417">
        <ele>658.0</ele>
        <time>2014-04-19T12:48:39Z</time>
      </trkpt>
      <trkpt lat="43.106383" lon="-2.940417">
        <ele>658.0</ele>
        <time>2014-04-19T12:48:40Z</time>
      </trkpt>
      <trkpt lat="43.106383" lon="-2.940417">
        <ele>658.0</ele>
        <time>2014-04-19T12:48:41Z</time>
      </trkpt>
      <trkpt lat="43.106383" lon="-2.940417">
        <ele>658.0</ele>
        <time>2014-04-19T12:48:42Z</time>
      </trkpt>
      <trkpt lat="43.106383" lon="-2.940417">
        <ele>658.0</ele>
        <time>2014-04-19T12:48:43Z</time>
      </trkpt>
      <trkpt lat="43.106383" lon="-2.940417">
        <ele>658.0</ele>
        <time>2014-04-19T12:48:44Z</time>
      </trkpt>
      <trkpt lat="43.106383" lon="-2.940417">
        <ele>658.0</ele>
        <time>2014-04-19T12:48:45Z</time>
      </trkpt>
      <trkpt lat="43.106383" lon="-2.940417">
        <ele>658.0</ele>
        <time>2014-04-19T12:48:46Z</time>
      </trkpt>
      <trkpt lat="43.106383" lon="-2.940417">
        <ele>658.0</ele>
        <time>2014-04-19T12:48:47Z</time>
      </trkpt>
      <trkpt lat="43.106383" lon="-2.940417">
        <ele>658.0</ele>
        <time>2014-04-19T12:48:48Z</time>
      </trkpt>
      <trkpt lat="43.106383" lon="-2.940417">
        <ele>658.0</ele>
        <time>2014-04-19T12:48:49Z</time>
      </trkpt>
      <trkpt lat="43.106383" lon="-2.940417">
        <ele>658.0</ele>
        <time>2014-04-19T12:48:50Z</time>
      </trkpt>
      <trkpt lat="43.106367" lon="-2.940417">
        <ele>658.0</ele>
        <time>2014-04-19T12:48:51Z</time>
      </trkpt>
      <trkpt lat="43.106367" lon="-2.940417">
        <ele>657.0</ele>
        <time>2014-04-19T12:48:52Z</time>
      </trkpt>
      <trkpt lat="43.106367" lon="-2.940417">
        <ele>658.0</ele>
        <time>2014-04-19T12:48:53Z</time>
      </trkpt>
      <trkpt lat="43.106383" lon="-2.940433">
        <ele>657.0</ele>
        <time>2014-04-19T12:48:54Z</time>
      </trkpt>
      <trkpt lat="43.106383" lon="-2.940433">
        <ele>657.0</ele>
        <time>2014-04-19T12:48:55Z</time>
      </trkpt>
      <trkpt lat="43.106383" lon="-2.940417">
        <ele>657.0</ele>
        <time>2014-04-19T12:48:56Z</time>
      </trkpt>
      <trkpt lat="43.106400" lon="-2.940417">
        <ele>657.0</ele>
        <time>2014-04-19T12:48:57Z</time>
      </trkpt>
      <trkpt lat="43.106417" lon="-2.940383">
        <ele>657.0</ele>
        <time>2014-04-19T12:48:58Z</time>
      </trkpt>
      <trkpt lat="43.106433" lon="-2.940333">
        <ele>657.0</ele>
        <time>2014-04-19T12:48:59Z</time>
      </trkpt>
      <trkpt lat="43.106450" lon="-2.940300">
        <ele>657.0</ele>
        <time>2014-04-19T12:49:00Z</time>
      </trkpt>
      <trkpt lat="43.106483" lon="-2.940267">
        <ele>657.0</ele>
        <time>2014-04-19T12:49:01Z</time>
      </trkpt>
      <trkpt lat="43.106533" lon="-2.940233">
        <ele>657.0</ele>
        <time>2014-04-19T12:49:02Z</time>
      </trkpt>
      <trkpt lat="43.106583" lon="-2.940200">
        <ele>657.0</ele>
        <time>2014-04-19T12:49:03Z</time>
      </trkpt>
      <trkpt lat="43.106650" lon="-2.940183">
        <ele>656.0</ele>
        <time>2014-04-19T12:49:04Z</time>
      </trkpt>
      <trkpt lat="43.106717" lon="-2.940167">
        <ele>656.0</ele>
        <time>2014-04-19T12:49:05Z</time>
      </trkpt>
      <trkpt lat="43.106767" lon="-2.940133">
        <ele>656.0</ele>
        <time>2014-04-19T12:49:06Z</time>
      </trkpt>
      <trkpt lat="43.106800" lon="-2.940083">
        <ele>657.0</ele>
        <time>2014-04-19T12:49:07Z</time>
      </trkpt>
      <trkpt lat="43.106833" lon="-2.940050">
        <ele>658.0</ele>
        <time>2014-04-19T12:49:08Z</time>
      </trkpt>
      <trkpt lat="43.106867" lon="-2.940017">
        <ele>659.0</ele>
        <time>2014-04-19T12:49:09Z</time>
      </trkpt>
      <trkpt lat="43.106900" lon="-2.940000">
        <ele>660.0</ele>
        <time>2014-04-19T12:49:10Z</time>
      </trkpt>
      <trkpt lat="43.106933" lon="-2.939983">
        <ele>659.0</ele>
        <time>2014-04-19T12:49:11Z</time>
      </trkpt>
      <trkpt lat="43.106983" lon="-2.939950">
        <ele>659.0</ele>
        <time>2014-04-19T12:49:12Z</time>
      </trkpt>
      <trkpt lat="43.107033" lon="-2.939900">
        <ele>658.0</ele>
        <time>2014-04-19T12:49:13Z</time>
      </trkpt>
      <trkpt lat="43.107083" lon="-2.939867">
        <ele>659.0</ele>
        <time>2014-04-19T12:49:14Z</time>
      </trkpt>
      <trkpt lat="43.107133" lon="-2.939850">
        <ele>660.0</ele>
        <time>2014-04-19T12:49:15Z</time>
      </trkpt>
      <trkpt lat="43.107183" lon="-2.939850">
        <ele>660.0</ele>
        <time>2014-04-19T12:49:16Z</time>
      </trkpt>
      <trkpt lat="43.107250" lon="-2.939867">
        <ele>661.0</ele>
        <time>2014-04-19T12:49:17Z</time>
      </trkpt>
      <trkpt lat="43.107283" lon="-2.939867">
        <ele>664.0</ele>
        <time>2014-04-19T12:49:18Z</time>
      </trkpt>
      <trkpt lat="43.107317" lon="-2.939850">
        <ele>667.0</ele>
        <time>2014-04-19T12:49:19Z</time>
      </trkpt>
      <trkpt lat="43.107333" lon="-2.939833">
        <ele>669.0</ele>
        <time>2014-04-19T12:49:20Z</time>
      </trkpt>
      <trkpt lat="43.107367" lon="-2.939817">
        <ele>671.0</ele>
        <time>2014-04-19T12:49:21Z</time>
      </trkpt>
      <trkpt lat="43.107400" lon="-2.939800">
        <ele>671.0</ele>
        <time>2014-04-19T12:49:22Z</time>
      </trkpt>
      <trkpt lat="43.107450" lon="-2.939767">
        <ele>671.0</ele>
        <time>2014-04-19T12:49:23Z</time>
      </trkpt>
      <trkpt lat="43.107483" lon="-2.939717">
        <ele>672.0</ele>
        <time>2014-04-19T12:49:24Z</time>
      </trkpt>
      <trkpt lat="43.107517" lon="-2.939667">
        <ele>675.0</ele>
        <time>2014-04-19T12:49:25Z</time>
      </trkpt>
      <trkpt lat="43.107550" lon="-2.939650">
        <ele>677.0</ele>
        <time>2014-04-19T12:49:26Z</time>
      </trkpt>
      <trkpt lat="43.107600" lon="-2.939633">
        <ele>679.0</ele>
        <time>2014-04-19T12:49:27Z</time>
      </trkpt>
      <trkpt lat="43.107633" lon="-2.939617">
        <ele>682.0</ele>
        <time>2014-04-19T12:49:28Z</time>
      </trkpt>
      <trkpt lat="43.107667" lon="-2.939567">
        <ele>684.0</ele>
        <time>2014-04-19T12:49:29Z</time>
      </trkpt>
      <trkpt lat="43.107683" lon="-2.939500">
        <ele>686.0</ele>
        <time>2014-04-19T12:49:30Z</time>
      </trkpt>
      <trkpt lat="43.107683" lon="-2.939400">
        <ele>688.0</ele>
        <time>2014-04-19T12:49:31Z</time>
      </trkpt>
      <trkpt lat="43.107633" lon="-2.939300">
        <ele>688.0</ele>
        <time>2014-04-19T12:49:32Z</time>
      </trkpt>
      <trkpt lat="43.107583" lon="-2.939183">
        <ele>688.0</ele>
        <time>2014-04-19T12:49:33Z</time>
      </trkpt>
      <trkpt lat="43.107533" lon="-2.939083">
        <ele>688.0</ele>
        <time>2014-04-19T12:49:34Z</time>
      </trkpt>
      <trkpt lat="43.107500" lon="-2.938967">
        <ele>687.0</ele>
        <time>2014-04-19T12:49:35Z</time>
      </trkpt>
      <trkpt lat="43.107500" lon="-2.938867">
        <ele>686.0</ele>
        <time>2014-04-19T12:49:36Z</time>
      </trkpt>
      <trkpt lat="43.107533" lon="-2.938783">
        <ele>684.0</ele>
        <time>2014-04-19T12:49:37Z</time>
      </trkpt>
      <trkpt lat="43.107550" lon="-2.938733">
        <ele>683.0</ele>
        <time>2014-04-19T12:49:38Z</time>
      </trkpt>
      <trkpt lat="43.107583" lon="-2.938717">
        <ele>682.0</ele>
        <time>2014-04-19T12:49:39Z</time>
      </trkpt>
      <trkpt lat="43.107617" lon="-2.938700">
        <ele>681.0</ele>
        <time>2014-04-19T12:49:40Z</time>
      </trkpt>
      <trkpt lat="43.107667" lon="-2.938700">
        <ele>678.0</ele>
        <time>2014-04-19T12:49:41Z</time>
      </trkpt>
      <trkpt lat="43.107717" lon="-2.938700">
        <ele>676.0</ele>
        <time>2014-04-19T12:49:42Z</time>
      </trkpt>
      <trkpt lat="43.107767" lon="-2.938717">
        <ele>674.0</ele>
        <time>2014-04-19T12:49:43Z</time>
      </trkpt>
      <trkpt lat="43.107817" lon="-2.938733">
        <ele>672.0</ele>
        <time>2014-04-19T12:49:44Z</time>
      </trkpt>
      <trkpt lat="43.107867" lon="-2.938733">
        <ele>672.0</ele>
        <time>2014-04-19T12:49:45Z</time>
      </trkpt>
      <trkpt lat="43.107900" lon="-2.938750">
        <ele>671.0</ele>
        <time>2014-04-19T12:49:46Z</time>
      </trkpt>
      <trkpt lat="43.107950" lon="-2.938750">
        <ele>669.0</ele>
        <time>2014-04-19T12:49:47Z</time>
      </trkpt>
      <trkpt lat="43.108000" lon="-2.938767">
        <ele>668.0</ele>
        <time>2014-04-19T12:49:48Z</time>
      </trkpt>
      <trkpt lat="43.108050" lon="-2.938750">
        <ele>667.0</ele>
        <time>2014-04-19T12:49:49Z</time>
      </trkpt>
      <trkpt lat="43.108100" lon="-2.938733">
        <ele>666.0</ele>
        <time>2014-04-19T12:49:50Z</time>
      </trkpt>
      <trkpt lat="43.108150" lon="-2.938717">
        <ele>666.0</ele>
        <time>2014-04-19T12:49:51Z</time>
      </trkpt>
      <trkpt lat="43.108183" lon="-2.938683">
        <ele>666.0</ele>
        <time>2014-04-19T12:49:52Z</time>
      </trkpt>
      <trkpt lat="43.108217" lon="-2.938650">
        <ele>666.0</ele>
        <time>2014-04-19T12:49:53Z</time>
      </trkpt>
      <trkpt lat="43.108250" lon="-2.938633">
        <ele>666.0</ele>
        <time>2014-04-19T12:49:54Z</time>
      </trkpt>
      <trkpt lat="43.108283" lon="-2.938600">
        <ele>665.0</ele>
        <time>2014-04-19T12:49:55Z</time>
      </trkpt>
      <trkpt lat="43.108317" lon="-2.938567">
        <ele>663.0</ele>
        <time>2014-04-19T12:49:56Z</time>
      </trkpt>
      <trkpt lat="43.108350" lon="-2.938533">
        <ele>662.0</ele>
        <time>2014-04-19T12:49:57Z</time>
      </trkpt>
      <trkpt lat="43.108383" lon="-2.938483">
        <ele>661.0</ele>
        <time>2014-04-19T12:49:58Z</time>
      </trkpt>
      <trkpt lat="43.108417" lon="-2.938433">
        <ele>660.0</ele>
        <time>2014-04-19T12:49:59Z</time>
      </trkpt>
      <trkpt lat="43.108450" lon="-2.938383">
        <ele>659.0</ele>
        <time>2014-04-19T12:50:00Z</time>
      </trkpt>
      <trkpt lat="43.108483" lon="-2.938333">
        <ele>658.0</ele>
        <time>2014-04-19T12:50:01Z</time>
      </trkpt>
      <trkpt lat="43.108517" lon="-2.938300">
        <ele>657.0</ele>
        <time>2014-04-19T12:50:02Z</time>
      </trkpt>
      <trkpt lat="43.108550" lon="-2.938250">
        <ele>656.0</ele>
        <time>2014-04-19T12:50:03Z</time>
      </trkpt>
      <trkpt lat="43.108583" lon="-2.938200">
        <ele>654.0</ele>
        <time>2014-04-19T12:50:04Z</time>
      </trkpt>
      <trkpt lat="43.108617" lon="-2.938150">
        <ele>653.0</ele>
        <time>2014-04-19T12:50:05Z</time>
      </trkpt>
      <trkpt lat="43.108650" lon="-2.938100">
        <ele>651.0</ele>
        <time>2014-04-19T12:50:06Z</time>
      </trkpt>
      <trkpt lat="43.108667" lon="-2.938050">
        <ele>649.0</ele>
        <time>2014-04-19T12:50:07Z</time>
      </trkpt>
      <trkpt lat="43.108700" lon="-2.937983">
        <ele>647.0</ele>
        <time>2014-04-19T12:50:08Z</time>
      </trkpt>
      <trkpt lat="43.108733" lon="-2.937933">
        <ele>646.0</ele>
        <time>2014-04-19T12:50:09Z</time>
      </trkpt>
      <trkpt lat="43.108767" lon="-2.937867">
        <ele>644.0</ele>
        <time>2014-04-19T12:50:10Z</time>
      </trkpt>
      <trkpt lat="43.108817" lon="-2.937817">
        <ele>642.0</ele>
        <time>2014-04-19T12:50:11Z</time>
      </trkpt>
      <trkpt lat="43.108867" lon="-2.937750">
        <ele>640.0</ele>
        <time>2014-04-19T12:50:12Z</time>
      </trkpt>
      <trkpt lat="43.108900" lon="-2.937683">
        <ele>640.0</ele>
        <time>2014-04-19T12:50:13Z</time>
      </trkpt>
      <trkpt lat="43.108917" lon="-2.937617">
        <ele>639.0</ele>
        <time>2014-04-19T12:50:14Z</time>
      </trkpt>
      <trkpt lat="43.108950" lon="-2.937550">
        <ele>639.0</ele>
        <time>2014-04-19T12:50:15Z</time>
      </trkpt>
      <trkpt lat="43.108967" lon="-2.937483">
        <ele>638.0</ele>
        <time>2014-04-19T12:50:16Z</time>
      </trkpt>
      <trkpt lat="43.108983" lon="-2.937417">
        <ele>638.0</ele>
        <time>2014-04-19T12:50:17Z</time>
      </trkpt>
      <trkpt lat="43.109017" lon="-2.937350">
        <ele>637.0</ele>
        <time>2014-04-19T12:50:18Z</time>
      </trkpt>
      <trkpt lat="43.109067" lon="-2.937300">
        <ele>636.0</ele>
        <time>2014-04-19T12:50:19Z</time>
      </trkpt>
      <trkpt lat="43.109100" lon="-2.937250">
        <ele>635.0</ele>
        <time>2014-04-19T12:50:20Z</time>
      </trkpt>
      <trkpt lat="43.109150" lon="-2.937200">
        <ele>634.0</ele>
        <time>2014-04-19T12:50:21Z</time>
      </trkpt>
      <trkpt lat="43.109183" lon="-2.937150">
        <ele>634.0</ele>
        <time>2014-04-19T12:50:22Z</time>
      </trkpt>
      <trkpt lat="43.109217" lon="-2.937083">
        <ele>633.0</ele>
        <time>2014-04-19T12:50:23Z</time>
      </trkpt>
      <trkpt lat="43.109233" lon="-2.937000">
        <ele>632.0</ele>
        <time>2014-04-19T12:50:24Z</time>
      </trkpt>
      <trkpt lat="43.109267" lon="-2.936933">
        <ele>631.0</ele>
        <time>2014-04-19T12:50:25Z</time>
      </trkpt>
      <trkpt lat="43.109283" lon="-2.936850">
        <ele>630.0</ele>
        <time>2014-04-19T12:50:26Z</time>
      </trkpt>
      <trkpt lat="43.109300" lon="-2.936750">
        <ele>629.0</ele>
        <time>2014-04-19T12:50:27Z</time>
      </trkpt>
      <trkpt lat="43.109317" lon="-2.936650">
        <ele>628.0</ele>
        <time>2014-04-19T12:50:28Z</time>
      </trkpt>
      <trkpt lat="43.109317" lon="-2.936550">
        <ele>628.0</ele>
        <time>2014-04-19T12:50:29Z</time>
      </trkpt>
      <trkpt lat="43.109317" lon="-2.936450">
        <ele>627.0</ele>
        <time>2014-04-19T12:50:30Z</time>
      </trkpt>
      <trkpt lat="43.109317" lon="-2.936350">
        <ele>626.0</ele>
        <time>2014-04-19T12:50:31Z</time>
      </trkpt>
      <trkpt lat="43.109300" lon="-2.936250">
        <ele>625.0</ele>
        <time>2014-04-19T12:50:32Z</time>
      </trkpt>
      <trkpt lat="43.109267" lon="-2.936133">
        <ele>624.0</ele>
        <time>2014-04-19T12:50:33Z</time>
      </trkpt>
      <trkpt lat="43.109233" lon="-2.936033">
        <ele>622.0</ele>
        <time>2014-04-19T12:50:34Z</time>
      </trkpt>
      <trkpt lat="43.109167" lon="-2.935933">
        <ele>621.0</ele>
        <time>2014-04-19T12:50:35Z</time>
      </trkpt>
      <trkpt lat="43.109100" lon="-2.935833">
        <ele>619.0</ele>
        <time>2014-04-19T12:50:36Z</time>
      </trkpt>
      <trkpt lat="43.109033" lon="-2.935733">
        <ele>618.0</ele>
        <time>2014-04-19T12:50:37Z</time>
      </trkpt>
      <trkpt lat="43.108967" lon="-2.935633">
        <ele>617.0</ele>
        <time>2014-04-19T12:50:38Z</time>
      </trkpt>
      <trkpt lat="43.108900" lon="-2.935533">
        <ele>616.0</ele>
        <time>2014-04-19T12:50:39Z</time>
      </trkpt>
      <trkpt lat="43.108867" lon="-2.935433">
        <ele>616.0</ele>
        <time>2014-04-19T12:50:40Z</time>
      </trkpt>
      <trkpt lat="43.108833" lon="-2.935317">
        <ele>615.0</ele>
        <time>2014-04-19T12:50:41Z</time>
      </trkpt>
      <trkpt lat="43.108783" lon="-2.935200">
        <ele>614.0</ele>
        <time>2014-04-19T12:50:42Z</time>
      </trkpt>
      <trkpt lat="43.108733" lon="-2.935100">
        <ele>612.0</ele>
        <time>2014-04-19T12:50:43Z</time>
      </trkpt>
      <trkpt lat="43.108650" lon="-2.934983">
        <ele>610.0</ele>
        <time>2014-04-19T12:50:44Z</time>
      </trkpt>
      <trkpt lat="43.108583" lon="-2.934883">
        <ele>611.0</ele>
        <time>2014-04-19T12:50:45Z</time>
      </trkpt>
      <trkpt lat="43.108533" lon="-2.934783">
        <ele>613.0</ele>
        <time>2014-04-19T12:50:46Z</time>
      </trkpt>
      <trkpt lat="43.108500" lon="-2.934700">
        <ele>615.0</ele>
        <time>2014-04-19T12:50:47Z</time>
      </trkpt>
      <trkpt lat="43.108467" lon="-2.934600">
        <ele>616.0</ele>
        <time>2014-04-19T12:50:48Z</time>
      </trkpt>
      <trkpt lat="43.108433" lon="-2.934500">
        <ele>615.0</ele>
        <time>2014-04-19T12:50:49Z</time>
      </trkpt>
      <trkpt lat="43.108400" lon="-2.934383">
        <ele>614.0</ele>
        <time>2014-04-19T12:50:50Z</time>
      </trkpt>
      <trkpt lat="43.108333" lon="-2.934283">
        <ele>614.0</ele>
        <time>2014-04-19T12:50:51Z</time>
      </trkpt>
      <trkpt lat="43.108267" lon="-2.934217">
        <ele>614.0</ele>
        <time>2014-04-19T12:50:52Z</time>
      </trkpt>
      <trkpt lat="43.108183" lon="-2.934200">
        <ele>615.0</ele>
        <time>2014-04-19T12:50:53Z</time>
      </trkpt>
      <trkpt lat="43.108100" lon="-2.934183">
        <ele>614.0</ele>
        <time>2014-04-19T12:50:54Z</time>
      </trkpt>
      <trkpt lat="43.108000" lon="-2.934217">
        <ele>613.0</ele>
        <time>2014-04-19T12:50:55Z</time>
      </trkpt>
      <trkpt lat="43.107917" lon="-2.934283">
        <ele>612.0</ele>
        <time>2014-04-19T12:50:56Z</time>
      </trkpt>
      <trkpt lat="43.107850" lon="-2.934367">
        <ele>611.0</ele>
        <time>2014-04-19T12:50:57Z</time>
      </trkpt>
      <trkpt lat="43.107800" lon="-2.934483">
        <ele>610.0</ele>
        <time>2014-04-19T12:50:58Z</time>
      </trkpt>
      <trkpt lat="43.107783" lon="-2.934583">
        <ele>610.0</ele>
        <time>2014-04-19T12:50:59Z</time>
      </trkpt>
      <trkpt lat="43.107800" lon="-2.934683">
        <ele>611.0</ele>
        <time>2014-04-19T12:51:00Z</time>
      </trkpt>
      <trkpt lat="43.107817" lon="-2.934750">
        <ele>613.0</ele>
        <time>2014-04-19T12:51:01Z</time>
      </trkpt>
      <trkpt lat="43.107833" lon="-2.934800">
        <ele>614.0</ele>
        <time>2014-04-19T12:51:02Z</time>
      </trkpt>
      <trkpt lat="43.107867" lon="-2.934850">
        <ele>615.0</ele>
        <time>2014-04-19T12:51:03Z</time>
      </trkpt>
      <trkpt lat="43.107883" lon="-2.934883">
        <ele>616.0</ele>
        <time>2014-04-19T12:51:04Z</time>
      </trkpt>
      <trkpt lat="43.107917" lon="-2.934917">
        <ele>617.0</ele>
        <time>2014-04-19T12:51:05Z</time>
      </trkpt>
      <trkpt lat="43.107950" lon="-2.934950">
        <ele>617.0</ele>
        <time>2014-04-19T12:51:06Z</time>
      </trkpt>
      <trkpt lat="43.107983" lon="-2.935017">
        <ele>617.0</ele>
        <time>2014-04-19T12:51:07Z</time>
      </trkpt>
      <trkpt lat="43.108000" lon="-2.935067">
        <ele>617.0</ele>
        <time>2014-04-19T12:51:08Z</time>
      </trkpt>
      <trkpt lat="43.108017" lon="-2.935117">
        <ele>618.0</ele>
        <time>2014-04-19T12:51:09Z</time>
      </trkpt>
      <trkpt lat="43.108033" lon="-2.935150">
        <ele>618.0</ele>
        <time>2014-04-19T12:51:10Z</time>
      </trkpt>
      <trkpt lat="43.108083" lon="-2.935183">
        <ele>619.0</ele>
        <time>2014-04-19T12:51:11Z</time>
      </trkpt>
      <trkpt lat="43.108117" lon="-2.935183">
        <ele>618.0</ele>
        <time>2014-04-19T12:51:12Z</time>
      </trkpt>
      <trkpt lat="43.108167" lon="-2.935133">
        <ele>618.0</ele>
        <time>2014-04-19T12:51:13Z</time>
      </trkpt>
      <trkpt lat="43.108200" lon="-2.935067">
        <ele>617.0</ele>
        <time>2014-04-19T12:51:14Z</time>
      </trkpt>
      <trkpt lat="43.108217" lon="-2.934983">
        <ele>617.0</ele>
        <time>2014-04-19T12:51:15Z</time>
      </trkpt>
      <trkpt lat="43.108250" lon="-2.934900">
        <ele>616.0</ele>
        <time>2014-04-19T12:51:16Z</time>
      </trkpt>
      <trkpt lat="43.108283" lon="-2.934833">
        <ele>616.0</ele>
        <time>2014-04-19T12:51:17Z</time>
      </trkpt>
      <trkpt lat="43.108333" lon="-2.934800">
        <ele>616.0</ele>
        <time>2014-04-19T12:51:18Z</time>
      </trkpt>
      <trkpt lat="43.108383" lon="-2.934817">
        <ele>616.0</ele>
        <time>2014-04-19T12:51:19Z</time>
      </trkpt>
      <trkpt lat="43.108433" lon="-2.934833">
        <ele>616.0</ele>
        <time>2014-04-19T12:51:20Z</time>
      </trkpt>
      <trkpt lat="43.108483" lon="-2.934850">
        <ele>616.0</ele>
        <time>2014-04-19T12:51:21Z</time>
      </trkpt>
      <trkpt lat="43.108517" lon="-2.934883">
        <ele>616.0</ele>
        <time>2014-04-19T12:51:22Z</time>
      </trkpt>
      <trkpt lat="43.108567" lon="-2.934917">
        <ele>616.0</ele>
        <time>2014-04-19T12:51:23Z</time>
      </trkpt>
      <trkpt lat="43.108600" lon="-2.934983">
        <ele>616.0</ele>
        <time>2014-04-19T12:51:24Z</time>
      </trkpt>
      <trkpt lat="43.108617" lon="-2.935050">
        <ele>615.0</ele>
        <time>2014-04-19T12:51:25Z</time>
      </trkpt>
      <trkpt lat="43.108633" lon="-2.935133">
        <ele>615.0</ele>
        <time>2014-04-19T12:51:26Z</time>
      </trkpt>
      <trkpt lat="43.108650" lon="-2.935217">
        <ele>615.0</ele>
        <time>2014-04-19T12:51:27Z</time>
      </trkpt>
      <trkpt lat="43.108650" lon="-2.935283">
        <ele>615.0</ele>
        <time>2014-04-19T12:51:28Z</time>
      </trkpt>
      <trkpt lat="43.108683" lon="-2.935317">
        <ele>615.0</ele>
        <time>2014-04-19T12:51:29Z</time>
      </trkpt>
      <trkpt lat="43.108717" lon="-2.935367">
        <ele>614.0</ele>
        <time>2014-04-19T12:51:30Z</time>
      </trkpt>
      <trkpt lat="43.108767" lon="-2.935417">
        <ele>613.0</ele>
        <time>2014-04-19T12:51:31Z</time>
      </trkpt>
      <trkpt lat="43.108817" lon="-2.935467">
        <ele>612.0</ele>
        <time>2014-04-19T12:51:32Z</time>
      </trkpt>
      <trkpt lat="43.108867" lon="-2.935517">
        <ele>610.0</ele>
        <time>2014-04-19T12:51:33Z</time>
      </trkpt>
      <trkpt lat="43.108900" lon="-2.935600">
        <ele>607.0</ele>
        <time>2014-04-19T12:51:34Z</time>
      </trkpt>
      <trkpt lat="43.108933" lon="-2.935683">
        <ele>605.0</ele>
        <time>2014-04-19T12:51:35Z</time>
      </trkpt>
      <trkpt lat="43.108967" lon="-2.935750">
        <ele>603.0</ele>
        <time>2014-04-19T12:51:36Z</time>
      </trkpt>
      <trkpt lat="43.109000" lon="-2.935817">
        <ele>601.0</ele>
        <time>2014-04-19T12:51:37Z</time>
      </trkpt>
      <trkpt lat="43.109033" lon="-2.935867">
        <ele>599.0</ele>
        <time>2014-04-19T12:51:38Z</time>
      </trkpt>
      <trkpt lat="43.109100" lon="-2.935900">
        <ele>596.0</ele>
        <time>2014-04-19T12:51:39Z</time>
      </trkpt>
      <trkpt lat="43.109167" lon="-2.935867">
        <ele>593.0</ele>
        <time>2014-04-19T12:51:40Z</time>
      </trkpt>
      <trkpt lat="43.109217" lon="-2.935800">
        <ele>591.0</ele>
        <time>2014-04-19T12:51:41Z</time>
      </trkpt>
      <trkpt lat="43.109250" lon="-2.935717">
        <ele>589.0</ele>
        <time>2014-04-19T12:51:42Z</time>
      </trkpt>
      <trkpt lat="43.109250" lon="-2.935600">
        <ele>588.0</ele>
        <time>2014-04-19T12:51:43Z</time>
      </trkpt>
      <trkpt lat="43.109250" lon="-2.935483">
        <ele>586.0</ele>
        <time>2014-04-19T12:51:44Z</time>
      </trkpt>
      <trkpt lat="43.109233" lon="-2.935367">
        <ele>585.0</ele>
        <time>2014-04-19T12:51:45Z</time>
      </trkpt>
      <trkpt lat="43.109217" lon="-2.935267">
        <ele>586.0</ele>
        <time>2014-04-19T12:51:46Z</time>
      </trkpt>
      <trkpt lat="43.109200" lon="-2.935167">
        <ele>586.0</ele>
        <time>2014-04-19T12:51:47Z</time>
      </trkpt>
      <trkpt lat="43.109167" lon="-2.935067">
        <ele>586.0</ele>
        <time>2014-04-19T12:51:48Z</time>
      </trkpt>
      <trkpt lat="43.109150" lon="-2.934950">
        <ele>585.0</ele>
        <time>2014-04-19T12:51:49Z</time>
      </trkpt>
      <trkpt lat="43.109117" lon="-2.934833">
        <ele>584.0</ele>
        <time>2014-04-19T12:51:50Z</time>
      </trkpt>
      <trkpt lat="43.109083" lon="-2.934717">
        <ele>583.0</ele>
        <time>2014-04-19T12:51:51Z</time>
      </trkpt>
      <trkpt lat="43.109033" lon="-2.934617">
        <ele>582.0</ele>
        <time>2014-04-19T12:51:52Z</time>
      </trkpt>
      <trkpt lat="43.108983" lon="-2.934500">
        <ele>581.0</ele>
        <time>2014-04-19T12:51:53Z</time>
      </trkpt>
      <trkpt lat="43.108933" lon="-2.934383">
        <ele>580.0</ele>
        <time>2014-04-19T12:51:54Z</time>
      </trkpt>
      <trkpt lat="43.108883" lon="-2.934250">
        <ele>579.0</ele>
        <time>2014-04-19T12:51:55Z</time>
      </trkpt>
      <trkpt lat="43.108833" lon="-2.934133">
        <ele>578.0</ele>
        <time>2014-04-19T12:51:56Z</time>
      </trkpt>
      <trkpt lat="43.108783" lon="-2.934017">
        <ele>577.0</ele>
        <time>2014-04-19T12:51:57Z</time>
      </trkpt>
      <trkpt lat="43.108733" lon="-2.933900">
        <ele>576.0</ele>
        <time>2014-04-19T12:51:58Z</time>
      </trkpt>
      <trkpt lat="43.108700" lon="-2.933783">
        <ele>575.0</ele>
        <time>2014-04-19T12:51:59Z</time>
      </trkpt>
      <trkpt lat="43.108667" lon="-2.933683">
        <ele>576.0</ele>
        <time>2014-04-19T12:52:00Z</time>
      </trkpt>
      <trkpt lat="43.108617" lon="-2.933583">
        <ele>575.0</ele>
        <time>2014-04-19T12:52:01Z</time>
      </trkpt>
      <trkpt lat="43.108567" lon="-2.933483">
        <ele>574.0</ele>
        <time>2014-04-19T12:52:02Z</time>
      </trkpt>
      <trkpt lat="43.108517" lon="-2.933367">
        <ele>573.0</ele>
        <time>2014-04-19T12:52:03Z</time>
      </trkpt>
      <trkpt lat="43.108467" lon="-2.933250">
        <ele>571.0</ele>
        <time>2014-04-19T12:52:04Z</time>
      </trkpt>
      <trkpt lat="43.108433" lon="-2.933133">
        <ele>571.0</ele>
        <time>2014-04-19T12:52:05Z</time>
      </trkpt>
      <trkpt lat="43.108383" lon="-2.933017">
        <ele>571.0</ele>
        <time>2014-04-19T12:52:06Z</time>
      </trkpt>
      <trkpt lat="43.108350" lon="-2.932900">
        <ele>572.0</ele>
        <time>2014-04-19T12:52:07Z</time>
      </trkpt>
      <trkpt lat="43.108300" lon="-2.932800">
        <ele>574.0</ele>
        <time>2014-04-19T12:52:08Z</time>
      </trkpt>
      <trkpt lat="43.108283" lon="-2.932667">
        <ele>574.0</ele>
        <time>2014-04-19T12:52:09Z</time>
      </trkpt>
      <trkpt lat="43.108250" lon="-2.932533">
        <ele>575.0</ele>
        <time>2014-04-19T12:52:10Z</time>
      </trkpt>
      <trkpt lat="43.108217" lon="-2.932417">
        <ele>575.0</ele>
        <time>2014-04-19T12:52:11Z</time>
      </trkpt>
      <trkpt lat="43.108167" lon="-2.932317">
        <ele>576.0</ele>
        <time>2014-04-19T12:52:12Z</time>
      </trkpt>
      <trkpt lat="43.108100" lon="-2.932217">
        <ele>577.0</ele>
        <time>2014-04-19T12:52:13Z</time>
      </trkpt>
      <trkpt lat="43.108050" lon="-2.932117">
        <ele>577.0</ele>
        <time>2014-04-19T12:52:14Z</time>
      </trkpt>
      <trkpt lat="43.108000" lon="-2.932017">
        <ele>576.0</ele>
        <time>2014-04-19T12:52:15Z</time>
      </trkpt>
      <trkpt lat="43.107967" lon="-2.931900">
        <ele>576.0</ele>
        <time>2014-04-19T12:52:16Z</time>
      </trkpt>
      <trkpt lat="43.107950" lon="-2.931783">
        <ele>575.0</ele>
        <time>2014-04-19T12:52:17Z</time>
      </trkpt>
      <trkpt lat="43.107933" lon="-2.931683">
        <ele>575.0</ele>
        <time>2014-04-19T12:52:18Z</time>
      </trkpt>
      <trkpt lat="43.107933" lon="-2.931583">
        <ele>575.0</ele>
        <time>2014-04-19T12:52:19Z</time>
      </trkpt>
      <trkpt lat="43.107917" lon="-2.931467">
        <ele>575.0</ele>
        <time>2014-04-19T12:52:20Z</time>
      </trkpt>
      <trkpt lat="43.107883" lon="-2.931367">
        <ele>573.0</ele>
        <time>2014-04-19T12:52:21Z</time>
      </trkpt>
      <trkpt lat="43.107833" lon="-2.931233">
        <ele>571.0</ele>
        <time>2014-04-19T12:52:22Z</time>
      </trkpt>
      <trkpt lat="43.107767" lon="-2.931117">
        <ele>570.0</ele>
        <time>2014-04-19T12:52:23Z</time>
      </trkpt>
      <trkpt lat="43.107700" lon="-2.931017">
        <ele>569.0</ele>
        <time>2014-04-19T12:52:24Z</time>
      </trkpt>
      <trkpt lat="43.107633" lon="-2.930917">
        <ele>567.0</ele>
        <time>2014-04-19T12:52:25Z</time>
      </trkpt>
      <trkpt lat="43.107567" lon="-2.930817">
        <ele>566.0</ele>
        <time>2014-04-19T12:52:26Z</time>
      </trkpt>
      <trkpt lat="43.107500" lon="-2.930700">
        <ele>564.0</ele>
        <time>2014-04-19T12:52:27Z</time>
      </trkpt>
      <trkpt lat="43.107433" lon="-2.930567">
        <ele>561.0</ele>
        <time>2014-04-19T12:52:28Z</time>
      </trkpt>
      <trkpt lat="43.107383" lon="-2.930450">
        <ele>559.0</ele>
        <time>2014-04-19T12:52:29Z</time>
      </trkpt>
      <trkpt lat="43.107317" lon="-2.930317">
        <ele>558.0</ele>
        <time>2014-04-19T12:52:30Z</time>
      </trkpt>
      <trkpt lat="43.107250" lon="-2.930200">
        <ele>557.0</ele>
        <time>2014-04-19T12:52:31Z</time>
      </trkpt>
      <trkpt lat="43.107200" lon="-2.930083">
        <ele>556.0</ele>
        <time>2014-04-19T12:52:32Z</time>
      </trkpt>
      <trkpt lat="43.107133" lon="-2.929983">
        <ele>555.0</ele>
        <time>2014-04-19T12:52:33Z</time>
      </trkpt>
      <trkpt lat="43.107067" lon="-2.929867">
        <ele>553.0</ele>
        <time>2014-04-19T12:52:34Z</time>
      </trkpt>
      <trkpt lat="43.107000" lon="-2.929750">
        <ele>552.0</ele>
        <time>2014-04-19T12:52:35Z</time>
      </trkpt>
      <trkpt lat="43.106933" lon="-2.929650">
        <ele>550.0</ele>
        <time>2014-04-19T12:52:36Z</time>
      </trkpt>
      <trkpt lat="43.106867" lon="-2.929533">
        <ele>549.0</ele>
        <time>2014-04-19T12:52:37Z</time>
      </trkpt>
      <trkpt lat="43.106800" lon="-2.929417">
        <ele>547.0</ele>
        <time>2014-04-19T12:52:38Z</time>
      </trkpt>
      <trkpt lat="43.106750" lon="-2.929300">
        <ele>545.0</ele>
        <time>2014-04-19T12:52:39Z</time>
      </trkpt>
      <trkpt lat="43.106683" lon="-2.929167">
        <ele>543.0</ele>
        <time>2014-04-19T12:52:40Z</time>
      </trkpt>
      <trkpt lat="43.106600" lon="-2.929033">
        <ele>541.0</ele>
        <time>2014-04-19T12:52:41Z</time>
      </trkpt>
      <trkpt lat="43.106533" lon="-2.928900">
        <ele>540.0</ele>
        <time>2014-04-19T12:52:42Z</time>
      </trkpt>
      <trkpt lat="43.106467" lon="-2.928800">
        <ele>541.0</ele>
        <time>2014-04-19T12:52:43Z</time>
      </trkpt>
      <trkpt lat="43.106417" lon="-2.928700">
        <ele>541.0</ele>
        <time>2014-04-19T12:52:44Z</time>
      </trkpt>
      <trkpt lat="43.106383" lon="-2.928567">
        <ele>541.0</ele>
        <time>2014-04-19T12:52:45Z</time>
      </trkpt>
      <trkpt lat="43.106367" lon="-2.928433">
        <ele>540.0</ele>
        <time>2014-04-19T12:52:46Z</time>
      </trkpt>
      <trkpt lat="43.106333" lon="-2.928300">
        <ele>540.0</ele>
        <time>2014-04-19T12:52:47Z</time>
      </trkpt>
      <trkpt lat="43.106317" lon="-2.928167">
        <ele>539.0</ele>
        <time>2014-04-19T12:52:48Z</time>
      </trkpt>
      <trkpt lat="43.106300" lon="-2.928050">
        <ele>540.0</ele>
        <time>2014-04-19T12:52:49Z</time>
      </trkpt>
      <trkpt lat="43.106250" lon="-2.927917">
        <ele>541.0</ele>
        <time>2014-04-19T12:52:50Z</time>
      </trkpt>
      <trkpt lat="43.106167" lon="-2.927817">
        <ele>541.0</ele>
        <time>2014-04-19T12:52:51Z</time>
      </trkpt>
      <trkpt lat="43.106067" lon="-2.927733">
        <ele>540.0</ele>
        <time>2014-04-19T12:52:52Z</time>
      </trkpt>
      <trkpt lat="43.105967" lon="-2.927717">
        <ele>540.0</ele>
        <time>2014-04-19T12:52:53Z</time>
      </trkpt>
      <trkpt lat="43.105883" lon="-2.927750">
        <ele>541.0</ele>
        <time>2014-04-19T12:52:54Z</time>
      </trkpt>
      <trkpt lat="43.105817" lon="-2.927783">
        <ele>542.0</ele>
        <time>2014-04-19T12:52:55Z</time>
      </trkpt>
      <trkpt lat="43.105767" lon="-2.927833">
        <ele>544.0</ele>
        <time>2014-04-19T12:52:56Z</time>
      </trkpt>
      <trkpt lat="43.105717" lon="-2.927883">
        <ele>545.0</ele>
        <time>2014-04-19T12:52:57Z</time>
      </trkpt>
      <trkpt lat="43.105667" lon="-2.927950">
        <ele>545.0</ele>
        <time>2014-04-19T12:52:58Z</time>
      </trkpt>
      <trkpt lat="43.105633" lon="-2.928033">
        <ele>545.0</ele>
        <time>2014-04-19T12:52:59Z</time>
      </trkpt>
      <trkpt lat="43.105600" lon="-2.928133">
        <ele>545.0</ele>
        <time>2014-04-19T12:53:00Z</time>
      </trkpt>
      <trkpt lat="43.105600" lon="-2.928217">
        <ele>545.0</ele>
        <time>2014-04-19T12:53:01Z</time>
      </trkpt>
      <trkpt lat="43.105617" lon="-2.928300">
        <ele>546.0</ele>
        <time>2014-04-19T12:53:02Z</time>
      </trkpt>
      <trkpt lat="43.105633" lon="-2.928350">
        <ele>547.0</ele>
        <time>2014-04-19T12:53:03Z</time>
      </trkpt>
      <trkpt lat="43.105667" lon="-2.928400">
        <ele>548.0</ele>
        <time>2014-04-19T12:53:04Z</time>
      </trkpt>
      <trkpt lat="43.105700" lon="-2.928450">
        <ele>549.0</ele>
        <time>2014-04-19T12:53:05Z</time>
      </trkpt>
      <trkpt lat="43.105750" lon="-2.928467">
        <ele>549.0</ele>
        <time>2014-04-19T12:53:06Z</time>
      </trkpt>
      <trkpt lat="43.105800" lon="-2.928483">
        <ele>550.0</ele>
        <time>2014-04-19T12:53:07Z</time>
      </trkpt>
      <trkpt lat="43.105850" lon="-2.928433">
        <ele>550.0</ele>
        <time>2014-04-19T12:53:08Z</time>
      </trkpt>
      <trkpt lat="43.105883" lon="-2.928367">
        <ele>550.0</ele>
        <time>2014-04-19T12:53:09Z</time>
      </trkpt>
      <trkpt lat="43.105917" lon="-2.928283">
        <ele>550.0</ele>
        <time>2014-04-19T12:53:10Z</time>
      </trkpt>
      <trkpt lat="43.105950" lon="-2.928200">
        <ele>550.0</ele>
        <time>2014-04-19T12:53:11Z</time>
      </trkpt>
      <trkpt lat="43.105967" lon="-2.928100">
        <ele>549.0</ele>
        <time>2014-04-19T12:53:12Z</time>
      </trkpt>
      <trkpt lat="43.105983" lon="-2.927983">
        <ele>548.0</ele>
        <time>2014-04-19T12:53:13Z</time>
      </trkpt>
      <trkpt lat="43.105967" lon="-2.927867">
        <ele>547.0</ele>
        <time>2014-04-19T12:53:14Z</time>
      </trkpt>
      <trkpt lat="43.105933" lon="-2.927717">
        <ele>545.0</ele>
        <time>2014-04-19T12:53:15Z</time>
      </trkpt>
      <trkpt lat="43.105867" lon="-2.927600">
        <ele>544.0</ele>
        <time>2014-04-19T12:53:16Z</time>
      </trkpt>
      <trkpt lat="43.105783" lon="-2.927483">
        <ele>543.0</ele>
        <time>2014-04-19T12:53:17Z</time>
      </trkpt>
      <trkpt lat="43.105700" lon="-2.927417">
        <ele>543.0</ele>
        <time>2014-04-19T12:53:18Z</time>
      </trkpt>
      <trkpt lat="43.105600" lon="-2.927333">
        <ele>543.0</ele>
        <time>2014-04-19T12:53:19Z</time>
      </trkpt>
      <trkpt lat="43.105500" lon="-2.927267">
        <ele>543.0</ele>
        <time>2014-04-19T12:53:20Z</time>
      </trkpt>
      <trkpt lat="43.105383" lon="-2.927183">
        <ele>543.0</ele>
        <time>2014-04-19T12:53:21Z</time>
      </trkpt>
      <trkpt lat="43.105300" lon="-2.927100">
        <ele>544.0</ele>
        <time>2014-04-19T12:53:22Z</time>
      </trkpt>
      <trkpt lat="43.105217" lon="-2.927000">
        <ele>544.0</ele>
        <time>2014-04-19T12:53:23Z</time>
      </trkpt>
      <trkpt lat="43.105150" lon="-2.926900">
        <ele>544.0</ele>
        <time>2014-04-19T12:53:24Z</time>
      </trkpt>
      <trkpt lat="43.105067" lon="-2.926783">
        <ele>544.0</ele>
        <time>2014-04-19T12:53:25Z</time>
      </trkpt>
      <trkpt lat="43.105000" lon="-2.926667">
        <ele>544.0</ele>
        <time>2014-04-19T12:53:26Z</time>
      </trkpt>
      <trkpt lat="43.104950" lon="-2.926550">
        <ele>545.0</ele>
        <time>2014-04-19T12:53:27Z</time>
      </trkpt>
      <trkpt lat="43.104900" lon="-2.926417">
        <ele>546.0</ele>
        <time>2014-04-19T12:53:28Z</time>
      </trkpt>
      <trkpt lat="43.104850" lon="-2.926300">
        <ele>547.0</ele>
        <time>2014-04-19T12:53:29Z</time>
      </trkpt>
      <trkpt lat="43.104783" lon="-2.926200">
        <ele>547.0</ele>
        <time>2014-04-19T12:53:30Z</time>
      </trkpt>
      <trkpt lat="43.104700" lon="-2.926133">
        <ele>547.0</ele>
        <time>2014-04-19T12:53:31Z</time>
      </trkpt>
      <trkpt lat="43.104583" lon="-2.926100">
        <ele>547.0</ele>
        <time>2014-04-19T12:53:32Z</time>
      </trkpt>
      <trkpt lat="43.104483" lon="-2.926100">
        <ele>547.0</ele>
        <time>2014-04-19T12:53:33Z</time>
      </trkpt>
      <trkpt lat="43.104400" lon="-2.926150">
        <ele>548.0</ele>
        <time>2014-04-19T12:53:34Z</time>
      </trkpt>
      <trkpt lat="43.104333" lon="-2.926217">
        <ele>548.0</ele>
        <time>2014-04-19T12:53:35Z</time>
      </trkpt>
      <trkpt lat="43.104283" lon="-2.926283">
        <ele>550.0</ele>
        <time>2014-04-19T12:53:36Z</time>
      </trkpt>
      <trkpt lat="43.104250" lon="-2.926383">
        <ele>552.0</ele>
        <time>2014-04-19T12:53:37Z</time>
      </trkpt>
      <trkpt lat="43.104250" lon="-2.926467">
        <ele>554.0</ele>
        <time>2014-04-19T12:53:38Z</time>
      </trkpt>
      <trkpt lat="43.104267" lon="-2.926533">
        <ele>556.0</ele>
        <time>2014-04-19T12:53:39Z</time>
      </trkpt>
      <trkpt lat="43.104317" lon="-2.926550">
        <ele>558.0</ele>
        <time>2014-04-19T12:53:40Z</time>
      </trkpt>
      <trkpt lat="43.104367" lon="-2.926533">
        <ele>559.0</ele>
        <time>2014-04-19T12:53:41Z</time>
      </trkpt>
      <trkpt lat="43.104417" lon="-2.926450">
        <ele>560.0</ele>
        <time>2014-04-19T12:53:42Z</time>
      </trkpt>
      <trkpt lat="43.104450" lon="-2.926350">
        <ele>561.0</ele>
        <time>2014-04-19T12:53:43Z</time>
      </trkpt>
      <trkpt lat="43.104433" lon="-2.926233">
        <ele>563.0</ele>
        <time>2014-04-19T12:53:44Z</time>
      </trkpt>
      <trkpt lat="43.104383" lon="-2.926117">
        <ele>565.0</ele>
        <time>2014-04-19T12:53:45Z</time>
      </trkpt>
      <trkpt lat="43.104333" lon="-2.926033">
        <ele>566.0</ele>
        <time>2014-04-19T12:53:46Z</time>
      </trkpt>
      <trkpt lat="43.104267" lon="-2.925933">
        <ele>565.0</ele>
        <time>2014-04-19T12:53:47Z</time>
      </trkpt>
      <trkpt lat="43.104167" lon="-2.925867">
        <ele>565.0</ele>
        <time>2014-04-19T12:53:48Z</time>
      </trkpt>
      <trkpt lat="43.104067" lon="-2.925833">
        <ele>565.0</ele>
        <time>2014-04-19T12:53:49Z</time>
      </trkpt>
      <trkpt lat="43.103967" lon="-2.925850">
        <ele>566.0</ele>
        <time>2014-04-19T12:53:50Z</time>
      </trkpt>
      <trkpt lat="43.103883" lon="-2.925917">
        <ele>566.0</ele>
        <time>2014-04-19T12:53:51Z</time>
      </trkpt>
      <trkpt lat="43.103800" lon="-2.926000">
        <ele>568.0</ele>
        <time>2014-04-19T12:53:52Z</time>
      </trkpt>
      <trkpt lat="43.103750" lon="-2.926083">
        <ele>571.0</ele>
        <time>2014-04-19T12:53:53Z</time>
      </trkpt>
      <trkpt lat="43.103733" lon="-2.926167">
        <ele>574.0</ele>
        <time>2014-04-19T12:53:54Z</time>
      </trkpt>
      <trkpt lat="43.103733" lon="-2.926233">
        <ele>576.0</ele>
        <time>2014-04-19T12:53:55Z</time>
      </trkpt>
      <trkpt lat="43.103750" lon="-2.926300">
        <ele>578.0</ele>
        <time>2014-04-19T12:53:56Z</time>
      </trkpt>
      <trkpt lat="43.103783" lon="-2.926333">
        <ele>580.0</ele>
        <time>2014-04-19T12:53:57Z</time>
      </trkpt>
      <trkpt lat="43.103833" lon="-2.926350">
        <ele>581.0</ele>
        <time>2014-04-19T12:53:58Z</time>
      </trkpt>
      <trkpt lat="43.103883" lon="-2.926333">
        <ele>582.0</ele>
        <time>2014-04-19T12:53:59Z</time>
      </trkpt>
      <trkpt lat="43.103933" lon="-2.926250">
        <ele>584.0</ele>
        <time>2014-04-19T12:54:00Z</time>
      </trkpt>
      <trkpt lat="43.103950" lon="-2.926133">
        <ele>585.0</ele>
        <time>2014-04-19T12:54:01Z</time>
      </trkpt>
      <trkpt lat="43.103933" lon="-2.926017">
        <ele>586.0</ele>
        <time>2014-04-19T12:54:02Z</time>
      </trkpt>
      <trkpt lat="43.103867" lon="-2.925900">
        <ele>587.0</ele>
        <time>2014-04-19T12:54:03Z</time>
      </trkpt>
      <trkpt lat="43.103783" lon="-2.925800">
        <ele>588.0</ele>
        <time>2014-04-19T12:54:04Z</time>
      </trkpt>
      <trkpt lat="43.103700" lon="-2.925750">
        <ele>589.0</ele>
        <time>2014-04-19T12:54:05Z</time>
      </trkpt>
      <trkpt lat="43.103617" lon="-2.925733">
        <ele>591.0</ele>
        <time>2014-04-19T12:54:06Z</time>
      </trkpt>
      <trkpt lat="43.103517" lon="-2.925733">
        <ele>592.0</ele>
        <time>2014-04-19T12:54:07Z</time>
      </trkpt>
      <trkpt lat="43.103433" lon="-2.925767">
        <ele>593.0</ele>
        <time>2014-04-19T12:54:08Z</time>
      </trkpt>
      <trkpt lat="43.103350" lon="-2.925817">
        <ele>594.0</ele>
        <time>2014-04-19T12:54:09Z</time>
      </trkpt>
      <trkpt lat="43.103267" lon="-2.925900">
        <ele>595.0</ele>
        <time>2014-04-19T12:54:10Z</time>
      </trkpt>
      <trkpt lat="43.103200" lon="-2.925967">
        <ele>597.0</ele>
        <time>2014-04-19T12:54:11Z</time>
      </trkpt>
      <trkpt lat="43.103133" lon="-2.926033">
        <ele>600.0</ele>
        <time>2014-04-19T12:54:12Z</time>
      </trkpt>
      <trkpt lat="43.103100" lon="-2.926117">
        <ele>601.0</ele>
        <time>2014-04-19T12:54:13Z</time>
      </trkpt>
      <trkpt lat="43.103083" lon="-2.926183">
        <ele>602.0</ele>
        <time>2014-04-19T12:54:14Z</time>
      </trkpt>
      <trkpt lat="43.103083" lon="-2.926267">
        <ele>603.0</ele>
        <time>2014-04-19T12:54:15Z</time>
      </trkpt>
      <trkpt lat="43.103100" lon="-2.926333">
        <ele>603.0</ele>
        <time>2014-04-19T12:54:16Z</time>
      </trkpt>
      <trkpt lat="43.103133" lon="-2.926367">
        <ele>604.0</ele>
        <time>2014-04-19T12:54:17Z</time>
      </trkpt>
      <trkpt lat="43.103167" lon="-2.926383">
        <ele>605.0</ele>
        <time>2014-04-19T12:54:18Z</time>
      </trkpt>
      <trkpt lat="43.103217" lon="-2.926383">
        <ele>606.0</ele>
        <time>2014-04-19T12:54:19Z</time>
      </trkpt>
      <trkpt lat="43.103267" lon="-2.926367">
        <ele>606.0</ele>
        <time>2014-04-19T12:54:20Z</time>
      </trkpt>
      <trkpt lat="43.103317" lon="-2.926317">
        <ele>607.0</ele>
        <time>2014-04-19T12:54:21Z</time>
      </trkpt>
      <trkpt lat="43.103350" lon="-2.926267">
        <ele>608.0</ele>
        <time>2014-04-19T12:54:22Z</time>
      </trkpt>
      <trkpt lat="43.103367" lon="-2.926167">
        <ele>610.0</ele>
        <time>2014-04-19T12:54:23Z</time>
      </trkpt>
      <trkpt lat="43.103333" lon="-2.926050">
        <ele>610.0</ele>
        <time>2014-04-19T12:54:24Z</time>
      </trkpt>
      <trkpt lat="43.103283" lon="-2.925917">
        <ele>609.0</ele>
        <time>2014-04-19T12:54:25Z</time>
      </trkpt>
      <trkpt lat="43.103200" lon="-2.925800">
        <ele>610.0</ele>
        <time>2014-04-19T12:54:26Z</time>
      </trkpt>
      <trkpt lat="43.103117" lon="-2.925733">
        <ele>613.0</ele>
        <time>2014-04-19T12:54:27Z</time>
      </trkpt>
      <trkpt lat="43.103033" lon="-2.925717">
        <ele>616.0</ele>
        <time>2014-04-19T12:54:28Z</time>
      </trkpt>
      <trkpt lat="43.102967" lon="-2.925700">
        <ele>618.0</ele>
        <time>2014-04-19T12:54:29Z</time>
      </trkpt>
      <trkpt lat="43.102867" lon="-2.925667">
        <ele>619.0</ele>
        <time>2014-04-19T12:54:30Z</time>
      </trkpt>
      <trkpt lat="43.102767" lon="-2.925650">
        <ele>620.0</ele>
        <time>2014-04-19T12:54:31Z</time>
      </trkpt>
      <trkpt lat="43.102667" lon="-2.925667">
        <ele>620.0</ele>
        <time>2014-04-19T12:54:32Z</time>
      </trkpt>
      <trkpt lat="43.102600" lon="-2.925717">
        <ele>621.0</ele>
        <time>2014-04-19T12:54:33Z</time>
      </trkpt>
      <trkpt lat="43.102550" lon="-2.925783">
        <ele>621.0</ele>
        <time>2014-04-19T12:54:34Z</time>
      </trkpt>
      <trkpt lat="43.102517" lon="-2.925867">
        <ele>621.0</ele>
        <time>2014-04-19T12:54:35Z</time>
      </trkpt>
      <trkpt lat="43.102483" lon="-2.925950">
        <ele>621.0</ele>
        <time>2014-04-19T12:54:36Z</time>
      </trkpt>
      <trkpt lat="43.102467" lon="-2.926033">
        <ele>621.0</ele>
        <time>2014-04-19T12:54:37Z</time>
      </trkpt>
      <trkpt lat="43.102450" lon="-2.926117">
        <ele>622.0</ele>
        <time>2014-04-19T12:54:38Z</time>
      </trkpt>
      <trkpt lat="43.102467" lon="-2.926183">
        <ele>623.0</ele>
        <time>2014-04-19T12:54:39Z</time>
      </trkpt>
      <trkpt lat="43.102500" lon="-2.926217">
        <ele>623.0</ele>
        <time>2014-04-19T12:54:40Z</time>
      </trkpt>
      <trkpt lat="43.102533" lon="-2.926217">
        <ele>623.0</ele>
        <time>2014-04-19T12:54:41Z</time>
      </trkpt>
      <trkpt lat="43.102600" lon="-2.926217">
        <ele>622.0</ele>
        <time>2014-04-19T12:54:42Z</time>
      </trkpt>
      <trkpt lat="43.102683" lon="-2.926183">
        <ele>620.0</ele>
        <time>2014-04-19T12:54:43Z</time>
      </trkpt>
      <trkpt lat="43.102750" lon="-2.926117">
        <ele>619.0</ele>
        <time>2014-04-19T12:54:44Z</time>
      </trkpt>
      <trkpt lat="43.102817" lon="-2.926017">
        <ele>620.0</ele>
        <time>2014-04-19T12:54:45Z</time>
      </trkpt>
      <trkpt lat="43.102833" lon="-2.925917">
        <ele>622.0</ele>
        <time>2014-04-19T12:54:46Z</time>
      </trkpt>
      <trkpt lat="43.102817" lon="-2.925800">
        <ele>623.0</ele>
        <time>2014-04-19T12:54:47Z</time>
      </trkpt>
      <trkpt lat="43.102800" lon="-2.925683">
        <ele>624.0</ele>
        <time>2014-04-19T12:54:48Z</time>
      </trkpt>
      <trkpt lat="43.102750" lon="-2.925567">
        <ele>625.0</ele>
        <time>2014-04-19T12:54:49Z</time>
      </trkpt>
      <trkpt lat="43.102683" lon="-2.925467">
        <ele>626.0</ele>
        <time>2014-04-19T12:54:50Z</time>
      </trkpt>
      <trkpt lat="43.102617" lon="-2.925383">
        <ele>627.0</ele>
        <time>2014-04-19T12:54:51Z</time>
      </trkpt>
      <trkpt lat="43.102533" lon="-2.925333">
        <ele>628.0</ele>
        <time>2014-04-19T12:54:52Z</time>
      </trkpt>
      <trkpt lat="43.102433" lon="-2.925317">
        <ele>629.0</ele>
        <time>2014-04-19T12:54:53Z</time>
      </trkpt>
      <trkpt lat="43.102350" lon="-2.925317">
        <ele>630.0</ele>
        <time>2014-04-19T12:54:54Z</time>
      </trkpt>
      <trkpt lat="43.102267" lon="-2.925333">
        <ele>630.0</ele>
        <time>2014-04-19T12:54:55Z</time>
      </trkpt>
      <trkpt lat="43.102200" lon="-2.925383">
        <ele>630.0</ele>
        <time>2014-04-19T12:54:56Z</time>
      </trkpt>
      <trkpt lat="43.102133" lon="-2.925450">
        <ele>630.0</ele>
        <time>2014-04-19T12:54:57Z</time>
      </trkpt>
      <trkpt lat="43.102067" lon="-2.925533">
        <ele>630.0</ele>
        <time>2014-04-19T12:54:58Z</time>
      </trkpt>
      <trkpt lat="43.102017" lon="-2.925633">
        <ele>630.0</ele>
        <time>2014-04-19T12:54:59Z</time>
      </trkpt>
      <trkpt lat="43.101967" lon="-2.925733">
        <ele>630.0</ele>
        <time>2014-04-19T12:55:00Z</time>
      </trkpt>
      <trkpt lat="43.101950" lon="-2.925833">
        <ele>630.0</ele>
        <time>2014-04-19T12:55:01Z</time>
      </trkpt>
      <trkpt lat="43.101967" lon="-2.925917">
        <ele>630.0</ele>
        <time>2014-04-19T12:55:02Z</time>
      </trkpt>
      <trkpt lat="43.102000" lon="-2.925983">
        <ele>631.0</ele>
        <time>2014-04-19T12:55:03Z</time>
      </trkpt>
      <trkpt lat="43.102033" lon="-2.926017">
        <ele>631.0</ele>
        <time>2014-04-19T12:55:04Z</time>
      </trkpt>
      <trkpt lat="43.102083" lon="-2.926050">
        <ele>631.0</ele>
        <time>2014-04-19T12:55:05Z</time>
      </trkpt>
      <trkpt lat="43.102133" lon="-2.926067">
        <ele>632.0</ele>
        <time>2014-04-19T12:55:06Z</time>
      </trkpt>
      <trkpt lat="43.102183" lon="-2.926067">
        <ele>634.0</ele>
        <time>2014-04-19T12:55:07Z</time>
      </trkpt>
      <trkpt lat="43.102233" lon="-2.926017">
        <ele>634.0</ele>
        <time>2014-04-19T12:55:08Z</time>
      </trkpt>
      <trkpt lat="43.102283" lon="-2.925950">
        <ele>634.0</ele>
        <time>2014-04-19T12:55:09Z</time>
      </trkpt>
      <trkpt lat="43.102317" lon="-2.925850">
        <ele>634.0</ele>
        <time>2014-04-19T12:55:10Z</time>
      </trkpt>
      <trkpt lat="43.102333" lon="-2.925733">
        <ele>634.0</ele>
        <time>2014-04-19T12:55:11Z</time>
      </trkpt>
      <trkpt lat="43.102317" lon="-2.925617">
        <ele>635.0</ele>
        <time>2014-04-19T12:55:12Z</time>
      </trkpt>
      <trkpt lat="43.102283" lon="-2.925500">
        <ele>637.0</ele>
        <time>2014-04-19T12:55:13Z</time>
      </trkpt>
      <trkpt lat="43.102217" lon="-2.925417">
        <ele>639.0</ele>
        <time>2014-04-19T12:55:14Z</time>
      </trkpt>
      <trkpt lat="43.102167" lon="-2.925333">
        <ele>640.0</ele>
        <time>2014-04-19T12:55:15Z</time>
      </trkpt>
      <trkpt lat="43.102083" lon="-2.925283">
        <ele>641.0</ele>
        <time>2014-04-19T12:55:16Z</time>
      </trkpt>
      <trkpt lat="43.101983" lon="-2.925250">
        <ele>641.0</ele>
        <time>2014-04-19T12:55:17Z</time>
      </trkpt>
      <trkpt lat="43.101900" lon="-2.925250">
        <ele>641.0</ele>
        <time>2014-04-19T12:55:18Z</time>
      </trkpt>
      <trkpt lat="43.101800" lon="-2.925267">
        <ele>641.0</ele>
        <time>2014-04-19T12:55:19Z</time>
      </trkpt>
      <trkpt lat="43.101717" lon="-2.925317">
        <ele>641.0</ele>
        <time>2014-04-19T12:55:20Z</time>
      </trkpt>
      <trkpt lat="43.101633" lon="-2.925400">
        <ele>641.0</ele>
        <time>2014-04-19T12:55:21Z</time>
      </trkpt>
      <trkpt lat="43.101567" lon="-2.925483">
        <ele>641.0</ele>
        <time>2014-04-19T12:55:22Z</time>
      </trkpt>
      <trkpt lat="43.101517" lon="-2.925567">
        <ele>642.0</ele>
        <time>2014-04-19T12:55:23Z</time>
      </trkpt>
      <trkpt lat="43.101467" lon="-2.925667">
        <ele>643.0</ele>
        <time>2014-04-19T12:55:24Z</time>
      </trkpt>
      <trkpt lat="43.101450" lon="-2.925767">
        <ele>645.0</ele>
        <time>2014-04-19T12:55:25Z</time>
      </trkpt>
      <trkpt lat="43.101450" lon="-2.925867">
        <ele>645.0</ele>
        <time>2014-04-19T12:55:26Z</time>
      </trkpt>
      <trkpt lat="43.101483" lon="-2.925983">
        <ele>645.0</ele>
        <time>2014-04-19T12:55:27Z</time>
      </trkpt>
      <trkpt lat="43.101533" lon="-2.926050">
        <ele>646.0</ele>
        <time>2014-04-19T12:55:28Z</time>
      </trkpt>
      <trkpt lat="43.101583" lon="-2.926067">
        <ele>647.0</ele>
        <time>2014-04-19T12:55:29Z</time>
      </trkpt>
      <trkpt lat="43.101633" lon="-2.926050">
        <ele>649.0</ele>
        <time>2014-04-19T12:55:30Z</time>
      </trkpt>
      <trkpt lat="43.101667" lon="-2.925983">
        <ele>651.0</ele>
        <time>2014-04-19T12:55:31Z</time>
      </trkpt>
      <trkpt lat="43.101683" lon="-2.925933">
        <ele>652.0</ele>
        <time>2014-04-19T12:55:32Z</time>
      </trkpt>
      <trkpt lat="43.101700" lon="-2.925867">
        <ele>652.0</ele>
        <time>2014-04-19T12:55:33Z</time>
      </trkpt>
      <trkpt lat="43.101700" lon="-2.925783">
        <ele>652.0</ele>
        <time>2014-04-19T12:55:34Z</time>
      </trkpt>
      <trkpt lat="43.101683" lon="-2.925667">
        <ele>653.0</ele>
        <time>2014-04-19T12:55:35Z</time>
      </trkpt>
      <trkpt lat="43.101633" lon="-2.925550">
        <ele>653.0</ele>
        <time>2014-04-19T12:55:36Z</time>
      </trkpt>
      <trkpt lat="43.101550" lon="-2.925450">
        <ele>653.0</ele>
        <time>2014-04-19T12:55:37Z</time>
      </trkpt>
      <trkpt lat="43.101467" lon="-2.925400">
        <ele>654.0</ele>
        <time>2014-04-19T12:55:38Z</time>
      </trkpt>
      <trkpt lat="43.101367" lon="-2.925400">
        <ele>656.0</ele>
        <time>2014-04-19T12:55:39Z</time>
      </trkpt>
      <trkpt lat="43.101300" lon="-2.925417">
        <ele>657.0</ele>
        <time>2014-04-19T12:55:40Z</time>
      </trkpt>
      <trkpt lat="43.101217" lon="-2.925467">
        <ele>658.0</ele>
        <time>2014-04-19T12:55:41Z</time>
      </trkpt>
      <trkpt lat="43.101133" lon="-2.925517">
        <ele>658.0</ele>
        <time>2014-04-19T12:55:42Z</time>
      </trkpt>
      <trkpt lat="43.101050" lon="-2.925583">
        <ele>658.0</ele>
        <time>2014-04-19T12:55:43Z</time>
      </trkpt>
      <trkpt lat="43.100983" lon="-2.925700">
        <ele>657.0</ele>
        <time>2014-04-19T12:55:44Z</time>
      </trkpt>
      <trkpt lat="43.100950" lon="-2.925833">
        <ele>657.0</ele>
        <time>2014-04-19T12:55:45Z</time>
      </trkpt>
      <trkpt lat="43.100933" lon="-2.925967">
        <ele>658.0</ele>
        <time>2014-04-19T12:55:46Z</time>
      </trkpt>
      <trkpt lat="43.100967" lon="-2.926067">
        <ele>659.0</ele>
        <time>2014-04-19T12:55:47Z</time>
      </trkpt>
      <trkpt lat="43.101000" lon="-2.926133">
        <ele>660.0</ele>
        <time>2014-04-19T12:55:48Z</time>
      </trkpt>
      <trkpt lat="43.101050" lon="-2.926167">
        <ele>660.0</ele>
        <time>2014-04-19T12:55:49Z</time>
      </trkpt>
      <trkpt lat="43.101117" lon="-2.926183">
        <ele>661.0</ele>
        <time>2014-04-19T12:55:50Z</time>
      </trkpt>
      <trkpt lat="43.101167" lon="-2.926167">
        <ele>662.0</ele>
        <time>2014-04-19T12:55:51Z</time>
      </trkpt>
      <trkpt lat="43.101200" lon="-2.926100">
        <ele>662.0</ele>
        <time>2014-04-19T12:55:52Z</time>
      </trkpt>
      <trkpt lat="43.101217" lon="-2.926017">
        <ele>662.0</ele>
        <time>2014-04-19T12:55:53Z</time>
      </trkpt>
      <trkpt lat="43.101217" lon="-2.925900">
        <ele>662.0</ele>
        <time>2014-04-19T12:55:54Z</time>
      </trkpt>
      <trkpt lat="43.101200" lon="-2.925783">
        <ele>663.0</ele>
        <time>2014-04-19T12:55:55Z</time>
      </trkpt>
      <trkpt lat="43.101150" lon="-2.925683">
        <ele>665.0</ele>
        <time>2014-04-19T12:55:56Z</time>
      </trkpt>
      <trkpt lat="43.101100" lon="-2.925583">
        <ele>666.0</ele>
        <time>2014-04-19T12:55:57Z</time>
      </trkpt>
      <trkpt lat="43.101017" lon="-2.925517">
        <ele>667.0</ele>
        <time>2014-04-19T12:55:58Z</time>
      </trkpt>
      <trkpt lat="43.100917" lon="-2.925450">
        <ele>667.0</ele>
        <time>2014-04-19T12:55:59Z</time>
      </trkpt>
      <trkpt lat="43.100800" lon="-2.925450">
        <ele>668.0</ele>
        <time>2014-04-19T12:56:00Z</time>
      </trkpt>
      <trkpt lat="43.100700" lon="-2.925500">
        <ele>668.0</ele>
        <time>2014-04-19T12:56:01Z</time>
      </trkpt>
      <trkpt lat="43.100617" lon="-2.925583">
        <ele>668.0</ele>
        <time>2014-04-19T12:56:02Z</time>
      </trkpt>
      <trkpt lat="43.100550" lon="-2.925683">
        <ele>671.0</ele>
        <time>2014-04-19T12:56:03Z</time>
      </trkpt>
      <trkpt lat="43.100517" lon="-2.925783">
        <ele>673.0</ele>
        <time>2014-04-19T12:56:04Z</time>
      </trkpt>
      <trkpt lat="43.100500" lon="-2.925883">
        <ele>675.0</ele>
        <time>2014-04-19T12:56:05Z</time>
      </trkpt>
      <trkpt lat="43.100500" lon="-2.925983">
        <ele>676.0</ele>
        <time>2014-04-19T12:56:06Z</time>
      </trkpt>
      <trkpt lat="43.100517" lon="-2.926100">
        <ele>677.0</ele>
        <time>2014-04-19T12:56:07Z</time>
      </trkpt>
      <trkpt lat="43.100550" lon="-2.926183">
        <ele>678.0</ele>
        <time>2014-04-19T12:56:08Z</time>
      </trkpt>
      <trkpt lat="43.100617" lon="-2.926250">
        <ele>679.0</ele>
        <time>2014-04-19T12:56:09Z</time>
      </trkpt>
      <trkpt lat="43.100683" lon="-2.926267">
        <ele>681.0</ele>
        <time>2014-04-19T12:56:10Z</time>
      </trkpt>
      <trkpt lat="43.100733" lon="-2.926250">
        <ele>684.0</ele>
        <time>2014-04-19T12:56:11Z</time>
      </trkpt>
      <trkpt lat="43.100800" lon="-2.926233">
        <ele>686.0</ele>
        <time>2014-04-19T12:56:12Z</time>
      </trkpt>
      <trkpt lat="43.100833" lon="-2.926167">
        <ele>687.0</ele>
        <time>2014-04-19T12:56:13Z</time>
      </trkpt>
      <trkpt lat="43.100867" lon="-2.926100">
        <ele>687.0</ele>
        <time>2014-04-19T12:56:14Z</time>
      </trkpt>
      <trkpt lat="43.100917" lon="-2.926000">
        <ele>687.0</ele>
        <time>2014-04-19T12:56:15Z</time>
      </trkpt>
      <trkpt lat="43.100933" lon="-2.925900">
        <ele>687.0</ele>
        <time>2014-04-19T12:56:16Z</time>
      </trkpt>
      <trkpt lat="43.100933" lon="-2.925783">
        <ele>689.0</ele>
        <time>2014-04-19T12:56:17Z</time>
      </trkpt>
      <trkpt lat="43.100900" lon="-2.925683">
        <ele>690.0</ele>
        <time>2014-04-19T12:56:18Z</time>
      </trkpt>
      <trkpt lat="43.100833" lon="-2.925583">
        <ele>691.0</ele>
        <time>2014-04-19T12:56:19Z</time>
      </trkpt>
      <trkpt lat="43.100767" lon="-2.925483">
        <ele>692.0</ele>
        <time>2014-04-19T12:56:20Z</time>
      </trkpt>
      <trkpt lat="43.100667" lon="-2.925433">
        <ele>693.0</ele>
        <time>2014-04-19T12:56:21Z</time>
      </trkpt>
      <trkpt lat="43.100550" lon="-2.925433">
        <ele>694.0</ele>
        <time>2014-04-19T12:56:22Z</time>
      </trkpt>
      <trkpt lat="43.100450" lon="-2.925467">
        <ele>694.0</ele>
        <time>2014-04-19T12:56:23Z</time>
      </trkpt>
      <trkpt lat="43.100367" lon="-2.925550">
        <ele>695.0</ele>
        <time>2014-04-19T12:56:24Z</time>
      </trkpt>
      <trkpt lat="43.100317" lon="-2.925650">
        <ele>696.0</ele>
        <time>2014-04-19T12:56:25Z</time>
      </trkpt>
      <trkpt lat="43.100300" lon="-2.925750">
        <ele>697.0</ele>
        <time>2014-04-19T12:56:26Z</time>
      </trkpt>
      <trkpt lat="43.100283" lon="-2.925867">
        <ele>697.0</ele>
        <time>2014-04-19T12:56:27Z</time>
      </trkpt>
      <trkpt lat="43.100283" lon="-2.925983">
        <ele>699.0</ele>
        <time>2014-04-19T12:56:28Z</time>
      </trkpt>
      <trkpt lat="43.100283" lon="-2.926067">
        <ele>704.0</ele>
        <time>2014-04-19T12:56:29Z</time>
      </trkpt>
      <trkpt lat="43.100300" lon="-2.926150">
        <ele>707.0</ele>
        <time>2014-04-19T12:56:30Z</time>
      </trkpt>
      <trkpt lat="43.100350" lon="-2.926200">
        <ele>710.0</ele>
        <time>2014-04-19T12:56:31Z</time>
      </trkpt>
      <trkpt lat="43.100417" lon="-2.926233">
        <ele>710.0</ele>
        <time>2014-04-19T12:56:32Z</time>
      </trkpt>
      <trkpt lat="43.100483" lon="-2.926233">
        <ele>711.0</ele>
        <time>2014-04-19T12:56:33Z</time>
      </trkpt>
      <trkpt lat="43.100533" lon="-2.926183">
        <ele>713.0</ele>
        <time>2014-04-19T12:56:34Z</time>
      </trkpt>
      <trkpt lat="43.100567" lon="-2.926100">
        <ele>714.0</ele>
        <time>2014-04-19T12:56:35Z</time>
      </trkpt>
      <trkpt lat="43.100583" lon="-2.925983">
        <ele>714.0</ele>
        <time>2014-04-19T12:56:36Z</time>
      </trkpt>
      <trkpt lat="43.100567" lon="-2.925867">
        <ele>714.0</ele>
        <time>2014-04-19T12:56:37Z</time>
      </trkpt>
      <trkpt lat="43.100550" lon="-2.925750">
        <ele>714.0</ele>
        <time>2014-04-19T12:56:38Z</time>
      </trkpt>
      <trkpt lat="43.100517" lon="-2.925633">
        <ele>715.0</ele>
        <time>2014-04-19T12:56:39Z</time>
      </trkpt>
      <trkpt lat="43.100433" lon="-2.925533">
        <ele>716.0</ele>
        <time>2014-04-19T12:56:40Z</time>
      </trkpt>
      <trkpt lat="43.100350" lon="-2.925467">
        <ele>717.0</ele>
        <time>2014-04-19T12:56:41Z</time>
      </trkpt>
      <trkpt lat="43.100250" lon="-2.925433">
        <ele>718.0</ele>
        <time>2014-04-19T12:56:42Z</time>
      </trkpt>
      <trkpt lat="43.100150" lon="-2.925433">
        <ele>719.0</ele>
        <time>2014-04-19T12:56:43Z</time>
      </trkpt>
      <trkpt lat="43.100083" lon="-2.925483">
        <ele>720.0</ele>
        <time>2014-04-19T12:56:44Z</time>
      </trkpt>
      <trkpt lat="43.100017" lon="-2.925583">
        <ele>720.0</ele>
        <time>2014-04-19T12:56:45Z</time>
      </trkpt>
      <trkpt lat="43.099983" lon="-2.925717">
        <ele>720.0</ele>
        <time>2014-04-19T12:56:46Z</time>
      </trkpt>
      <trkpt lat="43.099983" lon="-2.925833">
        <ele>721.0</ele>
        <time>2014-04-19T12:56:47Z</time>
      </trkpt>
      <trkpt lat="43.100000" lon="-2.925933">
        <ele>721.0</ele>
        <time>2014-04-19T12:56:48Z</time>
      </trkpt>
      <trkpt lat="43.100033" lon="-2.926017">
        <ele>722.0</ele>
        <time>2014-04-19T12:56:49Z</time>
      </trkpt>
      <trkpt lat="43.100067" lon="-2.926100">
        <ele>724.0</ele>
        <time>2014-04-19T12:56:50Z</time>
      </trkpt>
      <trkpt lat="43.100100" lon="-2.926183">
        <ele>727.0</ele>
        <time>2014-04-19T12:56:51Z</time>
      </trkpt>
      <trkpt lat="43.100150" lon="-2.926250">
        <ele>729.0</ele>
        <time>2014-04-19T12:56:52Z</time>
      </trkpt>
      <trkpt lat="43.100183" lon="-2.926300">
        <ele>731.0</ele>
        <time>2014-04-19T12:56:53Z</time>
      </trkpt>
      <trkpt lat="43.100217" lon="-2.926333">
        <ele>733.0</ele>
        <time>2014-04-19T12:56:54Z</time>
      </trkpt>
      <trkpt lat="43.100250" lon="-2.926350">
        <ele>734.0</ele>
        <time>2014-04-19T12:56:55Z</time>
      </trkpt>
      <trkpt lat="43.100300" lon="-2.926350">
        <ele>734.0</ele>
        <time>2014-04-19T12:56:56Z</time>
      </trkpt>
      <trkpt lat="43.100367" lon="-2.926317">
        <ele>732.0</ele>
        <time>2014-04-19T12:56:57Z</time>
      </trkpt>
      <trkpt lat="43.100450" lon="-2.926267">
        <ele>730.0</ele>
        <time>2014-04-19T12:56:58Z</time>
      </trkpt>
      <trkpt lat="43.100533" lon="-2.926233">
        <ele>729.0</ele>
        <time>2014-04-19T12:56:59Z</time>
      </trkpt>
      <trkpt lat="43.100617" lon="-2.926233">
        <ele>729.0</ele>
        <time>2014-04-19T12:57:00Z</time>
      </trkpt>
      <trkpt lat="43.100667" lon="-2.926300">
        <ele>728.0</ele>
        <time>2014-04-19T12:57:01Z</time>
      </trkpt>
      <trkpt lat="43.100717" lon="-2.926367">
        <ele>729.0</ele>
        <time>2014-04-19T12:57:02Z</time>
      </trkpt>
      <trkpt lat="43.100750" lon="-2.926450">
        <ele>729.0</ele>
        <time>2014-04-19T12:57:03Z</time>
      </trkpt>
      <trkpt lat="43.100767" lon="-2.926533">
        <ele>731.0</ele>
        <time>2014-04-19T12:57:04Z</time>
      </trkpt>
      <trkpt lat="43.100783" lon="-2.926633">
        <ele>733.0</ele>
        <time>2014-04-19T12:57:05Z</time>
      </trkpt>
      <trkpt lat="43.100783" lon="-2.926717">
        <ele>736.0</ele>
        <time>2014-04-19T12:57:06Z</time>
      </trkpt>
      <trkpt lat="43.100800" lon="-2.926800">
        <ele>737.0</ele>
        <time>2014-04-19T12:57:07Z</time>
      </trkpt>
      <trkpt lat="43.100800" lon="-2.926883">
        <ele>738.0</ele>
        <time>2014-04-19T12:57:08Z</time>
      </trkpt>
      <trkpt lat="43.100817" lon="-2.926967">
        <ele>740.0</ele>
        <time>2014-04-19T12:57:09Z</time>
      </trkpt>
      <trkpt lat="43.100833" lon="-2.927050">
        <ele>741.0</ele>
        <time>2014-04-19T12:57:10Z</time>
      </trkpt>
      <trkpt lat="43.100867" lon="-2.927117">
        <ele>742.0</ele>
        <time>2014-04-19T12:57:11Z</time>
      </trkpt>
      <trkpt lat="43.100900" lon="-2.927167">
        <ele>743.0</ele>
        <time>2014-04-19T12:57:12Z</time>
      </trkpt>
      <trkpt lat="43.100950" lon="-2.927217">
        <ele>743.0</ele>
        <time>2014-04-19T12:57:13Z</time>
      </trkpt>
      <trkpt lat="43.101017" lon="-2.927267">
        <ele>743.0</ele>
        <time>2014-04-19T12:57:14Z</time>
      </trkpt>
      <trkpt lat="43.101083" lon="-2.927283">
        <ele>742.0</ele>
        <time>2014-04-19T12:57:15Z</time>
      </trkpt>
      <trkpt lat="43.101150" lon="-2.927300">
        <ele>742.0</ele>
        <time>2014-04-19T12:57:16Z</time>
      </trkpt>
      <trkpt lat="43.101217" lon="-2.927283">
        <ele>742.0</ele>
        <time>2014-04-19T12:57:17Z</time>
      </trkpt>
      <trkpt lat="43.101267" lon="-2.927250">
        <ele>742.0</ele>
        <time>2014-04-19T12:57:18Z</time>
      </trkpt>
      <trkpt lat="43.101300" lon="-2.927200">
        <ele>742.0</ele>
        <time>2014-04-19T12:57:19Z</time>
      </trkpt>
      <trkpt lat="43.101333" lon="-2.927133">
        <ele>741.0</ele>
        <time>2014-04-19T12:57:20Z</time>
      </trkpt>
      <trkpt lat="43.101367" lon="-2.927050">
        <ele>738.0</ele>
        <time>2014-04-19T12:57:21Z</time>
      </trkpt>
      <trkpt lat="43.101400" lon="-2.926950">
        <ele>736.0</ele>
        <time>2014-04-19T12:57:22Z</time>
      </trkpt>
      <trkpt lat="43.101417" lon="-2.926850">
        <ele>734.0</ele>
        <time>2014-04-19T12:57:23Z</time>
      </trkpt>
      <trkpt lat="43.101417" lon="-2.926750">
        <ele>733.0</ele>
        <time>2014-04-19T12:57:24Z</time>
      </trkpt>
      <trkpt lat="43.101433" lon="-2.926650">
        <ele>732.0</ele>
        <time>2014-04-19T12:57:25Z</time>
      </trkpt>
      <trkpt lat="43.101467" lon="-2.926583">
        <ele>730.0</ele>
        <time>2014-04-19T12:57:26Z</time>
      </trkpt>
      <trkpt lat="43.101517" lon="-2.926517">
        <ele>728.0</ele>
        <time>2014-04-19T12:57:27Z</time>
      </trkpt>
      <trkpt lat="43.101567" lon="-2.926467">
        <ele>724.0</ele>
        <time>2014-04-19T12:57:28Z</time>
      </trkpt>
      <trkpt lat="43.101617" lon="-2.926433">
        <ele>722.0</ele>
        <time>2014-04-19T12:57:29Z</time>
      </trkpt>
      <trkpt lat="43.101667" lon="-2.926417">
        <ele>720.0</ele>
        <time>2014-04-19T12:57:30Z</time>
      </trkpt>
      <trkpt lat="43.101717" lon="-2.926417">
        <ele>719.0</ele>
        <time>2014-04-19T12:57:31Z</time>
      </trkpt>
      <trkpt lat="43.101750" lon="-2.926433">
        <ele>718.0</ele>
        <time>2014-04-19T12:57:32Z</time>
      </trkpt>
      <trkpt lat="43.101783" lon="-2.926467">
        <ele>717.0</ele>
        <time>2014-04-19T12:57:33Z</time>
      </trkpt>
      <trkpt lat="43.101833" lon="-2.926517">
        <ele>715.0</ele>
        <time>2014-04-19T12:57:34Z</time>
      </trkpt>
      <trkpt lat="43.101850" lon="-2.926583">
        <ele>713.0</ele>
        <time>2014-04-19T12:57:35Z</time>
      </trkpt>
      <trkpt lat="43.101867" lon="-2.926650">
        <ele>711.0</ele>
        <time>2014-04-19T12:57:36Z</time>
      </trkpt>
      <trkpt lat="43.101883" lon="-2.926733">
        <ele>708.0</ele>
        <time>2014-04-19T12:57:37Z</time>
      </trkpt>
      <trkpt lat="43.101883" lon="-2.926817">
        <ele>706.0</ele>
        <time>2014-04-19T12:57:38Z</time>
      </trkpt>
      <trkpt lat="43.101883" lon="-2.926900">
        <ele>705.0</ele>
        <time>2014-04-19T12:57:39Z</time>
      </trkpt>
      <trkpt lat="43.101883" lon="-2.926967">
        <ele>705.0</ele>
        <time>2014-04-19T12:57:40Z</time>
      </trkpt>
      <trkpt lat="43.101883" lon="-2.927033">
        <ele>703.0</ele>
        <time>2014-04-19T12:57:41Z</time>
      </trkpt>
      <trkpt lat="43.101883" lon="-2.927100">
        <ele>702.0</ele>
        <time>2014-04-19T12:57:42Z</time>
      </trkpt>
      <trkpt lat="43.101883" lon="-2.927183">
        <ele>699.0</ele>
        <time>2014-04-19T12:57:43Z</time>
      </trkpt>
      <trkpt lat="43.101917" lon="-2.927250">
        <ele>697.0</ele>
        <time>2014-04-19T12:57:44Z</time>
      </trkpt>
      <trkpt lat="43.101950" lon="-2.927317">
        <ele>696.0</ele>
        <time>2014-04-19T12:57:45Z</time>
      </trkpt>
      <trkpt lat="43.102000" lon="-2.927333">
        <ele>695.0</ele>
        <time>2014-04-19T12:57:46Z</time>
      </trkpt>
      <trkpt lat="43.102050" lon="-2.927333">
        <ele>694.0</ele>
        <time>2014-04-19T12:57:47Z</time>
      </trkpt>
      <trkpt lat="43.102100" lon="-2.927300">
        <ele>692.0</ele>
        <time>2014-04-19T12:57:48Z</time>
      </trkpt>
      <trkpt lat="43.102133" lon="-2.927233">
        <ele>690.0</ele>
        <time>2014-04-19T12:57:49Z</time>
      </trkpt>
      <trkpt lat="43.102150" lon="-2.927133">
        <ele>688.0</ele>
        <time>2014-04-19T12:57:50Z</time>
      </trkpt>
      <trkpt lat="43.102117" lon="-2.927033">
        <ele>686.0</ele>
        <time>2014-04-19T12:57:51Z</time>
      </trkpt>
      <trkpt lat="43.102083" lon="-2.926933">
        <ele>684.0</ele>
        <time>2014-04-19T12:57:52Z</time>
      </trkpt>
      <trkpt lat="43.102017" lon="-2.926833">
        <ele>682.0</ele>
        <time>2014-04-19T12:57:53Z</time>
      </trkpt>
      <trkpt lat="43.101950" lon="-2.926750">
        <ele>680.0</ele>
        <time>2014-04-19T12:57:54Z</time>
      </trkpt>
      <trkpt lat="43.101883" lon="-2.926667">
        <ele>679.0</ele>
        <time>2014-04-19T12:57:55Z</time>
      </trkpt>
      <trkpt lat="43.101817" lon="-2.926583">
        <ele>677.0</ele>
        <time>2014-04-19T12:57:56Z</time>
      </trkpt>
      <trkpt lat="43.101750" lon="-2.926500">
        <ele>675.0</ele>
        <time>2014-04-19T12:57:57Z</time>
      </trkpt>
      <trkpt lat="43.101650" lon="-2.926417">
        <ele>673.0</ele>
        <time>2014-04-19T12:57:58Z</time>
      </trkpt>
      <trkpt lat="43.101567" lon="-2.926333">
        <ele>671.0</ele>
        <time>2014-04-19T12:57:59Z</time>
      </trkpt>
      <trkpt lat="43.101467" lon="-2.926267">
        <ele>669.0</ele>
        <time>2014-04-19T12:58:00Z</time>
      </trkpt>
      <trkpt lat="43.101383" lon="-2.926200">
        <ele>669.0</ele>
        <time>2014-04-19T12:58:01Z</time>
      </trkpt>
      <trkpt lat="43.101300" lon="-2.926133">
        <ele>668.0</ele>
        <time>2014-04-19T12:58:02Z</time>
      </trkpt>
      <trkpt lat="43.101217" lon="-2.926050">
        <ele>668.0</ele>
        <time>2014-04-19T12:58:03Z</time>
      </trkpt>
      <trkpt lat="43.101133" lon="-2.925983">
        <ele>666.0</ele>
        <time>2014-04-19T12:58:04Z</time>
      </trkpt>
      <trkpt lat="43.101033" lon="-2.925933">
        <ele>664.0</ele>
        <time>2014-04-19T12:58:05Z</time>
      </trkpt>
      <trkpt lat="43.100933" lon="-2.925883">
        <ele>663.0</ele>
        <time>2014-04-19T12:58:06Z</time>
      </trkpt>
      <trkpt lat="43.100850" lon="-2.925833">
        <ele>662.0</ele>
        <time>2014-04-19T12:58:07Z</time>
      </trkpt>
      <trkpt lat="43.100750" lon="-2.925817">
        <ele>662.0</ele>
        <time>2014-04-19T12:58:08Z</time>
      </trkpt>
      <trkpt lat="43.100650" lon="-2.925783">
        <ele>660.0</ele>
        <time>2014-04-19T12:58:09Z</time>
      </trkpt>
      <trkpt lat="43.100550" lon="-2.925750">
        <ele>659.0</ele>
        <time>2014-04-19T12:58:10Z</time>
      </trkpt>
      <trkpt lat="43.100450" lon="-2.925700">
        <ele>657.0</ele>
        <time>2014-04-19T12:58:11Z</time>
      </trkpt>
      <trkpt lat="43.100333" lon="-2.925633">
        <ele>655.0</ele>
        <time>2014-04-19T12:58:12Z</time>
      </trkpt>
      <trkpt lat="43.100233" lon="-2.925550">
        <ele>654.0</ele>
        <time>2014-04-19T12:58:13Z</time>
      </trkpt>
      <trkpt lat="43.100150" lon="-2.925467">
        <ele>653.0</ele>
        <time>2014-04-19T12:58:14Z</time>
      </trkpt>
      <trkpt lat="43.100067" lon="-2.925383">
        <ele>652.0</ele>
        <time>2014-04-19T12:58:15Z</time>
      </trkpt>
      <trkpt lat="43.099983" lon="-2.925300">
        <ele>652.0</ele>
        <time>2014-04-19T12:58:16Z</time>
      </trkpt>
      <trkpt lat="43.099917" lon="-2.925200">
        <ele>651.0</ele>
        <time>2014-04-19T12:58:17Z</time>
      </trkpt>
      <trkpt lat="43.099833" lon="-2.925100">
        <ele>649.0</ele>
        <time>2014-04-19T12:58:18Z</time>
      </trkpt>
      <trkpt lat="43.099767" lon="-2.924967">
        <ele>648.0</ele>
        <time>2014-04-19T12:58:19Z</time>
      </trkpt>
      <trkpt lat="43.099717" lon="-2.924833">
        <ele>648.0</ele>
        <time>2014-04-19T12:58:20Z</time>
      </trkpt>
      <trkpt lat="43.099683" lon="-2.924733">
        <ele>651.0</ele>
        <time>2014-04-19T12:58:21Z</time>
      </trkpt>
      <trkpt lat="43.099650" lon="-2.924667">
        <ele>656.0</ele>
        <time>2014-04-19T12:58:22Z</time>
      </trkpt>
      <trkpt lat="43.099633" lon="-2.924617">
        <ele>656.0</ele>
        <time>2014-04-19T12:58:23Z</time>
      </trkpt>
      <trkpt lat="43.099600" lon="-2.924533">
        <ele>656.0</ele>
        <time>2014-04-19T12:58:24Z</time>
      </trkpt>
      <trkpt lat="43.099567" lon="-2.924417">
        <ele>655.0</ele>
        <time>2014-04-19T12:58:25Z</time>
      </trkpt>
      <trkpt lat="43.099550" lon="-2.924283">
        <ele>653.0</ele>
        <time>2014-04-19T12:58:26Z</time>
      </trkpt>
      <trkpt lat="43.099550" lon="-2.924167">
        <ele>654.0</ele>
        <time>2014-04-19T12:58:27Z</time>
      </trkpt>
      <trkpt lat="43.099550" lon="-2.924067">
        <ele>656.0</ele>
        <time>2014-04-19T12:58:28Z</time>
      </trkpt>
      <trkpt lat="43.099533" lon="-2.923983">
        <ele>658.0</ele>
        <time>2014-04-19T12:58:29Z</time>
      </trkpt>
      <trkpt lat="43.099483" lon="-2.923900">
        <ele>660.0</ele>
        <time>2014-04-19T12:58:30Z</time>
      </trkpt>
      <trkpt lat="43.099433" lon="-2.923817">
        <ele>661.0</ele>
        <time>2014-04-19T12:58:31Z</time>
      </trkpt>
      <trkpt lat="43.099350" lon="-2.923733">
        <ele>662.0</ele>
        <time>2014-04-19T12:58:32Z</time>
      </trkpt>
      <trkpt lat="43.099267" lon="-2.923683">
        <ele>664.0</ele>
        <time>2014-04-19T12:58:33Z</time>
      </trkpt>
      <trkpt lat="43.099183" lon="-2.923650">
        <ele>665.0</ele>
        <time>2014-04-19T12:58:34Z</time>
      </trkpt>
      <trkpt lat="43.099083" lon="-2.923650">
        <ele>666.0</ele>
        <time>2014-04-19T12:58:35Z</time>
      </trkpt>
      <trkpt lat="43.099000" lon="-2.923683">
        <ele>667.0</ele>
        <time>2014-04-19T12:58:36Z</time>
      </trkpt>
      <trkpt lat="43.098933" lon="-2.923750">
        <ele>668.0</ele>
        <time>2014-04-19T12:58:37Z</time>
      </trkpt>
      <trkpt lat="43.098867" lon="-2.923817">
        <ele>668.0</ele>
        <time>2014-04-19T12:58:38Z</time>
      </trkpt>
      <trkpt lat="43.098833" lon="-2.923917">
        <ele>669.0</ele>
        <time>2014-04-19T12:58:39Z</time>
      </trkpt>
      <trkpt lat="43.098850" lon="-2.924000">
        <ele>669.0</ele>
        <time>2014-04-19T12:58:40Z</time>
      </trkpt>
      <trkpt lat="43.098883" lon="-2.924083">
        <ele>669.0</ele>
        <time>2014-04-19T12:58:41Z</time>
      </trkpt>
      <trkpt lat="43.098917" lon="-2.924150">
        <ele>669.0</ele>
        <time>2014-04-19T12:58:42Z</time>
      </trkpt>
      <trkpt lat="43.098967" lon="-2.924200">
        <ele>669.0</ele>
        <time>2014-04-19T12:58:43Z</time>
      </trkpt>
      <trkpt lat="43.099000" lon="-2.924250">
        <ele>671.0</ele>
        <time>2014-04-19T12:58:44Z</time>
      </trkpt>
      <trkpt lat="43.099050" lon="-2.924300">
        <ele>672.0</ele>
        <time>2014-04-19T12:58:45Z</time>
      </trkpt>
      <trkpt lat="43.099083" lon="-2.924350">
        <ele>673.0</ele>
        <time>2014-04-19T12:58:46Z</time>
      </trkpt>
      <trkpt lat="43.099133" lon="-2.924400">
        <ele>674.0</ele>
        <time>2014-04-19T12:58:47Z</time>
      </trkpt>
      <trkpt lat="43.099183" lon="-2.924433">
        <ele>675.0</ele>
        <time>2014-04-19T12:58:48Z</time>
      </trkpt>
      <trkpt lat="43.099217" lon="-2.924483">
        <ele>676.0</ele>
        <time>2014-04-19T12:58:49Z</time>
      </trkpt>
      <trkpt lat="43.099250" lon="-2.924533">
        <ele>678.0</ele>
        <time>2014-04-19T12:58:50Z</time>
      </trkpt>
      <trkpt lat="43.099283" lon="-2.924567">
        <ele>679.0</ele>
        <time>2014-04-19T12:58:51Z</time>
      </trkpt>
      <trkpt lat="43.099317" lon="-2.924617">
        <ele>679.0</ele>
        <time>2014-04-19T12:58:52Z</time>
      </trkpt>
      <trkpt lat="43.099367" lon="-2.924667">
        <ele>680.0</ele>
        <time>2014-04-19T12:58:53Z</time>
      </trkpt>
      <trkpt lat="43.099400" lon="-2.924717">
        <ele>680.0</ele>
        <time>2014-04-19T12:58:54Z</time>
      </trkpt>
      <trkpt lat="43.099450" lon="-2.924767">
        <ele>680.0</ele>
        <time>2014-04-19T12:58:55Z</time>
      </trkpt>
      <trkpt lat="43.099483" lon="-2.924817">
        <ele>681.0</ele>
        <time>2014-04-19T12:58:56Z</time>
      </trkpt>
      <trkpt lat="43.099500" lon="-2.924867">
        <ele>681.0</ele>
        <time>2014-04-19T12:58:57Z</time>
      </trkpt>
      <trkpt lat="43.099533" lon="-2.924917">
        <ele>681.0</ele>
        <time>2014-04-19T12:58:58Z</time>
      </trkpt>
      <trkpt lat="43.099550" lon="-2.924967">
        <ele>681.0</ele>
        <time>2014-04-19T12:58:59Z</time>
      </trkpt>
      <trkpt lat="43.099583" lon="-2.925033">
        <ele>680.0</ele>
        <time>2014-04-19T12:59:00Z</time>
      </trkpt>
      <trkpt lat="43.099633" lon="-2.925083">
        <ele>680.0</ele>
        <time>2014-04-19T12:59:01Z</time>
      </trkpt>
      <trkpt lat="43.099667" lon="-2.925133">
        <ele>680.0</ele>
        <time>2014-04-19T12:59:02Z</time>
      </trkpt>
      <trkpt lat="43.099717" lon="-2.925150">
        <ele>681.0</ele>
        <time>2014-04-19T12:59:03Z</time>
      </trkpt>
      <trkpt lat="43.099783" lon="-2.925183">
        <ele>681.0</ele>
        <time>2014-04-19T12:59:04Z</time>
      </trkpt>
      <trkpt lat="43.099833" lon="-2.925183">
        <ele>683.0</ele>
        <time>2014-04-19T12:59:05Z</time>
      </trkpt>
      <trkpt lat="43.099883" lon="-2.925167">
        <ele>684.0</ele>
        <time>2014-04-19T12:59:06Z</time>
      </trkpt>
      <trkpt lat="43.099933" lon="-2.925133">
        <ele>685.0</ele>
        <time>2014-04-19T12:59:07Z</time>
      </trkpt>
      <trkpt lat="43.099983" lon="-2.925083">
        <ele>686.0</ele>
        <time>2014-04-19T12:59:08Z</time>
      </trkpt>
      <trkpt lat="43.100033" lon="-2.925017">
        <ele>686.0</ele>
        <time>2014-04-19T12:59:09Z</time>
      </trkpt>
      <trkpt lat="43.100083" lon="-2.924900">
        <ele>684.0</ele>
        <time>2014-04-19T12:59:10Z</time>
      </trkpt>
      <trkpt lat="43.100100" lon="-2.924767">
        <ele>683.0</ele>
        <time>2014-04-19T12:59:11Z</time>
      </trkpt>
      <trkpt lat="43.100083" lon="-2.924650">
        <ele>681.0</ele>
        <time>2014-04-19T12:59:12Z</time>
      </trkpt>
      <trkpt lat="43.100050" lon="-2.924533">
        <ele>680.0</ele>
        <time>2014-04-19T12:59:13Z</time>
      </trkpt>
      <trkpt lat="43.100000" lon="-2.924433">
        <ele>677.0</ele>
        <time>2014-04-19T12:59:14Z</time>
      </trkpt>
      <trkpt lat="43.099917" lon="-2.924350">
        <ele>674.0</ele>
        <time>2014-04-19T12:59:15Z</time>
      </trkpt>
      <trkpt lat="43.099833" lon="-2.924250">
        <ele>671.0</ele>
        <time>2014-04-19T12:59:16Z</time>
      </trkpt>
      <trkpt lat="43.099767" lon="-2.924150">
        <ele>667.0</ele>
        <time>2014-04-19T12:59:17Z</time>
      </trkpt>
      <trkpt lat="43.099683" lon="-2.924050">
        <ele>665.0</ele>
        <time>2014-04-19T12:59:18Z</time>
      </trkpt>
      <trkpt lat="43.099617" lon="-2.923967">
        <ele>663.0</ele>
        <time>2014-04-19T12:59:19Z</time>
      </trkpt>
      <trkpt lat="43.099583" lon="-2.923867">
        <ele>664.0</ele>
        <time>2014-04-19T12:59:20Z</time>
      </trkpt>
      <trkpt lat="43.099550" lon="-2.923733">
        <ele>663.0</ele>
        <time>2014-04-19T12:59:21Z</time>
      </trkpt>
      <trkpt lat="43.099533" lon="-2.923617">
        <ele>663.0</ele>
        <time>2014-04-19T12:59:22Z</time>
      </trkpt>
      <trkpt lat="43.099517" lon="-2.923500">
        <ele>664.0</ele>
        <time>2014-04-19T12:59:23Z</time>
      </trkpt>
      <trkpt lat="43.099500" lon="-2.923400">
        <ele>665.0</ele>
        <time>2014-04-19T12:59:24Z</time>
      </trkpt>
      <trkpt lat="43.099500" lon="-2.923300">
        <ele>666.0</ele>
        <time>2014-04-19T12:59:25Z</time>
      </trkpt>
      <trkpt lat="43.099517" lon="-2.923200">
        <ele>665.0</ele>
        <time>2014-04-19T12:59:26Z</time>
      </trkpt>
      <trkpt lat="43.099533" lon="-2.923100">
        <ele>664.0</ele>
        <time>2014-04-19T12:59:27Z</time>
      </trkpt>
      <trkpt lat="43.099583" lon="-2.923017">
        <ele>663.0</ele>
        <time>2014-04-19T12:59:28Z</time>
      </trkpt>
      <trkpt lat="43.099617" lon="-2.922967">
        <ele>662.0</ele>
        <time>2014-04-19T12:59:29Z</time>
      </trkpt>
      <trkpt lat="43.099650" lon="-2.922950">
        <ele>661.0</ele>
        <time>2014-04-19T12:59:30Z</time>
      </trkpt>
      <trkpt lat="43.099683" lon="-2.922933">
        <ele>660.0</ele>
        <time>2014-04-19T12:59:31Z</time>
      </trkpt>
      <trkpt lat="43.099717" lon="-2.922950">
        <ele>658.0</ele>
        <time>2014-04-19T12:59:32Z</time>
      </trkpt>
      <trkpt lat="43.099767" lon="-2.922967">
        <ele>656.0</ele>
        <time>2014-04-19T12:59:33Z</time>
      </trkpt>
      <trkpt lat="43.099800" lon="-2.923017">
        <ele>653.0</ele>
        <time>2014-04-19T12:59:34Z</time>
      </trkpt>
      <trkpt lat="43.099850" lon="-2.923050">
        <ele>650.0</ele>
        <time>2014-04-19T12:59:35Z</time>
      </trkpt>
      <trkpt lat="43.099883" lon="-2.923083">
        <ele>649.0</ele>
        <time>2014-04-19T12:59:36Z</time>
      </trkpt>
      <trkpt lat="43.099917" lon="-2.923100">
        <ele>649.0</ele>
        <time>2014-04-19T12:59:37Z</time>
      </trkpt>
      <trkpt lat="43.099950" lon="-2.923133">
        <ele>648.0</ele>
        <time>2014-04-19T12:59:38Z</time>
      </trkpt>
      <trkpt lat="43.099983" lon="-2.923150">
        <ele>645.0</ele>
        <time>2014-04-19T12:59:39Z</time>
      </trkpt>
      <trkpt lat="43.100033" lon="-2.923183">
        <ele>642.0</ele>
        <time>2014-04-19T12:59:40Z</time>
      </trkpt>
      <trkpt lat="43.100083" lon="-2.923217">
        <ele>640.0</ele>
        <time>2014-04-19T12:59:41Z</time>
      </trkpt>
      <trkpt lat="43.100133" lon="-2.923233">
        <ele>638.0</ele>
        <time>2014-04-19T12:59:42Z</time>
      </trkpt>
      <trkpt lat="43.100183" lon="-2.923250">
        <ele>637.0</ele>
        <time>2014-04-19T12:59:43Z</time>
      </trkpt>
      <trkpt lat="43.100233" lon="-2.923267">
        <ele>637.0</ele>
        <time>2014-04-19T12:59:44Z</time>
      </trkpt>
      <trkpt lat="43.100267" lon="-2.923283">
        <ele>636.0</ele>
        <time>2014-04-19T12:59:45Z</time>
      </trkpt>
      <trkpt lat="43.100300" lon="-2.923317">
        <ele>634.0</ele>
        <time>2014-04-19T12:59:46Z</time>
      </trkpt>
      <trkpt lat="43.100333" lon="-2.923333">
        <ele>632.0</ele>
        <time>2014-04-19T12:59:47Z</time>
      </trkpt>
      <trkpt lat="43.100383" lon="-2.923333">
        <ele>629.0</ele>
        <time>2014-04-19T12:59:48Z</time>
      </trkpt>
      <trkpt lat="43.100450" lon="-2.923300">
        <ele>626.0</ele>
        <time>2014-04-19T12:59:49Z</time>
      </trkpt>
      <trkpt lat="43.100483" lon="-2.923267">
        <ele>625.0</ele>
        <time>2014-04-19T12:59:50Z</time>
      </trkpt>
      <trkpt lat="43.100517" lon="-2.923200">
        <ele>625.0</ele>
        <time>2014-04-19T12:59:51Z</time>
      </trkpt>
      <trkpt lat="43.100517" lon="-2.923117">
        <ele>624.0</ele>
        <time>2014-04-19T12:59:52Z</time>
      </trkpt>
      <trkpt lat="43.100533" lon="-2.923033">
        <ele>622.0</ele>
        <time>2014-04-19T12:59:53Z</time>
      </trkpt>
      <trkpt lat="43.100533" lon="-2.922933">
        <ele>621.0</ele>
        <time>2014-04-19T12:59:54Z</time>
      </trkpt>
      <trkpt lat="43.100533" lon="-2.922850">
        <ele>619.0</ele>
        <time>2014-04-19T12:59:55Z</time>
      </trkpt>
      <trkpt lat="43.100517" lon="-2.922750">
        <ele>618.0</ele>
        <time>2014-04-19T12:59:56Z</time>
      </trkpt>
      <trkpt lat="43.100483" lon="-2.922667">
        <ele>618.0</ele>
        <time>2014-04-19T12:59:57Z</time>
      </trkpt>
      <trkpt lat="43.100467" lon="-2.922600">
        <ele>617.0</ele>
        <time>2014-04-19T12:59:58Z</time>
      </trkpt>
      <trkpt lat="43.100433" lon="-2.922517">
        <ele>616.0</ele>
        <time>2014-04-19T12:59:59Z</time>
      </trkpt>
      <trkpt lat="43.100400" lon="-2.922400">
        <ele>613.0</ele>
        <time>2014-04-19T13:00:00Z</time>
      </trkpt>
      <trkpt lat="43.100367" lon="-2.922283">
        <ele>610.0</ele>
        <time>2014-04-19T13:00:01Z</time>
      </trkpt>
      <trkpt lat="43.100317" lon="-2.922167">
        <ele>609.0</ele>
        <time>2014-04-19T13:00:02Z</time>
      </trkpt>
      <trkpt lat="43.100283" lon="-2.922083">
        <ele>609.0</ele>
        <time>2014-04-19T13:00:03Z</time>
      </trkpt>
      <trkpt lat="43.100250" lon="-2.921983">
        <ele>609.0</ele>
        <time>2014-04-19T13:00:04Z</time>
      </trkpt>
      <trkpt lat="43.100217" lon="-2.921883">
        <ele>607.0</ele>
        <time>2014-04-19T13:00:05Z</time>
      </trkpt>
      <trkpt lat="43.100183" lon="-2.921750">
        <ele>605.0</ele>
        <time>2014-04-19T13:00:06Z</time>
      </trkpt>
      <trkpt lat="43.100133" lon="-2.921617">
        <ele>604.0</ele>
        <time>2014-04-19T13:00:07Z</time>
      </trkpt>
      <trkpt lat="43.100100" lon="-2.921517">
        <ele>607.0</ele>
        <time>2014-04-19T13:00:08Z</time>
      </trkpt>
      <trkpt lat="43.100083" lon="-2.921433">
        <ele>611.0</ele>
        <time>2014-04-19T13:00:09Z</time>
      </trkpt>
      <trkpt lat="43.100067" lon="-2.921367">
        <ele>614.0</ele>
        <time>2014-04-19T13:00:10Z</time>
      </trkpt>
      <trkpt lat="43.100050" lon="-2.921283">
        <ele>616.0</ele>
        <time>2014-04-19T13:00:11Z</time>
      </trkpt>
      <trkpt lat="43.100017" lon="-2.921200">
        <ele>618.0</ele>
        <time>2014-04-19T13:00:12Z</time>
      </trkpt>
      <trkpt lat="43.099933" lon="-2.921100">
        <ele>618.0</ele>
        <time>2014-04-19T13:00:13Z</time>
      </trkpt>
      <trkpt lat="43.099833" lon="-2.921050">
        <ele>619.0</ele>
        <time>2014-04-19T13:00:14Z</time>
      </trkpt>
      <trkpt lat="43.099717" lon="-2.921050">
        <ele>621.0</ele>
        <time>2014-04-19T13:00:15Z</time>
      </trkpt>
      <trkpt lat="43.099633" lon="-2.921100">
        <ele>623.0</ele>
        <time>2014-04-19T13:00:16Z</time>
      </trkpt>
      <trkpt lat="43.099550" lon="-2.921183">
        <ele>625.0</ele>
        <time>2014-04-19T13:00:17Z</time>
      </trkpt>
      <trkpt lat="43.099500" lon="-2.921283">
        <ele>627.0</ele>
        <time>2014-04-19T13:00:18Z</time>
      </trkpt>
      <trkpt lat="43.099467" lon="-2.921383">
        <ele>629.0</ele>
        <time>2014-04-19T13:00:19Z</time>
      </trkpt>
      <trkpt lat="43.099467" lon="-2.921483">
        <ele>631.0</ele>
        <time>2014-04-19T13:00:20Z</time>
      </trkpt>
      <trkpt lat="43.099500" lon="-2.921550">
        <ele>632.0</ele>
        <time>2014-04-19T13:00:21Z</time>
      </trkpt>
      <trkpt lat="43.099550" lon="-2.921600">
        <ele>631.0</ele>
        <time>2014-04-19T13:00:22Z</time>
      </trkpt>
      <trkpt lat="43.099617" lon="-2.921617">
        <ele>631.0</ele>
        <time>2014-04-19T13:00:23Z</time>
      </trkpt>
      <trkpt lat="43.099667" lon="-2.921617">
        <ele>633.0</ele>
        <time>2014-04-19T13:00:24Z</time>
      </trkpt>
      <trkpt lat="43.099717" lon="-2.921567">
        <ele>636.0</ele>
        <time>2014-04-19T13:00:25Z</time>
      </trkpt>
      <trkpt lat="43.099750" lon="-2.921500">
        <ele>637.0</ele>
        <time>2014-04-19T13:00:26Z</time>
      </trkpt>
      <trkpt lat="43.099750" lon="-2.921400">
        <ele>639.0</ele>
        <time>2014-04-19T13:00:27Z</time>
      </trkpt>
      <trkpt lat="43.099733" lon="-2.921300">
        <ele>641.0</ele>
        <time>2014-04-19T13:00:28Z</time>
      </trkpt>
      <trkpt lat="43.099683" lon="-2.921200">
        <ele>644.0</ele>
        <time>2014-04-19T13:00:29Z</time>
      </trkpt>
      <trkpt lat="43.099600" lon="-2.921133">
        <ele>646.0</ele>
        <time>2014-04-19T13:00:30Z</time>
      </trkpt>
      <trkpt lat="43.099500" lon="-2.921100">
        <ele>647.0</ele>
        <time>2014-04-19T13:00:31Z</time>
      </trkpt>
      <trkpt lat="43.099400" lon="-2.921100">
        <ele>649.0</ele>
        <time>2014-04-19T13:00:32Z</time>
      </trkpt>
      <trkpt lat="43.099300" lon="-2.921150">
        <ele>651.0</ele>
        <time>2014-04-19T13:00:33Z</time>
      </trkpt>
      <trkpt lat="43.099217" lon="-2.921217">
        <ele>654.0</ele>
        <time>2014-04-19T13:00:34Z</time>
      </trkpt>
      <trkpt lat="43.099167" lon="-2.921283">
        <ele>657.0</ele>
        <time>2014-04-19T13:00:35Z</time>
      </trkpt>
      <trkpt lat="43.099133" lon="-2.921383">
        <ele>659.0</ele>
        <time>2014-04-19T13:00:36Z</time>
      </trkpt>
      <trkpt lat="43.099150" lon="-2.921467">
        <ele>660.0</ele>
        <time>2014-04-19T13:00:37Z</time>
      </trkpt>
      <trkpt lat="43.099183" lon="-2.921550">
        <ele>660.0</ele>
        <time>2014-04-19T13:00:38Z</time>
      </trkpt>
      <trkpt lat="43.099233" lon="-2.921600">
        <ele>660.0</ele>
        <time>2014-04-19T13:00:39Z</time>
      </trkpt>
      <trkpt lat="43.099283" lon="-2.921633">
        <ele>662.0</ele>
        <time>2014-04-19T13:00:40Z</time>
      </trkpt>
      <trkpt lat="43.099317" lon="-2.921617">
        <ele>664.0</ele>
        <time>2014-04-19T13:00:41Z</time>
      </trkpt>
      <trkpt lat="43.099350" lon="-2.921567">
        <ele>666.0</ele>
        <time>2014-04-19T13:00:42Z</time>
      </trkpt>
      <trkpt lat="43.099383" lon="-2.921500">
        <ele>668.0</ele>
        <time>2014-04-19T13:00:43Z</time>
      </trkpt>
      <trkpt lat="43.099367" lon="-2.921417">
        <ele>670.0</ele>
        <time>2014-04-19T13:00:44Z</time>
      </trkpt>
      <trkpt lat="43.099333" lon="-2.921317">
        <ele>672.0</ele>
        <time>2014-04-19T13:00:45Z</time>
      </trkpt>
      <trkpt lat="43.099250" lon="-2.921217">
        <ele>672.0</ele>
        <time>2014-04-19T13:00:46Z</time>
      </trkpt>
      <trkpt lat="43.099167" lon="-2.921150">
        <ele>673.0</ele>
        <time>2014-04-19T13:00:47Z</time>
      </trkpt>
      <trkpt lat="43.099067" lon="-2.921133">
        <ele>674.0</ele>
        <time>2014-04-19T13:00:48Z</time>
      </trkpt>
      <trkpt lat="43.098950" lon="-2.921133">
        <ele>676.0</ele>
        <time>2014-04-19T13:00:49Z</time>
      </trkpt>
      <trkpt lat="43.098850" lon="-2.921200">
        <ele>677.0</ele>
        <time>2014-04-19T13:00:50Z</time>
      </trkpt>
      <trkpt lat="43.098767" lon="-2.921283">
        <ele>678.0</ele>
        <time>2014-04-19T13:00:51Z</time>
      </trkpt>
      <trkpt lat="43.098700" lon="-2.921400">
        <ele>680.0</ele>
        <time>2014-04-19T13:00:52Z</time>
      </trkpt>
      <trkpt lat="43.098667" lon="-2.921500">
        <ele>681.0</ele>
        <time>2014-04-19T13:00:53Z</time>
      </trkpt>
      <trkpt lat="43.098667" lon="-2.921600">
        <ele>683.0</ele>
        <time>2014-04-19T13:00:54Z</time>
      </trkpt>
      <trkpt lat="43.098683" lon="-2.921667">
        <ele>684.0</ele>
        <time>2014-04-19T13:00:55Z</time>
      </trkpt>
      <trkpt lat="43.098717" lon="-2.921733">
        <ele>685.0</ele>
        <time>2014-04-19T13:00:56Z</time>
      </trkpt>
      <trkpt lat="43.098750" lon="-2.921800">
        <ele>685.0</ele>
        <time>2014-04-19T13:00:57Z</time>
      </trkpt>
      <trkpt lat="43.098800" lon="-2.921817">
        <ele>686.0</ele>
        <time>2014-04-19T13:00:58Z</time>
      </trkpt>
      <trkpt lat="43.098833" lon="-2.921800">
        <ele>688.0</ele>
        <time>2014-04-19T13:00:59Z</time>
      </trkpt>
      <trkpt lat="43.098850" lon="-2.921733">
        <ele>689.0</ele>
        <time>2014-04-19T13:01:00Z</time>
      </trkpt>
      <trkpt lat="43.098817" lon="-2.921633">
        <ele>690.0</ele>
        <time>2014-04-19T13:01:01Z</time>
      </trkpt>
      <trkpt lat="43.098750" lon="-2.921533">
        <ele>690.0</ele>
        <time>2014-04-19T13:01:02Z</time>
      </trkpt>
      <trkpt lat="43.098650" lon="-2.921467">
        <ele>691.0</ele>
        <time>2014-04-19T13:01:03Z</time>
      </trkpt>
      <trkpt lat="43.098567" lon="-2.921450">
        <ele>693.0</ele>
        <time>2014-04-19T13:01:04Z</time>
      </trkpt>
      <trkpt lat="43.098467" lon="-2.921467">
        <ele>695.0</ele>
        <time>2014-04-19T13:01:05Z</time>
      </trkpt>
      <trkpt lat="43.098350" lon="-2.921517">
        <ele>696.0</ele>
        <time>2014-04-19T13:01:06Z</time>
      </trkpt>
      <trkpt lat="43.098267" lon="-2.921567">
        <ele>697.0</ele>
        <time>2014-04-19T13:01:07Z</time>
      </trkpt>
      <trkpt lat="43.098167" lon="-2.921650">
        <ele>698.0</ele>
        <time>2014-04-19T13:01:08Z</time>
      </trkpt>
      <trkpt lat="43.098117" lon="-2.921733">
        <ele>700.0</ele>
        <time>2014-04-19T13:01:09Z</time>
      </trkpt>
      <trkpt lat="43.098067" lon="-2.921833">
        <ele>700.0</ele>
        <time>2014-04-19T13:01:10Z</time>
      </trkpt>
      <trkpt lat="43.098067" lon="-2.921950">
        <ele>700.0</ele>
        <time>2014-04-19T13:01:11Z</time>
      </trkpt>
      <trkpt lat="43.098050" lon="-2.922050">
        <ele>698.0</ele>
        <time>2014-04-19T13:01:12Z</time>
      </trkpt>
      <trkpt lat="43.098067" lon="-2.922150">
        <ele>698.0</ele>
        <time>2014-04-19T13:01:13Z</time>
      </trkpt>
      <trkpt lat="43.098083" lon="-2.922233">
        <ele>697.0</ele>
        <time>2014-04-19T13:01:14Z</time>
      </trkpt>
      <trkpt lat="43.098117" lon="-2.922317">
        <ele>696.0</ele>
        <time>2014-04-19T13:01:15Z</time>
      </trkpt>
      <trkpt lat="43.098133" lon="-2.922383">
        <ele>697.0</ele>
        <time>2014-04-19T13:01:16Z</time>
      </trkpt>
      <trkpt lat="43.098150" lon="-2.922433">
        <ele>698.0</ele>
        <time>2014-04-19T13:01:17Z</time>
      </trkpt>
      <trkpt lat="43.098150" lon="-2.922483">
        <ele>698.0</ele>
        <time>2014-04-19T13:01:18Z</time>
      </trkpt>
      <trkpt lat="43.098167" lon="-2.922533">
        <ele>697.0</ele>
        <time>2014-04-19T13:01:19Z</time>
      </trkpt>
      <trkpt lat="43.098183" lon="-2.922567">
        <ele>695.0</ele>
        <time>2014-04-19T13:01:20Z</time>
      </trkpt>
      <trkpt lat="43.098233" lon="-2.922617">
        <ele>692.0</ele>
        <time>2014-04-19T13:01:21Z</time>
      </trkpt>
      <trkpt lat="43.098267" lon="-2.922650">
        <ele>690.0</ele>
        <time>2014-04-19T13:01:22Z</time>
      </trkpt>
      <trkpt lat="43.098300" lon="-2.922683">
        <ele>689.0</ele>
        <time>2014-04-19T13:01:23Z</time>
      </trkpt>
      <trkpt lat="43.098333" lon="-2.922683">
        <ele>688.0</ele>
        <time>2014-04-19T13:01:24Z</time>
      </trkpt>
      <trkpt lat="43.098350" lon="-2.922650">
        <ele>686.0</ele>
        <time>2014-04-19T13:01:25Z</time>
      </trkpt>
      <trkpt lat="43.098383" lon="-2.922600">
        <ele>683.0</ele>
        <time>2014-04-19T13:01:26Z</time>
      </trkpt>
      <trkpt lat="43.098400" lon="-2.922533">
        <ele>680.0</ele>
        <time>2014-04-19T13:01:27Z</time>
      </trkpt>
      <trkpt lat="43.098433" lon="-2.922483">
        <ele>678.0</ele>
        <time>2014-04-19T13:01:28Z</time>
      </trkpt>
      <trkpt lat="43.098450" lon="-2.922433">
        <ele>676.0</ele>
        <time>2014-04-19T13:01:29Z</time>
      </trkpt>
      <trkpt lat="43.098467" lon="-2.922383">
        <ele>674.0</ele>
        <time>2014-04-19T13:01:30Z</time>
      </trkpt>
      <trkpt lat="43.098483" lon="-2.922317">
        <ele>671.0</ele>
        <time>2014-04-19T13:01:31Z</time>
      </trkpt>
      <trkpt lat="43.098500" lon="-2.922233">
        <ele>668.0</ele>
        <time>2014-04-19T13:01:32Z</time>
      </trkpt>
      <trkpt lat="43.098517" lon="-2.922133">
        <ele>665.0</ele>
        <time>2014-04-19T13:01:33Z</time>
      </trkpt>
      <trkpt lat="43.098517" lon="-2.922050">
        <ele>662.0</ele>
        <time>2014-04-19T13:01:34Z</time>
      </trkpt>
      <trkpt lat="43.098533" lon="-2.921967">
        <ele>661.0</ele>
        <time>2014-04-19T13:01:35Z</time>
      </trkpt>
      <trkpt lat="43.098517" lon="-2.921900">
        <ele>659.0</ele>
        <time>2014-04-19T13:01:36Z</time>
      </trkpt>
      <trkpt lat="43.098517" lon="-2.921817">
        <ele>657.0</ele>
        <time>2014-04-19T13:01:37Z</time>
      </trkpt>
      <trkpt lat="43.098500" lon="-2.921717">
        <ele>654.0</ele>
        <time>2014-04-19T13:01:38Z</time>
      </trkpt>
      <trkpt lat="43.098483" lon="-2.921600">
        <ele>651.0</ele>
        <time>2014-04-19T13:01:39Z</time>
      </trkpt>
      <trkpt lat="43.098450" lon="-2.921500">
        <ele>649.0</ele>
        <time>2014-04-19T13:01:40Z</time>
      </trkpt>
      <trkpt lat="43.098433" lon="-2.921400">
        <ele>649.0</ele>
        <time>2014-04-19T13:01:41Z</time>
      </trkpt>
      <trkpt lat="43.098417" lon="-2.921317">
        <ele>648.0</ele>
        <time>2014-04-19T13:01:42Z</time>
      </trkpt>
      <trkpt lat="43.098417" lon="-2.921217">
        <ele>646.0</ele>
        <time>2014-04-19T13:01:43Z</time>
      </trkpt>
      <trkpt lat="43.098400" lon="-2.921100">
        <ele>644.0</ele>
        <time>2014-04-19T13:01:44Z</time>
      </trkpt>
      <trkpt lat="43.098367" lon="-2.920967">
        <ele>642.0</ele>
        <time>2014-04-19T13:01:45Z</time>
      </trkpt>
      <trkpt lat="43.098350" lon="-2.920850">
        <ele>641.0</ele>
        <time>2014-04-19T13:01:46Z</time>
      </trkpt>
      <trkpt lat="43.098317" lon="-2.920750">
        <ele>641.0</ele>
        <time>2014-04-19T13:01:47Z</time>
      </trkpt>
      <trkpt lat="43.098300" lon="-2.920667">
        <ele>641.0</ele>
        <time>2014-04-19T13:01:48Z</time>
      </trkpt>
      <trkpt lat="43.098283" lon="-2.920583">
        <ele>642.0</ele>
        <time>2014-04-19T13:01:49Z</time>
      </trkpt>
      <trkpt lat="43.098250" lon="-2.920483">
        <ele>641.0</ele>
        <time>2014-04-19T13:01:50Z</time>
      </trkpt>
      <trkpt lat="43.098217" lon="-2.920383">
        <ele>641.0</ele>
        <time>2014-04-19T13:01:51Z</time>
      </trkpt>
      <trkpt lat="43.098183" lon="-2.920267">
        <ele>638.0</ele>
        <time>2014-04-19T13:01:52Z</time>
      </trkpt>
      <trkpt lat="43.098150" lon="-2.920150">
        <ele>636.0</ele>
        <time>2014-04-19T13:01:53Z</time>
      </trkpt>
      <trkpt lat="43.098117" lon="-2.920033">
        <ele>635.0</ele>
        <time>2014-04-19T13:01:54Z</time>
      </trkpt>
      <trkpt lat="43.098100" lon="-2.919933">
        <ele>634.0</ele>
        <time>2014-04-19T13:01:55Z</time>
      </trkpt>
      <trkpt lat="43.098067" lon="-2.919850">
        <ele>633.0</ele>
        <time>2014-04-19T13:01:56Z</time>
      </trkpt>
      <trkpt lat="43.098050" lon="-2.919750">
        <ele>632.0</ele>
        <time>2014-04-19T13:01:57Z</time>
      </trkpt>
      <trkpt lat="43.098017" lon="-2.919650">
        <ele>630.0</ele>
        <time>2014-04-19T13:01:58Z</time>
      </trkpt>
      <trkpt lat="43.098000" lon="-2.919533">
        <ele>627.0</ele>
        <time>2014-04-19T13:01:59Z</time>
      </trkpt>
      <trkpt lat="43.098000" lon="-2.919417">
        <ele>625.0</ele>
        <time>2014-04-19T13:02:00Z</time>
      </trkpt>
      <trkpt lat="43.097983" lon="-2.919300">
        <ele>624.0</ele>
        <time>2014-04-19T13:02:01Z</time>
      </trkpt>
      <trkpt lat="43.097967" lon="-2.919183">
        <ele>624.0</ele>
        <time>2014-04-19T13:02:02Z</time>
      </trkpt>
      <trkpt lat="43.097950" lon="-2.919100">
        <ele>624.0</ele>
        <time>2014-04-19T13:02:03Z</time>
      </trkpt>
      <trkpt lat="43.097933" lon="-2.919000">
        <ele>623.0</ele>
        <time>2014-04-19T13:02:04Z</time>
      </trkpt>
      <trkpt lat="43.097917" lon="-2.918900">
        <ele>622.0</ele>
        <time>2014-04-19T13:02:05Z</time>
      </trkpt>
      <trkpt lat="43.097917" lon="-2.918783">
        <ele>619.0</ele>
        <time>2014-04-19T13:02:06Z</time>
      </trkpt>
      <trkpt lat="43.097900" lon="-2.918667">
        <ele>616.0</ele>
        <time>2014-04-19T13:02:07Z</time>
      </trkpt>
      <trkpt lat="43.097883" lon="-2.918550">
        <ele>615.0</ele>
        <time>2014-04-19T13:02:08Z</time>
      </trkpt>
      <trkpt lat="43.097850" lon="-2.918450">
        <ele>613.0</ele>
        <time>2014-04-19T13:02:09Z</time>
      </trkpt>
      <trkpt lat="43.097833" lon="-2.918333">
        <ele>612.0</ele>
        <time>2014-04-19T13:02:10Z</time>
      </trkpt>
      <trkpt lat="43.097800" lon="-2.918233">
        <ele>611.0</ele>
        <time>2014-04-19T13:02:11Z</time>
      </trkpt>
      <trkpt lat="43.097783" lon="-2.918117">
        <ele>609.0</ele>
        <time>2014-04-19T13:02:12Z</time>
      </trkpt>
      <trkpt lat="43.097767" lon="-2.918017">
        <ele>608.0</ele>
        <time>2014-04-19T13:02:13Z</time>
      </trkpt>
      <trkpt lat="43.097767" lon="-2.917917">
        <ele>607.0</ele>
        <time>2014-04-19T13:02:14Z</time>
      </trkpt>
      <trkpt lat="43.097767" lon="-2.917850">
        <ele>606.0</ele>
        <time>2014-04-19T13:02:15Z</time>
      </trkpt>
      <trkpt lat="43.097800" lon="-2.917767">
        <ele>605.0</ele>
        <time>2014-04-19T13:02:16Z</time>
      </trkpt>
      <trkpt lat="43.097817" lon="-2.917700">
        <ele>604.0</ele>
        <time>2014-04-19T13:02:17Z</time>
      </trkpt>
      <trkpt lat="43.097833" lon="-2.917617">
        <ele>604.0</ele>
        <time>2014-04-19T13:02:18Z</time>
      </trkpt>
      <trkpt lat="43.097850" lon="-2.917533">
        <ele>603.0</ele>
        <time>2014-04-19T13:02:19Z</time>
      </trkpt>
      <trkpt lat="43.097850" lon="-2.917433">
        <ele>604.0</ele>
        <time>2014-04-19T13:02:20Z</time>
      </trkpt>
      <trkpt lat="43.097850" lon="-2.917333">
        <ele>603.0</ele>
        <time>2014-04-19T13:02:21Z</time>
      </trkpt>
      <trkpt lat="43.097850" lon="-2.917250">
        <ele>604.0</ele>
        <time>2014-04-19T13:02:22Z</time>
      </trkpt>
      <trkpt lat="43.097867" lon="-2.917167">
        <ele>605.0</ele>
        <time>2014-04-19T13:02:23Z</time>
      </trkpt>
      <trkpt lat="43.097867" lon="-2.917083">
        <ele>607.0</ele>
        <time>2014-04-19T13:02:24Z</time>
      </trkpt>
      <trkpt lat="43.097867" lon="-2.917017">
        <ele>609.0</ele>
        <time>2014-04-19T13:02:25Z</time>
      </trkpt>
      <trkpt lat="43.097867" lon="-2.916950">
        <ele>610.0</ele>
        <time>2014-04-19T13:02:26Z</time>
      </trkpt>
      <trkpt lat="43.097883" lon="-2.916867">
        <ele>611.0</ele>
        <time>2014-04-19T13:02:27Z</time>
      </trkpt>
      <trkpt lat="43.097883" lon="-2.916800">
        <ele>613.0</ele>
        <time>2014-04-19T13:02:28Z</time>
      </trkpt>
      <trkpt lat="43.097867" lon="-2.916733">
        <ele>614.0</ele>
        <time>2014-04-19T13:02:29Z</time>
      </trkpt>
      <trkpt lat="43.097867" lon="-2.916650">
        <ele>616.0</ele>
        <time>2014-04-19T13:02:30Z</time>
      </trkpt>
      <trkpt lat="43.097867" lon="-2.916567">
        <ele>616.0</ele>
        <time>2014-04-19T13:02:31Z</time>
      </trkpt>
      <trkpt lat="43.097850" lon="-2.916483">
        <ele>617.0</ele>
        <time>2014-04-19T13:02:32Z</time>
      </trkpt>
      <trkpt lat="43.097850" lon="-2.916400">
        <ele>618.0</ele>
        <time>2014-04-19T13:02:33Z</time>
      </trkpt>
      <trkpt lat="43.097833" lon="-2.916317">
        <ele>620.0</ele>
        <time>2014-04-19T13:02:34Z</time>
      </trkpt>
      <trkpt lat="43.097800" lon="-2.916250">
        <ele>622.0</ele>
        <time>2014-04-19T13:02:35Z</time>
      </trkpt>
      <trkpt lat="43.097733" lon="-2.916200">
        <ele>623.0</ele>
        <time>2014-04-19T13:02:36Z</time>
      </trkpt>
      <trkpt lat="43.097633" lon="-2.916167">
        <ele>623.0</ele>
        <time>2014-04-19T13:02:37Z</time>
      </trkpt>
      <trkpt lat="43.097517" lon="-2.916167">
        <ele>623.0</ele>
        <time>2014-04-19T13:02:38Z</time>
      </trkpt>
      <trkpt lat="43.097433" lon="-2.916233">
        <ele>625.0</ele>
        <time>2014-04-19T13:02:39Z</time>
      </trkpt>
      <trkpt lat="43.097367" lon="-2.916333">
        <ele>626.0</ele>
        <time>2014-04-19T13:02:40Z</time>
      </trkpt>
      <trkpt lat="43.097333" lon="-2.916450">
        <ele>628.0</ele>
        <time>2014-04-19T13:02:41Z</time>
      </trkpt>
      <trkpt lat="43.097333" lon="-2.916567">
        <ele>629.0</ele>
        <time>2014-04-19T13:02:42Z</time>
      </trkpt>
      <trkpt lat="43.097367" lon="-2.916683">
        <ele>629.0</ele>
        <time>2014-04-19T13:02:43Z</time>
      </trkpt>
      <trkpt lat="43.097400" lon="-2.916767">
        <ele>630.0</ele>
        <time>2014-04-19T13:02:44Z</time>
      </trkpt>
      <trkpt lat="43.097450" lon="-2.916833">
        <ele>631.0</ele>
        <time>2014-04-19T13:02:45Z</time>
      </trkpt>
      <trkpt lat="43.097500" lon="-2.916867">
        <ele>634.0</ele>
        <time>2014-04-19T13:02:46Z</time>
      </trkpt>
      <trkpt lat="43.097550" lon="-2.916867">
        <ele>636.0</ele>
        <time>2014-04-19T13:02:47Z</time>
      </trkpt>
      <trkpt lat="43.097583" lon="-2.916850">
        <ele>638.0</ele>
        <time>2014-04-19T13:02:48Z</time>
      </trkpt>
      <trkpt lat="43.097617" lon="-2.916833">
        <ele>638.0</ele>
        <time>2014-04-19T13:02:49Z</time>
      </trkpt>
      <trkpt lat="43.097650" lon="-2.916800">
        <ele>638.0</ele>
        <time>2014-04-19T13:02:50Z</time>
      </trkpt>
      <trkpt lat="43.097683" lon="-2.916750">
        <ele>638.0</ele>
        <time>2014-04-19T13:02:51Z</time>
      </trkpt>
      <trkpt lat="43.097700" lon="-2.916667">
        <ele>638.0</ele>
        <time>2014-04-19T13:02:52Z</time>
      </trkpt>
      <trkpt lat="43.097700" lon="-2.916583">
        <ele>639.0</ele>
        <time>2014-04-19T13:02:53Z</time>
      </trkpt>
      <trkpt lat="43.097633" lon="-2.916500">
        <ele>641.0</ele>
        <time>2014-04-19T13:02:54Z</time>
      </trkpt>
      <trkpt lat="43.097567" lon="-2.916450">
        <ele>643.0</ele>
        <time>2014-04-19T13:02:55Z</time>
      </trkpt>
      <trkpt lat="43.097467" lon="-2.916417">
        <ele>645.0</ele>
        <time>2014-04-19T13:02:56Z</time>
      </trkpt>
      <trkpt lat="43.097383" lon="-2.916400">
        <ele>646.0</ele>
        <time>2014-04-19T13:02:57Z</time>
      </trkpt>
      <trkpt lat="43.097300" lon="-2.916400">
        <ele>648.0</ele>
        <time>2014-04-19T13:02:58Z</time>
      </trkpt>
      <trkpt lat="43.097200" lon="-2.916417">
        <ele>650.0</ele>
        <time>2014-04-19T13:02:59Z</time>
      </trkpt>
      <trkpt lat="43.097117" lon="-2.916450">
        <ele>651.0</ele>
        <time>2014-04-19T13:03:00Z</time>
      </trkpt>
      <trkpt lat="43.097033" lon="-2.916533">
        <ele>651.0</ele>
        <time>2014-04-19T13:03:01Z</time>
      </trkpt>
      <trkpt lat="43.096967" lon="-2.916633">
        <ele>652.0</ele>
        <time>2014-04-19T13:03:02Z</time>
      </trkpt>
      <trkpt lat="43.096917" lon="-2.916733">
        <ele>653.0</ele>
        <time>2014-04-19T13:03:03Z</time>
      </trkpt>
      <trkpt lat="43.096917" lon="-2.916850">
        <ele>654.0</ele>
        <time>2014-04-19T13:03:04Z</time>
      </trkpt>
      <trkpt lat="43.096933" lon="-2.916967">
        <ele>654.0</ele>
        <time>2014-04-19T13:03:05Z</time>
      </trkpt>
      <trkpt lat="43.096967" lon="-2.917067">
        <ele>655.0</ele>
        <time>2014-04-19T13:03:06Z</time>
      </trkpt>
      <trkpt lat="43.097000" lon="-2.917133">
        <ele>656.0</ele>
        <time>2014-04-19T13:03:07Z</time>
      </trkpt>
      <trkpt lat="43.097033" lon="-2.917200">
        <ele>658.0</ele>
        <time>2014-04-19T13:03:08Z</time>
      </trkpt>
      <trkpt lat="43.097083" lon="-2.917250">
        <ele>659.0</ele>
        <time>2014-04-19T13:03:09Z</time>
      </trkpt>
      <trkpt lat="43.097117" lon="-2.917300">
        <ele>660.0</ele>
        <time>2014-04-19T13:03:10Z</time>
      </trkpt>
      <trkpt lat="43.097167" lon="-2.917317">
        <ele>660.0</ele>
        <time>2014-04-19T13:03:11Z</time>
      </trkpt>
      <trkpt lat="43.097217" lon="-2.917317">
        <ele>661.0</ele>
        <time>2014-04-19T13:03:12Z</time>
      </trkpt>
      <trkpt lat="43.097250" lon="-2.917267">
        <ele>661.0</ele>
        <time>2014-04-19T13:03:13Z</time>
      </trkpt>
      <trkpt lat="43.097267" lon="-2.917217">
        <ele>661.0</ele>
        <time>2014-04-19T13:03:14Z</time>
      </trkpt>
      <trkpt lat="43.097267" lon="-2.917150">
        <ele>661.0</ele>
        <time>2014-04-19T13:03:15Z</time>
      </trkpt>
      <trkpt lat="43.097267" lon="-2.917083">
        <ele>661.0</ele>
        <time>2014-04-19T13:03:16Z</time>
      </trkpt>
      <trkpt lat="43.097283" lon="-2.917000">
        <ele>662.0</ele>
        <time>2014-04-19T13:03:17Z</time>
      </trkpt>
      <trkpt lat="43.097300" lon="-2.916950">
        <ele>663.0</ele>
        <time>2014-04-19T13:03:18Z</time>
      </trkpt>
      <trkpt lat="43.097317" lon="-2.916900">
        <ele>664.0</ele>
        <time>2014-04-19T13:03:19Z</time>
      </trkpt>
      <trkpt lat="43.097350" lon="-2.916867">
        <ele>665.0</ele>
        <time>2014-04-19T13:03:20Z</time>
      </trkpt>
      <trkpt lat="43.097400" lon="-2.916833">
        <ele>666.0</ele>
        <time>2014-04-19T13:03:21Z</time>
      </trkpt>
      <trkpt lat="43.097433" lon="-2.916800">
        <ele>667.0</ele>
        <time>2014-04-19T13:03:22Z</time>
      </trkpt>
      <trkpt lat="43.097483" lon="-2.916750">
        <ele>668.0</ele>
        <time>2014-04-19T13:03:23Z</time>
      </trkpt>
      <trkpt lat="43.097500" lon="-2.916717">
        <ele>669.0</ele>
        <time>2014-04-19T13:03:24Z</time>
      </trkpt>
      <trkpt lat="43.097533" lon="-2.916650">
        <ele>670.0</ele>
        <time>2014-04-19T13:03:25Z</time>
      </trkpt>
      <trkpt lat="43.097550" lon="-2.916600">
        <ele>670.0</ele>
        <time>2014-04-19T13:03:26Z</time>
      </trkpt>
      <trkpt lat="43.097567" lon="-2.916533">
        <ele>670.0</ele>
        <time>2014-04-19T13:03:27Z</time>
      </trkpt>
      <trkpt lat="43.097583" lon="-2.916450">
        <ele>669.0</ele>
        <time>2014-04-19T13:03:28Z</time>
      </trkpt>
      <trkpt lat="43.097583" lon="-2.916367">
        <ele>669.0</ele>
        <time>2014-04-19T13:03:29Z</time>
      </trkpt>
      <trkpt lat="43.097600" lon="-2.916283">
        <ele>669.0</ele>
        <time>2014-04-19T13:03:30Z</time>
      </trkpt>
      <trkpt lat="43.097600" lon="-2.916200">
        <ele>670.0</ele>
        <time>2014-04-19T13:03:31Z</time>
      </trkpt>
      <trkpt lat="43.097583" lon="-2.916117">
        <ele>671.0</ele>
        <time>2014-04-19T13:03:32Z</time>
      </trkpt>
      <trkpt lat="43.097583" lon="-2.916033">
        <ele>671.0</ele>
        <time>2014-04-19T13:03:33Z</time>
      </trkpt>
      <trkpt lat="43.097583" lon="-2.915950">
        <ele>672.0</ele>
        <time>2014-04-19T13:03:34Z</time>
      </trkpt>
      <trkpt lat="43.097583" lon="-2.915867">
        <ele>674.0</ele>
        <time>2014-04-19T13:03:35Z</time>
      </trkpt>
      <trkpt lat="43.097600" lon="-2.915800">
        <ele>675.0</ele>
        <time>2014-04-19T13:03:36Z</time>
      </trkpt>
      <trkpt lat="43.097600" lon="-2.915700">
        <ele>675.0</ele>
        <time>2014-04-19T13:03:37Z</time>
      </trkpt>
      <trkpt lat="43.097617" lon="-2.915600">
        <ele>674.0</ele>
        <time>2014-04-19T13:03:38Z</time>
      </trkpt>
      <trkpt lat="43.097617" lon="-2.915517">
        <ele>673.0</ele>
        <time>2014-04-19T13:03:39Z</time>
      </trkpt>
      <trkpt lat="43.097633" lon="-2.915417">
        <ele>673.0</ele>
        <time>2014-04-19T13:03:40Z</time>
      </trkpt>
      <trkpt lat="43.097633" lon="-2.915317">
        <ele>673.0</ele>
        <time>2014-04-19T13:03:41Z</time>
      </trkpt>
      <trkpt lat="43.097650" lon="-2.915217">
        <ele>672.0</ele>
        <time>2014-04-19T13:03:42Z</time>
      </trkpt>
      <trkpt lat="43.097650" lon="-2.915117">
        <ele>672.0</ele>
        <time>2014-04-19T13:03:43Z</time>
      </trkpt>
      <trkpt lat="43.097650" lon="-2.915017">
        <ele>672.0</ele>
        <time>2014-04-19T13:03:44Z</time>
      </trkpt>
      <trkpt lat="43.097650" lon="-2.914917">
        <ele>672.0</ele>
        <time>2014-04-19T13:03:45Z</time>
      </trkpt>
      <trkpt lat="43.097650" lon="-2.914833">
        <ele>673.0</ele>
        <time>2014-04-19T13:03:46Z</time>
      </trkpt>
      <trkpt lat="43.097667" lon="-2.914733">
        <ele>673.0</ele>
        <time>2014-04-19T13:03:47Z</time>
      </trkpt>
      <trkpt lat="43.097667" lon="-2.914633">
        <ele>674.0</ele>
        <time>2014-04-19T13:03:48Z</time>
      </trkpt>
      <trkpt lat="43.097683" lon="-2.914550">
        <ele>674.0</ele>
        <time>2014-04-19T13:03:49Z</time>
      </trkpt>
      <trkpt lat="43.097700" lon="-2.914467">
        <ele>675.0</ele>
        <time>2014-04-19T13:03:50Z</time>
      </trkpt>
      <trkpt lat="43.097733" lon="-2.914383">
        <ele>676.0</ele>
        <time>2014-04-19T13:03:51Z</time>
      </trkpt>
      <trkpt lat="43.097750" lon="-2.914317">
        <ele>676.0</ele>
        <time>2014-04-19T13:03:52Z</time>
      </trkpt>
      <trkpt lat="43.097783" lon="-2.914233">
        <ele>677.0</ele>
        <time>2014-04-19T13:03:53Z</time>
      </trkpt>
      <trkpt lat="43.097800" lon="-2.914150">
        <ele>679.0</ele>
        <time>2014-04-19T13:03:54Z</time>
      </trkpt>
      <trkpt lat="43.097817" lon="-2.914067">
        <ele>680.0</ele>
        <time>2014-04-19T13:03:55Z</time>
      </trkpt>
      <trkpt lat="43.097833" lon="-2.914000">
        <ele>682.0</ele>
        <time>2014-04-19T13:03:56Z</time>
      </trkpt>
      <trkpt lat="43.097833" lon="-2.913917">
        <ele>683.0</ele>
        <time>2014-04-19T13:03:57Z</time>
      </trkpt>
      <trkpt lat="43.097833" lon="-2.913817">
        <ele>684.0</ele>
        <time>2014-04-19T13:03:58Z</time>
      </trkpt>
      <trkpt lat="43.097800" lon="-2.913733">
        <ele>684.0</ele>
        <time>2014-04-19T13:03:59Z</time>
      </trkpt>
      <trkpt lat="43.097750" lon="-2.913617">
        <ele>683.0</ele>
        <time>2014-04-19T13:04:00Z</time>
      </trkpt>
      <trkpt lat="43.097683" lon="-2.913533">
        <ele>684.0</ele>
        <time>2014-04-19T13:04:01Z</time>
      </trkpt>
      <trkpt lat="43.097600" lon="-2.913500">
        <ele>685.0</ele>
        <time>2014-04-19T13:04:02Z</time>
      </trkpt>
      <trkpt lat="43.097500" lon="-2.913517">
        <ele>687.0</ele>
        <time>2014-04-19T13:04:03Z</time>
      </trkpt>
      <trkpt lat="43.097417" lon="-2.913567">
        <ele>687.0</ele>
        <time>2014-04-19T13:04:04Z</time>
      </trkpt>
      <trkpt lat="43.097317" lon="-2.913650">
        <ele>687.0</ele>
        <time>2014-04-19T13:04:05Z</time>
      </trkpt>
      <trkpt lat="43.097250" lon="-2.913733">
        <ele>687.0</ele>
        <time>2014-04-19T13:04:06Z</time>
      </trkpt>
      <trkpt lat="43.097200" lon="-2.913850">
        <ele>688.0</ele>
        <time>2014-04-19T13:04:07Z</time>
      </trkpt>
      <trkpt lat="43.097183" lon="-2.913967">
        <ele>689.0</ele>
        <time>2014-04-19T13:04:08Z</time>
      </trkpt>
      <trkpt lat="43.097167" lon="-2.914083">
        <ele>690.0</ele>
        <time>2014-04-19T13:04:09Z</time>
      </trkpt>
      <trkpt lat="43.097183" lon="-2.914200">
        <ele>692.0</ele>
        <time>2014-04-19T13:04:10Z</time>
      </trkpt>
      <trkpt lat="43.097217" lon="-2.914283">
        <ele>694.0</ele>
        <time>2014-04-19T13:04:11Z</time>
      </trkpt>
      <trkpt lat="43.097250" lon="-2.914350">
        <ele>696.0</ele>
        <time>2014-04-19T13:04:12Z</time>
      </trkpt>
      <trkpt lat="43.097300" lon="-2.914400">
        <ele>697.0</ele>
        <time>2014-04-19T13:04:13Z</time>
      </trkpt>
      <trkpt lat="43.097367" lon="-2.914417">
        <ele>699.0</ele>
        <time>2014-04-19T13:04:14Z</time>
      </trkpt>
      <trkpt lat="43.097417" lon="-2.914400">
        <ele>700.0</ele>
        <time>2014-04-19T13:04:15Z</time>
      </trkpt>
      <trkpt lat="43.097483" lon="-2.914367">
        <ele>701.0</ele>
        <time>2014-04-19T13:04:16Z</time>
      </trkpt>
      <trkpt lat="43.097533" lon="-2.914317">
        <ele>703.0</ele>
        <time>2014-04-19T13:04:17Z</time>
      </trkpt>
      <trkpt lat="43.097567" lon="-2.914233">
        <ele>704.0</ele>
        <time>2014-04-19T13:04:18Z</time>
      </trkpt>
      <trkpt lat="43.097567" lon="-2.914133">
        <ele>705.0</ele>
        <time>2014-04-19T13:04:19Z</time>
      </trkpt>
      <trkpt lat="43.097533" lon="-2.914033">
        <ele>706.0</ele>
        <time>2014-04-19T13:04:20Z</time>
      </trkpt>
      <trkpt lat="43.097500" lon="-2.913950">
        <ele>708.0</ele>
        <time>2014-04-19T13:04:21Z</time>
      </trkpt>
      <trkpt lat="43.097433" lon="-2.913883">
        <ele>709.0</ele>
        <time>2014-04-19T13:04:22Z</time>
      </trkpt>
      <trkpt lat="43.097350" lon="-2.913817">
        <ele>710.0</ele>
        <time>2014-04-19T13:04:23Z</time>
      </trkpt>
      <trkpt lat="43.097267" lon="-2.913783">
        <ele>710.0</ele>
        <time>2014-04-19T13:04:24Z</time>
      </trkpt>
      <trkpt lat="43.097150" lon="-2.913750">
        <ele>711.0</ele>
        <time>2014-04-19T13:04:25Z</time>
      </trkpt>
      <trkpt lat="43.097050" lon="-2.913767">
        <ele>711.0</ele>
        <time>2014-04-19T13:04:26Z</time>
      </trkpt>
      <trkpt lat="43.096950" lon="-2.913833">
        <ele>711.0</ele>
        <time>2014-04-19T13:04:27Z</time>
      </trkpt>
      <trkpt lat="43.096850" lon="-2.913917">
        <ele>711.0</ele>
        <time>2014-04-19T13:04:28Z</time>
      </trkpt>
      <trkpt lat="43.096767" lon="-2.914017">
        <ele>711.0</ele>
        <time>2014-04-19T13:04:29Z</time>
      </trkpt>
      <trkpt lat="43.096700" lon="-2.914117">
        <ele>711.0</ele>
        <time>2014-04-19T13:04:30Z</time>
      </trkpt>
      <trkpt lat="43.096650" lon="-2.914217">
        <ele>712.0</ele>
        <time>2014-04-19T13:04:31Z</time>
      </trkpt>
      <trkpt lat="43.096633" lon="-2.914333">
        <ele>713.0</ele>
        <time>2014-04-19T13:04:32Z</time>
      </trkpt>
      <trkpt lat="43.096617" lon="-2.914450">
        <ele>714.0</ele>
        <time>2014-04-19T13:04:33Z</time>
      </trkpt>
      <trkpt lat="43.096617" lon="-2.914567">
        <ele>715.0</ele>
        <time>2014-04-19T13:04:34Z</time>
      </trkpt>
      <trkpt lat="43.096650" lon="-2.914667">
        <ele>716.0</ele>
        <time>2014-04-19T13:04:35Z</time>
      </trkpt>
      <trkpt lat="43.096683" lon="-2.914733">
        <ele>717.0</ele>
        <time>2014-04-19T13:04:36Z</time>
      </trkpt>
      <trkpt lat="43.096717" lon="-2.914817">
        <ele>718.0</ele>
        <time>2014-04-19T13:04:37Z</time>
      </trkpt>
      <trkpt lat="43.096767" lon="-2.914867">
        <ele>718.0</ele>
        <time>2014-04-19T13:04:38Z</time>
      </trkpt>
      <trkpt lat="43.096833" lon="-2.914883">
        <ele>718.0</ele>
        <time>2014-04-19T13:04:39Z</time>
      </trkpt>
      <trkpt lat="43.096917" lon="-2.914900">
        <ele>718.0</ele>
        <time>2014-04-19T13:04:40Z</time>
      </trkpt>
      <trkpt lat="43.096983" lon="-2.914900">
        <ele>719.0</ele>
        <time>2014-04-19T13:04:41Z</time>
      </trkpt>
      <trkpt lat="43.097017" lon="-2.914883">
        <ele>722.0</ele>
        <time>2014-04-19T13:04:42Z</time>
      </trkpt>
      <trkpt lat="43.097050" lon="-2.914867">
        <ele>724.0</ele>
        <time>2014-04-19T13:04:43Z</time>
      </trkpt>
      <trkpt lat="43.097083" lon="-2.914817">
        <ele>726.0</ele>
        <time>2014-04-19T13:04:44Z</time>
      </trkpt>
      <trkpt lat="43.097117" lon="-2.914750">
        <ele>726.0</ele>
        <time>2014-04-19T13:04:45Z</time>
      </trkpt>
      <trkpt lat="43.097167" lon="-2.914683">
        <ele>727.0</ele>
        <time>2014-04-19T13:04:46Z</time>
      </trkpt>
      <trkpt lat="43.097200" lon="-2.914633">
        <ele>728.0</ele>
        <time>2014-04-19T13:04:47Z</time>
      </trkpt>
      <trkpt lat="43.097217" lon="-2.914600">
        <ele>730.0</ele>
        <time>2014-04-19T13:04:48Z</time>
      </trkpt>
      <trkpt lat="43.097233" lon="-2.914550">
        <ele>733.0</ele>
        <time>2014-04-19T13:04:49Z</time>
      </trkpt>
      <trkpt lat="43.097250" lon="-2.914517">
        <ele>734.0</ele>
        <time>2014-04-19T13:04:50Z</time>
      </trkpt>
      <trkpt lat="43.097267" lon="-2.914450">
        <ele>735.0</ele>
        <time>2014-04-19T13:04:51Z</time>
      </trkpt>
      <trkpt lat="43.097283" lon="-2.914400">
        <ele>735.0</ele>
        <time>2014-04-19T13:04:52Z</time>
      </trkpt>
      <trkpt lat="43.097317" lon="-2.914350">
        <ele>734.0</ele>
        <time>2014-04-19T13:04:53Z</time>
      </trkpt>
      <trkpt lat="43.097350" lon="-2.914283">
        <ele>734.0</ele>
        <time>2014-04-19T13:04:54Z</time>
      </trkpt>
      <trkpt lat="43.097367" lon="-2.914250">
        <ele>735.0</ele>
        <time>2014-04-19T13:04:55Z</time>
      </trkpt>
      <trkpt lat="43.097400" lon="-2.914200">
        <ele>736.0</ele>
        <time>2014-04-19T13:04:56Z</time>
      </trkpt>
      <trkpt lat="43.097417" lon="-2.914167">
        <ele>737.0</ele>
        <time>2014-04-19T13:04:57Z</time>
      </trkpt>
      <trkpt lat="43.097450" lon="-2.914117">
        <ele>737.0</ele>
        <time>2014-04-19T13:04:58Z</time>
      </trkpt>
      <trkpt lat="43.097467" lon="-2.914067">
        <ele>738.0</ele>
        <time>2014-04-19T13:04:59Z</time>
      </trkpt>
      <trkpt lat="43.097483" lon="-2.914017">
        <ele>740.0</ele>
        <time>2014-04-19T13:05:00Z</time>
      </trkpt>
      <trkpt lat="43.097500" lon="-2.913983">
        <ele>743.0</ele>
        <time>2014-04-19T13:05:01Z</time>
      </trkpt>
      <trkpt lat="43.097500" lon="-2.913967">
        <ele>745.0</ele>
        <time>2014-04-19T13:05:02Z</time>
      </trkpt>
      <trkpt lat="43.097500" lon="-2.913917">
        <ele>747.0</ele>
        <time>2014-04-19T13:05:03Z</time>
      </trkpt>
      <trkpt lat="43.097467" lon="-2.913850">
        <ele>746.0</ele>
        <time>2014-04-19T13:05:04Z</time>
      </trkpt>
      <trkpt lat="43.097417" lon="-2.913767">
        <ele>746.0</ele>
        <time>2014-04-19T13:05:05Z</time>
      </trkpt>
      <trkpt lat="43.097333" lon="-2.913700">
        <ele>747.0</ele>
        <time>2014-04-19T13:05:06Z</time>
      </trkpt>
      <trkpt lat="43.097233" lon="-2.913683">
        <ele>748.0</ele>
        <time>2014-04-19T13:05:07Z</time>
      </trkpt>
      <trkpt lat="43.097100" lon="-2.913717">
        <ele>749.0</ele>
        <time>2014-04-19T13:05:08Z</time>
      </trkpt>
      <trkpt lat="43.097000" lon="-2.913800">
        <ele>750.0</ele>
        <time>2014-04-19T13:05:09Z</time>
      </trkpt>
      <trkpt lat="43.096917" lon="-2.913900">
        <ele>752.0</ele>
        <time>2014-04-19T13:05:10Z</time>
      </trkpt>
      <trkpt lat="43.096867" lon="-2.914000">
        <ele>754.0</ele>
        <time>2014-04-19T13:05:11Z</time>
      </trkpt>
      <trkpt lat="43.096833" lon="-2.914117">
        <ele>757.0</ele>
        <time>2014-04-19T13:05:12Z</time>
      </trkpt>
      <trkpt lat="43.096817" lon="-2.914233">
        <ele>758.0</ele>
        <time>2014-04-19T13:05:13Z</time>
      </trkpt>
      <trkpt lat="43.096817" lon="-2.914350">
        <ele>759.0</ele>
        <time>2014-04-19T13:05:14Z</time>
      </trkpt>
      <trkpt lat="43.096850" lon="-2.914450">
        <ele>760.0</ele>
        <time>2014-04-19T13:05:15Z</time>
      </trkpt>
      <trkpt lat="43.096883" lon="-2.914533">
        <ele>761.0</ele>
        <time>2014-04-19T13:05:16Z</time>
      </trkpt>
      <trkpt lat="43.096933" lon="-2.914583">
        <ele>762.0</ele>
        <time>2014-04-19T13:05:17Z</time>
      </trkpt>
      <trkpt lat="43.096983" lon="-2.914600">
        <ele>764.0</ele>
        <time>2014-04-19T13:05:18Z</time>
      </trkpt>
      <trkpt lat="43.097033" lon="-2.914617">
        <ele>766.0</ele>
        <time>2014-04-19T13:05:19Z</time>
      </trkpt>
      <trkpt lat="43.097067" lon="-2.914633">
        <ele>768.0</ele>
        <time>2014-04-19T13:05:20Z</time>
      </trkpt>
      <trkpt lat="43.097100" lon="-2.914617">
        <ele>770.0</ele>
        <time>2014-04-19T13:05:21Z</time>
      </trkpt>
      <trkpt lat="43.097133" lon="-2.914583">
        <ele>771.0</ele>
        <time>2014-04-19T13:05:22Z</time>
      </trkpt>
      <trkpt lat="43.097133" lon="-2.914517">
        <ele>772.0</ele>
        <time>2014-04-19T13:05:23Z</time>
      </trkpt>
      <trkpt lat="43.097117" lon="-2.914433">
        <ele>773.0</ele>
        <time>2014-04-19T13:05:24Z</time>
      </trkpt>
      <trkpt lat="43.097050" lon="-2.914367">
        <ele>774.0</ele>
        <time>2014-04-19T13:05:25Z</time>
      </trkpt>
      <trkpt lat="43.096950" lon="-2.914317">
        <ele>775.0</ele>
        <time>2014-04-19T13:05:26Z</time>
      </trkpt>
      <trkpt lat="43.096850" lon="-2.914317">
        <ele>776.0</ele>
        <time>2014-04-19T13:05:27Z</time>
      </trkpt>
      <trkpt lat="43.096733" lon="-2.914333">
        <ele>778.0</ele>
        <time>2014-04-19T13:05:28Z</time>
      </trkpt>
      <trkpt lat="43.096633" lon="-2.914367">
        <ele>779.0</ele>
        <time>2014-04-19T13:05:29Z</time>
      </trkpt>
      <trkpt lat="43.096533" lon="-2.914450">
        <ele>781.0</ele>
        <time>2014-04-19T13:05:30Z</time>
      </trkpt>
      <trkpt lat="43.096450" lon="-2.914567">
        <ele>782.0</ele>
        <time>2014-04-19T13:05:31Z</time>
      </trkpt>
      <trkpt lat="43.096400" lon="-2.914700">
        <ele>783.0</ele>
        <time>2014-04-19T13:05:32Z</time>
      </trkpt>
      <trkpt lat="43.096400" lon="-2.914850">
        <ele>784.0</ele>
        <time>2014-04-19T13:05:33Z</time>
      </trkpt>
      <trkpt lat="43.096417" lon="-2.914950">
        <ele>786.0</ele>
        <time>2014-04-19T13:05:34Z</time>
      </trkpt>
      <trkpt lat="43.096450" lon="-2.915033">
        <ele>788.0</ele>
        <time>2014-04-19T13:05:35Z</time>
      </trkpt>
      <trkpt lat="43.096500" lon="-2.915067">
        <ele>789.0</ele>
        <time>2014-04-19T13:05:36Z</time>
      </trkpt>
      <trkpt lat="43.096550" lon="-2.915083">
        <ele>790.0</ele>
        <time>2014-04-19T13:05:37Z</time>
      </trkpt>
      <trkpt lat="43.096600" lon="-2.915067">
        <ele>791.0</ele>
        <time>2014-04-19T13:05:38Z</time>
      </trkpt>
      <trkpt lat="43.096633" lon="-2.915033">
        <ele>793.0</ele>
        <time>2014-04-19T13:05:39Z</time>
      </trkpt>
      <trkpt lat="43.096633" lon="-2.914967">
        <ele>794.0</ele>
        <time>2014-04-19T13:05:40Z</time>
      </trkpt>
      <trkpt lat="43.096617" lon="-2.914900">
        <ele>794.0</ele>
        <time>2014-04-19T13:05:41Z</time>
      </trkpt>
      <trkpt lat="43.096583" lon="-2.914817">
        <ele>796.0</ele>
        <time>2014-04-19T13:05:42Z</time>
      </trkpt>
      <trkpt lat="43.096517" lon="-2.914750">
        <ele>797.0</ele>
        <time>2014-04-19T13:05:43Z</time>
      </trkpt>
      <trkpt lat="43.096433" lon="-2.914717">
        <ele>799.0</ele>
        <time>2014-04-19T13:05:44Z</time>
      </trkpt>
      <trkpt lat="43.096317" lon="-2.914700">
        <ele>801.0</ele>
        <time>2014-04-19T13:05:45Z</time>
      </trkpt>
      <trkpt lat="43.096217" lon="-2.914717">
        <ele>802.0</ele>
        <time>2014-04-19T13:05:46Z</time>
      </trkpt>
      <trkpt lat="43.096100" lon="-2.914767">
        <ele>803.0</ele>
        <time>2014-04-19T13:05:47Z</time>
      </trkpt>
      <trkpt lat="43.096000" lon="-2.914833">
        <ele>805.0</ele>
        <time>2014-04-19T13:05:48Z</time>
      </trkpt>
      <trkpt lat="43.095900" lon="-2.914933">
        <ele>807.0</ele>
        <time>2014-04-19T13:05:49Z</time>
      </trkpt>
      <trkpt lat="43.095833" lon="-2.915050">
        <ele>808.0</ele>
        <time>2014-04-19T13:05:50Z</time>
      </trkpt>
      <trkpt lat="43.095783" lon="-2.915167">
        <ele>809.0</ele>
        <time>2014-04-19T13:05:51Z</time>
      </trkpt>
      <trkpt lat="43.095767" lon="-2.915300">
        <ele>810.0</ele>
        <time>2014-04-19T13:05:52Z</time>
      </trkpt>
      <trkpt lat="43.095750" lon="-2.915417">
        <ele>811.0</ele>
        <time>2014-04-19T13:05:53Z</time>
      </trkpt>
      <trkpt lat="43.095767" lon="-2.915517">
        <ele>812.0</ele>
        <time>2014-04-19T13:05:54Z</time>
      </trkpt>
      <trkpt lat="43.095800" lon="-2.915583">
        <ele>813.0</ele>
        <time>2014-04-19T13:05:55Z</time>
      </trkpt>
      <trkpt lat="43.095850" lon="-2.915633">
        <ele>813.0</ele>
        <time>2014-04-19T13:05:56Z</time>
      </trkpt>
      <trkpt lat="43.095883" lon="-2.915667">
        <ele>813.0</ele>
        <time>2014-04-19T13:05:57Z</time>
      </trkpt>
      <trkpt lat="43.095933" lon="-2.915667">
        <ele>813.0</ele>
        <time>2014-04-19T13:05:58Z</time>
      </trkpt>
      <trkpt lat="43.095983" lon="-2.915633">
        <ele>813.0</ele>
        <time>2014-04-19T13:05:59Z</time>
      </trkpt>
      <trkpt lat="43.096017" lon="-2.915583">
        <ele>813.0</ele>
        <time>2014-04-19T13:06:00Z</time>
      </trkpt>
      <trkpt lat="43.096033" lon="-2.915517">
        <ele>813.0</ele>
        <time>2014-04-19T13:06:01Z</time>
      </trkpt>
      <trkpt lat="43.096067" lon="-2.915450">
        <ele>815.0</ele>
        <time>2014-04-19T13:06:02Z</time>
      </trkpt>
      <trkpt lat="43.096083" lon="-2.915417">
        <ele>818.0</ele>
        <time>2014-04-19T13:06:03Z</time>
      </trkpt>
      <trkpt lat="43.096100" lon="-2.915367">
        <ele>820.0</ele>
        <time>2014-04-19T13:06:04Z</time>
      </trkpt>
      <trkpt lat="43.096117" lon="-2.915317">
        <ele>822.0</ele>
        <time>2014-04-19T13:06:05Z</time>
      </trkpt>
      <trkpt lat="43.096117" lon="-2.915250">
        <ele>824.0</ele>
        <time>2014-04-19T13:06:06Z</time>
      </trkpt>
      <trkpt lat="43.096117" lon="-2.915167">
        <ele>825.0</ele>
        <time>2014-04-19T13:06:07Z</time>
      </trkpt>
      <trkpt lat="43.096067" lon="-2.915100">
        <ele>827.0</ele>
        <time>2014-04-19T13:06:08Z</time>
      </trkpt>
      <trkpt lat="43.096017" lon="-2.915033">
        <ele>829.0</ele>
        <time>2014-04-19T13:06:09Z</time>
      </trkpt>
      <trkpt lat="43.095933" lon="-2.914983">
        <ele>829.0</ele>
        <time>2014-04-19T13:06:10Z</time>
      </trkpt>
      <trkpt lat="43.095833" lon="-2.914950">
        <ele>829.0</ele>
        <time>2014-04-19T13:06:11Z</time>
      </trkpt>
      <trkpt lat="43.095717" lon="-2.914933">
        <ele>829.0</ele>
        <time>2014-04-19T13:06:12Z</time>
      </trkpt>
      <trkpt lat="43.095600" lon="-2.914950">
        <ele>830.0</ele>
        <time>2014-04-19T13:06:13Z</time>
      </trkpt>
      <trkpt lat="43.095483" lon="-2.915017">
        <ele>830.0</ele>
        <time>2014-04-19T13:06:14Z</time>
      </trkpt>
      <trkpt lat="43.095383" lon="-2.915117">
        <ele>831.0</ele>
        <time>2014-04-19T13:06:15Z</time>
      </trkpt>
      <trkpt lat="43.095300" lon="-2.915233">
        <ele>832.0</ele>
        <time>2014-04-19T13:06:16Z</time>
      </trkpt>
      <trkpt lat="43.095250" lon="-2.915350">
        <ele>834.0</ele>
        <time>2014-04-19T13:06:17Z</time>
      </trkpt>
      <trkpt lat="43.095200" lon="-2.915467">
        <ele>836.0</ele>
        <time>2014-04-19T13:06:18Z</time>
      </trkpt>
      <trkpt lat="43.095183" lon="-2.915583">
        <ele>838.0</ele>
        <time>2014-04-19T13:06:19Z</time>
      </trkpt>
      <trkpt lat="43.095183" lon="-2.915700">
        <ele>839.0</ele>
        <time>2014-04-19T13:06:20Z</time>
      </trkpt>
      <trkpt lat="43.095183" lon="-2.915817">
        <ele>840.0</ele>
        <time>2014-04-19T13:06:21Z</time>
      </trkpt>
      <trkpt lat="43.095217" lon="-2.915917">
        <ele>841.0</ele>
        <time>2014-04-19T13:06:22Z</time>
      </trkpt>
      <trkpt lat="43.095250" lon="-2.915983">
        <ele>842.0</ele>
        <time>2014-04-19T13:06:23Z</time>
      </trkpt>
      <trkpt lat="43.095300" lon="-2.916033">
        <ele>843.0</ele>
        <time>2014-04-19T13:06:24Z</time>
      </trkpt>
      <trkpt lat="43.095350" lon="-2.916050">
        <ele>844.0</ele>
        <time>2014-04-19T13:06:25Z</time>
      </trkpt>
      <trkpt lat="43.095400" lon="-2.916033">
        <ele>844.0</ele>
        <time>2014-04-19T13:06:26Z</time>
      </trkpt>
      <trkpt lat="43.095433" lon="-2.915983">
        <ele>845.0</ele>
        <time>2014-04-19T13:06:27Z</time>
      </trkpt>
      <trkpt lat="43.095483" lon="-2.915933">
        <ele>845.0</ele>
        <time>2014-04-19T13:06:28Z</time>
      </trkpt>
      <trkpt lat="43.095500" lon="-2.915883">
        <ele>847.0</ele>
        <time>2014-04-19T13:06:29Z</time>
      </trkpt>
      <trkpt lat="43.095517" lon="-2.915817">
        <ele>850.0</ele>
        <time>2014-04-19T13:06:30Z</time>
      </trkpt>
      <trkpt lat="43.095500" lon="-2.915767">
        <ele>852.0</ele>
        <time>2014-04-19T13:06:31Z</time>
      </trkpt>
      <trkpt lat="43.095467" lon="-2.915683">
        <ele>853.0</ele>
        <time>2014-04-19T13:06:32Z</time>
      </trkpt>
      <trkpt lat="43.095417" lon="-2.915600">
        <ele>853.0</ele>
        <time>2014-04-19T13:06:33Z</time>
      </trkpt>
      <trkpt lat="43.095367" lon="-2.915533">
        <ele>854.0</ele>
        <time>2014-04-19T13:06:34Z</time>
      </trkpt>
      <trkpt lat="43.095283" lon="-2.915467">
        <ele>855.0</ele>
        <time>2014-04-19T13:06:35Z</time>
      </trkpt>
      <trkpt lat="43.095183" lon="-2.915433">
        <ele>856.0</ele>
        <time>2014-04-19T13:06:36Z</time>
      </trkpt>
      <trkpt lat="43.095083" lon="-2.915417">
        <ele>857.0</ele>
        <time>2014-04-19T13:06:37Z</time>
      </trkpt>
      <trkpt lat="43.094983" lon="-2.915433">
        <ele>858.0</ele>
        <time>2014-04-19T13:06:38Z</time>
      </trkpt>
      <trkpt lat="43.094867" lon="-2.915467">
        <ele>858.0</ele>
        <time>2014-04-19T13:06:39Z</time>
      </trkpt>
      <trkpt lat="43.094750" lon="-2.915500">
        <ele>858.0</ele>
        <time>2014-04-19T13:06:40Z</time>
      </trkpt>
      <trkpt lat="43.094633" lon="-2.915533">
        <ele>859.0</ele>
        <time>2014-04-19T13:06:41Z</time>
      </trkpt>
      <trkpt lat="43.094533" lon="-2.915583">
        <ele>861.0</ele>
        <time>2014-04-19T13:06:42Z</time>
      </trkpt>
      <trkpt lat="43.094450" lon="-2.915683">
        <ele>864.0</ele>
        <time>2014-04-19T13:06:43Z</time>
      </trkpt>
      <trkpt lat="43.094400" lon="-2.915767">
        <ele>865.0</ele>
        <time>2014-04-19T13:06:44Z</time>
      </trkpt>
      <trkpt lat="43.094350" lon="-2.915883">
        <ele>864.0</ele>
        <time>2014-04-19T13:06:45Z</time>
      </trkpt>
      <trkpt lat="43.094333" lon="-2.916017">
        <ele>864.0</ele>
        <time>2014-04-19T13:06:46Z</time>
      </trkpt>
      <trkpt lat="43.094300" lon="-2.916133">
        <ele>864.0</ele>
        <time>2014-04-19T13:06:47Z</time>
      </trkpt>
      <trkpt lat="43.094283" lon="-2.916250">
        <ele>865.0</ele>
        <time>2014-04-19T13:06:48Z</time>
      </trkpt>
      <trkpt lat="43.094267" lon="-2.916350">
        <ele>866.0</ele>
        <time>2014-04-19T13:06:49Z</time>
      </trkpt>
      <trkpt lat="43.094267" lon="-2.916450">
        <ele>867.0</ele>
        <time>2014-04-19T13:06:50Z</time>
      </trkpt>
      <trkpt lat="43.094283" lon="-2.916533">
        <ele>867.0</ele>
        <time>2014-04-19T13:06:51Z</time>
      </trkpt>
      <trkpt lat="43.094317" lon="-2.916600">
        <ele>867.0</ele>
        <time>2014-04-19T13:06:52Z</time>
      </trkpt>
      <trkpt lat="43.094367" lon="-2.916667">
        <ele>866.0</ele>
        <time>2014-04-19T13:06:53Z</time>
      </trkpt>
      <trkpt lat="43.094417" lon="-2.916733">
        <ele>865.0</ele>
        <time>2014-04-19T13:06:54Z</time>
      </trkpt>
      <trkpt lat="43.094450" lon="-2.916800">
        <ele>866.0</ele>
        <time>2014-04-19T13:06:55Z</time>
      </trkpt>
      <trkpt lat="43.094483" lon="-2.916850">
        <ele>866.0</ele>
        <time>2014-04-19T13:06:56Z</time>
      </trkpt>
      <trkpt lat="43.094517" lon="-2.916883">
        <ele>867.0</ele>
        <time>2014-04-19T13:06:57Z</time>
      </trkpt>
      <trkpt lat="43.094583" lon="-2.916867">
        <ele>866.0</ele>
        <time>2014-04-19T13:06:58Z</time>
      </trkpt>
      <trkpt lat="43.094633" lon="-2.916833">
        <ele>865.0</ele>
        <time>2014-04-19T13:06:59Z</time>
      </trkpt>
      <trkpt lat="43.094683" lon="-2.916800">
        <ele>868.0</ele>
        <time>2014-04-19T13:07:00Z</time>
      </trkpt>
      <trkpt lat="43.094717" lon="-2.916783">
        <ele>871.0</ele>
        <time>2014-04-19T13:07:01Z</time>
      </trkpt>
      <trkpt lat="43.094750" lon="-2.916767">
        <ele>873.0</ele>
        <time>2014-04-19T13:07:02Z</time>
      </trkpt>
      <trkpt lat="43.094783" lon="-2.916733">
        <ele>875.0</ele>
        <time>2014-04-19T13:07:03Z</time>
      </trkpt>
      <trkpt lat="43.094800" lon="-2.916683">
        <ele>875.0</ele>
        <time>2014-04-19T13:07:04Z</time>
      </trkpt>
      <trkpt lat="43.094817" lon="-2.916600">
        <ele>875.0</ele>
        <time>2014-04-19T13:07:05Z</time>
      </trkpt>
      <trkpt lat="43.094783" lon="-2.916517">
        <ele>876.0</ele>
        <time>2014-04-19T13:07:06Z</time>
      </trkpt>
      <trkpt lat="43.094750" lon="-2.916433">
        <ele>876.0</ele>
        <time>2014-04-19T13:07:07Z</time>
      </trkpt>
      <trkpt lat="43.094683" lon="-2.916383">
        <ele>877.0</ele>
        <time>2014-04-19T13:07:08Z</time>
      </trkpt>
      <trkpt lat="43.094617" lon="-2.916333">
        <ele>878.0</ele>
        <time>2014-04-19T13:07:09Z</time>
      </trkpt>
      <trkpt lat="43.094550" lon="-2.916300">
        <ele>879.0</ele>
        <time>2014-04-19T13:07:10Z</time>
      </trkpt>
      <trkpt lat="43.094450" lon="-2.916267">
        <ele>879.0</ele>
        <time>2014-04-19T13:07:11Z</time>
      </trkpt>
      <trkpt lat="43.094350" lon="-2.916283">
        <ele>880.0</ele>
        <time>2014-04-19T13:07:12Z</time>
      </trkpt>
      <trkpt lat="43.094250" lon="-2.916333">
        <ele>880.0</ele>
        <time>2014-04-19T13:07:13Z</time>
      </trkpt>
      <trkpt lat="43.094167" lon="-2.916433">
        <ele>880.0</ele>
        <time>2014-04-19T13:07:14Z</time>
      </trkpt>
      <trkpt lat="43.094100" lon="-2.916533">
        <ele>881.0</ele>
        <time>2014-04-19T13:07:15Z</time>
      </trkpt>
      <trkpt lat="43.094033" lon="-2.916617">
        <ele>882.0</ele>
        <time>2014-04-19T13:07:16Z</time>
      </trkpt>
      <trkpt lat="43.093983" lon="-2.916717">
        <ele>884.0</ele>
        <time>2014-04-19T13:07:17Z</time>
      </trkpt>
      <trkpt lat="43.093950" lon="-2.916817">
        <ele>885.0</ele>
        <time>2014-04-19T13:07:18Z</time>
      </trkpt>
      <trkpt lat="43.093933" lon="-2.916933">
        <ele>885.0</ele>
        <time>2014-04-19T13:07:19Z</time>
      </trkpt>
      <trkpt lat="43.093933" lon="-2.917050">
        <ele>884.0</ele>
        <time>2014-04-19T13:07:20Z</time>
      </trkpt>
      <trkpt lat="43.093967" lon="-2.917150">
        <ele>885.0</ele>
        <time>2014-04-19T13:07:21Z</time>
      </trkpt>
      <trkpt lat="43.094017" lon="-2.917217">
        <ele>885.0</ele>
        <time>2014-04-19T13:07:22Z</time>
      </trkpt>
      <trkpt lat="43.094067" lon="-2.917233">
        <ele>886.0</ele>
        <time>2014-04-19T13:07:23Z</time>
      </trkpt>
      <trkpt lat="43.094117" lon="-2.917217">
        <ele>888.0</ele>
        <time>2014-04-19T13:07:24Z</time>
      </trkpt>
      <trkpt lat="43.094150" lon="-2.917183">
        <ele>890.0</ele>
        <time>2014-04-19T13:07:25Z</time>
      </trkpt>
      <trkpt lat="43.094167" lon="-2.917150">
        <ele>891.0</ele>
        <time>2014-04-19T13:07:26Z</time>
      </trkpt>
      <trkpt lat="43.094183" lon="-2.917083">
        <ele>892.0</ele>
        <time>2014-04-19T13:07:27Z</time>
      </trkpt>
      <trkpt lat="43.094183" lon="-2.917000">
        <ele>892.0</ele>
        <time>2014-04-19T13:07:28Z</time>
      </trkpt>
      <trkpt lat="43.094167" lon="-2.916917">
        <ele>892.0</ele>
        <time>2014-04-19T13:07:29Z</time>
      </trkpt>
      <trkpt lat="43.094117" lon="-2.916817">
        <ele>893.0</ele>
        <time>2014-04-19T13:07:30Z</time>
      </trkpt>
      <trkpt lat="43.094067" lon="-2.916750">
        <ele>894.0</ele>
        <time>2014-04-19T13:07:31Z</time>
      </trkpt>
      <trkpt lat="43.093983" lon="-2.916700">
        <ele>894.0</ele>
        <time>2014-04-19T13:07:32Z</time>
      </trkpt>
      <trkpt lat="43.093883" lon="-2.916667">
        <ele>895.0</ele>
        <time>2014-04-19T13:07:33Z</time>
      </trkpt>
      <trkpt lat="43.093767" lon="-2.916667">
        <ele>894.0</ele>
        <time>2014-04-19T13:07:34Z</time>
      </trkpt>
      <trkpt lat="43.093667" lon="-2.916700">
        <ele>894.0</ele>
        <time>2014-04-19T13:07:35Z</time>
      </trkpt>
      <trkpt lat="43.093567" lon="-2.916750">
        <ele>895.0</ele>
        <time>2014-04-19T13:07:36Z</time>
      </trkpt>
      <trkpt lat="43.093483" lon="-2.916833">
        <ele>895.0</ele>
        <time>2014-04-19T13:07:37Z</time>
      </trkpt>
      <trkpt lat="43.093417" lon="-2.916950">
        <ele>896.0</ele>
        <time>2014-04-19T13:07:38Z</time>
      </trkpt>
      <trkpt lat="43.093367" lon="-2.917067">
        <ele>896.0</ele>
        <time>2014-04-19T13:07:39Z</time>
      </trkpt>
      <trkpt lat="43.093350" lon="-2.917167">
        <ele>897.0</ele>
        <time>2014-04-19T13:07:40Z</time>
      </trkpt>
      <trkpt lat="43.093333" lon="-2.917283">
        <ele>898.0</ele>
        <time>2014-04-19T13:07:41Z</time>
      </trkpt>
      <trkpt lat="43.093333" lon="-2.917383">
        <ele>898.0</ele>
        <time>2014-04-19T13:07:42Z</time>
      </trkpt>
      <trkpt lat="43.093350" lon="-2.917483">
        <ele>898.0</ele>
        <time>2014-04-19T13:07:43Z</time>
      </trkpt>
      <trkpt lat="43.093367" lon="-2.917583">
        <ele>898.0</ele>
        <time>2014-04-19T13:07:44Z</time>
      </trkpt>
      <trkpt lat="43.093417" lon="-2.917683">
        <ele>898.0</ele>
        <time>2014-04-19T13:07:45Z</time>
      </trkpt>
      <trkpt lat="43.093467" lon="-2.917767">
        <ele>898.0</ele>
        <time>2014-04-19T13:07:46Z</time>
      </trkpt>
      <trkpt lat="43.093500" lon="-2.917850">
        <ele>899.0</ele>
        <time>2014-04-19T13:07:47Z</time>
      </trkpt>
      <trkpt lat="43.093533" lon="-2.917933">
        <ele>900.0</ele>
        <time>2014-04-19T13:07:48Z</time>
      </trkpt>
      <trkpt lat="43.093583" lon="-2.918017">
        <ele>902.0</ele>
        <time>2014-04-19T13:07:49Z</time>
      </trkpt>
      <trkpt lat="43.093617" lon="-2.918117">
        <ele>904.0</ele>
        <time>2014-04-19T13:07:50Z</time>
      </trkpt>
      <trkpt lat="43.093633" lon="-2.918200">
        <ele>906.0</ele>
        <time>2014-04-19T13:07:51Z</time>
      </trkpt>
      <trkpt lat="43.093667" lon="-2.918267">
        <ele>908.0</ele>
        <time>2014-04-19T13:07:52Z</time>
      </trkpt>
      <trkpt lat="43.093700" lon="-2.918283">
        <ele>910.0</ele>
        <time>2014-04-19T13:07:53Z</time>
      </trkpt>
      <trkpt lat="43.093733" lon="-2.918267">
        <ele>910.0</ele>
        <time>2014-04-19T13:07:54Z</time>
      </trkpt>
      <trkpt lat="43.093767" lon="-2.918217">
        <ele>909.0</ele>
        <time>2014-04-19T13:07:55Z</time>
      </trkpt>
      <trkpt lat="43.093767" lon="-2.918117">
        <ele>910.0</ele>
        <time>2014-04-19T13:07:56Z</time>
      </trkpt>
      <trkpt lat="43.093717" lon="-2.918033">
        <ele>912.0</ele>
        <time>2014-04-19T13:07:57Z</time>
      </trkpt>
      <trkpt lat="43.093633" lon="-2.917950">
        <ele>913.0</ele>
        <time>2014-04-19T13:07:58Z</time>
      </trkpt>
      <trkpt lat="43.093533" lon="-2.917900">
        <ele>913.0</ele>
        <time>2014-04-19T13:07:59Z</time>
      </trkpt>
      <trkpt lat="43.093417" lon="-2.917867">
        <ele>914.0</ele>
        <time>2014-04-19T13:08:00Z</time>
      </trkpt>
      <trkpt lat="43.093317" lon="-2.917867">
        <ele>917.0</ele>
        <time>2014-04-19T13:08:01Z</time>
      </trkpt>
      <trkpt lat="43.093217" lon="-2.917883">
        <ele>918.0</ele>
        <time>2014-04-19T13:08:02Z</time>
      </trkpt>
      <trkpt lat="43.093100" lon="-2.917950">
        <ele>918.0</ele>
        <time>2014-04-19T13:08:03Z</time>
      </trkpt>
      <trkpt lat="43.093000" lon="-2.918050">
        <ele>918.0</ele>
        <time>2014-04-19T13:08:04Z</time>
      </trkpt>
      <trkpt lat="43.092933" lon="-2.918167">
        <ele>919.0</ele>
        <time>2014-04-19T13:08:05Z</time>
      </trkpt>
      <trkpt lat="43.092883" lon="-2.918283">
        <ele>921.0</ele>
        <time>2014-04-19T13:08:06Z</time>
      </trkpt>
      <trkpt lat="43.092850" lon="-2.918400">
        <ele>922.0</ele>
        <time>2014-04-19T13:08:07Z</time>
      </trkpt>
      <trkpt lat="43.092850" lon="-2.918517">
        <ele>921.0</ele>
        <time>2014-04-19T13:08:08Z</time>
      </trkpt>
      <trkpt lat="43.092850" lon="-2.918650">
        <ele>921.0</ele>
        <time>2014-04-19T13:08:09Z</time>
      </trkpt>
      <trkpt lat="43.092850" lon="-2.918750">
        <ele>921.0</ele>
        <time>2014-04-19T13:08:10Z</time>
      </trkpt>
      <trkpt lat="43.092867" lon="-2.918850">
        <ele>922.0</ele>
        <time>2014-04-19T13:08:11Z</time>
      </trkpt>
      <trkpt lat="43.092883" lon="-2.918933">
        <ele>924.0</ele>
        <time>2014-04-19T13:08:12Z</time>
      </trkpt>
      <trkpt lat="43.092900" lon="-2.919017">
        <ele>925.0</ele>
        <time>2014-04-19T13:08:13Z</time>
      </trkpt>
      <trkpt lat="43.092950" lon="-2.919100">
        <ele>925.0</ele>
        <time>2014-04-19T13:08:14Z</time>
      </trkpt>
      <trkpt lat="43.093000" lon="-2.919167">
        <ele>926.0</ele>
        <time>2014-04-19T13:08:15Z</time>
      </trkpt>
      <trkpt lat="43.093050" lon="-2.919250">
        <ele>925.0</ele>
        <time>2014-04-19T13:08:16Z</time>
      </trkpt>
      <trkpt lat="43.093100" lon="-2.919317">
        <ele>926.0</ele>
        <time>2014-04-19T13:08:17Z</time>
      </trkpt>
      <trkpt lat="43.093150" lon="-2.919383">
        <ele>927.0</ele>
        <time>2014-04-19T13:08:18Z</time>
      </trkpt>
      <trkpt lat="43.093200" lon="-2.919450">
        <ele>928.0</ele>
        <time>2014-04-19T13:08:19Z</time>
      </trkpt>
      <trkpt lat="43.093250" lon="-2.919533">
        <ele>929.0</ele>
        <time>2014-04-19T13:08:20Z</time>
      </trkpt>
      <trkpt lat="43.093283" lon="-2.919633">
        <ele>930.0</ele>
        <time>2014-04-19T13:08:21Z</time>
      </trkpt>
      <trkpt lat="43.093333" lon="-2.919700">
        <ele>931.0</ele>
        <time>2014-04-19T13:08:22Z</time>
      </trkpt>
      <trkpt lat="43.093383" lon="-2.919733">
        <ele>934.0</ele>
        <time>2014-04-19T13:08:23Z</time>
      </trkpt>
      <trkpt lat="43.093417" lon="-2.919717">
        <ele>935.0</ele>
        <time>2014-04-19T13:08:24Z</time>
      </trkpt>
      <trkpt lat="43.093450" lon="-2.919667">
        <ele>936.0</ele>
        <time>2014-04-19T13:08:25Z</time>
      </trkpt>
      <trkpt lat="43.093467" lon="-2.919600">
        <ele>936.0</ele>
        <time>2014-04-19T13:08:26Z</time>
      </trkpt>
      <trkpt lat="43.093450" lon="-2.919517">
        <ele>938.0</ele>
        <time>2014-04-19T13:08:27Z</time>
      </trkpt>
      <trkpt lat="43.093400" lon="-2.919433">
        <ele>940.0</ele>
        <time>2014-04-19T13:08:28Z</time>
      </trkpt>
      <trkpt lat="43.093317" lon="-2.919367">
        <ele>941.0</ele>
        <time>2014-04-19T13:08:29Z</time>
      </trkpt>
      <trkpt lat="43.093217" lon="-2.919317">
        <ele>941.0</ele>
        <time>2014-04-19T13:08:30Z</time>
      </trkpt>
      <trkpt lat="43.093100" lon="-2.919300">
        <ele>942.0</ele>
        <time>2014-04-19T13:08:31Z</time>
      </trkpt>
      <trkpt lat="43.092983" lon="-2.919317">
        <ele>943.0</ele>
        <time>2014-04-19T13:08:32Z</time>
      </trkpt>
      <trkpt lat="43.092883" lon="-2.919367">
        <ele>944.0</ele>
        <time>2014-04-19T13:08:33Z</time>
      </trkpt>
      <trkpt lat="43.092783" lon="-2.919450">
        <ele>946.0</ele>
        <time>2014-04-19T13:08:34Z</time>
      </trkpt>
      <trkpt lat="43.092700" lon="-2.919567">
        <ele>947.0</ele>
        <time>2014-04-19T13:08:35Z</time>
      </trkpt>
      <trkpt lat="43.092667" lon="-2.919683">
        <ele>948.0</ele>
        <time>2014-04-19T13:08:36Z</time>
      </trkpt>
      <trkpt lat="43.092633" lon="-2.919800">
        <ele>949.0</ele>
        <time>2014-04-19T13:08:37Z</time>
      </trkpt>
      <trkpt lat="43.092633" lon="-2.919917">
        <ele>950.0</ele>
        <time>2014-04-19T13:08:38Z</time>
      </trkpt>
      <trkpt lat="43.092650" lon="-2.920033">
        <ele>951.0</ele>
        <time>2014-04-19T13:08:39Z</time>
      </trkpt>
      <trkpt lat="43.092667" lon="-2.920133">
        <ele>951.0</ele>
        <time>2014-04-19T13:08:40Z</time>
      </trkpt>
      <trkpt lat="43.092717" lon="-2.920217">
        <ele>952.0</ele>
        <time>2014-04-19T13:08:41Z</time>
      </trkpt>
      <trkpt lat="43.092750" lon="-2.920283">
        <ele>953.0</ele>
        <time>2014-04-19T13:08:42Z</time>
      </trkpt>
      <trkpt lat="43.092800" lon="-2.920350">
        <ele>953.0</ele>
        <time>2014-04-19T13:08:43Z</time>
      </trkpt>
      <trkpt lat="43.092850" lon="-2.920417">
        <ele>954.0</ele>
        <time>2014-04-19T13:08:44Z</time>
      </trkpt>
      <trkpt lat="43.092900" lon="-2.920467">
        <ele>955.0</ele>
        <time>2014-04-19T13:08:45Z</time>
      </trkpt>
      <trkpt lat="43.092967" lon="-2.920517">
        <ele>955.0</ele>
        <time>2014-04-19T13:08:46Z</time>
      </trkpt>
      <trkpt lat="43.093033" lon="-2.920533">
        <ele>956.0</ele>
        <time>2014-04-19T13:08:47Z</time>
      </trkpt>
      <trkpt lat="43.093083" lon="-2.920567">
        <ele>958.0</ele>
        <time>2014-04-19T13:08:48Z</time>
      </trkpt>
      <trkpt lat="43.093133" lon="-2.920583">
        <ele>961.0</ele>
        <time>2014-04-19T13:08:49Z</time>
      </trkpt>
      <trkpt lat="43.093150" lon="-2.920617">
        <ele>963.0</ele>
        <time>2014-04-19T13:08:50Z</time>
      </trkpt>
      <trkpt lat="43.093200" lon="-2.920633">
        <ele>964.0</ele>
        <time>2014-04-19T13:08:51Z</time>
      </trkpt>
      <trkpt lat="43.093233" lon="-2.920633">
        <ele>965.0</ele>
        <time>2014-04-19T13:08:52Z</time>
      </trkpt>
      <trkpt lat="43.093283" lon="-2.920633">
        <ele>964.0</ele>
        <time>2014-04-19T13:08:53Z</time>
      </trkpt>
      <trkpt lat="43.093333" lon="-2.920633">
        <ele>965.0</ele>
        <time>2014-04-19T13:08:54Z</time>
      </trkpt>
      <trkpt lat="43.093367" lon="-2.920667">
        <ele>966.0</ele>
        <time>2014-04-19T13:08:55Z</time>
      </trkpt>
      <trkpt lat="43.093400" lon="-2.920700">
        <ele>966.0</ele>
        <time>2014-04-19T13:08:56Z</time>
      </trkpt>
      <trkpt lat="43.093433" lon="-2.920750">
        <ele>966.0</ele>
        <time>2014-04-19T13:08:57Z</time>
      </trkpt>
      <trkpt lat="43.093467" lon="-2.920767">
        <ele>965.0</ele>
        <time>2014-04-19T13:08:58Z</time>
      </trkpt>
      <trkpt lat="43.093517" lon="-2.920750">
        <ele>964.0</ele>
        <time>2014-04-19T13:08:59Z</time>
      </trkpt>
      <trkpt lat="43.093550" lon="-2.920683">
        <ele>962.0</ele>
        <time>2014-04-19T13:09:00Z</time>
      </trkpt>
      <trkpt lat="43.093567" lon="-2.920600">
        <ele>960.0</ele>
        <time>2014-04-19T13:09:01Z</time>
      </trkpt>
      <trkpt lat="43.093567" lon="-2.920517">
        <ele>959.0</ele>
        <time>2014-04-19T13:09:02Z</time>
      </trkpt>
      <trkpt lat="43.093533" lon="-2.920467">
        <ele>959.0</ele>
        <time>2014-04-19T13:09:03Z</time>
      </trkpt>
      <trkpt lat="43.093483" lon="-2.920400">
        <ele>958.0</ele>
        <time>2014-04-19T13:09:04Z</time>
      </trkpt>
      <trkpt lat="43.093417" lon="-2.920333">
        <ele>955.0</ele>
        <time>2014-04-19T13:09:05Z</time>
      </trkpt>
      <trkpt lat="43.093350" lon="-2.920250">
        <ele>953.0</ele>
        <time>2014-04-19T13:09:06Z</time>
      </trkpt>
      <trkpt lat="43.093283" lon="-2.920167">
        <ele>951.0</ele>
        <time>2014-04-19T13:09:07Z</time>
      </trkpt>
      <trkpt lat="43.093217" lon="-2.920067">
        <ele>950.0</ele>
        <time>2014-04-19T13:09:08Z</time>
      </trkpt>
      <trkpt lat="43.093167" lon="-2.919983">
        <ele>952.0</ele>
        <time>2014-04-19T13:09:09Z</time>
      </trkpt>
      <trkpt lat="43.093117" lon="-2.919917">
        <ele>953.0</ele>
        <time>2014-04-19T13:09:10Z</time>
      </trkpt>
      <trkpt lat="43.093067" lon="-2.919850">
        <ele>953.0</ele>
        <time>2014-04-19T13:09:11Z</time>
      </trkpt>
      <trkpt lat="43.093017" lon="-2.919767">
        <ele>953.0</ele>
        <time>2014-04-19T13:09:12Z</time>
      </trkpt>
      <trkpt lat="43.092967" lon="-2.919667">
        <ele>953.0</ele>
        <time>2014-04-19T13:09:13Z</time>
      </trkpt>
      <trkpt lat="43.092917" lon="-2.919567">
        <ele>954.0</ele>
        <time>2014-04-19T13:09:14Z</time>
      </trkpt>
      <trkpt lat="43.092900" lon="-2.919483">
        <ele>956.0</ele>
        <time>2014-04-19T13:09:15Z</time>
      </trkpt>
      <trkpt lat="43.092900" lon="-2.919417">
        <ele>958.0</ele>
        <time>2014-04-19T13:09:16Z</time>
      </trkpt>
      <trkpt lat="43.092883" lon="-2.919333">
        <ele>959.0</ele>
        <time>2014-04-19T13:09:17Z</time>
      </trkpt>
      <trkpt lat="43.092883" lon="-2.919267">
        <ele>961.0</ele>
        <time>2014-04-19T13:09:18Z</time>
      </trkpt>
      <trkpt lat="43.092867" lon="-2.919183">
        <ele>961.0</ele>
        <time>2014-04-19T13:09:19Z</time>
      </trkpt>
      <trkpt lat="43.092850" lon="-2.919100">
        <ele>962.0</ele>
        <time>2014-04-19T13:09:20Z</time>
      </trkpt>
      <trkpt lat="43.092850" lon="-2.919000">
        <ele>963.0</ele>
        <time>2014-04-19T13:09:21Z</time>
      </trkpt>
      <trkpt lat="43.092850" lon="-2.918917">
        <ele>964.0</ele>
        <time>2014-04-19T13:09:22Z</time>
      </trkpt>
      <trkpt lat="43.092850" lon="-2.918817">
        <ele>965.0</ele>
        <time>2014-04-19T13:09:23Z</time>
      </trkpt>
      <trkpt lat="43.092850" lon="-2.918733">
        <ele>967.0</ele>
        <time>2014-04-19T13:09:24Z</time>
      </trkpt>
      <trkpt lat="43.092867" lon="-2.918667">
        <ele>969.0</ele>
        <time>2014-04-19T13:09:25Z</time>
      </trkpt>
      <trkpt lat="43.092867" lon="-2.918600">
        <ele>972.0</ele>
        <time>2014-04-19T13:09:26Z</time>
      </trkpt>
      <trkpt lat="43.092883" lon="-2.918533">
        <ele>973.0</ele>
        <time>2014-04-19T13:09:27Z</time>
      </trkpt>
      <trkpt lat="43.092900" lon="-2.918467">
        <ele>975.0</ele>
        <time>2014-04-19T13:09:28Z</time>
      </trkpt>
      <trkpt lat="43.092917" lon="-2.918383">
        <ele>975.0</ele>
        <time>2014-04-19T13:09:29Z</time>
      </trkpt>
      <trkpt lat="43.092933" lon="-2.918300">
        <ele>976.0</ele>
        <time>2014-04-19T13:09:30Z</time>
      </trkpt>
      <trkpt lat="43.092950" lon="-2.918217">
        <ele>977.0</ele>
        <time>2014-04-19T13:09:31Z</time>
      </trkpt>
      <trkpt lat="43.092967" lon="-2.918133">
        <ele>978.0</ele>
        <time>2014-04-19T13:09:32Z</time>
      </trkpt>
      <trkpt lat="43.092967" lon="-2.918067">
        <ele>978.0</ele>
        <time>2014-04-19T13:09:33Z</time>
      </trkpt>
      <trkpt lat="43.092950" lon="-2.917967">
        <ele>978.0</ele>
        <time>2014-04-19T13:09:34Z</time>
      </trkpt>
      <trkpt lat="43.092917" lon="-2.917883">
        <ele>978.0</ele>
        <time>2014-04-19T13:09:35Z</time>
      </trkpt>
      <trkpt lat="43.092850" lon="-2.917783">
        <ele>978.0</ele>
        <time>2014-04-19T13:09:36Z</time>
      </trkpt>
      <trkpt lat="43.092767" lon="-2.917683">
        <ele>977.0</ele>
        <time>2014-04-19T13:09:37Z</time>
      </trkpt>
      <trkpt lat="43.092667" lon="-2.917617">
        <ele>977.0</ele>
        <time>2014-04-19T13:09:38Z</time>
      </trkpt>
      <trkpt lat="43.092567" lon="-2.917600">
        <ele>978.0</ele>
        <time>2014-04-19T13:09:39Z</time>
      </trkpt>
      <trkpt lat="43.092467" lon="-2.917617">
        <ele>979.0</ele>
        <time>2014-04-19T13:09:40Z</time>
      </trkpt>
      <trkpt lat="43.092383" lon="-2.917667">
        <ele>979.0</ele>
        <time>2014-04-19T13:09:41Z</time>
      </trkpt>
      <trkpt lat="43.092300" lon="-2.917750">
        <ele>978.0</ele>
        <time>2014-04-19T13:09:42Z</time>
      </trkpt>
      <trkpt lat="43.092217" lon="-2.917833">
        <ele>977.0</ele>
        <time>2014-04-19T13:09:43Z</time>
      </trkpt>
      <trkpt lat="43.092133" lon="-2.917950">
        <ele>977.0</ele>
        <time>2014-04-19T13:09:44Z</time>
      </trkpt>
      <trkpt lat="43.092083" lon="-2.918050">
        <ele>977.0</ele>
        <time>2014-04-19T13:09:45Z</time>
      </trkpt>
      <trkpt lat="43.092050" lon="-2.918167">
        <ele>977.0</ele>
        <time>2014-04-19T13:09:46Z</time>
      </trkpt>
      <trkpt lat="43.092033" lon="-2.918283">
        <ele>977.0</ele>
        <time>2014-04-19T13:09:47Z</time>
      </trkpt>
      <trkpt lat="43.092017" lon="-2.918400">
        <ele>977.0</ele>
        <time>2014-04-19T13:09:48Z</time>
      </trkpt>
      <trkpt lat="43.092017" lon="-2.918500">
        <ele>977.0</ele>
        <time>2014-04-19T13:09:49Z</time>
      </trkpt>
      <trkpt lat="43.092033" lon="-2.918600">
        <ele>977.0</ele>
        <time>2014-04-19T13:09:50Z</time>
      </trkpt>
      <trkpt lat="43.092067" lon="-2.918683">
        <ele>977.0</ele>
        <time>2014-04-19T13:09:51Z</time>
      </trkpt>
      <trkpt lat="43.092100" lon="-2.918750">
        <ele>977.0</ele>
        <time>2014-04-19T13:09:52Z</time>
      </trkpt>
      <trkpt lat="43.092133" lon="-2.918817">
        <ele>978.0</ele>
        <time>2014-04-19T13:09:53Z</time>
      </trkpt>
      <trkpt lat="43.092183" lon="-2.918850">
        <ele>978.0</ele>
        <time>2014-04-19T13:09:54Z</time>
      </trkpt>
      <trkpt lat="43.092250" lon="-2.918850">
        <ele>978.0</ele>
        <time>2014-04-19T13:09:55Z</time>
      </trkpt>
      <trkpt lat="43.092317" lon="-2.918817">
        <ele>977.0</ele>
        <time>2014-04-19T13:09:56Z</time>
      </trkpt>
      <trkpt lat="43.092367" lon="-2.918800">
        <ele>978.0</ele>
        <time>2014-04-19T13:09:57Z</time>
      </trkpt>
      <trkpt lat="43.092400" lon="-2.918783">
        <ele>980.0</ele>
        <time>2014-04-19T13:09:58Z</time>
      </trkpt>
      <trkpt lat="43.092433" lon="-2.918767">
        <ele>981.0</ele>
        <time>2014-04-19T13:09:59Z</time>
      </trkpt>
      <trkpt lat="43.092467" lon="-2.918733">
        <ele>982.0</ele>
        <time>2014-04-19T13:10:00Z</time>
      </trkpt>
      <trkpt lat="43.092517" lon="-2.918683">
        <ele>982.0</ele>
        <time>2014-04-19T13:10:01Z</time>
      </trkpt>
      <trkpt lat="43.092567" lon="-2.918617">
        <ele>980.0</ele>
        <time>2014-04-19T13:10:02Z</time>
      </trkpt>
      <trkpt lat="43.092617" lon="-2.918550">
        <ele>980.0</ele>
        <time>2014-04-19T13:10:03Z</time>
      </trkpt>
      <trkpt lat="43.092667" lon="-2.918517">
        <ele>981.0</ele>
        <time>2014-04-19T13:10:04Z</time>
      </trkpt>
      <trkpt lat="43.092700" lon="-2.918483">
        <ele>982.0</ele>
        <time>2014-04-19T13:10:05Z</time>
      </trkpt>
      <trkpt lat="43.092733" lon="-2.918433">
        <ele>982.0</ele>
        <time>2014-04-19T13:10:06Z</time>
      </trkpt>
      <trkpt lat="43.092767" lon="-2.918367">
        <ele>982.0</ele>
        <time>2014-04-19T13:10:07Z</time>
      </trkpt>
      <trkpt lat="43.092817" lon="-2.918300">
        <ele>982.0</ele>
        <time>2014-04-19T13:10:08Z</time>
      </trkpt>
      <trkpt lat="43.092850" lon="-2.918233">
        <ele>982.0</ele>
        <time>2014-04-19T13:10:09Z</time>
      </trkpt>
      <trkpt lat="43.092867" lon="-2.918150">
        <ele>982.0</ele>
        <time>2014-04-19T13:10:10Z</time>
      </trkpt>
      <trkpt lat="43.092900" lon="-2.918083">
        <ele>982.0</ele>
        <time>2014-04-19T13:10:11Z</time>
      </trkpt>
      <trkpt lat="43.092933" lon="-2.918017">
        <ele>982.0</ele>
        <time>2014-04-19T13:10:12Z</time>
      </trkpt>
      <trkpt lat="43.092967" lon="-2.917950">
        <ele>982.0</ele>
        <time>2014-04-19T13:10:13Z</time>
      </trkpt>
      <trkpt lat="43.093000" lon="-2.917900">
        <ele>982.0</ele>
        <time>2014-04-19T13:10:14Z</time>
      </trkpt>
      <trkpt lat="43.093033" lon="-2.917850">
        <ele>982.0</ele>
        <time>2014-04-19T13:10:15Z</time>
      </trkpt>
      <trkpt lat="43.093067" lon="-2.917783">
        <ele>982.0</ele>
        <time>2014-04-19T13:10:16Z</time>
      </trkpt>
      <trkpt lat="43.093100" lon="-2.917733">
        <ele>982.0</ele>
        <time>2014-04-19T13:10:17Z</time>
      </trkpt>
      <trkpt lat="43.093133" lon="-2.917683">
        <ele>983.0</ele>
        <time>2014-04-19T13:10:18Z</time>
      </trkpt>
      <trkpt lat="43.093150" lon="-2.917617">
        <ele>983.0</ele>
        <time>2014-04-19T13:10:19Z</time>
      </trkpt>
      <trkpt lat="43.093150" lon="-2.917550">
        <ele>984.0</ele>
        <time>2014-04-19T13:10:20Z</time>
      </trkpt>
      <trkpt lat="43.093100" lon="-2.917467">
        <ele>985.0</ele>
        <time>2014-04-19T13:10:21Z</time>
      </trkpt>
      <trkpt lat="43.093017" lon="-2.917400">
        <ele>985.0</ele>
        <time>2014-04-19T13:10:22Z</time>
      </trkpt>
      <trkpt lat="43.092917" lon="-2.917350">
        <ele>985.0</ele>
        <time>2014-04-19T13:10:23Z</time>
      </trkpt>
      <trkpt lat="43.092800" lon="-2.917350">
        <ele>986.0</ele>
        <time>2014-04-19T13:10:24Z</time>
      </trkpt>
      <trkpt lat="43.092683" lon="-2.917367">
        <ele>987.0</ele>
        <time>2014-04-19T13:10:25Z</time>
      </trkpt>
      <trkpt lat="43.092600" lon="-2.917400">
        <ele>988.0</ele>
        <time>2014-04-19T13:10:26Z</time>
      </trkpt>
      <trkpt lat="43.092517" lon="-2.917467">
        <ele>989.0</ele>
        <time>2014-04-19T13:10:27Z</time>
      </trkpt>
      <trkpt lat="43.092433" lon="-2.917567">
        <ele>989.0</ele>
        <time>2014-04-19T13:10:28Z</time>
      </trkpt>
      <trkpt lat="43.092350" lon="-2.917683">
        <ele>988.0</ele>
        <time>2014-04-19T13:10:29Z</time>
      </trkpt>
      <trkpt lat="43.092300" lon="-2.917817">
        <ele>987.0</ele>
        <time>2014-04-19T13:10:30Z</time>
      </trkpt>
      <trkpt lat="43.092267" lon="-2.917933">
        <ele>987.0</ele>
        <time>2014-04-19T13:10:31Z</time>
      </trkpt>
      <trkpt lat="43.092250" lon="-2.918050">
        <ele>987.0</ele>
        <time>2014-04-19T13:10:32Z</time>
      </trkpt>
      <trkpt lat="43.092233" lon="-2.918150">
        <ele>987.0</ele>
        <time>2014-04-19T13:10:33Z</time>
      </trkpt>
      <trkpt lat="43.092250" lon="-2.918250">
        <ele>987.0</ele>
        <time>2014-04-19T13:10:34Z</time>
      </trkpt>
      <trkpt lat="43.092250" lon="-2.918333">
        <ele>985.0</ele>
        <time>2014-04-19T13:10:35Z</time>
      </trkpt>
      <trkpt lat="43.092267" lon="-2.918450">
        <ele>984.0</ele>
        <time>2014-04-19T13:10:36Z</time>
      </trkpt>
      <trkpt lat="43.092283" lon="-2.918567">
        <ele>983.0</ele>
        <time>2014-04-19T13:10:37Z</time>
      </trkpt>
      <trkpt lat="43.092283" lon="-2.918683">
        <ele>983.0</ele>
        <time>2014-04-19T13:10:38Z</time>
      </trkpt>
      <trkpt lat="43.092300" lon="-2.918800">
        <ele>985.0</ele>
        <time>2014-04-19T13:10:39Z</time>
      </trkpt>
      <trkpt lat="43.092300" lon="-2.918900">
        <ele>987.0</ele>
        <time>2014-04-19T13:10:40Z</time>
      </trkpt>
      <trkpt lat="43.092283" lon="-2.918983">
        <ele>988.0</ele>
        <time>2014-04-19T13:10:41Z</time>
      </trkpt>
      <trkpt lat="43.092300" lon="-2.919100">
        <ele>987.0</ele>
        <time>2014-04-19T13:10:42Z</time>
      </trkpt>
      <trkpt lat="43.092317" lon="-2.919200">
        <ele>986.0</ele>
        <time>2014-04-19T13:10:43Z</time>
      </trkpt>
      <trkpt lat="43.092333" lon="-2.919333">
        <ele>985.0</ele>
        <time>2014-04-19T13:10:44Z</time>
      </trkpt>
      <trkpt lat="43.092367" lon="-2.919433">
        <ele>985.0</ele>
        <time>2014-04-19T13:10:45Z</time>
      </trkpt>
      <trkpt lat="43.092367" lon="-2.919550">
        <ele>985.0</ele>
        <time>2014-04-19T13:10:46Z</time>
      </trkpt>
      <trkpt lat="43.092383" lon="-2.919650">
        <ele>985.0</ele>
        <time>2014-04-19T13:10:47Z</time>
      </trkpt>
      <trkpt lat="43.092383" lon="-2.919750">
        <ele>985.0</ele>
        <time>2014-04-19T13:10:48Z</time>
      </trkpt>
      <trkpt lat="43.092400" lon="-2.919867">
        <ele>985.0</ele>
        <time>2014-04-19T13:10:49Z</time>
      </trkpt>
      <trkpt lat="43.092417" lon="-2.919983">
        <ele>985.0</ele>
        <time>2014-04-19T13:10:50Z</time>
      </trkpt>
      <trkpt lat="43.092450" lon="-2.920117">
        <ele>985.0</ele>
        <time>2014-04-19T13:10:51Z</time>
      </trkpt>
      <trkpt lat="43.092467" lon="-2.920250">
        <ele>986.0</ele>
        <time>2014-04-19T13:10:52Z</time>
      </trkpt>
      <trkpt lat="43.092483" lon="-2.920383">
        <ele>987.0</ele>
        <time>2014-04-19T13:10:53Z</time>
      </trkpt>
      <trkpt lat="43.092500" lon="-2.920500">
        <ele>989.0</ele>
        <time>2014-04-19T13:10:54Z</time>
      </trkpt>
      <trkpt lat="43.092517" lon="-2.920583">
        <ele>991.0</ele>
        <time>2014-04-19T13:10:55Z</time>
      </trkpt>
      <trkpt lat="43.092567" lon="-2.920667">
        <ele>993.0</ele>
        <time>2014-04-19T13:10:56Z</time>
      </trkpt>
      <trkpt lat="43.092633" lon="-2.920733">
        <ele>993.0</ele>
        <time>2014-04-19T13:10:57Z</time>
      </trkpt>
      <trkpt lat="43.092717" lon="-2.920767">
        <ele>993.0</ele>
        <time>2014-04-19T13:10:58Z</time>
      </trkpt>
      <trkpt lat="43.092783" lon="-2.920767">
        <ele>993.0</ele>
        <time>2014-04-19T13:10:59Z</time>
      </trkpt>
      <trkpt lat="43.092817" lon="-2.920700">
        <ele>995.0</ele>
        <time>2014-04-19T13:11:00Z</time>
      </trkpt>
      <trkpt lat="43.092833" lon="-2.920617">
        <ele>996.0</ele>
        <time>2014-04-19T13:11:01Z</time>
      </trkpt>
      <trkpt lat="43.092817" lon="-2.920533">
        <ele>997.0</ele>
        <time>2014-04-19T13:11:02Z</time>
      </trkpt>
      <trkpt lat="43.092800" lon="-2.920433">
        <ele>998.0</ele>
        <time>2014-04-19T13:11:03Z</time>
      </trkpt>
      <trkpt lat="43.092750" lon="-2.920367">
        <ele>1000.0</ele>
        <time>2014-04-19T13:11:04Z</time>
      </trkpt>
      <trkpt lat="43.092667" lon="-2.920317">
        <ele>1001.0</ele>
        <time>2014-04-19T13:11:05Z</time>
      </trkpt>
      <trkpt lat="43.092567" lon="-2.920300">
        <ele>1001.0</ele>
        <time>2014-04-19T13:11:06Z</time>
      </trkpt>
      <trkpt lat="43.092467" lon="-2.920317">
        <ele>1001.0</ele>
        <time>2014-04-19T13:11:07Z</time>
      </trkpt>
      <trkpt lat="43.092383" lon="-2.920350">
        <ele>1003.0</ele>
        <time>2014-04-19T13:11:08Z</time>
      </trkpt>
      <trkpt lat="43.092317" lon="-2.920417">
        <ele>1004.0</ele>
        <time>2014-04-19T13:11:09Z</time>
      </trkpt>
      <trkpt lat="43.092267" lon="-2.920483">
        <ele>1005.0</ele>
        <time>2014-04-19T13:11:10Z</time>
      </trkpt>
      <trkpt lat="43.092200" lon="-2.920567">
        <ele>1004.0</ele>
        <time>2014-04-19T13:11:11Z</time>
      </trkpt>
      <trkpt lat="43.092133" lon="-2.920683">
        <ele>1003.0</ele>
        <time>2014-04-19T13:11:12Z</time>
      </trkpt>
      <trkpt lat="43.092067" lon="-2.920817">
        <ele>1002.0</ele>
        <time>2014-04-19T13:11:13Z</time>
      </trkpt>
      <trkpt lat="43.092017" lon="-2.920950">
        <ele>1004.0</ele>
        <time>2014-04-19T13:11:14Z</time>
      </trkpt>
      <trkpt lat="43.092017" lon="-2.921067">
        <ele>1005.0</ele>
        <time>2014-04-19T13:11:15Z</time>
      </trkpt>
      <trkpt lat="43.092050" lon="-2.921183">
        <ele>1006.0</ele>
        <time>2014-04-19T13:11:16Z</time>
      </trkpt>
      <trkpt lat="43.092083" lon="-2.921267">
        <ele>1006.0</ele>
        <time>2014-04-19T13:11:17Z</time>
      </trkpt>
      <trkpt lat="43.092117" lon="-2.921367">
        <ele>1006.0</ele>
        <time>2014-04-19T13:11:18Z</time>
      </trkpt>
      <trkpt lat="43.092133" lon="-2.921483">
        <ele>1007.0</ele>
        <time>2014-04-19T13:11:19Z</time>
      </trkpt>
      <trkpt lat="43.092150" lon="-2.921583">
        <ele>1007.0</ele>
        <time>2014-04-19T13:11:20Z</time>
      </trkpt>
      <trkpt lat="43.092183" lon="-2.921700">
        <ele>1007.0</ele>
        <time>2014-04-19T13:11:21Z</time>
      </trkpt>
      <trkpt lat="43.092217" lon="-2.921800">
        <ele>1008.0</ele>
        <time>2014-04-19T13:11:22Z</time>
      </trkpt>
      <trkpt lat="43.092233" lon="-2.921900">
        <ele>1009.0</ele>
        <time>2014-04-19T13:11:23Z</time>
      </trkpt>
      <trkpt lat="43.092250" lon="-2.922000">
        <ele>1010.0</ele>
        <time>2014-04-19T13:11:24Z</time>
      </trkpt>
      <trkpt lat="43.092283" lon="-2.922117">
        <ele>1011.0</ele>
        <time>2014-04-19T13:11:25Z</time>
      </trkpt>
      <trkpt lat="43.092317" lon="-2.922217">
        <ele>1011.0</ele>
        <time>2014-04-19T13:11:26Z</time>
      </trkpt>
      <trkpt lat="43.092350" lon="-2.922317">
        <ele>1012.0</ele>
        <time>2014-04-19T13:11:27Z</time>
      </trkpt>
      <trkpt lat="43.092383" lon="-2.922400">
        <ele>1014.0</ele>
        <time>2014-04-19T13:11:28Z</time>
      </trkpt>
      <trkpt lat="43.092417" lon="-2.922483">
        <ele>1015.0</ele>
        <time>2014-04-19T13:11:29Z</time>
      </trkpt>
      <trkpt lat="43.092433" lon="-2.922550">
        <ele>1016.0</ele>
        <time>2014-04-19T13:11:30Z</time>
      </trkpt>
      <trkpt lat="43.092467" lon="-2.922617">
        <ele>1016.0</ele>
        <time>2014-04-19T13:11:31Z</time>
      </trkpt>
      <trkpt lat="43.092517" lon="-2.922683">
        <ele>1016.0</ele>
        <time>2014-04-19T13:11:32Z</time>
      </trkpt>
      <trkpt lat="43.092567" lon="-2.922733">
        <ele>1016.0</ele>
        <time>2014-04-19T13:11:33Z</time>
      </trkpt>
      <trkpt lat="43.092633" lon="-2.922750">
        <ele>1015.0</ele>
        <time>2014-04-19T13:11:34Z</time>
      </trkpt>
      <trkpt lat="43.092700" lon="-2.922750">
        <ele>1013.0</ele>
        <time>2014-04-19T13:11:35Z</time>
      </trkpt>
      <trkpt lat="43.092750" lon="-2.922767">
        <ele>1013.0</ele>
        <time>2014-04-19T13:11:36Z</time>
      </trkpt>
      <trkpt lat="43.092800" lon="-2.922817">
        <ele>1012.0</ele>
        <time>2014-04-19T13:11:37Z</time>
      </trkpt>
      <trkpt lat="43.092867" lon="-2.922883">
        <ele>1011.0</ele>
        <time>2014-04-19T13:11:38Z</time>
      </trkpt>
      <trkpt lat="43.092917" lon="-2.922950">
        <ele>1010.0</ele>
        <time>2014-04-19T13:11:39Z</time>
      </trkpt>
      <trkpt lat="43.092967" lon="-2.923033">
        <ele>1009.0</ele>
        <time>2014-04-19T13:11:40Z</time>
      </trkpt>
      <trkpt lat="43.092983" lon="-2.923100">
        <ele>1010.0</ele>
        <time>2014-04-19T13:11:41Z</time>
      </trkpt>
      <trkpt lat="43.093000" lon="-2.923183">
        <ele>1010.0</ele>
        <time>2014-04-19T13:11:42Z</time>
      </trkpt>
      <trkpt lat="43.093017" lon="-2.923267">
        <ele>1009.0</ele>
        <time>2014-04-19T13:11:43Z</time>
      </trkpt>
      <trkpt lat="43.093033" lon="-2.923350">
        <ele>1008.0</ele>
        <time>2014-04-19T13:11:44Z</time>
      </trkpt>
      <trkpt lat="43.093050" lon="-2.923467">
        <ele>1006.0</ele>
        <time>2014-04-19T13:11:45Z</time>
      </trkpt>
      <trkpt lat="43.093083" lon="-2.923583">
        <ele>1005.0</ele>
        <time>2014-04-19T13:11:46Z</time>
      </trkpt>
      <trkpt lat="43.093100" lon="-2.923683">
        <ele>1004.0</ele>
        <time>2014-04-19T13:11:47Z</time>
      </trkpt>
      <trkpt lat="43.093117" lon="-2.923767">
        <ele>1005.0</ele>
        <time>2014-04-19T13:11:48Z</time>
      </trkpt>
      <trkpt lat="43.093117" lon="-2.923833">
        <ele>1006.0</ele>
        <time>2014-04-19T13:11:49Z</time>
      </trkpt>
      <trkpt lat="43.093100" lon="-2.923883">
        <ele>1005.0</ele>
        <time>2014-04-19T13:11:50Z</time>
      </trkpt>
      <trkpt lat="43.093100" lon="-2.923950">
        <ele>1001.0</ele>
        <time>2014-04-19T13:11:51Z</time>
      </trkpt>
      <trkpt lat="43.093100" lon="-2.924033">
        <ele>997.0</ele>
        <time>2014-04-19T13:11:52Z</time>
      </trkpt>
      <trkpt lat="43.093117" lon="-2.924150">
        <ele>993.0</ele>
        <time>2014-04-19T13:11:53Z</time>
      </trkpt>
      <trkpt lat="43.093133" lon="-2.924283">
        <ele>990.0</ele>
        <time>2014-04-19T13:11:54Z</time>
      </trkpt>
      <trkpt lat="43.093133" lon="-2.924383">
        <ele>988.0</ele>
        <time>2014-04-19T13:11:55Z</time>
      </trkpt>
      <trkpt lat="43.093150" lon="-2.924483">
        <ele>988.0</ele>
        <time>2014-04-19T13:11:56Z</time>
      </trkpt>
      <trkpt lat="43.093167" lon="-2.924550">
        <ele>987.0</ele>
        <time>2014-04-19T13:11:57Z</time>
      </trkpt>
      <trkpt lat="43.093200" lon="-2.924633">
        <ele>984.0</ele>
        <time>2014-04-19T13:11:58Z</time>
      </trkpt>
      <trkpt lat="43.093233" lon="-2.924717">
        <ele>981.0</ele>
        <time>2014-04-19T13:11:59Z</time>
      </trkpt>
      <trkpt lat="43.093300" lon="-2.924767">
        <ele>977.0</ele>
        <time>2014-04-19T13:12:00Z</time>
      </trkpt>
      <trkpt lat="43.093367" lon="-2.924783">
        <ele>974.0</ele>
        <time>2014-04-19T13:12:01Z</time>
      </trkpt>
      <trkpt lat="43.093417" lon="-2.924750">
        <ele>970.0</ele>
        <time>2014-04-19T13:12:02Z</time>
      </trkpt>
      <trkpt lat="43.093450" lon="-2.924683">
        <ele>967.0</ele>
        <time>2014-04-19T13:12:03Z</time>
      </trkpt>
      <trkpt lat="43.093483" lon="-2.924600">
        <ele>965.0</ele>
        <time>2014-04-19T13:12:04Z</time>
      </trkpt>
      <trkpt lat="43.093517" lon="-2.924517">
        <ele>963.0</ele>
        <time>2014-04-19T13:12:05Z</time>
      </trkpt>
      <trkpt lat="43.093567" lon="-2.924433">
        <ele>963.0</ele>
        <time>2014-04-19T13:12:06Z</time>
      </trkpt>
      <trkpt lat="43.093617" lon="-2.924350">
        <ele>963.0</ele>
        <time>2014-04-19T13:12:07Z</time>
      </trkpt>
      <trkpt lat="43.093650" lon="-2.924267">
        <ele>965.0</ele>
        <time>2014-04-19T13:12:08Z</time>
      </trkpt>
      <trkpt lat="43.093683" lon="-2.924167">
        <ele>967.0</ele>
        <time>2014-04-19T13:12:09Z</time>
      </trkpt>
      <trkpt lat="43.093700" lon="-2.924083">
        <ele>969.0</ele>
        <time>2014-04-19T13:12:10Z</time>
      </trkpt>
      <trkpt lat="43.093700" lon="-2.924017">
        <ele>971.0</ele>
        <time>2014-04-19T13:12:11Z</time>
      </trkpt>
      <trkpt lat="43.093717" lon="-2.923950">
        <ele>971.0</ele>
        <time>2014-04-19T13:12:12Z</time>
      </trkpt>
      <trkpt lat="43.093733" lon="-2.923867">
        <ele>970.0</ele>
        <time>2014-04-19T13:12:13Z</time>
      </trkpt>
      <trkpt lat="43.093733" lon="-2.923750">
        <ele>968.0</ele>
        <time>2014-04-19T13:12:14Z</time>
      </trkpt>
      <trkpt lat="43.093750" lon="-2.923650">
        <ele>965.0</ele>
        <time>2014-04-19T13:12:15Z</time>
      </trkpt>
      <trkpt lat="43.093767" lon="-2.923533">
        <ele>963.0</ele>
        <time>2014-04-19T13:12:16Z</time>
      </trkpt>
      <trkpt lat="43.093767" lon="-2.923450">
        <ele>962.0</ele>
        <time>2014-04-19T13:12:17Z</time>
      </trkpt>
      <trkpt lat="43.093783" lon="-2.923367">
        <ele>960.0</ele>
        <time>2014-04-19T13:12:18Z</time>
      </trkpt>
      <trkpt lat="43.093800" lon="-2.923283">
        <ele>958.0</ele>
        <time>2014-04-19T13:12:19Z</time>
      </trkpt>
      <trkpt lat="43.093817" lon="-2.923167">
        <ele>955.0</ele>
        <time>2014-04-19T13:12:20Z</time>
      </trkpt>
      <trkpt lat="43.093817" lon="-2.923050">
        <ele>953.0</ele>
        <time>2014-04-19T13:12:21Z</time>
      </trkpt>
      <trkpt lat="43.093833" lon="-2.922950">
        <ele>950.0</ele>
        <time>2014-04-19T13:12:22Z</time>
      </trkpt>
      <trkpt lat="43.093850" lon="-2.922867">
        <ele>949.0</ele>
        <time>2014-04-19T13:12:23Z</time>
      </trkpt>
      <trkpt lat="43.093867" lon="-2.922783">
        <ele>947.0</ele>
        <time>2014-04-19T13:12:24Z</time>
      </trkpt>
      <trkpt lat="43.093883" lon="-2.922683">
        <ele>945.0</ele>
        <time>2014-04-19T13:12:25Z</time>
      </trkpt>
      <trkpt lat="43.093883" lon="-2.922583">
        <ele>942.0</ele>
        <time>2014-04-19T13:12:26Z</time>
      </trkpt>
      <trkpt lat="43.093900" lon="-2.922467">
        <ele>939.0</ele>
        <time>2014-04-19T13:12:27Z</time>
      </trkpt>
      <trkpt lat="43.093900" lon="-2.922350">
        <ele>937.0</ele>
        <time>2014-04-19T13:12:28Z</time>
      </trkpt>
      <trkpt lat="43.093917" lon="-2.922217">
        <ele>935.0</ele>
        <time>2014-04-19T13:12:29Z</time>
      </trkpt>
      <trkpt lat="43.093917" lon="-2.922083">
        <ele>932.0</ele>
        <time>2014-04-19T13:12:30Z</time>
      </trkpt>
      <trkpt lat="43.093917" lon="-2.921950">
        <ele>931.0</ele>
        <time>2014-04-19T13:12:31Z</time>
      </trkpt>
      <trkpt lat="43.093900" lon="-2.921833">
        <ele>931.0</ele>
        <time>2014-04-19T13:12:32Z</time>
      </trkpt>
      <trkpt lat="43.093883" lon="-2.921717">
        <ele>931.0</ele>
        <time>2014-04-19T13:12:33Z</time>
      </trkpt>
      <trkpt lat="43.093867" lon="-2.921583">
        <ele>931.0</ele>
        <time>2014-04-19T13:12:34Z</time>
      </trkpt>
      <trkpt lat="43.093850" lon="-2.921467">
        <ele>931.0</ele>
        <time>2014-04-19T13:12:35Z</time>
      </trkpt>
      <trkpt lat="43.093850" lon="-2.921333">
        <ele>931.0</ele>
        <time>2014-04-19T13:12:36Z</time>
      </trkpt>
      <trkpt lat="43.093833" lon="-2.921200">
        <ele>931.0</ele>
        <time>2014-04-19T13:12:37Z</time>
      </trkpt>
      <trkpt lat="43.093833" lon="-2.921067">
        <ele>933.0</ele>
        <time>2014-04-19T13:12:38Z</time>
      </trkpt>
      <trkpt lat="43.093817" lon="-2.920967">
        <ele>935.0</ele>
        <time>2014-04-19T13:12:39Z</time>
      </trkpt>
      <trkpt lat="43.093817" lon="-2.920883">
        <ele>938.0</ele>
        <time>2014-04-19T13:12:40Z</time>
      </trkpt>
      <trkpt lat="43.093783" lon="-2.920783">
        <ele>940.0</ele>
        <time>2014-04-19T13:12:41Z</time>
      </trkpt>
      <trkpt lat="43.093733" lon="-2.920683">
        <ele>942.0</ele>
        <time>2014-04-19T13:12:42Z</time>
      </trkpt>
      <trkpt lat="43.093667" lon="-2.920600">
        <ele>943.0</ele>
        <time>2014-04-19T13:12:43Z</time>
      </trkpt>
      <trkpt lat="43.093550" lon="-2.920533">
        <ele>945.0</ele>
        <time>2014-04-19T13:12:44Z</time>
      </trkpt>
      <trkpt lat="43.093433" lon="-2.920550">
        <ele>946.0</ele>
        <time>2014-04-19T13:12:45Z</time>
      </trkpt>
      <trkpt lat="43.093317" lon="-2.920617">
        <ele>947.0</ele>
        <time>2014-04-19T13:12:46Z</time>
      </trkpt>
      <trkpt lat="43.093250" lon="-2.920717">
        <ele>949.0</ele>
        <time>2014-04-19T13:12:47Z</time>
      </trkpt>
      <trkpt lat="43.093217" lon="-2.920833">
        <ele>951.0</ele>
        <time>2014-04-19T13:12:48Z</time>
      </trkpt>
      <trkpt lat="43.093217" lon="-2.920917">
        <ele>952.0</ele>
        <time>2014-04-19T13:12:49Z</time>
      </trkpt>
      <trkpt lat="43.093233" lon="-2.920983">
        <ele>953.0</ele>
        <time>2014-04-19T13:12:50Z</time>
      </trkpt>
      <trkpt lat="43.093233" lon="-2.921050">
        <ele>954.0</ele>
        <time>2014-04-19T13:12:51Z</time>
      </trkpt>
      <trkpt lat="43.093233" lon="-2.921117">
        <ele>955.0</ele>
        <time>2014-04-19T13:12:52Z</time>
      </trkpt>
      <trkpt lat="43.093250" lon="-2.921167">
        <ele>956.0</ele>
        <time>2014-04-19T13:12:53Z</time>
      </trkpt>
      <trkpt lat="43.093283" lon="-2.921200">
        <ele>956.0</ele>
        <time>2014-04-19T13:12:54Z</time>
      </trkpt>
      <trkpt lat="43.093333" lon="-2.921183">
        <ele>956.0</ele>
        <time>2014-04-19T13:12:55Z</time>
      </trkpt>
      <trkpt lat="43.093383" lon="-2.921150">
        <ele>956.0</ele>
        <time>2014-04-19T13:12:56Z</time>
      </trkpt>
      <trkpt lat="43.093417" lon="-2.921083">
        <ele>956.0</ele>
        <time>2014-04-19T13:12:57Z</time>
      </trkpt>
      <trkpt lat="43.093433" lon="-2.921000">
        <ele>957.0</ele>
        <time>2014-04-19T13:12:58Z</time>
      </trkpt>
      <trkpt lat="43.093400" lon="-2.920883">
        <ele>958.0</ele>
        <time>2014-04-19T13:12:59Z</time>
      </trkpt>
      <trkpt lat="43.093350" lon="-2.920800">
        <ele>960.0</ele>
        <time>2014-04-19T13:13:00Z</time>
      </trkpt>
      <trkpt lat="43.093267" lon="-2.920717">
        <ele>963.0</ele>
        <time>2014-04-19T13:13:01Z</time>
      </trkpt>
      <trkpt lat="43.093183" lon="-2.920683">
        <ele>965.0</ele>
        <time>2014-04-19T13:13:02Z</time>
      </trkpt>
      <trkpt lat="43.093083" lon="-2.920650">
        <ele>966.0</ele>
        <time>2014-04-19T13:13:03Z</time>
      </trkpt>
      <trkpt lat="43.092967" lon="-2.920650">
        <ele>967.0</ele>
        <time>2014-04-19T13:13:04Z</time>
      </trkpt>
      <trkpt lat="43.092850" lon="-2.920683">
        <ele>967.0</ele>
        <time>2014-04-19T13:13:05Z</time>
      </trkpt>
      <trkpt lat="43.092733" lon="-2.920733">
        <ele>968.0</ele>
        <time>2014-04-19T13:13:06Z</time>
      </trkpt>
      <trkpt lat="43.092633" lon="-2.920833">
        <ele>968.0</ele>
        <time>2014-04-19T13:13:07Z</time>
      </trkpt>
      <trkpt lat="43.092583" lon="-2.920950">
        <ele>968.0</ele>
        <time>2014-04-19T13:13:08Z</time>
      </trkpt>
      <trkpt lat="43.092583" lon="-2.921050">
        <ele>967.0</ele>
        <time>2014-04-19T13:13:09Z</time>
      </trkpt>
      <trkpt lat="43.092583" lon="-2.921117">
        <ele>967.0</ele>
        <time>2014-04-19T13:13:10Z</time>
      </trkpt>
      <trkpt lat="43.092583" lon="-2.921167">
        <ele>967.0</ele>
        <time>2014-04-19T13:13:11Z</time>
      </trkpt>
      <trkpt lat="43.092617" lon="-2.921217">
        <ele>967.0</ele>
        <time>2014-04-19T13:13:12Z</time>
      </trkpt>
      <trkpt lat="43.092650" lon="-2.921250">
        <ele>967.0</ele>
        <time>2014-04-19T13:13:13Z</time>
      </trkpt>
      <trkpt lat="43.092700" lon="-2.921267">
        <ele>966.0</ele>
        <time>2014-04-19T13:13:14Z</time>
      </trkpt>
      <trkpt lat="43.092733" lon="-2.921283">
        <ele>966.0</ele>
        <time>2014-04-19T13:13:15Z</time>
      </trkpt>
      <trkpt lat="43.092767" lon="-2.921283">
        <ele>966.0</ele>
        <time>2014-04-19T13:13:16Z</time>
      </trkpt>
      <trkpt lat="43.092783" lon="-2.921300">
        <ele>966.0</ele>
        <time>2014-04-19T13:13:17Z</time>
      </trkpt>
      <trkpt lat="43.092800" lon="-2.921350">
        <ele>966.0</ele>
        <time>2014-04-19T13:13:18Z</time>
      </trkpt>
      <trkpt lat="43.092817" lon="-2.921417">
        <ele>965.0</ele>
        <time>2014-04-19T13:13:19Z</time>
      </trkpt>
      <trkpt lat="43.092833" lon="-2.921483">
        <ele>962.0</ele>
        <time>2014-04-19T13:13:20Z</time>
      </trkpt>
      <trkpt lat="43.092867" lon="-2.921567">
        <ele>960.0</ele>
        <time>2014-04-19T13:13:21Z</time>
      </trkpt>
      <trkpt lat="43.092900" lon="-2.921650">
        <ele>958.0</ele>
        <time>2014-04-19T13:13:22Z</time>
      </trkpt>
      <trkpt lat="43.092950" lon="-2.921717">
        <ele>956.0</ele>
        <time>2014-04-19T13:13:23Z</time>
      </trkpt>
      <trkpt lat="43.093000" lon="-2.921817">
        <ele>955.0</ele>
        <time>2014-04-19T13:13:24Z</time>
      </trkpt>
      <trkpt lat="43.093067" lon="-2.921917">
        <ele>955.0</ele>
        <time>2014-04-19T13:13:25Z</time>
      </trkpt>
      <trkpt lat="43.093117" lon="-2.922017">
        <ele>959.0</ele>
        <time>2014-04-19T13:13:26Z</time>
      </trkpt>
      <trkpt lat="43.093133" lon="-2.922083">
        <ele>964.0</ele>
        <time>2014-04-19T13:13:27Z</time>
      </trkpt>
      <trkpt lat="43.093150" lon="-2.922133">
        <ele>968.0</ele>
        <time>2014-04-19T13:13:28Z</time>
      </trkpt>
      <trkpt lat="43.093167" lon="-2.922200">
        <ele>972.0</ele>
        <time>2014-04-19T13:13:29Z</time>
      </trkpt>
      <trkpt lat="43.093183" lon="-2.922267">
        <ele>974.0</ele>
        <time>2014-04-19T13:13:30Z</time>
      </trkpt>
      <trkpt lat="43.093217" lon="-2.922350">
        <ele>974.0</ele>
        <time>2014-04-19T13:13:31Z</time>
      </trkpt>
      <trkpt lat="43.093250" lon="-2.922417">
        <ele>975.0</ele>
        <time>2014-04-19T13:13:32Z</time>
      </trkpt>
      <trkpt lat="43.093300" lon="-2.922483">
        <ele>976.0</ele>
        <time>2014-04-19T13:13:33Z</time>
      </trkpt>
      <trkpt lat="43.093333" lon="-2.922533">
        <ele>977.0</ele>
        <time>2014-04-19T13:13:34Z</time>
      </trkpt>
      <trkpt lat="43.093383" lon="-2.922567">
        <ele>979.0</ele>
        <time>2014-04-19T13:13:35Z</time>
      </trkpt>
      <trkpt lat="43.093433" lon="-2.922617">
        <ele>980.0</ele>
        <time>2014-04-19T13:13:36Z</time>
      </trkpt>
      <trkpt lat="43.093483" lon="-2.922650">
        <ele>981.0</ele>
        <time>2014-04-19T13:13:37Z</time>
      </trkpt>
      <trkpt lat="43.093550" lon="-2.922667">
        <ele>983.0</ele>
        <time>2014-04-19T13:13:38Z</time>
      </trkpt>
      <trkpt lat="43.093600" lon="-2.922683">
        <ele>984.0</ele>
        <time>2014-04-19T13:13:39Z</time>
      </trkpt>
      <trkpt lat="43.093650" lon="-2.922700">
        <ele>984.0</ele>
        <time>2014-04-19T13:13:40Z</time>
      </trkpt>
      <trkpt lat="43.093700" lon="-2.922717">
        <ele>985.0</ele>
        <time>2014-04-19T13:13:41Z</time>
      </trkpt>
      <trkpt lat="43.093767" lon="-2.922750">
        <ele>985.0</ele>
        <time>2014-04-19T13:13:42Z</time>
      </trkpt>
      <trkpt lat="43.093833" lon="-2.922767">
        <ele>984.0</ele>
        <time>2014-04-19T13:13:43Z</time>
      </trkpt>
      <trkpt lat="43.093900" lon="-2.922750">
        <ele>985.0</ele>
        <time>2014-04-19T13:13:44Z</time>
      </trkpt>
      <trkpt lat="43.093967" lon="-2.922683">
        <ele>985.0</ele>
        <time>2014-04-19T13:13:45Z</time>
      </trkpt>
      <trkpt lat="43.094000" lon="-2.922567">
        <ele>987.0</ele>
        <time>2014-04-19T13:13:46Z</time>
      </trkpt>
      <trkpt lat="43.094000" lon="-2.922467">
        <ele>989.0</ele>
        <time>2014-04-19T13:13:47Z</time>
      </trkpt>
      <trkpt lat="43.093983" lon="-2.922383">
        <ele>993.0</ele>
        <time>2014-04-19T13:13:48Z</time>
      </trkpt>
      <trkpt lat="43.093983" lon="-2.922317">
        <ele>995.0</ele>
        <time>2014-04-19T13:13:49Z</time>
      </trkpt>
      <trkpt lat="43.093967" lon="-2.922233">
        <ele>997.0</ele>
        <time>2014-04-19T13:13:50Z</time>
      </trkpt>
      <trkpt lat="43.093967" lon="-2.922133">
        <ele>997.0</ele>
        <time>2014-04-19T13:13:51Z</time>
      </trkpt>
      <trkpt lat="43.093950" lon="-2.921983">
        <ele>996.0</ele>
        <time>2014-04-19T13:13:52Z</time>
      </trkpt>
      <trkpt lat="43.093900" lon="-2.921850">
        <ele>997.0</ele>
        <time>2014-04-19T13:13:53Z</time>
      </trkpt>
      <trkpt lat="43.093833" lon="-2.921750">
        <ele>997.0</ele>
        <time>2014-04-19T13:13:54Z</time>
      </trkpt>
      <trkpt lat="43.093750" lon="-2.921667">
        <ele>998.0</ele>
        <time>2014-04-19T13:13:55Z</time>
      </trkpt>
      <trkpt lat="43.093650" lon="-2.921617">
        <ele>998.0</ele>
        <time>2014-04-19T13:13:56Z</time>
      </trkpt>
      <trkpt lat="43.093550" lon="-2.921583">
        <ele>997.0</ele>
        <time>2014-04-19T13:13:57Z</time>
      </trkpt>
      <trkpt lat="43.093433" lon="-2.921550">
        <ele>997.0</ele>
        <time>2014-04-19T13:13:58Z</time>
      </trkpt>
      <trkpt lat="43.093317" lon="-2.921533">
        <ele>998.0</ele>
        <time>2014-04-19T13:13:59Z</time>
      </trkpt>
      <trkpt lat="43.093217" lon="-2.921550">
        <ele>999.0</ele>
        <time>2014-04-19T13:14:00Z</time>
      </trkpt>
      <trkpt lat="43.093133" lon="-2.921600">
        <ele>1001.0</ele>
        <time>2014-04-19T13:14:01Z</time>
      </trkpt>
      <trkpt lat="43.093050" lon="-2.921667">
        <ele>1002.0</ele>
        <time>2014-04-19T13:14:02Z</time>
      </trkpt>
      <trkpt lat="43.093000" lon="-2.921767">
        <ele>1003.0</ele>
        <time>2014-04-19T13:14:03Z</time>
      </trkpt>
      <trkpt lat="43.092950" lon="-2.921867">
        <ele>1004.0</ele>
        <time>2014-04-19T13:14:04Z</time>
      </trkpt>
      <trkpt lat="43.092933" lon="-2.921967">
        <ele>1004.0</ele>
        <time>2014-04-19T13:14:05Z</time>
      </trkpt>
      <trkpt lat="43.092917" lon="-2.922050">
        <ele>1005.0</ele>
        <time>2014-04-19T13:14:06Z</time>
      </trkpt>
      <trkpt lat="43.092917" lon="-2.922133">
        <ele>1007.0</ele>
        <time>2014-04-19T13:14:07Z</time>
      </trkpt>
      <trkpt lat="43.092900" lon="-2.922217">
        <ele>1007.0</ele>
        <time>2014-04-19T13:14:08Z</time>
      </trkpt>
      <trkpt lat="43.092917" lon="-2.922317">
        <ele>1006.0</ele>
        <time>2014-04-19T13:14:09Z</time>
      </trkpt>
      <trkpt lat="43.092967" lon="-2.922417">
        <ele>1006.0</ele>
        <time>2014-04-19T13:14:10Z</time>
      </trkpt>
      <trkpt lat="43.093000" lon="-2.922500">
        <ele>1006.0</ele>
        <time>2014-04-19T13:14:11Z</time>
      </trkpt>
      <trkpt lat="43.093050" lon="-2.922567">
        <ele>1008.0</ele>
        <time>2014-04-19T13:14:12Z</time>
      </trkpt>
      <trkpt lat="43.093083" lon="-2.922633">
        <ele>1011.0</ele>
        <time>2014-04-19T13:14:13Z</time>
      </trkpt>
      <trkpt lat="43.093117" lon="-2.922683">
        <ele>1013.0</ele>
        <time>2014-04-19T13:14:14Z</time>
      </trkpt>
      <trkpt lat="43.093150" lon="-2.922750">
        <ele>1014.0</ele>
        <time>2014-04-19T13:14:15Z</time>
      </trkpt>
      <trkpt lat="43.093200" lon="-2.922833">
        <ele>1014.0</ele>
        <time>2014-04-19T13:14:16Z</time>
      </trkpt>
      <trkpt lat="43.093250" lon="-2.922900">
        <ele>1013.0</ele>
        <time>2014-04-19T13:14:17Z</time>
      </trkpt>
      <trkpt lat="43.093283" lon="-2.922983">
        <ele>1014.0</ele>
        <time>2014-04-19T13:14:18Z</time>
      </trkpt>
      <trkpt lat="43.093317" lon="-2.923067">
        <ele>1015.0</ele>
        <time>2014-04-19T13:14:19Z</time>
      </trkpt>
      <trkpt lat="43.093333" lon="-2.923150">
        <ele>1016.0</ele>
        <time>2014-04-19T13:14:20Z</time>
      </trkpt>
      <trkpt lat="43.093350" lon="-2.923233">
        <ele>1017.0</ele>
        <time>2014-04-19T13:14:21Z</time>
      </trkpt>
      <trkpt lat="43.093367" lon="-2.923317">
        <ele>1019.0</ele>
        <time>2014-04-19T13:14:22Z</time>
      </trkpt>
      <trkpt lat="43.093383" lon="-2.923383">
        <ele>1021.0</ele>
        <time>2014-04-19T13:14:23Z</time>
      </trkpt>
      <trkpt lat="43.093400" lon="-2.923450">
        <ele>1022.0</ele>
        <time>2014-04-19T13:14:24Z</time>
      </trkpt>
      <trkpt lat="43.093450" lon="-2.923533">
        <ele>1023.0</ele>
        <time>2014-04-19T13:14:25Z</time>
      </trkpt>
      <trkpt lat="43.093517" lon="-2.923583">
        <ele>1022.0</ele>
        <time>2014-04-19T13:14:26Z</time>
      </trkpt>
      <trkpt lat="43.093617" lon="-2.923617">
        <ele>1022.0</ele>
        <time>2014-04-19T13:14:27Z</time>
      </trkpt>
      <trkpt lat="43.093700" lon="-2.923583">
        <ele>1022.0</ele>
        <time>2014-04-19T13:14:28Z</time>
      </trkpt>
      <trkpt lat="43.093767" lon="-2.923533">
        <ele>1022.0</ele>
        <time>2014-04-19T13:14:29Z</time>
      </trkpt>
      <trkpt lat="43.093833" lon="-2.923433">
        <ele>1023.0</ele>
        <time>2014-04-19T13:14:30Z</time>
      </trkpt>
      <trkpt lat="43.093867" lon="-2.923333">
        <ele>1025.0</ele>
        <time>2014-04-19T13:14:31Z</time>
      </trkpt>
      <trkpt lat="43.093900" lon="-2.923217">
        <ele>1026.0</ele>
        <time>2014-04-19T13:14:32Z</time>
      </trkpt>
      <trkpt lat="43.093900" lon="-2.923100">
        <ele>1028.0</ele>
        <time>2014-04-19T13:14:33Z</time>
      </trkpt>
      <trkpt lat="43.093867" lon="-2.923000">
        <ele>1030.0</ele>
        <time>2014-04-19T13:14:34Z</time>
      </trkpt>
      <trkpt lat="43.093833" lon="-2.922917">
        <ele>1031.0</ele>
        <time>2014-04-19T13:14:35Z</time>
      </trkpt>
      <trkpt lat="43.093767" lon="-2.922867">
        <ele>1033.0</ele>
        <time>2014-04-19T13:14:36Z</time>
      </trkpt>
      <trkpt lat="43.093700" lon="-2.922817">
        <ele>1035.0</ele>
        <time>2014-04-19T13:14:37Z</time>
      </trkpt>
      <trkpt lat="43.093617" lon="-2.922783">
        <ele>1037.0</ele>
        <time>2014-04-19T13:14:38Z</time>
      </trkpt>
      <trkpt lat="43.093550" lon="-2.922783">
        <ele>1039.0</ele>
        <time>2014-04-19T13:14:39Z</time>
      </trkpt>
      <trkpt lat="43.093467" lon="-2.922800">
        <ele>1041.0</ele>
        <time>2014-04-19T13:14:40Z</time>
      </trkpt>
      <trkpt lat="43.093400" lon="-2.922850">
        <ele>1043.0</ele>
        <time>2014-04-19T13:14:41Z</time>
      </trkpt>
      <trkpt lat="43.093350" lon="-2.922917">
        <ele>1045.0</ele>
        <time>2014-04-19T13:14:42Z</time>
      </trkpt>
      <trkpt lat="43.093300" lon="-2.923000">
        <ele>1047.0</ele>
        <time>2014-04-19T13:14:43Z</time>
      </trkpt>
      <trkpt lat="43.093267" lon="-2.923083">
        <ele>1048.0</ele>
        <time>2014-04-19T13:14:44Z</time>
      </trkpt>
      <trkpt lat="43.093233" lon="-2.923183">
        <ele>1049.0</ele>
        <time>2014-04-19T13:14:45Z</time>
      </trkpt>
      <trkpt lat="43.093200" lon="-2.923283">
        <ele>1051.0</ele>
        <time>2014-04-19T13:14:46Z</time>
      </trkpt>
      <trkpt lat="43.093200" lon="-2.923367">
        <ele>1053.0</ele>
        <time>2014-04-19T13:14:47Z</time>
      </trkpt>
      <trkpt lat="43.093217" lon="-2.923450">
        <ele>1055.0</ele>
        <time>2014-04-19T13:14:48Z</time>
      </trkpt>
      <trkpt lat="43.093233" lon="-2.923533">
        <ele>1055.0</ele>
        <time>2014-04-19T13:14:49Z</time>
      </trkpt>
      <trkpt lat="43.093250" lon="-2.923650">
        <ele>1056.0</ele>
        <time>2014-04-19T13:14:50Z</time>
      </trkpt>
      <trkpt lat="43.093283" lon="-2.923733">
        <ele>1057.0</ele>
        <time>2014-04-19T13:14:51Z</time>
      </trkpt>
      <trkpt lat="43.093333" lon="-2.923800">
        <ele>1058.0</ele>
        <time>2014-04-19T13:14:52Z</time>
      </trkpt>
      <trkpt lat="43.093383" lon="-2.923800">
        <ele>1060.0</ele>
        <time>2014-04-19T13:14:53Z</time>
      </trkpt>
      <trkpt lat="43.093450" lon="-2.923767">
        <ele>1061.0</ele>
        <time>2014-04-19T13:14:54Z</time>
      </trkpt>
      <trkpt lat="43.093517" lon="-2.923700">
        <ele>1061.0</ele>
        <time>2014-04-19T13:14:55Z</time>
      </trkpt>
      <trkpt lat="43.093550" lon="-2.923600">
        <ele>1062.0</ele>
        <time>2014-04-19T13:14:56Z</time>
      </trkpt>
      <trkpt lat="43.093567" lon="-2.923483">
        <ele>1063.0</ele>
        <time>2014-04-19T13:14:57Z</time>
      </trkpt>
      <trkpt lat="43.093583" lon="-2.923383">
        <ele>1063.0</ele>
        <time>2014-04-19T13:14:58Z</time>
      </trkpt>
      <trkpt lat="43.093583" lon="-2.923250">
        <ele>1063.0</ele>
        <time>2014-04-19T13:14:59Z</time>
      </trkpt>
      <trkpt lat="43.093567" lon="-2.923133">
        <ele>1063.0</ele>
        <time>2014-04-19T13:15:00Z</time>
      </trkpt>
      <trkpt lat="43.093550" lon="-2.923000">
        <ele>1062.0</ele>
        <time>2014-04-19T13:15:01Z</time>
      </trkpt>
      <trkpt lat="43.093483" lon="-2.922900">
        <ele>1062.0</ele>
        <time>2014-04-19T13:15:02Z</time>
      </trkpt>
      <trkpt lat="43.093417" lon="-2.922833">
        <ele>1062.0</ele>
        <time>2014-04-19T13:15:03Z</time>
      </trkpt>
      <trkpt lat="43.093333" lon="-2.922800">
        <ele>1063.0</ele>
        <time>2014-04-19T13:15:04Z</time>
      </trkpt>
      <trkpt lat="43.093250" lon="-2.922817">
        <ele>1065.0</ele>
        <time>2014-04-19T13:15:05Z</time>
      </trkpt>
      <trkpt lat="43.093200" lon="-2.922850">
        <ele>1068.0</ele>
        <time>2014-04-19T13:15:06Z</time>
      </trkpt>
      <trkpt lat="43.093133" lon="-2.922900">
        <ele>1071.0</ele>
        <time>2014-04-19T13:15:07Z</time>
      </trkpt>
      <trkpt lat="43.093083" lon="-2.922967">
        <ele>1073.0</ele>
        <time>2014-04-19T13:15:08Z</time>
      </trkpt>
      <trkpt lat="43.093033" lon="-2.923050">
        <ele>1074.0</ele>
        <time>2014-04-19T13:15:09Z</time>
      </trkpt>
      <trkpt lat="43.093000" lon="-2.923167">
        <ele>1074.0</ele>
        <time>2014-04-19T13:15:10Z</time>
      </trkpt>
      <trkpt lat="43.093000" lon="-2.923283">
        <ele>1075.0</ele>
        <time>2014-04-19T13:15:11Z</time>
      </trkpt>
      <trkpt lat="43.093017" lon="-2.923367">
        <ele>1076.0</ele>
        <time>2014-04-19T13:15:12Z</time>
      </trkpt>
      <trkpt lat="43.093050" lon="-2.923450">
        <ele>1077.0</ele>
        <time>2014-04-19T13:15:13Z</time>
      </trkpt>
      <trkpt lat="43.093100" lon="-2.923517">
        <ele>1078.0</ele>
        <time>2014-04-19T13:15:14Z</time>
      </trkpt>
      <trkpt lat="43.093150" lon="-2.923550">
        <ele>1079.0</ele>
        <time>2014-04-19T13:15:15Z</time>
      </trkpt>
      <trkpt lat="43.093200" lon="-2.923567">
        <ele>1080.0</ele>
        <time>2014-04-19T13:15:16Z</time>
      </trkpt>
      <trkpt lat="43.093250" lon="-2.923600">
        <ele>1080.0</ele>
        <time>2014-04-19T13:15:17Z</time>
      </trkpt>
      <trkpt lat="43.093283" lon="-2.923650">
        <ele>1079.0</ele>
        <time>2014-04-19T13:15:18Z</time>
      </trkpt>
      <trkpt lat="43.093333" lon="-2.923717">
        <ele>1078.0</ele>
        <time>2014-04-19T13:15:19Z</time>
      </trkpt>
      <trkpt lat="43.093367" lon="-2.923800">
        <ele>1077.0</ele>
        <time>2014-04-19T13:15:20Z</time>
      </trkpt>
      <trkpt lat="43.093400" lon="-2.923883">
        <ele>1077.0</ele>
        <time>2014-04-19T13:15:21Z</time>
      </trkpt>
      <trkpt lat="43.093400" lon="-2.923983">
        <ele>1079.0</ele>
        <time>2014-04-19T13:15:22Z</time>
      </trkpt>
      <trkpt lat="43.093400" lon="-2.924083">
        <ele>1080.0</ele>
        <time>2014-04-19T13:15:23Z</time>
      </trkpt>
      <trkpt lat="43.093400" lon="-2.924183">
        <ele>1083.0</ele>
        <time>2014-04-19T13:15:24Z</time>
      </trkpt>
      <trkpt lat="43.093383" lon="-2.924283">
        <ele>1086.0</ele>
        <time>2014-04-19T13:15:25Z</time>
      </trkpt>
      <trkpt lat="43.093383" lon="-2.924367">
        <ele>1088.0</ele>
        <time>2014-04-19T13:15:26Z</time>
      </trkpt>
      <trkpt lat="43.093383" lon="-2.924450">
        <ele>1090.0</ele>
        <time>2014-04-19T13:15:27Z</time>
      </trkpt>
      <trkpt lat="43.093367" lon="-2.924533">
        <ele>1091.0</ele>
        <time>2014-04-19T13:15:28Z</time>
      </trkpt>
      <trkpt lat="43.093350" lon="-2.924600">
        <ele>1092.0</ele>
        <time>2014-04-19T13:15:29Z</time>
      </trkpt>
      <trkpt lat="43.093350" lon="-2.924683">
        <ele>1092.0</ele>
        <time>2014-04-19T13:15:30Z</time>
      </trkpt>
      <trkpt lat="43.093383" lon="-2.924750">
        <ele>1093.0</ele>
        <time>2014-04-19T13:15:31Z</time>
      </trkpt>
      <trkpt lat="43.093450" lon="-2.924783">
        <ele>1094.0</ele>
        <time>2014-04-19T13:15:32Z</time>
      </trkpt>
      <trkpt lat="43.093500" lon="-2.924817">
        <ele>1095.0</ele>
        <time>2014-04-19T13:15:33Z</time>
      </trkpt>
      <trkpt lat="43.093567" lon="-2.924800">
        <ele>1098.0</ele>
        <time>2014-04-19T13:15:34Z</time>
      </trkpt>
      <trkpt lat="43.093600" lon="-2.924750">
        <ele>1100.0</ele>
        <time>2014-04-19T13:15:35Z</time>
      </trkpt>
      <trkpt lat="43.093633" lon="-2.924683">
        <ele>1101.0</ele>
        <time>2014-04-19T13:15:36Z</time>
      </trkpt>
      <trkpt lat="43.093667" lon="-2.924600">
        <ele>1100.0</ele>
        <time>2014-04-19T13:15:37Z</time>
      </trkpt>
      <trkpt lat="43.093700" lon="-2.924483">
        <ele>1099.0</ele>
        <time>2014-04-19T13:15:38Z</time>
      </trkpt>
      <trkpt lat="43.093717" lon="-2.924350">
        <ele>1099.0</ele>
        <time>2014-04-19T13:15:39Z</time>
      </trkpt>
      <trkpt lat="43.093683" lon="-2.924217">
        <ele>1099.0</ele>
        <time>2014-04-19T13:15:40Z</time>
      </trkpt>
      <trkpt lat="43.093617" lon="-2.924083">
        <ele>1100.0</ele>
        <time>2014-04-19T13:15:41Z</time>
      </trkpt>
      <trkpt lat="43.093533" lon="-2.924000">
        <ele>1101.0</ele>
        <time>2014-04-19T13:15:42Z</time>
      </trkpt>
      <trkpt lat="43.093450" lon="-2.923967">
        <ele>1103.0</ele>
        <time>2014-04-19T13:15:43Z</time>
      </trkpt>
      <trkpt lat="43.093383" lon="-2.923933">
        <ele>1104.0</ele>
        <time>2014-04-19T13:15:44Z</time>
      </trkpt>
      <trkpt lat="43.093300" lon="-2.923933">
        <ele>1105.0</ele>
        <time>2014-04-19T13:15:45Z</time>
      </trkpt>
      <trkpt lat="43.093217" lon="-2.923950">
        <ele>1106.0</ele>
        <time>2014-04-19T13:15:46Z</time>
      </trkpt>
      <trkpt lat="43.093150" lon="-2.924000">
        <ele>1107.0</ele>
        <time>2014-04-19T13:15:47Z</time>
      </trkpt>
      <trkpt lat="43.093067" lon="-2.924067">
        <ele>1107.0</ele>
        <time>2014-04-19T13:15:48Z</time>
      </trkpt>
      <trkpt lat="43.093000" lon="-2.924167">
        <ele>1108.0</ele>
        <time>2014-04-19T13:15:49Z</time>
      </trkpt>
      <trkpt lat="43.092967" lon="-2.924267">
        <ele>1108.0</ele>
        <time>2014-04-19T13:15:50Z</time>
      </trkpt>
      <trkpt lat="43.092950" lon="-2.924367">
        <ele>1111.0</ele>
        <time>2014-04-19T13:15:51Z</time>
      </trkpt>
      <trkpt lat="43.092950" lon="-2.924467">
        <ele>1113.0</ele>
        <time>2014-04-19T13:15:52Z</time>
      </trkpt>
      <trkpt lat="43.092983" lon="-2.924533">
        <ele>1116.0</ele>
        <time>2014-04-19T13:15:53Z</time>
      </trkpt>
      <trkpt lat="43.093017" lon="-2.924617">
        <ele>1119.0</ele>
        <time>2014-04-19T13:15:54Z</time>
      </trkpt>
      <trkpt lat="43.093050" lon="-2.924683">
        <ele>1121.0</ele>
        <time>2014-04-19T13:15:55Z</time>
      </trkpt>
      <trkpt lat="43.093067" lon="-2.924750">
        <ele>1123.0</ele>
        <time>2014-04-19T13:15:56Z</time>
      </trkpt>
      <trkpt lat="43.093083" lon="-2.924850">
        <ele>1123.0</ele>
        <time>2014-04-19T13:15:57Z</time>
      </trkpt>
      <trkpt lat="43.093100" lon="-2.924933">
        <ele>1123.0</ele>
        <time>2014-04-19T13:15:58Z</time>
      </trkpt>
      <trkpt lat="43.093117" lon="-2.925017">
        <ele>1124.0</ele>
        <time>2014-04-19T13:15:59Z</time>
      </trkpt>
      <trkpt lat="43.093150" lon="-2.925050">
        <ele>1125.0</ele>
        <time>2014-04-19T13:16:00Z</time>
      </trkpt>
      <trkpt lat="43.093200" lon="-2.925067">
        <ele>1125.0</ele>
        <time>2014-04-19T13:16:01Z</time>
      </trkpt>
      <trkpt lat="43.093250" lon="-2.925067">
        <ele>1124.0</ele>
        <time>2014-04-19T13:16:02Z</time>
      </trkpt>
      <trkpt lat="43.093317" lon="-2.925050">
        <ele>1123.0</ele>
        <time>2014-04-19T13:16:03Z</time>
      </trkpt>
      <trkpt lat="43.093400" lon="-2.925033">
        <ele>1121.0</ele>
        <time>2014-04-19T13:16:04Z</time>
      </trkpt>
      <trkpt lat="43.093467" lon="-2.925000">
        <ele>1120.0</ele>
        <time>2014-04-19T13:16:05Z</time>
      </trkpt>
      <trkpt lat="43.093533" lon="-2.925000">
        <ele>1120.0</ele>
        <time>2014-04-19T13:16:06Z</time>
      </trkpt>
      <trkpt lat="43.093583" lon="-2.925033">
        <ele>1120.0</ele>
        <time>2014-04-19T13:16:07Z</time>
      </trkpt>
      <trkpt lat="43.093633" lon="-2.925100">
        <ele>1119.0</ele>
        <time>2014-04-19T13:16:08Z</time>
      </trkpt>
      <trkpt lat="43.093667" lon="-2.925167">
        <ele>1118.0</ele>
        <time>2014-04-19T13:16:09Z</time>
      </trkpt>
      <trkpt lat="43.093700" lon="-2.925233">
        <ele>1117.0</ele>
        <time>2014-04-19T13:16:10Z</time>
      </trkpt>
      <trkpt lat="43.093700" lon="-2.925317">
        <ele>1117.0</ele>
        <time>2014-04-19T13:16:11Z</time>
      </trkpt>
      <trkpt lat="43.093717" lon="-2.925400">
        <ele>1117.0</ele>
        <time>2014-04-19T13:16:12Z</time>
      </trkpt>
      <trkpt lat="43.093717" lon="-2.925483">
        <ele>1116.0</ele>
        <time>2014-04-19T13:16:13Z</time>
      </trkpt>
      <trkpt lat="43.093717" lon="-2.925567">
        <ele>1115.0</ele>
        <time>2014-04-19T13:16:14Z</time>
      </trkpt>
      <trkpt lat="43.093717" lon="-2.925667">
        <ele>1113.0</ele>
        <time>2014-04-19T13:16:15Z</time>
      </trkpt>
      <trkpt lat="43.093717" lon="-2.925767">
        <ele>1111.0</ele>
        <time>2014-04-19T13:16:16Z</time>
      </trkpt>
      <trkpt lat="43.093700" lon="-2.925850">
        <ele>1110.0</ele>
        <time>2014-04-19T13:16:17Z</time>
      </trkpt>
      <trkpt lat="43.093667" lon="-2.925933">
        <ele>1109.0</ele>
        <time>2014-04-19T13:16:18Z</time>
      </trkpt>
      <trkpt lat="43.093633" lon="-2.926017">
        <ele>1108.0</ele>
        <time>2014-04-19T13:16:19Z</time>
      </trkpt>
      <trkpt lat="43.093617" lon="-2.926117">
        <ele>1107.0</ele>
        <time>2014-04-19T13:16:20Z</time>
      </trkpt>
      <trkpt lat="43.093600" lon="-2.926200">
        <ele>1107.0</ele>
        <time>2014-04-19T13:16:21Z</time>
      </trkpt>
      <trkpt lat="43.093600" lon="-2.926300">
        <ele>1107.0</ele>
        <time>2014-04-19T13:16:22Z</time>
      </trkpt>
      <trkpt lat="43.093600" lon="-2.926417">
        <ele>1107.0</ele>
        <time>2014-04-19T13:16:23Z</time>
      </trkpt>
      <trkpt lat="43.093583" lon="-2.926500">
        <ele>1108.0</ele>
        <time>2014-04-19T13:16:24Z</time>
      </trkpt>
      <trkpt lat="43.093567" lon="-2.926583">
        <ele>1109.0</ele>
        <time>2014-04-19T13:16:25Z</time>
      </trkpt>
      <trkpt lat="43.093550" lon="-2.926667">
        <ele>1108.0</ele>
        <time>2014-04-19T13:16:26Z</time>
      </trkpt>
      <trkpt lat="43.093550" lon="-2.926767">
        <ele>1106.0</ele>
        <time>2014-04-19T13:16:27Z</time>
      </trkpt>
      <trkpt lat="43.093550" lon="-2.926883">
        <ele>1104.0</ele>
        <time>2014-04-19T13:16:28Z</time>
      </trkpt>
      <trkpt lat="43.093550" lon="-2.927017">
        <ele>1103.0</ele>
        <time>2014-04-19T13:16:29Z</time>
      </trkpt>
      <trkpt lat="43.093550" lon="-2.927133">
        <ele>1102.0</ele>
        <time>2014-04-19T13:16:30Z</time>
      </trkpt>
      <trkpt lat="43.093550" lon="-2.927250">
        <ele>1101.0</ele>
        <time>2014-04-19T13:16:31Z</time>
      </trkpt>
      <trkpt lat="43.093533" lon="-2.927367">
        <ele>1101.0</ele>
        <time>2014-04-19T13:16:32Z</time>
      </trkpt>
      <trkpt lat="43.093517" lon="-2.927483">
        <ele>1100.0</ele>
        <time>2014-04-19T13:16:33Z</time>
      </trkpt>
      <trkpt lat="43.093483" lon="-2.927600">
        <ele>1099.0</ele>
        <time>2014-04-19T13:16:34Z</time>
      </trkpt>
      <trkpt lat="43.093467" lon="-2.927717">
        <ele>1099.0</ele>
        <time>2014-04-19T13:16:35Z</time>
      </trkpt>
      <trkpt lat="43.093450" lon="-2.927833">
        <ele>1100.0</ele>
        <time>2014-04-19T13:16:36Z</time>
      </trkpt>
      <trkpt lat="43.093433" lon="-2.927933">
        <ele>1100.0</ele>
        <time>2014-04-19T13:16:37Z</time>
      </trkpt>
      <trkpt lat="43.093417" lon="-2.928017">
        <ele>1101.0</ele>
        <time>2014-04-19T13:16:38Z</time>
      </trkpt>
      <trkpt lat="43.093383" lon="-2.928100">
        <ele>1101.0</ele>
        <time>2014-04-19T13:16:39Z</time>
      </trkpt>
      <trkpt lat="43.093350" lon="-2.928200">
        <ele>1100.0</ele>
        <time>2014-04-19T13:16:40Z</time>
      </trkpt>
      <trkpt lat="43.093300" lon="-2.928300">
        <ele>1101.0</ele>
        <time>2014-04-19T13:16:41Z</time>
      </trkpt>
      <trkpt lat="43.093250" lon="-2.928400">
        <ele>1103.0</ele>
        <time>2014-04-19T13:16:42Z</time>
      </trkpt>
      <trkpt lat="43.093200" lon="-2.928483">
        <ele>1106.0</ele>
        <time>2014-04-19T13:16:43Z</time>
      </trkpt>
      <trkpt lat="43.093167" lon="-2.928567">
        <ele>1110.0</ele>
        <time>2014-04-19T13:16:44Z</time>
      </trkpt>
      <trkpt lat="43.093150" lon="-2.928650">
        <ele>1113.0</ele>
        <time>2014-04-19T13:16:45Z</time>
      </trkpt>
      <trkpt lat="43.093150" lon="-2.928750">
        <ele>1115.0</ele>
        <time>2014-04-19T13:16:46Z</time>
      </trkpt>
      <trkpt lat="43.093167" lon="-2.928833">
        <ele>1115.0</ele>
        <time>2014-04-19T13:16:47Z</time>
      </trkpt>
      <trkpt lat="43.093217" lon="-2.928917">
        <ele>1116.0</ele>
        <time>2014-04-19T13:16:48Z</time>
      </trkpt>
      <trkpt lat="43.093283" lon="-2.928950">
        <ele>1117.0</ele>
        <time>2014-04-19T13:16:49Z</time>
      </trkpt>
      <trkpt lat="43.093383" lon="-2.928933">
        <ele>1118.0</ele>
        <time>2014-04-19T13:16:50Z</time>
      </trkpt>
      <trkpt lat="43.093450" lon="-2.928900">
        <ele>1118.0</ele>
        <time>2014-04-19T13:16:51Z</time>
      </trkpt>
      <trkpt lat="43.093500" lon="-2.928833">
        <ele>1119.0</ele>
        <time>2014-04-19T13:16:52Z</time>
      </trkpt>
      <trkpt lat="43.093517" lon="-2.928750">
        <ele>1120.0</ele>
        <time>2014-04-19T13:16:53Z</time>
      </trkpt>
      <trkpt lat="43.093517" lon="-2.928683">
        <ele>1120.0</ele>
        <time>2014-04-19T13:16:54Z</time>
      </trkpt>
      <trkpt lat="43.093517" lon="-2.928583">
        <ele>1119.0</ele>
        <time>2014-04-19T13:16:55Z</time>
      </trkpt>
      <trkpt lat="43.093517" lon="-2.928500">
        <ele>1116.0</ele>
        <time>2014-04-19T13:16:56Z</time>
      </trkpt>
      <trkpt lat="43.093500" lon="-2.928400">
        <ele>1115.0</ele>
        <time>2014-04-19T13:16:57Z</time>
      </trkpt>
      <trkpt lat="43.093433" lon="-2.928317">
        <ele>1113.0</ele>
        <time>2014-04-19T13:16:58Z</time>
      </trkpt>
      <trkpt lat="43.093333" lon="-2.928250">
        <ele>1111.0</ele>
        <time>2014-04-19T13:16:59Z</time>
      </trkpt>
      <trkpt lat="43.093233" lon="-2.928217">
        <ele>1110.0</ele>
        <time>2014-04-19T13:17:00Z</time>
      </trkpt>
      <trkpt lat="43.093133" lon="-2.928200">
        <ele>1109.0</ele>
        <time>2014-04-19T13:17:01Z</time>
      </trkpt>
      <trkpt lat="43.093050" lon="-2.928233">
        <ele>1110.0</ele>
        <time>2014-04-19T13:17:02Z</time>
      </trkpt>
      <trkpt lat="43.092967" lon="-2.928267">
        <ele>1110.0</ele>
        <time>2014-04-19T13:17:03Z</time>
      </trkpt>
      <trkpt lat="43.092867" lon="-2.928333">
        <ele>1110.0</ele>
        <time>2014-04-19T13:17:04Z</time>
      </trkpt>
      <trkpt lat="43.092783" lon="-2.928400">
        <ele>1109.0</ele>
        <time>2014-04-19T13:17:05Z</time>
      </trkpt>
      <trkpt lat="43.092700" lon="-2.928467">
        <ele>1110.0</ele>
        <time>2014-04-19T13:17:06Z</time>
      </trkpt>
      <trkpt lat="43.092617" lon="-2.928533">
        <ele>1110.0</ele>
        <time>2014-04-19T13:17:07Z</time>
      </trkpt>
      <trkpt lat="43.092550" lon="-2.928617">
        <ele>1111.0</ele>
        <time>2014-04-19T13:17:08Z</time>
      </trkpt>
      <trkpt lat="43.092500" lon="-2.928717">
        <ele>1112.0</ele>
        <time>2014-04-19T13:17:09Z</time>
      </trkpt>
      <trkpt lat="43.092450" lon="-2.928833">
        <ele>1112.0</ele>
        <time>2014-04-19T13:17:10Z</time>
      </trkpt>
      <trkpt lat="43.092400" lon="-2.928933">
        <ele>1113.0</ele>
        <time>2014-04-19T13:17:11Z</time>
      </trkpt>
      <trkpt lat="43.092367" lon="-2.929017">
        <ele>1116.0</ele>
        <time>2014-04-19T13:17:12Z</time>
      </trkpt>
      <trkpt lat="43.092350" lon="-2.929100">
        <ele>1118.0</ele>
        <time>2014-04-19T13:17:13Z</time>
      </trkpt>
      <trkpt lat="43.092333" lon="-2.929200">
        <ele>1119.0</ele>
        <time>2014-04-19T13:17:14Z</time>
      </trkpt>
      <trkpt lat="43.092317" lon="-2.929317">
        <ele>1119.0</ele>
        <time>2014-04-19T13:17:15Z</time>
      </trkpt>
      <trkpt lat="43.092317" lon="-2.929433">
        <ele>1120.0</ele>
        <time>2014-04-19T13:17:16Z</time>
      </trkpt>
      <trkpt lat="43.092367" lon="-2.929533">
        <ele>1121.0</ele>
        <time>2014-04-19T13:17:17Z</time>
      </trkpt>
      <trkpt lat="43.092433" lon="-2.929583">
        <ele>1121.0</ele>
        <time>2014-04-19T13:17:18Z</time>
      </trkpt>
      <trkpt lat="43.092517" lon="-2.929600">
        <ele>1122.0</ele>
        <time>2014-04-19T13:17:19Z</time>
      </trkpt>
      <trkpt lat="43.092600" lon="-2.929567">
        <ele>1123.0</ele>
        <time>2014-04-19T13:17:20Z</time>
      </trkpt>
      <trkpt lat="43.092650" lon="-2.929500">
        <ele>1124.0</ele>
        <time>2014-04-19T13:17:21Z</time>
      </trkpt>
      <trkpt lat="43.092700" lon="-2.929433">
        <ele>1126.0</ele>
        <time>2014-04-19T13:17:22Z</time>
      </trkpt>
      <trkpt lat="43.092717" lon="-2.929350">
        <ele>1127.0</ele>
        <time>2014-04-19T13:17:23Z</time>
      </trkpt>
      <trkpt lat="43.092700" lon="-2.929250">
        <ele>1128.0</ele>
        <time>2014-04-19T13:17:24Z</time>
      </trkpt>
      <trkpt lat="43.092700" lon="-2.929150">
        <ele>1128.0</ele>
        <time>2014-04-19T13:17:25Z</time>
      </trkpt>
      <trkpt lat="43.092650" lon="-2.929033">
        <ele>1127.0</ele>
        <time>2014-04-19T13:17:26Z</time>
      </trkpt>
      <trkpt lat="43.092600" lon="-2.928917">
        <ele>1126.0</ele>
        <time>2014-04-19T13:17:27Z</time>
      </trkpt>
      <trkpt lat="43.092500" lon="-2.928833">
        <ele>1127.0</ele>
        <time>2014-04-19T13:17:28Z</time>
      </trkpt>
      <trkpt lat="43.092400" lon="-2.928783">
        <ele>1127.0</ele>
        <time>2014-04-19T13:17:29Z</time>
      </trkpt>
      <trkpt lat="43.092300" lon="-2.928800">
        <ele>1128.0</ele>
        <time>2014-04-19T13:17:30Z</time>
      </trkpt>
      <trkpt lat="43.092200" lon="-2.928850">
        <ele>1128.0</ele>
        <time>2014-04-19T13:17:31Z</time>
      </trkpt>
      <trkpt lat="43.092117" lon="-2.928917">
        <ele>1129.0</ele>
        <time>2014-04-19T13:17:32Z</time>
      </trkpt>
      <trkpt lat="43.092067" lon="-2.929000">
        <ele>1129.0</ele>
        <time>2014-04-19T13:17:33Z</time>
      </trkpt>
      <trkpt lat="43.092017" lon="-2.929083">
        <ele>1130.0</ele>
        <time>2014-04-19T13:17:34Z</time>
      </trkpt>
      <trkpt lat="43.091967" lon="-2.929167">
        <ele>1131.0</ele>
        <time>2014-04-19T13:17:35Z</time>
      </trkpt>
      <trkpt lat="43.091933" lon="-2.929283">
        <ele>1131.0</ele>
        <time>2014-04-19T13:17:36Z</time>
      </trkpt>
      <trkpt lat="43.091900" lon="-2.929400">
        <ele>1131.0</ele>
        <time>2014-04-19T13:17:37Z</time>
      </trkpt>
      <trkpt lat="43.091883" lon="-2.929517">
        <ele>1131.0</ele>
        <time>2014-04-19T13:17:38Z</time>
      </trkpt>
      <trkpt lat="43.091867" lon="-2.929633">
        <ele>1130.0</ele>
        <time>2014-04-19T13:17:39Z</time>
      </trkpt>
      <trkpt lat="43.091833" lon="-2.929750">
        <ele>1131.0</ele>
        <time>2014-04-19T13:17:40Z</time>
      </trkpt>
      <trkpt lat="43.091817" lon="-2.929867">
        <ele>1132.0</ele>
        <time>2014-04-19T13:17:41Z</time>
      </trkpt>
      <trkpt lat="43.091783" lon="-2.929967">
        <ele>1134.0</ele>
        <time>2014-04-19T13:17:42Z</time>
      </trkpt>
      <trkpt lat="43.091750" lon="-2.930067">
        <ele>1135.0</ele>
        <time>2014-04-19T13:17:43Z</time>
      </trkpt>
      <trkpt lat="43.091733" lon="-2.930183">
        <ele>1135.0</ele>
        <time>2014-04-19T13:17:44Z</time>
      </trkpt>
      <trkpt lat="43.091717" lon="-2.930283">
        <ele>1135.0</ele>
        <time>2014-04-19T13:17:45Z</time>
      </trkpt>
      <trkpt lat="43.091683" lon="-2.930400">
        <ele>1136.0</ele>
        <time>2014-04-19T13:17:46Z</time>
      </trkpt>
      <trkpt lat="43.091683" lon="-2.930517">
        <ele>1136.0</ele>
        <time>2014-04-19T13:17:47Z</time>
      </trkpt>
      <trkpt lat="43.091700" lon="-2.930600">
        <ele>1136.0</ele>
        <time>2014-04-19T13:17:48Z</time>
      </trkpt>
      <trkpt lat="43.091733" lon="-2.930700">
        <ele>1135.0</ele>
        <time>2014-04-19T13:17:49Z</time>
      </trkpt>
      <trkpt lat="43.091767" lon="-2.930783">
        <ele>1132.0</ele>
        <time>2014-04-19T13:17:50Z</time>
      </trkpt>
      <trkpt lat="43.091817" lon="-2.930883">
        <ele>1130.0</ele>
        <time>2014-04-19T13:17:51Z</time>
      </trkpt>
      <trkpt lat="43.091833" lon="-2.930967">
        <ele>1128.0</ele>
        <time>2014-04-19T13:17:52Z</time>
      </trkpt>
      <trkpt lat="43.091867" lon="-2.931050">
        <ele>1127.0</ele>
        <time>2014-04-19T13:17:53Z</time>
      </trkpt>
      <trkpt lat="43.091900" lon="-2.931150">
        <ele>1125.0</ele>
        <time>2014-04-19T13:17:54Z</time>
      </trkpt>
      <trkpt lat="43.091933" lon="-2.931233">
        <ele>1123.0</ele>
        <time>2014-04-19T13:17:55Z</time>
      </trkpt>
      <trkpt lat="43.091967" lon="-2.931333">
        <ele>1120.0</ele>
        <time>2014-04-19T13:17:56Z</time>
      </trkpt>
      <trkpt lat="43.092000" lon="-2.931417">
        <ele>1118.0</ele>
        <time>2014-04-19T13:17:57Z</time>
      </trkpt>
      <trkpt lat="43.092033" lon="-2.931533">
        <ele>1116.0</ele>
        <time>2014-04-19T13:17:58Z</time>
      </trkpt>
      <trkpt lat="43.092050" lon="-2.931633">
        <ele>1114.0</ele>
        <time>2014-04-19T13:17:59Z</time>
      </trkpt>
      <trkpt lat="43.092067" lon="-2.931750">
        <ele>1112.0</ele>
        <time>2014-04-19T13:18:00Z</time>
      </trkpt>
      <trkpt lat="43.092083" lon="-2.931867">
        <ele>1109.0</ele>
        <time>2014-04-19T13:18:01Z</time>
      </trkpt>
      <trkpt lat="43.092083" lon="-2.931983">
        <ele>1107.0</ele>
        <time>2014-04-19T13:18:02Z</time>
      </trkpt>
      <trkpt lat="43.092100" lon="-2.932100">
        <ele>1105.0</ele>
        <time>2014-04-19T13:18:03Z</time>
      </trkpt>
      <trkpt lat="43.092117" lon="-2.932217">
        <ele>1103.0</ele>
        <time>2014-04-19T13:18:04Z</time>
      </trkpt>
      <trkpt lat="43.092117" lon="-2.932333">
        <ele>1100.0</ele>
        <time>2014-04-19T13:18:05Z</time>
      </trkpt>
      <trkpt lat="43.092117" lon="-2.932467">
        <ele>1098.0</ele>
        <time>2014-04-19T13:18:06Z</time>
      </trkpt>
      <trkpt lat="43.092100" lon="-2.932583">
        <ele>1096.0</ele>
        <time>2014-04-19T13:18:07Z</time>
      </trkpt>
      <trkpt lat="43.092067" lon="-2.932717">
        <ele>1094.0</ele>
        <time>2014-04-19T13:18:08Z</time>
      </trkpt>
      <trkpt lat="43.092050" lon="-2.932833">
        <ele>1092.0</ele>
        <time>2014-04-19T13:18:09Z</time>
      </trkpt>
      <trkpt lat="43.092017" lon="-2.932933">
        <ele>1092.0</ele>
        <time>2014-04-19T13:18:10Z</time>
      </trkpt>
      <trkpt lat="43.092000" lon="-2.933033">
        <ele>1091.0</ele>
        <time>2014-04-19T13:18:11Z</time>
      </trkpt>
      <trkpt lat="43.091967" lon="-2.933117">
        <ele>1089.0</ele>
        <time>2014-04-19T13:18:12Z</time>
      </trkpt>
      <trkpt lat="43.091950" lon="-2.933217">
        <ele>1087.0</ele>
        <time>2014-04-19T13:18:13Z</time>
      </trkpt>
      <trkpt lat="43.091933" lon="-2.933333">
        <ele>1085.0</ele>
        <time>2014-04-19T13:18:14Z</time>
      </trkpt>
      <trkpt lat="43.091917" lon="-2.933450">
        <ele>1083.0</ele>
        <time>2014-04-19T13:18:15Z</time>
      </trkpt>
      <trkpt lat="43.091917" lon="-2.933567">
        <ele>1081.0</ele>
        <time>2014-04-19T13:18:16Z</time>
      </trkpt>
      <trkpt lat="43.091917" lon="-2.933683">
        <ele>1081.0</ele>
        <time>2014-04-19T13:18:17Z</time>
      </trkpt>
      <trkpt lat="43.091900" lon="-2.933800">
        <ele>1080.0</ele>
        <time>2014-04-19T13:18:18Z</time>
      </trkpt>
      <trkpt lat="43.091900" lon="-2.933917">
        <ele>1079.0</ele>
        <time>2014-04-19T13:18:19Z</time>
      </trkpt>
      <trkpt lat="43.091883" lon="-2.934017">
        <ele>1079.0</ele>
        <time>2014-04-19T13:18:20Z</time>
      </trkpt>
      <trkpt lat="43.091867" lon="-2.934133">
        <ele>1079.0</ele>
        <time>2014-04-19T13:18:21Z</time>
      </trkpt>
      <trkpt lat="43.091850" lon="-2.934250">
        <ele>1079.0</ele>
        <time>2014-04-19T13:18:22Z</time>
      </trkpt>
      <trkpt lat="43.091833" lon="-2.934367">
        <ele>1078.0</ele>
        <time>2014-04-19T13:18:23Z</time>
      </trkpt>
      <trkpt lat="43.091833" lon="-2.934483">
        <ele>1078.0</ele>
        <time>2014-04-19T13:18:24Z</time>
      </trkpt>
      <trkpt lat="43.091817" lon="-2.934600">
        <ele>1078.0</ele>
        <time>2014-04-19T13:18:25Z</time>
      </trkpt>
      <trkpt lat="43.091817" lon="-2.934700">
        <ele>1078.0</ele>
        <time>2014-04-19T13:18:26Z</time>
      </trkpt>
      <trkpt lat="43.091817" lon="-2.934800">
        <ele>1078.0</ele>
        <time>2014-04-19T13:18:27Z</time>
      </trkpt>
      <trkpt lat="43.091800" lon="-2.934900">
        <ele>1077.0</ele>
        <time>2014-04-19T13:18:28Z</time>
      </trkpt>
      <trkpt lat="43.091783" lon="-2.934983">
        <ele>1075.0</ele>
        <time>2014-04-19T13:18:29Z</time>
      </trkpt>
      <trkpt lat="43.091767" lon="-2.935083">
        <ele>1073.0</ele>
        <time>2014-04-19T13:18:30Z</time>
      </trkpt>
      <trkpt lat="43.091733" lon="-2.935200">
        <ele>1070.0</ele>
        <time>2014-04-19T13:18:31Z</time>
      </trkpt>
      <trkpt lat="43.091717" lon="-2.935300">
        <ele>1067.0</ele>
        <time>2014-04-19T13:18:32Z</time>
      </trkpt>
      <trkpt lat="43.091683" lon="-2.935383">
        <ele>1064.0</ele>
        <time>2014-04-19T13:18:33Z</time>
      </trkpt>
      <trkpt lat="43.091650" lon="-2.935483">
        <ele>1062.0</ele>
        <time>2014-04-19T13:18:34Z</time>
      </trkpt>
      <trkpt lat="43.091600" lon="-2.935567">
        <ele>1060.0</ele>
        <time>2014-04-19T13:18:35Z</time>
      </trkpt>
      <trkpt lat="43.091550" lon="-2.935650">
        <ele>1057.0</ele>
        <time>2014-04-19T13:18:36Z</time>
      </trkpt>
      <trkpt lat="43.091500" lon="-2.935750">
        <ele>1054.0</ele>
        <time>2014-04-19T13:18:37Z</time>
      </trkpt>
      <trkpt lat="43.091433" lon="-2.935833">
        <ele>1052.0</ele>
        <time>2014-04-19T13:18:38Z</time>
      </trkpt>
      <trkpt lat="43.091383" lon="-2.935917">
        <ele>1049.0</ele>
        <time>2014-04-19T13:18:39Z</time>
      </trkpt>
      <trkpt lat="43.091317" lon="-2.936000">
        <ele>1046.0</ele>
        <time>2014-04-19T13:18:40Z</time>
      </trkpt>
      <trkpt lat="43.091267" lon="-2.936100">
        <ele>1044.0</ele>
        <time>2014-04-19T13:18:41Z</time>
      </trkpt>
      <trkpt lat="43.091200" lon="-2.936167">
        <ele>1043.0</ele>
        <time>2014-04-19T13:18:42Z</time>
      </trkpt>
      <trkpt lat="43.091117" lon="-2.936233">
        <ele>1041.0</ele>
        <time>2014-04-19T13:18:43Z</time>
      </trkpt>
      <trkpt lat="43.091033" lon="-2.936300">
        <ele>1039.0</ele>
        <time>2014-04-19T13:18:44Z</time>
      </trkpt>
      <trkpt lat="43.090950" lon="-2.936333">
        <ele>1037.0</ele>
        <time>2014-04-19T13:18:45Z</time>
      </trkpt>
      <trkpt lat="43.090850" lon="-2.936367">
        <ele>1034.0</ele>
        <time>2014-04-19T13:18:46Z</time>
      </trkpt>
      <trkpt lat="43.090767" lon="-2.936400">
        <ele>1032.0</ele>
        <time>2014-04-19T13:18:47Z</time>
      </trkpt>
      <trkpt lat="43.090667" lon="-2.936417">
        <ele>1030.0</ele>
        <time>2014-04-19T13:18:48Z</time>
      </trkpt>
      <trkpt lat="43.090583" lon="-2.936450">
        <ele>1028.0</ele>
        <time>2014-04-19T13:18:49Z</time>
      </trkpt>
      <trkpt lat="43.090483" lon="-2.936500">
        <ele>1026.0</ele>
        <time>2014-04-19T13:18:50Z</time>
      </trkpt>
      <trkpt lat="43.090383" lon="-2.936550">
        <ele>1025.0</ele>
        <time>2014-04-19T13:18:51Z</time>
      </trkpt>
      <trkpt lat="43.090283" lon="-2.936600">
        <ele>1024.0</ele>
        <time>2014-04-19T13:18:52Z</time>
      </trkpt>
      <trkpt lat="43.090200" lon="-2.936650">
        <ele>1025.0</ele>
        <time>2014-04-19T13:18:53Z</time>
      </trkpt>
      <trkpt lat="43.090133" lon="-2.936717">
        <ele>1025.0</ele>
        <time>2014-04-19T13:18:54Z</time>
      </trkpt>
      <trkpt lat="43.090050" lon="-2.936800">
        <ele>1024.0</ele>
        <time>2014-04-19T13:18:55Z</time>
      </trkpt>
      <trkpt lat="43.089983" lon="-2.936883">
        <ele>1024.0</ele>
        <time>2014-04-19T13:18:56Z</time>
      </trkpt>
      <trkpt lat="43.089900" lon="-2.936967">
        <ele>1023.0</ele>
        <time>2014-04-19T13:18:57Z</time>
      </trkpt>
      <trkpt lat="43.089833" lon="-2.937067">
        <ele>1023.0</ele>
        <time>2014-04-19T13:18:58Z</time>
      </trkpt>
      <trkpt lat="43.089767" lon="-2.937150">
        <ele>1023.0</ele>
        <time>2014-04-19T13:18:59Z</time>
      </trkpt>
      <trkpt lat="43.089717" lon="-2.937250">
        <ele>1024.0</ele>
        <time>2014-04-19T13:19:00Z</time>
      </trkpt>
      <trkpt lat="43.089667" lon="-2.937333">
        <ele>1024.0</ele>
        <time>2014-04-19T13:19:01Z</time>
      </trkpt>
      <trkpt lat="43.089617" lon="-2.937450">
        <ele>1024.0</ele>
        <time>2014-04-19T13:19:02Z</time>
      </trkpt>
      <trkpt lat="43.089600" lon="-2.937583">
        <ele>1023.0</ele>
        <time>2014-04-19T13:19:03Z</time>
      </trkpt>
      <trkpt lat="43.089583" lon="-2.937700">
        <ele>1023.0</ele>
        <time>2014-04-19T13:19:04Z</time>
      </trkpt>
      <trkpt lat="43.089617" lon="-2.937833">
        <ele>1023.0</ele>
        <time>2014-04-19T13:19:05Z</time>
      </trkpt>
      <trkpt lat="43.089650" lon="-2.937917">
        <ele>1024.0</ele>
        <time>2014-04-19T13:19:06Z</time>
      </trkpt>
      <trkpt lat="43.089717" lon="-2.937983">
        <ele>1024.0</ele>
        <time>2014-04-19T13:19:07Z</time>
      </trkpt>
      <trkpt lat="43.089783" lon="-2.938017">
        <ele>1024.0</ele>
        <time>2014-04-19T13:19:08Z</time>
      </trkpt>
      <trkpt lat="43.089850" lon="-2.938017">
        <ele>1025.0</ele>
        <time>2014-04-19T13:19:09Z</time>
      </trkpt>
      <trkpt lat="43.089917" lon="-2.938017">
        <ele>1026.0</ele>
        <time>2014-04-19T13:19:10Z</time>
      </trkpt>
      <trkpt lat="43.089983" lon="-2.937967">
        <ele>1026.0</ele>
        <time>2014-04-19T13:19:11Z</time>
      </trkpt>
      <trkpt lat="43.090017" lon="-2.937900">
        <ele>1026.0</ele>
        <time>2014-04-19T13:19:12Z</time>
      </trkpt>
      <trkpt lat="43.090050" lon="-2.937817">
        <ele>1026.0</ele>
        <time>2014-04-19T13:19:13Z</time>
      </trkpt>
      <trkpt lat="43.090050" lon="-2.937733">
        <ele>1026.0</ele>
        <time>2014-04-19T13:19:14Z</time>
      </trkpt>
      <trkpt lat="43.090017" lon="-2.937650">
        <ele>1026.0</ele>
        <time>2014-04-19T13:19:15Z</time>
      </trkpt>
      <trkpt lat="43.089950" lon="-2.937583">
        <ele>1026.0</ele>
        <time>2014-04-19T13:19:16Z</time>
      </trkpt>
      <trkpt lat="43.089883" lon="-2.937533">
        <ele>1026.0</ele>
        <time>2014-04-19T13:19:17Z</time>
      </trkpt>
      <trkpt lat="43.089800" lon="-2.937500">
        <ele>1026.0</ele>
        <time>2014-04-19T13:19:18Z</time>
      </trkpt>
      <trkpt lat="43.089717" lon="-2.937500">
        <ele>1027.0</ele>
        <time>2014-04-19T13:19:19Z</time>
      </trkpt>
      <trkpt lat="43.089633" lon="-2.937517">
        <ele>1028.0</ele>
        <time>2014-04-19T13:19:20Z</time>
      </trkpt>
      <trkpt lat="43.089550" lon="-2.937567">
        <ele>1029.0</ele>
        <time>2014-04-19T13:19:21Z</time>
      </trkpt>
      <trkpt lat="43.089467" lon="-2.937650">
        <ele>1029.0</ele>
        <time>2014-04-19T13:19:22Z</time>
      </trkpt>
      <trkpt lat="43.089417" lon="-2.937750">
        <ele>1029.0</ele>
        <time>2014-04-19T13:19:23Z</time>
      </trkpt>
      <trkpt lat="43.089367" lon="-2.937867">
        <ele>1030.0</ele>
        <time>2014-04-19T13:19:24Z</time>
      </trkpt>
      <trkpt lat="43.089350" lon="-2.938000">
        <ele>1031.0</ele>
        <time>2014-04-19T13:19:25Z</time>
      </trkpt>
      <trkpt lat="43.089367" lon="-2.938117">
        <ele>1031.0</ele>
        <time>2014-04-19T13:19:26Z</time>
      </trkpt>
      <trkpt lat="43.089400" lon="-2.938217">
        <ele>1032.0</ele>
        <time>2014-04-19T13:19:27Z</time>
      </trkpt>
      <trkpt lat="43.089450" lon="-2.938300">
        <ele>1032.0</ele>
        <time>2014-04-19T13:19:28Z</time>
      </trkpt>
      <trkpt lat="43.089517" lon="-2.938367">
        <ele>1032.0</ele>
        <time>2014-04-19T13:19:29Z</time>
      </trkpt>
      <trkpt lat="43.089583" lon="-2.938400">
        <ele>1033.0</ele>
        <time>2014-04-19T13:19:30Z</time>
      </trkpt>
      <trkpt lat="43.089650" lon="-2.938400">
        <ele>1034.0</ele>
        <time>2014-04-19T13:19:31Z</time>
      </trkpt>
      <trkpt lat="43.089700" lon="-2.938367">
        <ele>1035.0</ele>
        <time>2014-04-19T13:19:32Z</time>
      </trkpt>
      <trkpt lat="43.089750" lon="-2.938317">
        <ele>1035.0</ele>
        <time>2014-04-19T13:19:33Z</time>
      </trkpt>
      <trkpt lat="43.089767" lon="-2.938233">
        <ele>1035.0</ele>
        <time>2014-04-19T13:19:34Z</time>
      </trkpt>
      <trkpt lat="43.089767" lon="-2.938150">
        <ele>1034.0</ele>
        <time>2014-04-19T13:19:35Z</time>
      </trkpt>
      <trkpt lat="43.089733" lon="-2.938067">
        <ele>1032.0</ele>
        <time>2014-04-19T13:19:36Z</time>
      </trkpt>
      <trkpt lat="43.089683" lon="-2.937983">
        <ele>1031.0</ele>
        <time>2014-04-19T13:19:37Z</time>
      </trkpt>
      <trkpt lat="43.089617" lon="-2.937933">
        <ele>1031.0</ele>
        <time>2014-04-19T13:19:38Z</time>
      </trkpt>
      <trkpt lat="43.089550" lon="-2.937933">
        <ele>1031.0</ele>
        <time>2014-04-19T13:19:39Z</time>
      </trkpt>
      <trkpt lat="43.089467" lon="-2.937950">
        <ele>1031.0</ele>
        <time>2014-04-19T13:19:40Z</time>
      </trkpt>
      <trkpt lat="43.089383" lon="-2.937983">
        <ele>1031.0</ele>
        <time>2014-04-19T13:19:41Z</time>
      </trkpt>
      <trkpt lat="43.089300" lon="-2.938050">
        <ele>1032.0</ele>
        <time>2014-04-19T13:19:42Z</time>
      </trkpt>
      <trkpt lat="43.089233" lon="-2.938133">
        <ele>1033.0</ele>
        <time>2014-04-19T13:19:43Z</time>
      </trkpt>
      <trkpt lat="43.089183" lon="-2.938217">
        <ele>1034.0</ele>
        <time>2014-04-19T13:19:44Z</time>
      </trkpt>
      <trkpt lat="43.089150" lon="-2.938333">
        <ele>1034.0</ele>
        <time>2014-04-19T13:19:45Z</time>
      </trkpt>
      <trkpt lat="43.089117" lon="-2.938450">
        <ele>1034.0</ele>
        <time>2014-04-19T13:19:46Z</time>
      </trkpt>
      <trkpt lat="43.089117" lon="-2.938567">
        <ele>1035.0</ele>
        <time>2014-04-19T13:19:47Z</time>
      </trkpt>
      <trkpt lat="43.089150" lon="-2.938667">
        <ele>1035.0</ele>
        <time>2014-04-19T13:19:48Z</time>
      </trkpt>
      <trkpt lat="43.089183" lon="-2.938750">
        <ele>1034.0</ele>
        <time>2014-04-19T13:19:49Z</time>
      </trkpt>
      <trkpt lat="43.089250" lon="-2.938833">
        <ele>1034.0</ele>
        <time>2014-04-19T13:19:50Z</time>
      </trkpt>
      <trkpt lat="43.089300" lon="-2.938883">
        <ele>1033.0</ele>
        <time>2014-04-19T13:19:51Z</time>
      </trkpt>
      <trkpt lat="43.089367" lon="-2.938900">
        <ele>1033.0</ele>
        <time>2014-04-19T13:19:52Z</time>
      </trkpt>
      <trkpt lat="43.089433" lon="-2.938900">
        <ele>1032.0</ele>
        <time>2014-04-19T13:19:53Z</time>
      </trkpt>
      <trkpt lat="43.089500" lon="-2.938883">
        <ele>1031.0</ele>
        <time>2014-04-19T13:19:54Z</time>
      </trkpt>
      <trkpt lat="43.089567" lon="-2.938833">
        <ele>1030.0</ele>
        <time>2014-04-19T13:19:55Z</time>
      </trkpt>
      <trkpt lat="43.089617" lon="-2.938767">
        <ele>1029.0</ele>
        <time>2014-04-19T13:19:56Z</time>
      </trkpt>
      <trkpt lat="43.089650" lon="-2.938683">
        <ele>1029.0</ele>
        <time>2014-04-19T13:19:57Z</time>
      </trkpt>
      <trkpt lat="43.089633" lon="-2.938600">
        <ele>1028.0</ele>
        <time>2014-04-19T13:19:58Z</time>
      </trkpt>
      <trkpt lat="43.089567" lon="-2.938517">
        <ele>1025.0</ele>
        <time>2014-04-19T13:19:59Z</time>
      </trkpt>
      <trkpt lat="43.089500" lon="-2.938450">
        <ele>1022.0</ele>
        <time>2014-04-19T13:20:00Z</time>
      </trkpt>
      <trkpt lat="43.089417" lon="-2.938417">
        <ele>1021.0</ele>
        <time>2014-04-19T13:20:01Z</time>
      </trkpt>
      <trkpt lat="43.089333" lon="-2.938417">
        <ele>1020.0</ele>
        <time>2014-04-19T13:20:02Z</time>
      </trkpt>
      <trkpt lat="43.089250" lon="-2.938450">
        <ele>1019.0</ele>
        <time>2014-04-19T13:20:03Z</time>
      </trkpt>
      <trkpt lat="43.089167" lon="-2.938483">
        <ele>1018.0</ele>
        <time>2014-04-19T13:20:04Z</time>
      </trkpt>
      <trkpt lat="43.089083" lon="-2.938550">
        <ele>1017.0</ele>
        <time>2014-04-19T13:20:05Z</time>
      </trkpt>
      <trkpt lat="43.089017" lon="-2.938617">
        <ele>1017.0</ele>
        <time>2014-04-19T13:20:06Z</time>
      </trkpt>
      <trkpt lat="43.088967" lon="-2.938700">
        <ele>1017.0</ele>
        <time>2014-04-19T13:20:07Z</time>
      </trkpt>
      <trkpt lat="43.088900" lon="-2.938767">
        <ele>1016.0</ele>
        <time>2014-04-19T13:20:08Z</time>
      </trkpt>
      <trkpt lat="43.088833" lon="-2.938850">
        <ele>1015.0</ele>
        <time>2014-04-19T13:20:09Z</time>
      </trkpt>
      <trkpt lat="43.088750" lon="-2.938950">
        <ele>1013.0</ele>
        <time>2014-04-19T13:20:10Z</time>
      </trkpt>
      <trkpt lat="43.088683" lon="-2.939050">
        <ele>1011.0</ele>
        <time>2014-04-19T13:20:11Z</time>
      </trkpt>
      <trkpt lat="43.088600" lon="-2.939150">
        <ele>1011.0</ele>
        <time>2014-04-19T13:20:12Z</time>
      </trkpt>
      <trkpt lat="43.088533" lon="-2.939233">
        <ele>1012.0</ele>
        <time>2014-04-19T13:20:13Z</time>
      </trkpt>
      <trkpt lat="43.088483" lon="-2.939300">
        <ele>1013.0</ele>
        <time>2014-04-19T13:20:14Z</time>
      </trkpt>
      <trkpt lat="43.088433" lon="-2.939383">
        <ele>1012.0</ele>
        <time>2014-04-19T13:20:15Z</time>
      </trkpt>
      <trkpt lat="43.088367" lon="-2.939467">
        <ele>1011.0</ele>
        <time>2014-04-19T13:20:16Z</time>
      </trkpt>
      <trkpt lat="43.088300" lon="-2.939567">
        <ele>1009.0</ele>
        <time>2014-04-19T13:20:17Z</time>
      </trkpt>
      <trkpt lat="43.088233" lon="-2.939683">
        <ele>1006.0</ele>
        <time>2014-04-19T13:20:18Z</time>
      </trkpt>
      <trkpt lat="43.088183" lon="-2.939800">
        <ele>1004.0</ele>
        <time>2014-04-19T13:20:19Z</time>
      </trkpt>
      <trkpt lat="43.088117" lon="-2.939917">
        <ele>1002.0</ele>
        <time>2014-04-19T13:20:20Z</time>
      </trkpt>
      <trkpt lat="43.088067" lon="-2.940017">
        <ele>1002.0</ele>
        <time>2014-04-19T13:20:21Z</time>
      </trkpt>
      <trkpt lat="43.088000" lon="-2.940100">
        <ele>1001.0</ele>
        <time>2014-04-19T13:20:22Z</time>
      </trkpt>
      <trkpt lat="43.087917" lon="-2.940183">
        <ele>1000.0</ele>
        <time>2014-04-19T13:20:23Z</time>
      </trkpt>
      <trkpt lat="43.087850" lon="-2.940267">
        <ele>998.0</ele>
        <time>2014-04-19T13:20:24Z</time>
      </trkpt>
      <trkpt lat="43.087783" lon="-2.940350">
        <ele>996.0</ele>
        <time>2014-04-19T13:20:25Z</time>
      </trkpt>
      <trkpt lat="43.087717" lon="-2.940450">
        <ele>993.0</ele>
        <time>2014-04-19T13:20:26Z</time>
      </trkpt>
      <trkpt lat="43.087650" lon="-2.940567">
        <ele>990.0</ele>
        <time>2014-04-19T13:20:27Z</time>
      </trkpt>
      <trkpt lat="43.087567" lon="-2.940683">
        <ele>987.0</ele>
        <time>2014-04-19T13:20:28Z</time>
      </trkpt>
      <trkpt lat="43.087500" lon="-2.940783">
        <ele>986.0</ele>
        <time>2014-04-19T13:20:29Z</time>
      </trkpt>
      <trkpt lat="43.087433" lon="-2.940867">
        <ele>986.0</ele>
        <time>2014-04-19T13:20:30Z</time>
      </trkpt>
      <trkpt lat="43.087383" lon="-2.940950">
        <ele>986.0</ele>
        <time>2014-04-19T13:20:31Z</time>
      </trkpt>
      <trkpt lat="43.087317" lon="-2.941033">
        <ele>985.0</ele>
        <time>2014-04-19T13:20:32Z</time>
      </trkpt>
      <trkpt lat="43.087250" lon="-2.941133">
        <ele>985.0</ele>
        <time>2014-04-19T13:20:33Z</time>
      </trkpt>
      <trkpt lat="43.087183" lon="-2.941233">
        <ele>983.0</ele>
        <time>2014-04-19T13:20:34Z</time>
      </trkpt>
      <trkpt lat="43.087100" lon="-2.941333">
        <ele>982.0</ele>
        <time>2014-04-19T13:20:35Z</time>
      </trkpt>
      <trkpt lat="43.087017" lon="-2.941433">
        <ele>981.0</ele>
        <time>2014-04-19T13:20:36Z</time>
      </trkpt>
      <trkpt lat="43.086950" lon="-2.941533">
        <ele>981.0</ele>
        <time>2014-04-19T13:20:37Z</time>
      </trkpt>
      <trkpt lat="43.086867" lon="-2.941617">
        <ele>981.0</ele>
        <time>2014-04-19T13:20:38Z</time>
      </trkpt>
      <trkpt lat="43.086800" lon="-2.941700">
        <ele>980.0</ele>
        <time>2014-04-19T13:20:39Z</time>
      </trkpt>
      <trkpt lat="43.086733" lon="-2.941800">
        <ele>980.0</ele>
        <time>2014-04-19T13:20:40Z</time>
      </trkpt>
      <trkpt lat="43.086667" lon="-2.941883">
        <ele>978.0</ele>
        <time>2014-04-19T13:20:41Z</time>
      </trkpt>
      <trkpt lat="43.086583" lon="-2.941983">
        <ele>976.0</ele>
        <time>2014-04-19T13:20:42Z</time>
      </trkpt>
      <trkpt lat="43.086533" lon="-2.942067">
        <ele>974.0</ele>
        <time>2014-04-19T13:20:43Z</time>
      </trkpt>
      <trkpt lat="43.086467" lon="-2.942167">
        <ele>972.0</ele>
        <time>2014-04-19T13:20:44Z</time>
      </trkpt>
      <trkpt lat="43.086417" lon="-2.942267">
        <ele>970.0</ele>
        <time>2014-04-19T13:20:45Z</time>
      </trkpt>
      <trkpt lat="43.086333" lon="-2.942350">
        <ele>969.0</ele>
        <time>2014-04-19T13:20:46Z</time>
      </trkpt>
      <trkpt lat="43.086250" lon="-2.942450">
        <ele>967.0</ele>
        <time>2014-04-19T13:20:47Z</time>
      </trkpt>
      <trkpt lat="43.086183" lon="-2.942550">
        <ele>966.0</ele>
        <time>2014-04-19T13:20:48Z</time>
      </trkpt>
      <trkpt lat="43.086133" lon="-2.942633">
        <ele>966.0</ele>
        <time>2014-04-19T13:20:49Z</time>
      </trkpt>
      <trkpt lat="43.086083" lon="-2.942717">
        <ele>965.0</ele>
        <time>2014-04-19T13:20:50Z</time>
      </trkpt>
      <trkpt lat="43.086017" lon="-2.942817">
        <ele>963.0</ele>
        <time>2014-04-19T13:20:51Z</time>
      </trkpt>
      <trkpt lat="43.085950" lon="-2.942900">
        <ele>960.0</ele>
        <time>2014-04-19T13:20:52Z</time>
      </trkpt>
      <trkpt lat="43.085867" lon="-2.943000">
        <ele>957.0</ele>
        <time>2014-04-19T13:20:53Z</time>
      </trkpt>
      <trkpt lat="43.085783" lon="-2.943100">
        <ele>954.0</ele>
        <time>2014-04-19T13:20:54Z</time>
      </trkpt>
      <trkpt lat="43.085700" lon="-2.943167">
        <ele>953.0</ele>
        <time>2014-04-19T13:20:55Z</time>
      </trkpt>
      <trkpt lat="43.085617" lon="-2.943233">
        <ele>952.0</ele>
        <time>2014-04-19T13:20:56Z</time>
      </trkpt>
      <trkpt lat="43.085550" lon="-2.943300">
        <ele>950.0</ele>
        <time>2014-04-19T13:20:57Z</time>
      </trkpt>
      <trkpt lat="43.085467" lon="-2.943383">
        <ele>949.0</ele>
        <time>2014-04-19T13:20:58Z</time>
      </trkpt>
      <trkpt lat="43.085383" lon="-2.943450">
        <ele>946.0</ele>
        <time>2014-04-19T13:20:59Z</time>
      </trkpt>
      <trkpt lat="43.085300" lon="-2.943533">
        <ele>943.0</ele>
        <time>2014-04-19T13:21:00Z</time>
      </trkpt>
      <trkpt lat="43.085217" lon="-2.943617">
        <ele>940.0</ele>
        <time>2014-04-19T13:21:01Z</time>
      </trkpt>
      <trkpt lat="43.085133" lon="-2.943700">
        <ele>938.0</ele>
        <time>2014-04-19T13:21:02Z</time>
      </trkpt>
      <trkpt lat="43.085050" lon="-2.943767">
        <ele>936.0</ele>
        <time>2014-04-19T13:21:03Z</time>
      </trkpt>
      <trkpt lat="43.084967" lon="-2.943850">
        <ele>935.0</ele>
        <time>2014-04-19T13:21:04Z</time>
      </trkpt>
      <trkpt lat="43.084883" lon="-2.943933">
        <ele>933.0</ele>
        <time>2014-04-19T13:21:05Z</time>
      </trkpt>
      <trkpt lat="43.084800" lon="-2.944017">
        <ele>931.0</ele>
        <time>2014-04-19T13:21:06Z</time>
      </trkpt>
      <trkpt lat="43.084717" lon="-2.944083">
        <ele>929.0</ele>
        <time>2014-04-19T13:21:07Z</time>
      </trkpt>
      <trkpt lat="43.084633" lon="-2.944150">
        <ele>927.0</ele>
        <time>2014-04-19T13:21:08Z</time>
      </trkpt>
      <trkpt lat="43.084550" lon="-2.944217">
        <ele>925.0</ele>
        <time>2014-04-19T13:21:09Z</time>
      </trkpt>
      <trkpt lat="43.084483" lon="-2.944283">
        <ele>923.0</ele>
        <time>2014-04-19T13:21:10Z</time>
      </trkpt>
      <trkpt lat="43.084383" lon="-2.944350">
        <ele>920.0</ele>
        <time>2014-04-19T13:21:11Z</time>
      </trkpt>
      <trkpt lat="43.084300" lon="-2.944433">
        <ele>917.0</ele>
        <time>2014-04-19T13:21:12Z</time>
      </trkpt>
      <trkpt lat="43.084217" lon="-2.944483">
        <ele>915.0</ele>
        <time>2014-04-19T13:21:13Z</time>
      </trkpt>
      <trkpt lat="43.084133" lon="-2.944533">
        <ele>913.0</ele>
        <time>2014-04-19T13:21:14Z</time>
      </trkpt>
      <trkpt lat="43.084050" lon="-2.944600">
        <ele>912.0</ele>
        <time>2014-04-19T13:21:15Z</time>
      </trkpt>
      <trkpt lat="43.083967" lon="-2.944650">
        <ele>910.0</ele>
        <time>2014-04-19T13:21:16Z</time>
      </trkpt>
      <trkpt lat="43.083883" lon="-2.944700">
        <ele>908.0</ele>
        <time>2014-04-19T13:21:17Z</time>
      </trkpt>
      <trkpt lat="43.083800" lon="-2.944767">
        <ele>906.0</ele>
        <time>2014-04-19T13:21:18Z</time>
      </trkpt>
      <trkpt lat="43.083717" lon="-2.944833">
        <ele>904.0</ele>
        <time>2014-04-19T13:21:19Z</time>
      </trkpt>
      <trkpt lat="43.083617" lon="-2.944883">
        <ele>901.0</ele>
        <time>2014-04-19T13:21:20Z</time>
      </trkpt>
      <trkpt lat="43.083533" lon="-2.944950">
        <ele>899.0</ele>
        <time>2014-04-19T13:21:21Z</time>
      </trkpt>
      <trkpt lat="43.083450" lon="-2.945000">
        <ele>897.0</ele>
        <time>2014-04-19T13:21:22Z</time>
      </trkpt>
      <trkpt lat="43.083350" lon="-2.945067">
        <ele>895.0</ele>
        <time>2014-04-19T13:21:23Z</time>
      </trkpt>
      <trkpt lat="43.083250" lon="-2.945133">
        <ele>892.0</ele>
        <time>2014-04-19T13:21:24Z</time>
      </trkpt>
      <trkpt lat="43.083167" lon="-2.945200">
        <ele>891.0</ele>
        <time>2014-04-19T13:21:25Z</time>
      </trkpt>
      <trkpt lat="43.083083" lon="-2.945250">
        <ele>891.0</ele>
        <time>2014-04-19T13:21:26Z</time>
      </trkpt>
      <trkpt lat="43.083000" lon="-2.945300">
        <ele>891.0</ele>
        <time>2014-04-19T13:21:27Z</time>
      </trkpt>
      <trkpt lat="43.082917" lon="-2.945333">
        <ele>892.0</ele>
        <time>2014-04-19T13:21:28Z</time>
      </trkpt>
      <trkpt lat="43.082850" lon="-2.945367">
        <ele>891.0</ele>
        <time>2014-04-19T13:21:29Z</time>
      </trkpt>
      <trkpt lat="43.082767" lon="-2.945417">
        <ele>891.0</ele>
        <time>2014-04-19T13:21:30Z</time>
      </trkpt>
      <trkpt lat="43.082683" lon="-2.945450">
        <ele>890.0</ele>
        <time>2014-04-19T13:21:31Z</time>
      </trkpt>
      <trkpt lat="43.082583" lon="-2.945483">
        <ele>890.0</ele>
        <time>2014-04-19T13:21:32Z</time>
      </trkpt>
      <trkpt lat="43.082500" lon="-2.945500">
        <ele>890.0</ele>
        <time>2014-04-19T13:21:33Z</time>
      </trkpt>
      <trkpt lat="43.082417" lon="-2.945517">
        <ele>892.0</ele>
        <time>2014-04-19T13:21:34Z</time>
      </trkpt>
      <trkpt lat="43.082350" lon="-2.945533">
        <ele>892.0</ele>
        <time>2014-04-19T13:21:35Z</time>
      </trkpt>
      <trkpt lat="43.082267" lon="-2.945567">
        <ele>892.0</ele>
        <time>2014-04-19T13:21:36Z</time>
      </trkpt>
      <trkpt lat="43.082183" lon="-2.945617">
        <ele>892.0</ele>
        <time>2014-04-19T13:21:37Z</time>
      </trkpt>
      <trkpt lat="43.082083" lon="-2.945633">
        <ele>891.0</ele>
        <time>2014-04-19T13:21:38Z</time>
      </trkpt>
      <trkpt lat="43.082000" lon="-2.945667">
        <ele>892.0</ele>
        <time>2014-04-19T13:21:39Z</time>
      </trkpt>
      <trkpt lat="43.081917" lon="-2.945683">
        <ele>892.0</ele>
        <time>2014-04-19T13:21:40Z</time>
      </trkpt>
      <trkpt lat="43.081817" lon="-2.945700">
        <ele>894.0</ele>
        <time>2014-04-19T13:21:41Z</time>
      </trkpt>
      <trkpt lat="43.081733" lon="-2.945717">
        <ele>895.0</ele>
        <time>2014-04-19T13:21:42Z</time>
      </trkpt>
      <trkpt lat="43.081667" lon="-2.945733">
        <ele>896.0</ele>
        <time>2014-04-19T13:21:43Z</time>
      </trkpt>
      <trkpt lat="43.081583" lon="-2.945733">
        <ele>896.0</ele>
        <time>2014-04-19T13:21:44Z</time>
      </trkpt>
      <trkpt lat="43.081500" lon="-2.945750">
        <ele>897.0</ele>
        <time>2014-04-19T13:21:45Z</time>
      </trkpt>
      <trkpt lat="43.081433" lon="-2.945800">
        <ele>897.0</ele>
        <time>2014-04-19T13:21:46Z</time>
      </trkpt>
      <trkpt lat="43.081350" lon="-2.945867">
        <ele>896.0</ele>
        <time>2014-04-19T13:21:47Z</time>
      </trkpt>
      <trkpt lat="43.081283" lon="-2.945967">
        <ele>896.0</ele>
        <time>2014-04-19T13:21:48Z</time>
      </trkpt>
      <trkpt lat="43.081233" lon="-2.946083">
        <ele>895.0</ele>
        <time>2014-04-19T13:21:49Z</time>
      </trkpt>
      <trkpt lat="43.081167" lon="-2.946183">
        <ele>894.0</ele>
        <time>2014-04-19T13:21:50Z</time>
      </trkpt>
      <trkpt lat="43.081083" lon="-2.946267">
        <ele>894.0</ele>
        <time>2014-04-19T13:21:51Z</time>
      </trkpt>
      <trkpt lat="43.080983" lon="-2.946333">
        <ele>893.0</ele>
        <time>2014-04-19T13:21:52Z</time>
      </trkpt>
      <trkpt lat="43.080883" lon="-2.946383">
        <ele>892.0</ele>
        <time>2014-04-19T13:21:53Z</time>
      </trkpt>
      <trkpt lat="43.080767" lon="-2.946417">
        <ele>891.0</ele>
        <time>2014-04-19T13:21:54Z</time>
      </trkpt>
      <trkpt lat="43.080683" lon="-2.946450">
        <ele>890.0</ele>
        <time>2014-04-19T13:21:55Z</time>
      </trkpt>
      <trkpt lat="43.080600" lon="-2.946500">
        <ele>888.0</ele>
        <time>2014-04-19T13:21:56Z</time>
      </trkpt>
      <trkpt lat="43.080500" lon="-2.946533">
        <ele>886.0</ele>
        <time>2014-04-19T13:21:57Z</time>
      </trkpt>
      <trkpt lat="43.080400" lon="-2.946583">
        <ele>883.0</ele>
        <time>2014-04-19T13:21:58Z</time>
      </trkpt>
      <trkpt lat="43.080283" lon="-2.946617">
        <ele>881.0</ele>
        <time>2014-04-19T13:21:59Z</time>
      </trkpt>
      <trkpt lat="43.080183" lon="-2.946650">
        <ele>878.0</ele>
        <time>2014-04-19T13:22:00Z</time>
      </trkpt>
      <trkpt lat="43.080067" lon="-2.946683">
        <ele>876.0</ele>
        <time>2014-04-19T13:22:01Z</time>
      </trkpt>
      <trkpt lat="43.079967" lon="-2.946733">
        <ele>875.0</ele>
        <time>2014-04-19T13:22:02Z</time>
      </trkpt>
      <trkpt lat="43.079867" lon="-2.946783">
        <ele>874.0</ele>
        <time>2014-04-19T13:22:03Z</time>
      </trkpt>
      <trkpt lat="43.079750" lon="-2.946817">
        <ele>874.0</ele>
        <time>2014-04-19T13:22:04Z</time>
      </trkpt>
      <trkpt lat="43.079667" lon="-2.946833">
        <ele>873.0</ele>
        <time>2014-04-19T13:22:05Z</time>
      </trkpt>
      <trkpt lat="43.079567" lon="-2.946867">
        <ele>872.0</ele>
        <time>2014-04-19T13:22:06Z</time>
      </trkpt>
      <trkpt lat="43.079467" lon="-2.946917">
        <ele>869.0</ele>
        <time>2014-04-19T13:22:07Z</time>
      </trkpt>
      <trkpt lat="43.079367" lon="-2.946967">
        <ele>866.0</ele>
        <time>2014-04-19T13:22:08Z</time>
      </trkpt>
      <trkpt lat="43.079250" lon="-2.947017">
        <ele>864.0</ele>
        <time>2014-04-19T13:22:09Z</time>
      </trkpt>
      <trkpt lat="43.079133" lon="-2.947050">
        <ele>862.0</ele>
        <time>2014-04-19T13:22:10Z</time>
      </trkpt>
      <trkpt lat="43.079033" lon="-2.947083">
        <ele>861.0</ele>
        <time>2014-04-19T13:22:11Z</time>
      </trkpt>
      <trkpt lat="43.078933" lon="-2.947100">
        <ele>862.0</ele>
        <time>2014-04-19T13:22:12Z</time>
      </trkpt>
      <trkpt lat="43.078833" lon="-2.947133">
        <ele>863.0</ele>
        <time>2014-04-19T13:22:13Z</time>
      </trkpt>
      <trkpt lat="43.078750" lon="-2.947183">
        <ele>863.0</ele>
        <time>2014-04-19T13:22:14Z</time>
      </trkpt>
      <trkpt lat="43.078633" lon="-2.947250">
        <ele>862.0</ele>
        <time>2014-04-19T13:22:15Z</time>
      </trkpt>
      <trkpt lat="43.078533" lon="-2.947300">
        <ele>862.0</ele>
        <time>2014-04-19T13:22:16Z</time>
      </trkpt>
      <trkpt lat="43.078417" lon="-2.947350">
        <ele>862.0</ele>
        <time>2014-04-19T13:22:17Z</time>
      </trkpt>
      <trkpt lat="43.078317" lon="-2.947383">
        <ele>863.0</ele>
        <time>2014-04-19T13:22:18Z</time>
      </trkpt>
      <trkpt lat="43.078217" lon="-2.947400">
        <ele>864.0</ele>
        <time>2014-04-19T13:22:19Z</time>
      </trkpt>
      <trkpt lat="43.078117" lon="-2.947433">
        <ele>863.0</ele>
        <time>2014-04-19T13:22:20Z</time>
      </trkpt>
      <trkpt lat="43.078017" lon="-2.947483">
        <ele>862.0</ele>
        <time>2014-04-19T13:22:21Z</time>
      </trkpt>
      <trkpt lat="43.077933" lon="-2.947550">
        <ele>862.0</ele>
        <time>2014-04-19T13:22:22Z</time>
      </trkpt>
      <trkpt lat="43.077867" lon="-2.947650">
        <ele>862.0</ele>
        <time>2014-04-19T13:22:23Z</time>
      </trkpt>
      <trkpt lat="43.077800" lon="-2.947800">
        <ele>863.0</ele>
        <time>2014-04-19T13:22:24Z</time>
      </trkpt>
      <trkpt lat="43.077767" lon="-2.947933">
        <ele>865.0</ele>
        <time>2014-04-19T13:22:25Z</time>
      </trkpt>
      <trkpt lat="43.077733" lon="-2.948050">
        <ele>867.0</ele>
        <time>2014-04-19T13:22:26Z</time>
      </trkpt>
      <trkpt lat="43.077733" lon="-2.948133">
        <ele>869.0</ele>
        <time>2014-04-19T13:22:27Z</time>
      </trkpt>
      <trkpt lat="43.077717" lon="-2.948217">
        <ele>870.0</ele>
        <time>2014-04-19T13:22:28Z</time>
      </trkpt>
      <trkpt lat="43.077733" lon="-2.948300">
        <ele>870.0</ele>
        <time>2014-04-19T13:22:29Z</time>
      </trkpt>
      <trkpt lat="43.077750" lon="-2.948400">
        <ele>869.0</ele>
        <time>2014-04-19T13:22:30Z</time>
      </trkpt>
      <trkpt lat="43.077783" lon="-2.948483">
        <ele>868.0</ele>
        <time>2014-04-19T13:22:31Z</time>
      </trkpt>
      <trkpt lat="43.077833" lon="-2.948533">
        <ele>867.0</ele>
        <time>2014-04-19T13:22:32Z</time>
      </trkpt>
      <trkpt lat="43.077867" lon="-2.948533">
        <ele>866.0</ele>
        <time>2014-04-19T13:22:33Z</time>
      </trkpt>
      <trkpt lat="43.077917" lon="-2.948500">
        <ele>865.0</ele>
        <time>2014-04-19T13:22:34Z</time>
      </trkpt>
      <trkpt lat="43.077933" lon="-2.948433">
        <ele>863.0</ele>
        <time>2014-04-19T13:22:35Z</time>
      </trkpt>
      <trkpt lat="43.077933" lon="-2.948350">
        <ele>862.0</ele>
        <time>2014-04-19T13:22:36Z</time>
      </trkpt>
      <trkpt lat="43.077933" lon="-2.948267">
        <ele>861.0</ele>
        <time>2014-04-19T13:22:37Z</time>
      </trkpt>
      <trkpt lat="43.077883" lon="-2.948167">
        <ele>860.0</ele>
        <time>2014-04-19T13:22:38Z</time>
      </trkpt>
      <trkpt lat="43.077817" lon="-2.948083">
        <ele>859.0</ele>
        <time>2014-04-19T13:22:39Z</time>
      </trkpt>
      <trkpt lat="43.077733" lon="-2.948000">
        <ele>856.0</ele>
        <time>2014-04-19T13:22:40Z</time>
      </trkpt>
      <trkpt lat="43.077633" lon="-2.947950">
        <ele>855.0</ele>
        <time>2014-04-19T13:22:41Z</time>
      </trkpt>
      <trkpt lat="43.077533" lon="-2.947933">
        <ele>854.0</ele>
        <time>2014-04-19T13:22:42Z</time>
      </trkpt>
      <trkpt lat="43.077433" lon="-2.947933">
        <ele>854.0</ele>
        <time>2014-04-19T13:22:43Z</time>
      </trkpt>
      <trkpt lat="43.077333" lon="-2.947933">
        <ele>854.0</ele>
        <time>2014-04-19T13:22:44Z</time>
      </trkpt>
      <trkpt lat="43.077233" lon="-2.947967">
        <ele>855.0</ele>
        <time>2014-04-19T13:22:45Z</time>
      </trkpt>
      <trkpt lat="43.077117" lon="-2.948000">
        <ele>855.0</ele>
        <time>2014-04-19T13:22:46Z</time>
      </trkpt>
      <trkpt lat="43.077000" lon="-2.948033">
        <ele>856.0</ele>
        <time>2014-04-19T13:22:47Z</time>
      </trkpt>
      <trkpt lat="43.076900" lon="-2.948067">
        <ele>859.0</ele>
        <time>2014-04-19T13:22:48Z</time>
      </trkpt>
      <trkpt lat="43.076817" lon="-2.948100">
        <ele>863.0</ele>
        <time>2014-04-19T13:22:49Z</time>
      </trkpt>
      <trkpt lat="43.076717" lon="-2.948133">
        <ele>865.0</ele>
        <time>2014-04-19T13:22:50Z</time>
      </trkpt>
      <trkpt lat="43.076633" lon="-2.948167">
        <ele>866.0</ele>
        <time>2014-04-19T13:22:51Z</time>
      </trkpt>
      <trkpt lat="43.076550" lon="-2.948233">
        <ele>867.0</ele>
        <time>2014-04-19T13:22:52Z</time>
      </trkpt>
      <trkpt lat="43.076467" lon="-2.948317">
        <ele>867.0</ele>
        <time>2014-04-19T13:22:53Z</time>
      </trkpt>
      <trkpt lat="43.076417" lon="-2.948433">
        <ele>868.0</ele>
        <time>2014-04-19T13:22:54Z</time>
      </trkpt>
      <trkpt lat="43.076400" lon="-2.948533">
        <ele>869.0</ele>
        <time>2014-04-19T13:22:55Z</time>
      </trkpt>
      <trkpt lat="43.076400" lon="-2.948633">
        <ele>868.0</ele>
        <time>2014-04-19T13:22:56Z</time>
      </trkpt>
      <trkpt lat="43.076417" lon="-2.948717">
        <ele>868.0</ele>
        <time>2014-04-19T13:22:57Z</time>
      </trkpt>
      <trkpt lat="43.076433" lon="-2.948800">
        <ele>867.0</ele>
        <time>2014-04-19T13:22:58Z</time>
      </trkpt>
      <trkpt lat="43.076467" lon="-2.948867">
        <ele>867.0</ele>
        <time>2014-04-19T13:22:59Z</time>
      </trkpt>
      <trkpt lat="43.076500" lon="-2.948933">
        <ele>866.0</ele>
        <time>2014-04-19T13:23:00Z</time>
      </trkpt>
      <trkpt lat="43.076500" lon="-2.949033">
        <ele>865.0</ele>
        <time>2014-04-19T13:23:01Z</time>
      </trkpt>
      <trkpt lat="43.076500" lon="-2.949150">
        <ele>864.0</ele>
        <time>2014-04-19T13:23:02Z</time>
      </trkpt>
      <trkpt lat="43.076467" lon="-2.949283">
        <ele>861.0</ele>
        <time>2014-04-19T13:23:03Z</time>
      </trkpt>
      <trkpt lat="43.076433" lon="-2.949417">
        <ele>859.0</ele>
        <time>2014-04-19T13:23:04Z</time>
      </trkpt>
      <trkpt lat="43.076367" lon="-2.949517">
        <ele>858.0</ele>
        <time>2014-04-19T13:23:05Z</time>
      </trkpt>
      <trkpt lat="43.076300" lon="-2.949617">
        <ele>857.0</ele>
        <time>2014-04-19T13:23:06Z</time>
      </trkpt>
      <trkpt lat="43.076217" lon="-2.949700">
        <ele>855.0</ele>
        <time>2014-04-19T13:23:07Z</time>
      </trkpt>
      <trkpt lat="43.076133" lon="-2.949783">
        <ele>853.0</ele>
        <time>2014-04-19T13:23:08Z</time>
      </trkpt>
      <trkpt lat="43.076050" lon="-2.949850">
        <ele>851.0</ele>
        <time>2014-04-19T13:23:09Z</time>
      </trkpt>
      <trkpt lat="43.075950" lon="-2.949933">
        <ele>849.0</ele>
        <time>2014-04-19T13:23:10Z</time>
      </trkpt>
      <trkpt lat="43.075850" lon="-2.950017">
        <ele>848.0</ele>
        <time>2014-04-19T13:23:11Z</time>
      </trkpt>
      <trkpt lat="43.075767" lon="-2.950083">
        <ele>847.0</ele>
        <time>2014-04-19T13:23:12Z</time>
      </trkpt>
      <trkpt lat="43.075683" lon="-2.950150">
        <ele>846.0</ele>
        <time>2014-04-19T13:23:13Z</time>
      </trkpt>
      <trkpt lat="43.075583" lon="-2.950233">
        <ele>844.0</ele>
        <time>2014-04-19T13:23:14Z</time>
      </trkpt>
      <trkpt lat="43.075483" lon="-2.950317">
        <ele>842.0</ele>
        <time>2014-04-19T13:23:15Z</time>
      </trkpt>
      <trkpt lat="43.075400" lon="-2.950383">
        <ele>841.0</ele>
        <time>2014-04-19T13:23:16Z</time>
      </trkpt>
      <trkpt lat="43.075300" lon="-2.950467">
        <ele>840.0</ele>
        <time>2014-04-19T13:23:17Z</time>
      </trkpt>
      <trkpt lat="43.075200" lon="-2.950517">
        <ele>838.0</ele>
        <time>2014-04-19T13:23:18Z</time>
      </trkpt>
      <trkpt lat="43.075100" lon="-2.950567">
        <ele>837.0</ele>
        <time>2014-04-19T13:23:19Z</time>
      </trkpt>
      <trkpt lat="43.075000" lon="-2.950617">
        <ele>835.0</ele>
        <time>2014-04-19T13:23:20Z</time>
      </trkpt>
      <trkpt lat="43.074883" lon="-2.950683">
        <ele>833.0</ele>
        <time>2014-04-19T13:23:21Z</time>
      </trkpt>
      <trkpt lat="43.074783" lon="-2.950750">
        <ele>831.0</ele>
        <time>2014-04-19T13:23:22Z</time>
      </trkpt>
      <trkpt lat="43.074667" lon="-2.950817">
        <ele>830.0</ele>
        <time>2014-04-19T13:23:23Z</time>
      </trkpt>
      <trkpt lat="43.074567" lon="-2.950883">
        <ele>830.0</ele>
        <time>2014-04-19T13:23:24Z</time>
      </trkpt>
      <trkpt lat="43.074467" lon="-2.950917">
        <ele>830.0</ele>
        <time>2014-04-19T13:23:25Z</time>
      </trkpt>
      <trkpt lat="43.074383" lon="-2.950950">
        <ele>829.0</ele>
        <time>2014-04-19T13:23:26Z</time>
      </trkpt>
      <trkpt lat="43.074283" lon="-2.951000">
        <ele>829.0</ele>
        <time>2014-04-19T13:23:27Z</time>
      </trkpt>
      <trkpt lat="43.074183" lon="-2.951050">
        <ele>826.0</ele>
        <time>2014-04-19T13:23:28Z</time>
      </trkpt>
      <trkpt lat="43.074083" lon="-2.951133">
        <ele>824.0</ele>
        <time>2014-04-19T13:23:29Z</time>
      </trkpt>
      <trkpt lat="43.073983" lon="-2.951183">
        <ele>823.0</ele>
        <time>2014-04-19T13:23:30Z</time>
      </trkpt>
      <trkpt lat="43.073883" lon="-2.951250">
        <ele>823.0</ele>
        <time>2014-04-19T13:23:31Z</time>
      </trkpt>
      <trkpt lat="43.073783" lon="-2.951283">
        <ele>823.0</ele>
        <time>2014-04-19T13:23:32Z</time>
      </trkpt>
      <trkpt lat="43.073667" lon="-2.951350">
        <ele>823.0</ele>
        <time>2014-04-19T13:23:33Z</time>
      </trkpt>
      <trkpt lat="43.073567" lon="-2.951400">
        <ele>822.0</ele>
        <time>2014-04-19T13:23:34Z</time>
      </trkpt>
      <trkpt lat="43.073450" lon="-2.951450">
        <ele>822.0</ele>
        <time>2014-04-19T13:23:35Z</time>
      </trkpt>
      <trkpt lat="43.073350" lon="-2.951500">
        <ele>823.0</ele>
        <time>2014-04-19T13:23:36Z</time>
      </trkpt>
      <trkpt lat="43.073267" lon="-2.951550">
        <ele>825.0</ele>
        <time>2014-04-19T13:23:37Z</time>
      </trkpt>
      <trkpt lat="43.073183" lon="-2.951583">
        <ele>827.0</ele>
        <time>2014-04-19T13:23:38Z</time>
      </trkpt>
      <trkpt lat="43.073117" lon="-2.951633">
        <ele>829.0</ele>
        <time>2014-04-19T13:23:39Z</time>
      </trkpt>
      <trkpt lat="43.073033" lon="-2.951683">
        <ele>828.0</ele>
        <time>2014-04-19T13:23:40Z</time>
      </trkpt>
      <trkpt lat="43.072950" lon="-2.951750">
        <ele>828.0</ele>
        <time>2014-04-19T13:23:41Z</time>
      </trkpt>
      <trkpt lat="43.072883" lon="-2.951817">
        <ele>828.0</ele>
        <time>2014-04-19T13:23:42Z</time>
      </trkpt>
      <trkpt lat="43.072833" lon="-2.951917">
        <ele>829.0</ele>
        <time>2014-04-19T13:23:43Z</time>
      </trkpt>
      <trkpt lat="43.072800" lon="-2.952017">
        <ele>829.0</ele>
        <time>2014-04-19T13:23:44Z</time>
      </trkpt>
      <trkpt lat="43.072800" lon="-2.952100">
        <ele>829.0</ele>
        <time>2014-04-19T13:23:45Z</time>
      </trkpt>
      <trkpt lat="43.072817" lon="-2.952167">
        <ele>829.0</ele>
        <time>2014-04-19T13:23:46Z</time>
      </trkpt>
      <trkpt lat="43.072850" lon="-2.952217">
        <ele>829.0</ele>
        <time>2014-04-19T13:23:47Z</time>
      </trkpt>
      <trkpt lat="43.072900" lon="-2.952233">
        <ele>828.0</ele>
        <time>2014-04-19T13:23:48Z</time>
      </trkpt>
      <trkpt lat="43.072950" lon="-2.952233">
        <ele>827.0</ele>
        <time>2014-04-19T13:23:49Z</time>
      </trkpt>
      <trkpt lat="43.072983" lon="-2.952183">
        <ele>826.0</ele>
        <time>2014-04-19T13:23:50Z</time>
      </trkpt>
      <trkpt lat="43.073017" lon="-2.952133">
        <ele>825.0</ele>
        <time>2014-04-19T13:23:51Z</time>
      </trkpt>
      <trkpt lat="43.073050" lon="-2.952050">
        <ele>825.0</ele>
        <time>2014-04-19T13:23:52Z</time>
      </trkpt>
      <trkpt lat="43.073050" lon="-2.951967">
        <ele>826.0</ele>
        <time>2014-04-19T13:23:53Z</time>
      </trkpt>
      <trkpt lat="43.073033" lon="-2.951867">
        <ele>826.0</ele>
        <time>2014-04-19T13:23:54Z</time>
      </trkpt>
      <trkpt lat="43.073017" lon="-2.951767">
        <ele>826.0</ele>
        <time>2014-04-19T13:23:55Z</time>
      </trkpt>
      <trkpt lat="43.072983" lon="-2.951683">
        <ele>827.0</ele>
        <time>2014-04-19T13:23:56Z</time>
      </trkpt>
      <trkpt lat="43.072917" lon="-2.951600">
        <ele>828.0</ele>
        <time>2014-04-19T13:23:57Z</time>
      </trkpt>
      <trkpt lat="43.072850" lon="-2.951517">
        <ele>829.0</ele>
        <time>2014-04-19T13:23:58Z</time>
      </trkpt>
      <trkpt lat="43.072767" lon="-2.951433">
        <ele>829.0</ele>
        <time>2014-04-19T13:23:59Z</time>
      </trkpt>
      <trkpt lat="43.072683" lon="-2.951367">
        <ele>829.0</ele>
        <time>2014-04-19T13:24:00Z</time>
      </trkpt>
      <trkpt lat="43.072600" lon="-2.951283">
        <ele>830.0</ele>
        <time>2014-04-19T13:24:01Z</time>
      </trkpt>
      <trkpt lat="43.072533" lon="-2.951217">
        <ele>830.0</ele>
        <time>2014-04-19T13:24:02Z</time>
      </trkpt>
      <trkpt lat="43.072467" lon="-2.951133">
        <ele>830.0</ele>
        <time>2014-04-19T13:24:03Z</time>
      </trkpt>
      <trkpt lat="43.072383" lon="-2.951067">
        <ele>830.0</ele>
        <time>2014-04-19T13:24:04Z</time>
      </trkpt>
      <trkpt lat="43.072317" lon="-2.950983">
        <ele>829.0</ele>
        <time>2014-04-19T13:24:05Z</time>
      </trkpt>
      <trkpt lat="43.072217" lon="-2.950917">
        <ele>829.0</ele>
        <time>2014-04-19T13:24:06Z</time>
      </trkpt>
      <trkpt lat="43.072117" lon="-2.950867">
        <ele>830.0</ele>
        <time>2014-04-19T13:24:07Z</time>
      </trkpt>
      <trkpt lat="43.072017" lon="-2.950833">
        <ele>832.0</ele>
        <time>2014-04-19T13:24:08Z</time>
      </trkpt>
      <trkpt lat="43.071900" lon="-2.950833">
        <ele>834.0</ele>
        <time>2014-04-19T13:24:09Z</time>
      </trkpt>
      <trkpt lat="43.071800" lon="-2.950833">
        <ele>837.0</ele>
        <time>2014-04-19T13:24:10Z</time>
      </trkpt>
      <trkpt lat="43.071717" lon="-2.950867">
        <ele>839.0</ele>
        <time>2014-04-19T13:24:11Z</time>
      </trkpt>
      <trkpt lat="43.071633" lon="-2.950933">
        <ele>841.0</ele>
        <time>2014-04-19T13:24:12Z</time>
      </trkpt>
      <trkpt lat="43.071583" lon="-2.951000">
        <ele>841.0</ele>
        <time>2014-04-19T13:24:13Z</time>
      </trkpt>
      <trkpt lat="43.071533" lon="-2.951100">
        <ele>839.0</ele>
        <time>2014-04-19T13:24:14Z</time>
      </trkpt>
      <trkpt lat="43.071517" lon="-2.951233">
        <ele>836.0</ele>
        <time>2014-04-19T13:24:15Z</time>
      </trkpt>
      <trkpt lat="43.071533" lon="-2.951350">
        <ele>835.0</ele>
        <time>2014-04-19T13:24:16Z</time>
      </trkpt>
      <trkpt lat="43.071550" lon="-2.951467">
        <ele>835.0</ele>
        <time>2014-04-19T13:24:17Z</time>
      </trkpt>
      <trkpt lat="43.071567" lon="-2.951550">
        <ele>838.0</ele>
        <time>2014-04-19T13:24:18Z</time>
      </trkpt>
      <trkpt lat="43.071583" lon="-2.951600">
        <ele>841.0</ele>
        <time>2014-04-19T13:24:19Z</time>
      </trkpt>
      <trkpt lat="43.071617" lon="-2.951600">
        <ele>843.0</ele>
        <time>2014-04-19T13:24:20Z</time>
      </trkpt>
      <trkpt lat="43.071650" lon="-2.951600">
        <ele>845.0</ele>
        <time>2014-04-19T13:24:21Z</time>
      </trkpt>
      <trkpt lat="43.071683" lon="-2.951583">
        <ele>846.0</ele>
        <time>2014-04-19T13:24:22Z</time>
      </trkpt>
      <trkpt lat="43.071717" lon="-2.951533">
        <ele>848.0</ele>
        <time>2014-04-19T13:24:23Z</time>
      </trkpt>
      <trkpt lat="43.071717" lon="-2.951450">
        <ele>849.0</ele>
        <time>2014-04-19T13:24:24Z</time>
      </trkpt>
      <trkpt lat="43.071700" lon="-2.951350">
        <ele>850.0</ele>
        <time>2014-04-19T13:24:25Z</time>
      </trkpt>
      <trkpt lat="43.071667" lon="-2.951217">
        <ele>851.0</ele>
        <time>2014-04-19T13:24:26Z</time>
      </trkpt>
      <trkpt lat="43.071617" lon="-2.951083">
        <ele>851.0</ele>
        <time>2014-04-19T13:24:27Z</time>
      </trkpt>
      <trkpt lat="43.071567" lon="-2.950967">
        <ele>852.0</ele>
        <time>2014-04-19T13:24:28Z</time>
      </trkpt>
      <trkpt lat="43.071483" lon="-2.950867">
        <ele>855.0</ele>
        <time>2014-04-19T13:24:29Z</time>
      </trkpt>
      <trkpt lat="43.071400" lon="-2.950783">
        <ele>858.0</ele>
        <time>2014-04-19T13:24:30Z</time>
      </trkpt>
      <trkpt lat="43.071300" lon="-2.950733">
        <ele>859.0</ele>
        <time>2014-04-19T13:24:31Z</time>
      </trkpt>
      <trkpt lat="43.071183" lon="-2.950700">
        <ele>860.0</ele>
        <time>2014-04-19T13:24:32Z</time>
      </trkpt>
      <trkpt lat="43.071050" lon="-2.950683">
        <ele>861.0</ele>
        <time>2014-04-19T13:24:33Z</time>
      </trkpt>
      <trkpt lat="43.070933" lon="-2.950700">
        <ele>860.0</ele>
        <time>2014-04-19T13:24:34Z</time>
      </trkpt>
      <trkpt lat="43.070800" lon="-2.950717">
        <ele>860.0</ele>
        <time>2014-04-19T13:24:35Z</time>
      </trkpt>
      <trkpt lat="43.070683" lon="-2.950767">
        <ele>860.0</ele>
        <time>2014-04-19T13:24:36Z</time>
      </trkpt>
      <trkpt lat="43.070600" lon="-2.950833">
        <ele>862.0</ele>
        <time>2014-04-19T13:24:37Z</time>
      </trkpt>
      <trkpt lat="43.070517" lon="-2.950933">
        <ele>862.0</ele>
        <time>2014-04-19T13:24:38Z</time>
      </trkpt>
      <trkpt lat="43.070450" lon="-2.951067">
        <ele>860.0</ele>
        <time>2014-04-19T13:24:39Z</time>
      </trkpt>
      <trkpt lat="43.070400" lon="-2.951200">
        <ele>857.0</ele>
        <time>2014-04-19T13:24:40Z</time>
      </trkpt>
      <trkpt lat="43.070350" lon="-2.951333">
        <ele>857.0</ele>
        <time>2014-04-19T13:24:41Z</time>
      </trkpt>
      <trkpt lat="43.070317" lon="-2.951433">
        <ele>857.0</ele>
        <time>2014-04-19T13:24:42Z</time>
      </trkpt>
      <trkpt lat="43.070317" lon="-2.951533">
        <ele>856.0</ele>
        <time>2014-04-19T13:24:43Z</time>
      </trkpt>
      <trkpt lat="43.070333" lon="-2.951633">
        <ele>855.0</ele>
        <time>2014-04-19T13:24:44Z</time>
      </trkpt>
      <trkpt lat="43.070367" lon="-2.951717">
        <ele>853.0</ele>
        <time>2014-04-19T13:24:45Z</time>
      </trkpt>
      <trkpt lat="43.070400" lon="-2.951767">
        <ele>852.0</ele>
        <time>2014-04-19T13:24:46Z</time>
      </trkpt>
      <trkpt lat="43.070450" lon="-2.951800">
        <ele>852.0</ele>
        <time>2014-04-19T13:24:47Z</time>
      </trkpt>
      <trkpt lat="43.070483" lon="-2.951817">
        <ele>851.0</ele>
        <time>2014-04-19T13:24:48Z</time>
      </trkpt>
      <trkpt lat="43.070517" lon="-2.951833">
        <ele>851.0</ele>
        <time>2014-04-19T13:24:49Z</time>
      </trkpt>
      <trkpt lat="43.070550" lon="-2.951850">
        <ele>850.0</ele>
        <time>2014-04-19T13:24:50Z</time>
      </trkpt>
      <trkpt lat="43.070583" lon="-2.951867">
        <ele>849.0</ele>
        <time>2014-04-19T13:24:51Z</time>
      </trkpt>
      <trkpt lat="43.070633" lon="-2.951867">
        <ele>848.0</ele>
        <time>2014-04-19T13:24:52Z</time>
      </trkpt>
      <trkpt lat="43.070700" lon="-2.951817">
        <ele>847.0</ele>
        <time>2014-04-19T13:24:53Z</time>
      </trkpt>
      <trkpt lat="43.070750" lon="-2.951767">
        <ele>847.0</ele>
        <time>2014-04-19T13:24:54Z</time>
      </trkpt>
      <trkpt lat="43.070800" lon="-2.951717">
        <ele>848.0</ele>
        <time>2014-04-19T13:24:55Z</time>
      </trkpt>
      <trkpt lat="43.070833" lon="-2.951667">
        <ele>850.0</ele>
        <time>2014-04-19T13:24:56Z</time>
      </trkpt>
      <trkpt lat="43.070883" lon="-2.951617">
        <ele>852.0</ele>
        <time>2014-04-19T13:24:57Z</time>
      </trkpt>
      <trkpt lat="43.070900" lon="-2.951533">
        <ele>855.0</ele>
        <time>2014-04-19T13:24:58Z</time>
      </trkpt>
      <trkpt lat="43.070917" lon="-2.951450">
        <ele>857.0</ele>
        <time>2014-04-19T13:24:59Z</time>
      </trkpt>
      <trkpt lat="43.070883" lon="-2.951350">
        <ele>859.0</ele>
        <time>2014-04-19T13:25:00Z</time>
      </trkpt>
      <trkpt lat="43.070850" lon="-2.951250">
        <ele>859.0</ele>
        <time>2014-04-19T13:25:01Z</time>
      </trkpt>
      <trkpt lat="43.070800" lon="-2.951150">
        <ele>858.0</ele>
        <time>2014-04-19T13:25:02Z</time>
      </trkpt>
      <trkpt lat="43.070767" lon="-2.951033">
        <ele>859.0</ele>
        <time>2014-04-19T13:25:03Z</time>
      </trkpt>
      <trkpt lat="43.070733" lon="-2.950917">
        <ele>859.0</ele>
        <time>2014-04-19T13:25:04Z</time>
      </trkpt>
      <trkpt lat="43.070683" lon="-2.950800">
        <ele>861.0</ele>
        <time>2014-04-19T13:25:05Z</time>
      </trkpt>
      <trkpt lat="43.070617" lon="-2.950717">
        <ele>864.0</ele>
        <time>2014-04-19T13:25:06Z</time>
      </trkpt>
      <trkpt lat="43.070533" lon="-2.950633">
        <ele>865.0</ele>
        <time>2014-04-19T13:25:07Z</time>
      </trkpt>
      <trkpt lat="43.070450" lon="-2.950550">
        <ele>866.0</ele>
        <time>2014-04-19T13:25:08Z</time>
      </trkpt>
      <trkpt lat="43.070367" lon="-2.950467">
        <ele>866.0</ele>
        <time>2014-04-19T13:25:09Z</time>
      </trkpt>
      <trkpt lat="43.070300" lon="-2.950383">
        <ele>866.0</ele>
        <time>2014-04-19T13:25:10Z</time>
      </trkpt>
      <trkpt lat="43.070217" lon="-2.950333">
        <ele>866.0</ele>
        <time>2014-04-19T13:25:11Z</time>
      </trkpt>
      <trkpt lat="43.070133" lon="-2.950283">
        <ele>865.0</ele>
        <time>2014-04-19T13:25:12Z</time>
      </trkpt>
      <trkpt lat="43.070050" lon="-2.950283">
        <ele>864.0</ele>
        <time>2014-04-19T13:25:13Z</time>
      </trkpt>
      <trkpt lat="43.069950" lon="-2.950300">
        <ele>863.0</ele>
        <time>2014-04-19T13:25:14Z</time>
      </trkpt>
      <trkpt lat="43.069867" lon="-2.950333">
        <ele>862.0</ele>
        <time>2014-04-19T13:25:15Z</time>
      </trkpt>
      <trkpt lat="43.069783" lon="-2.950383">
        <ele>862.0</ele>
        <time>2014-04-19T13:25:16Z</time>
      </trkpt>
      <trkpt lat="43.069700" lon="-2.950417">
        <ele>862.0</ele>
        <time>2014-04-19T13:25:17Z</time>
      </trkpt>
      <trkpt lat="43.069617" lon="-2.950433">
        <ele>861.0</ele>
        <time>2014-04-19T13:25:18Z</time>
      </trkpt>
      <trkpt lat="43.069517" lon="-2.950483">
        <ele>859.0</ele>
        <time>2014-04-19T13:25:19Z</time>
      </trkpt>
      <trkpt lat="43.069417" lon="-2.950550">
        <ele>857.0</ele>
        <time>2014-04-19T13:25:20Z</time>
      </trkpt>
      <trkpt lat="43.069317" lon="-2.950633">
        <ele>855.0</ele>
        <time>2014-04-19T13:25:21Z</time>
      </trkpt>
      <trkpt lat="43.069233" lon="-2.950717">
        <ele>855.0</ele>
        <time>2014-04-19T13:25:22Z</time>
      </trkpt>
      <trkpt lat="43.069150" lon="-2.950800">
        <ele>855.0</ele>
        <time>2014-04-19T13:25:23Z</time>
      </trkpt>
      <trkpt lat="43.069067" lon="-2.950883">
        <ele>855.0</ele>
        <time>2014-04-19T13:25:24Z</time>
      </trkpt>
      <trkpt lat="43.068967" lon="-2.950983">
        <ele>854.0</ele>
        <time>2014-04-19T13:25:25Z</time>
      </trkpt>
      <trkpt lat="43.068883" lon="-2.951083">
        <ele>854.0</ele>
        <time>2014-04-19T13:25:26Z</time>
      </trkpt>
      <trkpt lat="43.068817" lon="-2.951183">
        <ele>854.0</ele>
        <time>2014-04-19T13:25:27Z</time>
      </trkpt>
      <trkpt lat="43.068750" lon="-2.951250">
        <ele>854.0</ele>
        <time>2014-04-19T13:25:28Z</time>
      </trkpt>
      <trkpt lat="43.068683" lon="-2.951317">
        <ele>854.0</ele>
        <time>2014-04-19T13:25:29Z</time>
      </trkpt>
      <trkpt lat="43.068600" lon="-2.951400">
        <ele>853.0</ele>
        <time>2014-04-19T13:25:30Z</time>
      </trkpt>
      <trkpt lat="43.068517" lon="-2.951517">
        <ele>851.0</ele>
        <time>2014-04-19T13:25:31Z</time>
      </trkpt>
      <trkpt lat="43.068433" lon="-2.951633">
        <ele>848.0</ele>
        <time>2014-04-19T13:25:32Z</time>
      </trkpt>
      <trkpt lat="43.068333" lon="-2.951750">
        <ele>846.0</ele>
        <time>2014-04-19T13:25:33Z</time>
      </trkpt>
      <trkpt lat="43.068233" lon="-2.951833">
        <ele>846.0</ele>
        <time>2014-04-19T13:25:34Z</time>
      </trkpt>
      <trkpt lat="43.068150" lon="-2.951900">
        <ele>847.0</ele>
        <time>2014-04-19T13:25:35Z</time>
      </trkpt>
      <trkpt lat="43.068067" lon="-2.951983">
        <ele>848.0</ele>
        <time>2014-04-19T13:25:36Z</time>
      </trkpt>
      <trkpt lat="43.068000" lon="-2.952083">
        <ele>848.0</ele>
        <time>2014-04-19T13:25:37Z</time>
      </trkpt>
      <trkpt lat="43.067933" lon="-2.952183">
        <ele>848.0</ele>
        <time>2014-04-19T13:25:38Z</time>
      </trkpt>
      <trkpt lat="43.067867" lon="-2.952267">
        <ele>847.0</ele>
        <time>2014-04-19T13:25:39Z</time>
      </trkpt>
      <trkpt lat="43.067800" lon="-2.952367">
        <ele>846.0</ele>
        <time>2014-04-19T13:25:40Z</time>
      </trkpt>
      <trkpt lat="43.067733" lon="-2.952467">
        <ele>844.0</ele>
        <time>2014-04-19T13:25:41Z</time>
      </trkpt>
      <trkpt lat="43.067650" lon="-2.952583">
        <ele>842.0</ele>
        <time>2014-04-19T13:25:42Z</time>
      </trkpt>
      <trkpt lat="43.067567" lon="-2.952683">
        <ele>841.0</ele>
        <time>2014-04-19T13:25:43Z</time>
      </trkpt>
      <trkpt lat="43.067500" lon="-2.952767">
        <ele>841.0</ele>
        <time>2014-04-19T13:25:44Z</time>
      </trkpt>
      <trkpt lat="43.067450" lon="-2.952867">
        <ele>842.0</ele>
        <time>2014-04-19T13:25:45Z</time>
      </trkpt>
      <trkpt lat="43.067367" lon="-2.952950">
        <ele>841.0</ele>
        <time>2014-04-19T13:25:46Z</time>
      </trkpt>
      <trkpt lat="43.067283" lon="-2.953033">
        <ele>840.0</ele>
        <time>2014-04-19T13:25:47Z</time>
      </trkpt>
      <trkpt lat="43.067200" lon="-2.953117">
        <ele>840.0</ele>
        <time>2014-04-19T13:25:48Z</time>
      </trkpt>
      <trkpt lat="43.067150" lon="-2.953183">
        <ele>843.0</ele>
        <time>2014-04-19T13:25:49Z</time>
      </trkpt>
      <trkpt lat="43.067100" lon="-2.953250">
        <ele>845.0</ele>
        <time>2014-04-19T13:25:50Z</time>
      </trkpt>
      <trkpt lat="43.067033" lon="-2.953333">
        <ele>846.0</ele>
        <time>2014-04-19T13:25:51Z</time>
      </trkpt>
      <trkpt lat="43.066967" lon="-2.953417">
        <ele>845.0</ele>
        <time>2014-04-19T13:25:52Z</time>
      </trkpt>
      <trkpt lat="43.066900" lon="-2.953533">
        <ele>844.0</ele>
        <time>2014-04-19T13:25:53Z</time>
      </trkpt>
      <trkpt lat="43.066833" lon="-2.953667">
        <ele>843.0</ele>
        <time>2014-04-19T13:25:54Z</time>
      </trkpt>
      <trkpt lat="43.066783" lon="-2.953767">
        <ele>845.0</ele>
        <time>2014-04-19T13:25:55Z</time>
      </trkpt>
      <trkpt lat="43.066717" lon="-2.953867">
        <ele>846.0</ele>
        <time>2014-04-19T13:25:56Z</time>
      </trkpt>
      <trkpt lat="43.066650" lon="-2.953950">
        <ele>847.0</ele>
        <time>2014-04-19T13:25:57Z</time>
      </trkpt>
      <trkpt lat="43.066567" lon="-2.954050">
        <ele>847.0</ele>
        <time>2014-04-19T13:25:58Z</time>
      </trkpt>
      <trkpt lat="43.066500" lon="-2.954167">
        <ele>847.0</ele>
        <time>2014-04-19T13:25:59Z</time>
      </trkpt>
      <trkpt lat="43.066433" lon="-2.954283">
        <ele>846.0</ele>
        <time>2014-04-19T13:26:00Z</time>
      </trkpt>
      <trkpt lat="43.066400" lon="-2.954417">
        <ele>846.0</ele>
        <time>2014-04-19T13:26:01Z</time>
      </trkpt>
      <trkpt lat="43.066400" lon="-2.954533">
        <ele>846.0</ele>
        <time>2014-04-19T13:26:02Z</time>
      </trkpt>
      <trkpt lat="43.066433" lon="-2.954633">
        <ele>846.0</ele>
        <time>2014-04-19T13:26:03Z</time>
      </trkpt>
      <trkpt lat="43.066467" lon="-2.954733">
        <ele>845.0</ele>
        <time>2014-04-19T13:26:04Z</time>
      </trkpt>
      <trkpt lat="43.066483" lon="-2.954833">
        <ele>844.0</ele>
        <time>2014-04-19T13:26:05Z</time>
      </trkpt>
      <trkpt lat="43.066500" lon="-2.954950">
        <ele>844.0</ele>
        <time>2014-04-19T13:26:06Z</time>
      </trkpt>
      <trkpt lat="43.066483" lon="-2.955083">
        <ele>843.0</ele>
        <time>2014-04-19T13:26:07Z</time>
      </trkpt>
      <trkpt lat="43.066450" lon="-2.955233">
        <ele>842.0</ele>
        <time>2014-04-19T13:26:08Z</time>
      </trkpt>
      <trkpt lat="43.066400" lon="-2.955367">
        <ele>842.0</ele>
        <time>2014-04-19T13:26:09Z</time>
      </trkpt>
      <trkpt lat="43.066367" lon="-2.955483">
        <ele>843.0</ele>
        <time>2014-04-19T13:26:10Z</time>
      </trkpt>
      <trkpt lat="43.066317" lon="-2.955567">
        <ele>846.0</ele>
        <time>2014-04-19T13:26:11Z</time>
      </trkpt>
      <trkpt lat="43.066267" lon="-2.955650">
        <ele>847.0</ele>
        <time>2014-04-19T13:26:12Z</time>
      </trkpt>
      <trkpt lat="43.066217" lon="-2.955750">
        <ele>847.0</ele>
        <time>2014-04-19T13:26:13Z</time>
      </trkpt>
      <trkpt lat="43.066150" lon="-2.955867">
        <ele>845.0</ele>
        <time>2014-04-19T13:26:14Z</time>
      </trkpt>
      <trkpt lat="43.066083" lon="-2.955983">
        <ele>844.0</ele>
        <time>2014-04-19T13:26:15Z</time>
      </trkpt>
      <trkpt lat="43.066017" lon="-2.956083">
        <ele>844.0</ele>
        <time>2014-04-19T13:26:16Z</time>
      </trkpt>
      <trkpt lat="43.065950" lon="-2.956150">
        <ele>845.0</ele>
        <time>2014-04-19T13:26:17Z</time>
      </trkpt>
      <trkpt lat="43.065867" lon="-2.956183">
        <ele>845.0</ele>
        <time>2014-04-19T13:26:18Z</time>
      </trkpt>
      <trkpt lat="43.065783" lon="-2.956217">
        <ele>845.0</ele>
        <time>2014-04-19T13:26:19Z</time>
      </trkpt>
      <trkpt lat="43.065700" lon="-2.956250">
        <ele>844.0</ele>
        <time>2014-04-19T13:26:20Z</time>
      </trkpt>
      <trkpt lat="43.065617" lon="-2.956283">
        <ele>843.0</ele>
        <time>2014-04-19T13:26:21Z</time>
      </trkpt>
      <trkpt lat="43.065517" lon="-2.956317">
        <ele>842.0</ele>
        <time>2014-04-19T13:26:22Z</time>
      </trkpt>
      <trkpt lat="43.065417" lon="-2.956333">
        <ele>840.0</ele>
        <time>2014-04-19T13:26:23Z</time>
      </trkpt>
      <trkpt lat="43.065300" lon="-2.956350">
        <ele>840.0</ele>
        <time>2014-04-19T13:26:24Z</time>
      </trkpt>
      <trkpt lat="43.065183" lon="-2.956367">
        <ele>838.0</ele>
        <time>2014-04-19T13:26:25Z</time>
      </trkpt>
      <trkpt lat="43.065067" lon="-2.956367">
        <ele>837.0</ele>
        <time>2014-04-19T13:26:26Z</time>
      </trkpt>
      <trkpt lat="43.064950" lon="-2.956400">
        <ele>837.0</ele>
        <time>2014-04-19T13:26:27Z</time>
      </trkpt>
      <trkpt lat="43.064850" lon="-2.956433">
        <ele>837.0</ele>
        <time>2014-04-19T13:26:28Z</time>
      </trkpt>
      <trkpt lat="43.064750" lon="-2.956483">
        <ele>836.0</ele>
        <time>2014-04-19T13:26:29Z</time>
      </trkpt>
      <trkpt lat="43.064633" lon="-2.956533">
        <ele>835.0</ele>
        <time>2014-04-19T13:26:30Z</time>
      </trkpt>
      <trkpt lat="43.064517" lon="-2.956583">
        <ele>834.0</ele>
        <time>2014-04-19T13:26:31Z</time>
      </trkpt>
      <trkpt lat="43.064417" lon="-2.956633">
        <ele>833.0</ele>
        <time>2014-04-19T13:26:32Z</time>
      </trkpt>
      <trkpt lat="43.064317" lon="-2.956650">
        <ele>833.0</ele>
        <time>2014-04-19T13:26:33Z</time>
      </trkpt>
      <trkpt lat="43.064217" lon="-2.956683">
        <ele>833.0</ele>
        <time>2014-04-19T13:26:34Z</time>
      </trkpt>
      <trkpt lat="43.064117" lon="-2.956700">
        <ele>833.0</ele>
        <time>2014-04-19T13:26:35Z</time>
      </trkpt>
      <trkpt lat="43.064017" lon="-2.956733">
        <ele>833.0</ele>
        <time>2014-04-19T13:26:36Z</time>
      </trkpt>
      <trkpt lat="43.063917" lon="-2.956767">
        <ele>833.0</ele>
        <time>2014-04-19T13:26:37Z</time>
      </trkpt>
      <trkpt lat="43.063800" lon="-2.956783">
        <ele>833.0</ele>
        <time>2014-04-19T13:26:38Z</time>
      </trkpt>
      <trkpt lat="43.063683" lon="-2.956800">
        <ele>832.0</ele>
        <time>2014-04-19T13:26:39Z</time>
      </trkpt>
      <trkpt lat="43.063567" lon="-2.956817">
        <ele>830.0</ele>
        <time>2014-04-19T13:26:40Z</time>
      </trkpt>
      <trkpt lat="43.063467" lon="-2.956833">
        <ele>829.0</ele>
        <time>2014-04-19T13:26:41Z</time>
      </trkpt>
      <trkpt lat="43.063350" lon="-2.956867">
        <ele>827.0</ele>
        <time>2014-04-19T13:26:42Z</time>
      </trkpt>
      <trkpt lat="43.063250" lon="-2.956883">
        <ele>826.0</ele>
        <time>2014-04-19T13:26:43Z</time>
      </trkpt>
      <trkpt lat="43.063150" lon="-2.956900">
        <ele>825.0</ele>
        <time>2014-04-19T13:26:44Z</time>
      </trkpt>
      <trkpt lat="43.063050" lon="-2.956917">
        <ele>825.0</ele>
        <time>2014-04-19T13:26:45Z</time>
      </trkpt>
      <trkpt lat="43.062967" lon="-2.956933">
        <ele>824.0</ele>
        <time>2014-04-19T13:26:46Z</time>
      </trkpt>
      <trkpt lat="43.062867" lon="-2.956967">
        <ele>823.0</ele>
        <time>2014-04-19T13:26:47Z</time>
      </trkpt>
      <trkpt lat="43.062767" lon="-2.957017">
        <ele>822.0</ele>
        <time>2014-04-19T13:26:48Z</time>
      </trkpt>
      <trkpt lat="43.062683" lon="-2.957067">
        <ele>822.0</ele>
        <time>2014-04-19T13:26:49Z</time>
      </trkpt>
      <trkpt lat="43.062600" lon="-2.957117">
        <ele>822.0</ele>
        <time>2014-04-19T13:26:50Z</time>
      </trkpt>
      <trkpt lat="43.062500" lon="-2.957150">
        <ele>822.0</ele>
        <time>2014-04-19T13:26:51Z</time>
      </trkpt>
      <trkpt lat="43.062400" lon="-2.957167">
        <ele>822.0</ele>
        <time>2014-04-19T13:26:52Z</time>
      </trkpt>
      <trkpt lat="43.062317" lon="-2.957200">
        <ele>821.0</ele>
        <time>2014-04-19T13:26:53Z</time>
      </trkpt>
      <trkpt lat="43.062217" lon="-2.957217">
        <ele>821.0</ele>
        <time>2014-04-19T13:26:54Z</time>
      </trkpt>
      <trkpt lat="43.062133" lon="-2.957233">
        <ele>821.0</ele>
        <time>2014-04-19T13:26:55Z</time>
      </trkpt>
      <trkpt lat="43.062033" lon="-2.957250">
        <ele>821.0</ele>
        <time>2014-04-19T13:26:56Z</time>
      </trkpt>
      <trkpt lat="43.061933" lon="-2.957283">
        <ele>821.0</ele>
        <time>2014-04-19T13:26:57Z</time>
      </trkpt>
      <trkpt lat="43.061833" lon="-2.957317">
        <ele>821.0</ele>
        <time>2014-04-19T13:26:58Z</time>
      </trkpt>
      <trkpt lat="43.061750" lon="-2.957350">
        <ele>821.0</ele>
        <time>2014-04-19T13:26:59Z</time>
      </trkpt>
      <trkpt lat="43.061650" lon="-2.957383">
        <ele>821.0</ele>
        <time>2014-04-19T13:27:00Z</time>
      </trkpt>
      <trkpt lat="43.061567" lon="-2.957433">
        <ele>821.0</ele>
        <time>2014-04-19T13:27:01Z</time>
      </trkpt>
      <trkpt lat="43.061483" lon="-2.957467">
        <ele>821.0</ele>
        <time>2014-04-19T13:27:02Z</time>
      </trkpt>
      <trkpt lat="43.061383" lon="-2.957517">
        <ele>820.0</ele>
        <time>2014-04-19T13:27:03Z</time>
      </trkpt>
      <trkpt lat="43.061283" lon="-2.957550">
        <ele>819.0</ele>
        <time>2014-04-19T13:27:04Z</time>
      </trkpt>
      <trkpt lat="43.061183" lon="-2.957567">
        <ele>819.0</ele>
        <time>2014-04-19T13:27:05Z</time>
      </trkpt>
      <trkpt lat="43.061083" lon="-2.957583">
        <ele>818.0</ele>
        <time>2014-04-19T13:27:06Z</time>
      </trkpt>
      <trkpt lat="43.060983" lon="-2.957600">
        <ele>817.0</ele>
        <time>2014-04-19T13:27:07Z</time>
      </trkpt>
      <trkpt lat="43.060883" lon="-2.957617">
        <ele>815.0</ele>
        <time>2014-04-19T13:27:08Z</time>
      </trkpt>
      <trkpt lat="43.060783" lon="-2.957617">
        <ele>814.0</ele>
        <time>2014-04-19T13:27:09Z</time>
      </trkpt>
      <trkpt lat="43.060667" lon="-2.957633">
        <ele>812.0</ele>
        <time>2014-04-19T13:27:10Z</time>
      </trkpt>
      <trkpt lat="43.060567" lon="-2.957650">
        <ele>810.0</ele>
        <time>2014-04-19T13:27:11Z</time>
      </trkpt>
      <trkpt lat="43.060450" lon="-2.957667">
        <ele>808.0</ele>
        <time>2014-04-19T13:27:12Z</time>
      </trkpt>
      <trkpt lat="43.060350" lon="-2.957683">
        <ele>807.0</ele>
        <time>2014-04-19T13:27:13Z</time>
      </trkpt>
      <trkpt lat="43.060250" lon="-2.957700">
        <ele>805.0</ele>
        <time>2014-04-19T13:27:14Z</time>
      </trkpt>
      <trkpt lat="43.060133" lon="-2.957717">
        <ele>803.0</ele>
        <time>2014-04-19T13:27:15Z</time>
      </trkpt>
      <trkpt lat="43.060017" lon="-2.957733">
        <ele>800.0</ele>
        <time>2014-04-19T13:27:16Z</time>
      </trkpt>
      <trkpt lat="43.059900" lon="-2.957767">
        <ele>798.0</ele>
        <time>2014-04-19T13:27:17Z</time>
      </trkpt>
      <trkpt lat="43.059800" lon="-2.957783">
        <ele>796.0</ele>
        <time>2014-04-19T13:27:18Z</time>
      </trkpt>
      <trkpt lat="43.059683" lon="-2.957817">
        <ele>795.0</ele>
        <time>2014-04-19T13:27:19Z</time>
      </trkpt>
      <trkpt lat="43.059583" lon="-2.957833">
        <ele>794.0</ele>
        <time>2014-04-19T13:27:20Z</time>
      </trkpt>
      <trkpt lat="43.059483" lon="-2.957867">
        <ele>792.0</ele>
        <time>2014-04-19T13:27:21Z</time>
      </trkpt>
      <trkpt lat="43.059383" lon="-2.957900">
        <ele>790.0</ele>
        <time>2014-04-19T13:27:22Z</time>
      </trkpt>
      <trkpt lat="43.059283" lon="-2.957917">
        <ele>788.0</ele>
        <time>2014-04-19T13:27:23Z</time>
      </trkpt>
      <trkpt lat="43.059167" lon="-2.957933">
        <ele>786.0</ele>
        <time>2014-04-19T13:27:24Z</time>
      </trkpt>
      <trkpt lat="43.059067" lon="-2.957933">
        <ele>784.0</ele>
        <time>2014-04-19T13:27:25Z</time>
      </trkpt>
      <trkpt lat="43.058950" lon="-2.957950">
        <ele>782.0</ele>
        <time>2014-04-19T13:27:26Z</time>
      </trkpt>
      <trkpt lat="43.058850" lon="-2.957967">
        <ele>780.0</ele>
        <time>2014-04-19T13:27:27Z</time>
      </trkpt>
      <trkpt lat="43.058733" lon="-2.958000">
        <ele>777.0</ele>
        <time>2014-04-19T13:27:28Z</time>
      </trkpt>
      <trkpt lat="43.058633" lon="-2.958017">
        <ele>775.0</ele>
        <time>2014-04-19T13:27:29Z</time>
      </trkpt>
      <trkpt lat="43.058533" lon="-2.958050">
        <ele>772.0</ele>
        <time>2014-04-19T13:27:30Z</time>
      </trkpt>
      <trkpt lat="43.058417" lon="-2.958083">
        <ele>771.0</ele>
        <time>2014-04-19T13:27:31Z</time>
      </trkpt>
      <trkpt lat="43.058317" lon="-2.958117">
        <ele>769.0</ele>
        <time>2014-04-19T13:27:32Z</time>
      </trkpt>
      <trkpt lat="43.058233" lon="-2.958133">
        <ele>766.0</ele>
        <time>2014-04-19T13:27:33Z</time>
      </trkpt>
      <trkpt lat="43.058133" lon="-2.958150">
        <ele>763.0</ele>
        <time>2014-04-19T13:27:34Z</time>
      </trkpt>
      <trkpt lat="43.058033" lon="-2.958167">
        <ele>760.0</ele>
        <time>2014-04-19T13:27:35Z</time>
      </trkpt>
      <trkpt lat="43.057917" lon="-2.958183">
        <ele>756.0</ele>
        <time>2014-04-19T13:27:36Z</time>
      </trkpt>
      <trkpt lat="43.057833" lon="-2.958217">
        <ele>754.0</ele>
        <time>2014-04-19T13:27:37Z</time>
      </trkpt>
      <trkpt lat="43.057750" lon="-2.958250">
        <ele>751.0</ele>
        <time>2014-04-19T13:27:38Z</time>
      </trkpt>
      <trkpt lat="43.057667" lon="-2.958317">
        <ele>747.0</ele>
        <time>2014-04-19T13:27:39Z</time>
      </trkpt>
      <trkpt lat="43.057583" lon="-2.958367">
        <ele>743.0</ele>
        <time>2014-04-19T13:27:40Z</time>
      </trkpt>
      <trkpt lat="43.057500" lon="-2.958433">
        <ele>740.0</ele>
        <time>2014-04-19T13:27:41Z</time>
      </trkpt>
      <trkpt lat="43.057417" lon="-2.958467">
        <ele>737.0</ele>
        <time>2014-04-19T13:27:42Z</time>
      </trkpt>
      <trkpt lat="43.057333" lon="-2.958517">
        <ele>735.0</ele>
        <time>2014-04-19T13:27:43Z</time>
      </trkpt>
      <trkpt lat="43.057233" lon="-2.958567">
        <ele>732.0</ele>
        <time>2014-04-19T13:27:44Z</time>
      </trkpt>
      <trkpt lat="43.057133" lon="-2.958600">
        <ele>728.0</ele>
        <time>2014-04-19T13:27:45Z</time>
      </trkpt>
      <trkpt lat="43.057033" lon="-2.958650">
        <ele>726.0</ele>
        <time>2014-04-19T13:27:46Z</time>
      </trkpt>
      <trkpt lat="43.056933" lon="-2.958717">
        <ele>724.0</ele>
        <time>2014-04-19T13:27:47Z</time>
      </trkpt>
      <trkpt lat="43.056850" lon="-2.958750">
        <ele>724.0</ele>
        <time>2014-04-19T13:27:48Z</time>
      </trkpt>
      <trkpt lat="43.056783" lon="-2.958767">
        <ele>723.0</ele>
        <time>2014-04-19T13:27:49Z</time>
      </trkpt>
      <trkpt lat="43.056683" lon="-2.958800">
        <ele>722.0</ele>
        <time>2014-04-19T13:27:50Z</time>
      </trkpt>
      <trkpt lat="43.056583" lon="-2.958833">
        <ele>720.0</ele>
        <time>2014-04-19T13:27:51Z</time>
      </trkpt>
      <trkpt lat="43.056483" lon="-2.958883">
        <ele>718.0</ele>
        <time>2014-04-19T13:27:52Z</time>
      </trkpt>
      <trkpt lat="43.056367" lon="-2.958917">
        <ele>717.0</ele>
        <time>2014-04-19T13:27:53Z</time>
      </trkpt>
      <trkpt lat="43.056267" lon="-2.958933">
        <ele>717.0</ele>
        <time>2014-04-19T13:27:54Z</time>
      </trkpt>
      <trkpt lat="43.056183" lon="-2.958967">
        <ele>717.0</ele>
        <time>2014-04-19T13:27:55Z</time>
      </trkpt>
      <trkpt lat="43.056117" lon="-2.959000">
        <ele>717.0</ele>
        <time>2014-04-19T13:27:56Z</time>
      </trkpt>
      <trkpt lat="43.056017" lon="-2.959033">
        <ele>716.0</ele>
        <time>2014-04-19T13:27:57Z</time>
      </trkpt>
      <trkpt lat="43.055933" lon="-2.959067">
        <ele>715.0</ele>
        <time>2014-04-19T13:27:58Z</time>
      </trkpt>
      <trkpt lat="43.055833" lon="-2.959100">
        <ele>715.0</ele>
        <time>2014-04-19T13:27:59Z</time>
      </trkpt>
      <trkpt lat="43.055750" lon="-2.959150">
        <ele>715.0</ele>
        <time>2014-04-19T13:28:00Z</time>
      </trkpt>
      <trkpt lat="43.055650" lon="-2.959183">
        <ele>715.0</ele>
        <time>2014-04-19T13:28:01Z</time>
      </trkpt>
      <trkpt lat="43.055567" lon="-2.959217">
        <ele>714.0</ele>
        <time>2014-04-19T13:28:02Z</time>
      </trkpt>
      <trkpt lat="43.055467" lon="-2.959250">
        <ele>714.0</ele>
        <time>2014-04-19T13:28:03Z</time>
      </trkpt>
      <trkpt lat="43.055383" lon="-2.959283">
        <ele>713.0</ele>
        <time>2014-04-19T13:28:04Z</time>
      </trkpt>
      <trkpt lat="43.055300" lon="-2.959300">
        <ele>713.0</ele>
        <time>2014-04-19T13:28:05Z</time>
      </trkpt>
      <trkpt lat="43.055200" lon="-2.959317">
        <ele>713.0</ele>
        <time>2014-04-19T13:28:06Z</time>
      </trkpt>
      <trkpt lat="43.055117" lon="-2.959350">
        <ele>712.0</ele>
        <time>2014-04-19T13:28:07Z</time>
      </trkpt>
      <trkpt lat="43.055017" lon="-2.959367">
        <ele>711.0</ele>
        <time>2014-04-19T13:28:08Z</time>
      </trkpt>
      <trkpt lat="43.054933" lon="-2.959383">
        <ele>710.0</ele>
        <time>2014-04-19T13:28:09Z</time>
      </trkpt>
      <trkpt lat="43.054833" lon="-2.959400">
        <ele>709.0</ele>
        <time>2014-04-19T13:28:10Z</time>
      </trkpt>
      <trkpt lat="43.054750" lon="-2.959417">
        <ele>708.0</ele>
        <time>2014-04-19T13:28:11Z</time>
      </trkpt>
      <trkpt lat="43.054683" lon="-2.959450">
        <ele>707.0</ele>
        <time>2014-04-19T13:28:12Z</time>
      </trkpt>
      <trkpt lat="43.054600" lon="-2.959500">
        <ele>705.0</ele>
        <time>2014-04-19T13:28:13Z</time>
      </trkpt>
      <trkpt lat="43.054517" lon="-2.959550">
        <ele>703.0</ele>
        <time>2014-04-19T13:28:14Z</time>
      </trkpt>
      <trkpt lat="43.054433" lon="-2.959617">
        <ele>701.0</ele>
        <time>2014-04-19T13:28:15Z</time>
      </trkpt>
      <trkpt lat="43.054367" lon="-2.959683">
        <ele>700.0</ele>
        <time>2014-04-19T13:28:16Z</time>
      </trkpt>
      <trkpt lat="43.054300" lon="-2.959767">
        <ele>698.0</ele>
        <time>2014-04-19T13:28:17Z</time>
      </trkpt>
      <trkpt lat="43.054233" lon="-2.959850">
        <ele>698.0</ele>
        <time>2014-04-19T13:28:18Z</time>
      </trkpt>
      <trkpt lat="43.054150" lon="-2.959933">
        <ele>698.0</ele>
        <time>2014-04-19T13:28:19Z</time>
      </trkpt>
      <trkpt lat="43.054083" lon="-2.960000">
        <ele>699.0</ele>
        <time>2014-04-19T13:28:20Z</time>
      </trkpt>
      <trkpt lat="43.054017" lon="-2.960067">
        <ele>700.0</ele>
        <time>2014-04-19T13:28:21Z</time>
      </trkpt>
      <trkpt lat="43.053950" lon="-2.960150">
        <ele>700.0</ele>
        <time>2014-04-19T13:28:22Z</time>
      </trkpt>
      <trkpt lat="43.053883" lon="-2.960250">
        <ele>700.0</ele>
        <time>2014-04-19T13:28:23Z</time>
      </trkpt>
      <trkpt lat="43.053817" lon="-2.960367">
        <ele>700.0</ele>
        <time>2014-04-19T13:28:24Z</time>
      </trkpt>
      <trkpt lat="43.053783" lon="-2.960467">
        <ele>702.0</ele>
        <time>2014-04-19T13:28:25Z</time>
      </trkpt>
      <trkpt lat="43.053783" lon="-2.960550">
        <ele>703.0</ele>
        <time>2014-04-19T13:28:26Z</time>
      </trkpt>
      <trkpt lat="43.053800" lon="-2.960633">
        <ele>704.0</ele>
        <time>2014-04-19T13:28:27Z</time>
      </trkpt>
      <trkpt lat="43.053833" lon="-2.960700">
        <ele>704.0</ele>
        <time>2014-04-19T13:28:28Z</time>
      </trkpt>
      <trkpt lat="43.053867" lon="-2.960767">
        <ele>704.0</ele>
        <time>2014-04-19T13:28:29Z</time>
      </trkpt>
      <trkpt lat="43.053917" lon="-2.960817">
        <ele>704.0</ele>
        <time>2014-04-19T13:28:30Z</time>
      </trkpt>
      <trkpt lat="43.053967" lon="-2.960850">
        <ele>705.0</ele>
        <time>2014-04-19T13:28:31Z</time>
      </trkpt>
      <trkpt lat="43.054017" lon="-2.960817">
        <ele>706.0</ele>
        <time>2014-04-19T13:28:32Z</time>
      </trkpt>
      <trkpt lat="43.054067" lon="-2.960767">
        <ele>707.0</ele>
        <time>2014-04-19T13:28:33Z</time>
      </trkpt>
      <trkpt lat="43.054100" lon="-2.960683">
        <ele>708.0</ele>
        <time>2014-04-19T13:28:34Z</time>
      </trkpt>
      <trkpt lat="43.054117" lon="-2.960583">
        <ele>708.0</ele>
        <time>2014-04-19T13:28:35Z</time>
      </trkpt>
      <trkpt lat="43.054117" lon="-2.960483">
        <ele>708.0</ele>
        <time>2014-04-19T13:28:36Z</time>
      </trkpt>
      <trkpt lat="43.054083" lon="-2.960383">
        <ele>708.0</ele>
        <time>2014-04-19T13:28:37Z</time>
      </trkpt>
      <trkpt lat="43.054033" lon="-2.960267">
        <ele>706.0</ele>
        <time>2014-04-19T13:28:38Z</time>
      </trkpt>
      <trkpt lat="43.053950" lon="-2.960167">
        <ele>705.0</ele>
        <time>2014-04-19T13:28:39Z</time>
      </trkpt>
      <trkpt lat="43.053867" lon="-2.960067">
        <ele>704.0</ele>
        <time>2014-04-19T13:28:40Z</time>
      </trkpt>
      <trkpt lat="43.053783" lon="-2.960000">
        <ele>706.0</ele>
        <time>2014-04-19T13:28:41Z</time>
      </trkpt>
      <trkpt lat="43.053700" lon="-2.959983">
        <ele>707.0</ele>
        <time>2014-04-19T13:28:42Z</time>
      </trkpt>
      <trkpt lat="43.053617" lon="-2.960017">
        <ele>708.0</ele>
        <time>2014-04-19T13:28:43Z</time>
      </trkpt>
      <trkpt lat="43.053517" lon="-2.960067">
        <ele>708.0</ele>
        <time>2014-04-19T13:28:44Z</time>
      </trkpt>
      <trkpt lat="43.053417" lon="-2.960150">
        <ele>708.0</ele>
        <time>2014-04-19T13:28:45Z</time>
      </trkpt>
      <trkpt lat="43.053350" lon="-2.960250">
        <ele>708.0</ele>
        <time>2014-04-19T13:28:46Z</time>
      </trkpt>
      <trkpt lat="43.053283" lon="-2.960333">
        <ele>712.0</ele>
        <time>2014-04-19T13:28:47Z</time>
      </trkpt>
      <trkpt lat="43.053250" lon="-2.960417">
        <ele>716.0</ele>
        <time>2014-04-19T13:28:48Z</time>
      </trkpt>
      <trkpt lat="43.053233" lon="-2.960483">
        <ele>718.0</ele>
        <time>2014-04-19T13:28:49Z</time>
      </trkpt>
      <trkpt lat="43.053200" lon="-2.960567">
        <ele>719.0</ele>
        <time>2014-04-19T13:28:50Z</time>
      </trkpt>
      <trkpt lat="43.053200" lon="-2.960650">
        <ele>718.0</ele>
        <time>2014-04-19T13:28:51Z</time>
      </trkpt>
      <trkpt lat="43.053200" lon="-2.960750">
        <ele>717.0</ele>
        <time>2014-04-19T13:28:52Z</time>
      </trkpt>
      <trkpt lat="43.053217" lon="-2.960850">
        <ele>716.0</ele>
        <time>2014-04-19T13:28:53Z</time>
      </trkpt>
      <trkpt lat="43.053267" lon="-2.960917">
        <ele>715.0</ele>
        <time>2014-04-19T13:28:54Z</time>
      </trkpt>
      <trkpt lat="43.053317" lon="-2.960967">
        <ele>715.0</ele>
        <time>2014-04-19T13:28:55Z</time>
      </trkpt>
      <trkpt lat="43.053367" lon="-2.960983">
        <ele>716.0</ele>
        <time>2014-04-19T13:28:56Z</time>
      </trkpt>
      <trkpt lat="43.053417" lon="-2.961000">
        <ele>717.0</ele>
        <time>2014-04-19T13:28:57Z</time>
      </trkpt>
      <trkpt lat="43.053467" lon="-2.960983">
        <ele>718.0</ele>
        <time>2014-04-19T13:28:58Z</time>
      </trkpt>
      <trkpt lat="43.053517" lon="-2.960950">
        <ele>719.0</ele>
        <time>2014-04-19T13:28:59Z</time>
      </trkpt>
      <trkpt lat="43.053567" lon="-2.960900">
        <ele>720.0</ele>
        <time>2014-04-19T13:29:00Z</time>
      </trkpt>
      <trkpt lat="43.053617" lon="-2.960817">
        <ele>721.0</ele>
        <time>2014-04-19T13:29:01Z</time>
      </trkpt>
      <trkpt lat="43.053633" lon="-2.960717">
        <ele>722.0</ele>
        <time>2014-04-19T13:29:02Z</time>
      </trkpt>
      <trkpt lat="43.053650" lon="-2.960600">
        <ele>724.0</ele>
        <time>2014-04-19T13:29:03Z</time>
      </trkpt>
      <trkpt lat="43.053650" lon="-2.960500">
        <ele>726.0</ele>
        <time>2014-04-19T13:29:04Z</time>
      </trkpt>
      <trkpt lat="43.053633" lon="-2.960400">
        <ele>728.0</ele>
        <time>2014-04-19T13:29:05Z</time>
      </trkpt>
      <trkpt lat="43.053600" lon="-2.960300">
        <ele>730.0</ele>
        <time>2014-04-19T13:29:06Z</time>
      </trkpt>
      <trkpt lat="43.053533" lon="-2.960200">
        <ele>730.0</ele>
        <time>2014-04-19T13:29:07Z</time>
      </trkpt>
      <trkpt lat="43.053450" lon="-2.960133">
        <ele>732.0</ele>
        <time>2014-04-19T13:29:08Z</time>
      </trkpt>
      <trkpt lat="43.053367" lon="-2.960083">
        <ele>734.0</ele>
        <time>2014-04-19T13:29:09Z</time>
      </trkpt>
      <trkpt lat="43.053283" lon="-2.960083">
        <ele>736.0</ele>
        <time>2014-04-19T13:29:10Z</time>
      </trkpt>
      <trkpt lat="43.053200" lon="-2.960117">
        <ele>738.0</ele>
        <time>2014-04-19T13:29:11Z</time>
      </trkpt>
      <trkpt lat="43.053117" lon="-2.960167">
        <ele>739.0</ele>
        <time>2014-04-19T13:29:12Z</time>
      </trkpt>
      <trkpt lat="43.053017" lon="-2.960217">
        <ele>741.0</ele>
        <time>2014-04-19T13:29:13Z</time>
      </trkpt>
      <trkpt lat="43.052950" lon="-2.960283">
        <ele>742.0</ele>
        <time>2014-04-19T13:29:14Z</time>
      </trkpt>
      <trkpt lat="43.052883" lon="-2.960367">
        <ele>744.0</ele>
        <time>2014-04-19T13:29:15Z</time>
      </trkpt>
      <trkpt lat="43.052833" lon="-2.960483">
        <ele>744.0</ele>
        <time>2014-04-19T13:29:16Z</time>
      </trkpt>
      <trkpt lat="43.052783" lon="-2.960600">
        <ele>745.0</ele>
        <time>2014-04-19T13:29:17Z</time>
      </trkpt>
      <trkpt lat="43.052750" lon="-2.960717">
        <ele>746.0</ele>
        <time>2014-04-19T13:29:18Z</time>
      </trkpt>
      <trkpt lat="43.052750" lon="-2.960817">
        <ele>748.0</ele>
        <time>2014-04-19T13:29:19Z</time>
      </trkpt>
      <trkpt lat="43.052767" lon="-2.960900">
        <ele>749.0</ele>
        <time>2014-04-19T13:29:20Z</time>
      </trkpt>
      <trkpt lat="43.052800" lon="-2.960967">
        <ele>750.0</ele>
        <time>2014-04-19T13:29:21Z</time>
      </trkpt>
      <trkpt lat="43.052850" lon="-2.961017">
        <ele>751.0</ele>
        <time>2014-04-19T13:29:22Z</time>
      </trkpt>
      <trkpt lat="43.052917" lon="-2.961017">
        <ele>752.0</ele>
        <time>2014-04-19T13:29:23Z</time>
      </trkpt>
      <trkpt lat="43.052967" lon="-2.961017">
        <ele>753.0</ele>
        <time>2014-04-19T13:29:24Z</time>
      </trkpt>
      <trkpt lat="43.053017" lon="-2.960967">
        <ele>755.0</ele>
        <time>2014-04-19T13:29:25Z</time>
      </trkpt>
      <trkpt lat="43.053067" lon="-2.960917">
        <ele>756.0</ele>
        <time>2014-04-19T13:29:26Z</time>
      </trkpt>
      <trkpt lat="43.053083" lon="-2.960833">
        <ele>758.0</ele>
        <time>2014-04-19T13:29:27Z</time>
      </trkpt>
      <trkpt lat="43.053100" lon="-2.960733">
        <ele>760.0</ele>
        <time>2014-04-19T13:29:28Z</time>
      </trkpt>
      <trkpt lat="43.053100" lon="-2.960617">
        <ele>761.0</ele>
        <time>2014-04-19T13:29:29Z</time>
      </trkpt>
      <trkpt lat="43.053083" lon="-2.960500">
        <ele>762.0</ele>
        <time>2014-04-19T13:29:30Z</time>
      </trkpt>
      <trkpt lat="43.053033" lon="-2.960400">
        <ele>764.0</ele>
        <time>2014-04-19T13:29:31Z</time>
      </trkpt>
      <trkpt lat="43.052967" lon="-2.960300">
        <ele>765.0</ele>
        <time>2014-04-19T13:29:32Z</time>
      </trkpt>
      <trkpt lat="43.052883" lon="-2.960233">
        <ele>767.0</ele>
        <time>2014-04-19T13:29:33Z</time>
      </trkpt>
      <trkpt lat="43.052800" lon="-2.960183">
        <ele>769.0</ele>
        <time>2014-04-19T13:29:34Z</time>
      </trkpt>
      <trkpt lat="43.052717" lon="-2.960167">
        <ele>771.0</ele>
        <time>2014-04-19T13:29:35Z</time>
      </trkpt>
      <trkpt lat="43.052617" lon="-2.960183">
        <ele>772.0</ele>
        <time>2014-04-19T13:29:36Z</time>
      </trkpt>
      <trkpt lat="43.052533" lon="-2.960200">
        <ele>773.0</ele>
        <time>2014-04-19T13:29:37Z</time>
      </trkpt>
      <trkpt lat="43.052450" lon="-2.960250">
        <ele>775.0</ele>
        <time>2014-04-19T13:29:38Z</time>
      </trkpt>
      <trkpt lat="43.052400" lon="-2.960333">
        <ele>775.0</ele>
        <time>2014-04-19T13:29:39Z</time>
      </trkpt>
      <trkpt lat="43.052367" lon="-2.960433">
        <ele>776.0</ele>
        <time>2014-04-19T13:29:40Z</time>
      </trkpt>
      <trkpt lat="43.052367" lon="-2.960533">
        <ele>776.0</ele>
        <time>2014-04-19T13:29:41Z</time>
      </trkpt>
      <trkpt lat="43.052383" lon="-2.960633">
        <ele>776.0</ele>
        <time>2014-04-19T13:29:42Z</time>
      </trkpt>
      <trkpt lat="43.052433" lon="-2.960700">
        <ele>777.0</ele>
        <time>2014-04-19T13:29:43Z</time>
      </trkpt>
      <trkpt lat="43.052467" lon="-2.960733">
        <ele>778.0</ele>
        <time>2014-04-19T13:29:44Z</time>
      </trkpt>
      <trkpt lat="43.052517" lon="-2.960717">
        <ele>780.0</ele>
        <time>2014-04-19T13:29:45Z</time>
      </trkpt>
      <trkpt lat="43.052567" lon="-2.960667">
        <ele>782.0</ele>
        <time>2014-04-19T13:29:46Z</time>
      </trkpt>
      <trkpt lat="43.052617" lon="-2.960617">
        <ele>783.0</ele>
        <time>2014-04-19T13:29:47Z</time>
      </trkpt>
      <trkpt lat="43.052650" lon="-2.960533">
        <ele>784.0</ele>
        <time>2014-04-19T13:29:48Z</time>
      </trkpt>
      <trkpt lat="43.052667" lon="-2.960417">
        <ele>785.0</ele>
        <time>2014-04-19T13:29:49Z</time>
      </trkpt>
      <trkpt lat="43.052667" lon="-2.960300">
        <ele>787.0</ele>
        <time>2014-04-19T13:29:50Z</time>
      </trkpt>
      <trkpt lat="43.052617" lon="-2.960200">
        <ele>789.0</ele>
        <time>2014-04-19T13:29:51Z</time>
      </trkpt>
      <trkpt lat="43.052567" lon="-2.960117">
        <ele>792.0</ele>
        <time>2014-04-19T13:29:52Z</time>
      </trkpt>
      <trkpt lat="43.052500" lon="-2.960050">
        <ele>794.0</ele>
        <time>2014-04-19T13:29:53Z</time>
      </trkpt>
      <trkpt lat="43.052433" lon="-2.959983">
        <ele>797.0</ele>
        <time>2014-04-19T13:29:54Z</time>
      </trkpt>
      <trkpt lat="43.052367" lon="-2.959917">
        <ele>799.0</ele>
        <time>2014-04-19T13:29:55Z</time>
      </trkpt>
      <trkpt lat="43.052267" lon="-2.959883">
        <ele>801.0</ele>
        <time>2014-04-19T13:29:56Z</time>
      </trkpt>
      <trkpt lat="43.052167" lon="-2.959867">
        <ele>802.0</ele>
        <time>2014-04-19T13:29:57Z</time>
      </trkpt>
      <trkpt lat="43.052083" lon="-2.959917">
        <ele>802.0</ele>
        <time>2014-04-19T13:29:58Z</time>
      </trkpt>
      <trkpt lat="43.052000" lon="-2.959983">
        <ele>803.0</ele>
        <time>2014-04-19T13:29:59Z</time>
      </trkpt>
      <trkpt lat="43.051950" lon="-2.960067">
        <ele>804.0</ele>
        <time>2014-04-19T13:30:00Z</time>
      </trkpt>
      <trkpt lat="43.051917" lon="-2.960133">
        <ele>805.0</ele>
        <time>2014-04-19T13:30:01Z</time>
      </trkpt>
      <trkpt lat="43.051883" lon="-2.960217">
        <ele>807.0</ele>
        <time>2014-04-19T13:30:02Z</time>
      </trkpt>
      <trkpt lat="43.051833" lon="-2.960283">
        <ele>809.0</ele>
        <time>2014-04-19T13:30:03Z</time>
      </trkpt>
      <trkpt lat="43.051800" lon="-2.960383">
        <ele>810.0</ele>
        <time>2014-04-19T13:30:04Z</time>
      </trkpt>
      <trkpt lat="43.051767" lon="-2.960467">
        <ele>810.0</ele>
        <time>2014-04-19T13:30:05Z</time>
      </trkpt>
      <trkpt lat="43.051750" lon="-2.960550">
        <ele>811.0</ele>
        <time>2014-04-19T13:30:06Z</time>
      </trkpt>
      <trkpt lat="43.051767" lon="-2.960617">
        <ele>813.0</ele>
        <time>2014-04-19T13:30:07Z</time>
      </trkpt>
      <trkpt lat="43.051800" lon="-2.960683">
        <ele>813.0</ele>
        <time>2014-04-19T13:30:08Z</time>
      </trkpt>
      <trkpt lat="43.051833" lon="-2.960717">
        <ele>814.0</ele>
        <time>2014-04-19T13:30:09Z</time>
      </trkpt>
      <trkpt lat="43.051883" lon="-2.960733">
        <ele>814.0</ele>
        <time>2014-04-19T13:30:10Z</time>
      </trkpt>
      <trkpt lat="43.051933" lon="-2.960733">
        <ele>815.0</ele>
        <time>2014-04-19T13:30:11Z</time>
      </trkpt>
      <trkpt lat="43.051967" lon="-2.960700">
        <ele>816.0</ele>
        <time>2014-04-19T13:30:12Z</time>
      </trkpt>
      <trkpt lat="43.052017" lon="-2.960617">
        <ele>817.0</ele>
        <time>2014-04-19T13:30:13Z</time>
      </trkpt>
      <trkpt lat="43.052050" lon="-2.960533">
        <ele>817.0</ele>
        <time>2014-04-19T13:30:14Z</time>
      </trkpt>
      <trkpt lat="43.052067" lon="-2.960417">
        <ele>819.0</ele>
        <time>2014-04-19T13:30:15Z</time>
      </trkpt>
      <trkpt lat="43.052050" lon="-2.960300">
        <ele>820.0</ele>
        <time>2014-04-19T13:30:16Z</time>
      </trkpt>
      <trkpt lat="43.052017" lon="-2.960200">
        <ele>822.0</ele>
        <time>2014-04-19T13:30:17Z</time>
      </trkpt>
      <trkpt lat="43.051950" lon="-2.960083">
        <ele>824.0</ele>
        <time>2014-04-19T13:30:18Z</time>
      </trkpt>
      <trkpt lat="43.051883" lon="-2.960000">
        <ele>826.0</ele>
        <time>2014-04-19T13:30:19Z</time>
      </trkpt>
      <trkpt lat="43.051800" lon="-2.959950">
        <ele>828.0</ele>
        <time>2014-04-19T13:30:20Z</time>
      </trkpt>
      <trkpt lat="43.051700" lon="-2.959933">
        <ele>829.0</ele>
        <time>2014-04-19T13:30:21Z</time>
      </trkpt>
      <trkpt lat="43.051617" lon="-2.959933">
        <ele>830.0</ele>
        <time>2014-04-19T13:30:22Z</time>
      </trkpt>
      <trkpt lat="43.051517" lon="-2.959967">
        <ele>831.0</ele>
        <time>2014-04-19T13:30:23Z</time>
      </trkpt>
      <trkpt lat="43.051433" lon="-2.960000">
        <ele>832.0</ele>
        <time>2014-04-19T13:30:24Z</time>
      </trkpt>
      <trkpt lat="43.051350" lon="-2.960050">
        <ele>833.0</ele>
        <time>2014-04-19T13:30:25Z</time>
      </trkpt>
      <trkpt lat="43.051283" lon="-2.960117">
        <ele>834.0</ele>
        <time>2014-04-19T13:30:26Z</time>
      </trkpt>
      <trkpt lat="43.051233" lon="-2.960200">
        <ele>834.0</ele>
        <time>2014-04-19T13:30:27Z</time>
      </trkpt>
      <trkpt lat="43.051200" lon="-2.960267">
        <ele>834.0</ele>
        <time>2014-04-19T13:30:28Z</time>
      </trkpt>
      <trkpt lat="43.051183" lon="-2.960317">
        <ele>835.0</ele>
        <time>2014-04-19T13:30:29Z</time>
      </trkpt>
      <trkpt lat="43.051167" lon="-2.960383">
        <ele>836.0</ele>
        <time>2014-04-19T13:30:30Z</time>
      </trkpt>
      <trkpt lat="43.051183" lon="-2.960433">
        <ele>835.0</ele>
        <time>2014-04-19T13:30:31Z</time>
      </trkpt>
      <trkpt lat="43.051200" lon="-2.960467">
        <ele>834.0</ele>
        <time>2014-04-19T13:30:32Z</time>
      </trkpt>
      <trkpt lat="43.051233" lon="-2.960500">
        <ele>833.0</ele>
        <time>2014-04-19T13:30:33Z</time>
      </trkpt>
      <trkpt lat="43.051283" lon="-2.960500">
        <ele>832.0</ele>
        <time>2014-04-19T13:30:34Z</time>
      </trkpt>
      <trkpt lat="43.051350" lon="-2.960433">
        <ele>831.0</ele>
        <time>2014-04-19T13:30:35Z</time>
      </trkpt>
      <trkpt lat="43.051383" lon="-2.960317">
        <ele>829.0</ele>
        <time>2014-04-19T13:30:36Z</time>
      </trkpt>
      <trkpt lat="43.051417" lon="-2.960183">
        <ele>829.0</ele>
        <time>2014-04-19T13:30:37Z</time>
      </trkpt>
      <trkpt lat="43.051417" lon="-2.960067">
        <ele>830.0</ele>
        <time>2014-04-19T13:30:38Z</time>
      </trkpt>
      <trkpt lat="43.051417" lon="-2.959983">
        <ele>832.0</ele>
        <time>2014-04-19T13:30:39Z</time>
      </trkpt>
      <trkpt lat="43.051400" lon="-2.959883">
        <ele>834.0</ele>
        <time>2014-04-19T13:30:40Z</time>
      </trkpt>
      <trkpt lat="43.051400" lon="-2.959767">
        <ele>835.0</ele>
        <time>2014-04-19T13:30:41Z</time>
      </trkpt>
      <trkpt lat="43.051400" lon="-2.959650">
        <ele>835.0</ele>
        <time>2014-04-19T13:30:42Z</time>
      </trkpt>
      <trkpt lat="43.051383" lon="-2.959517">
        <ele>836.0</ele>
        <time>2014-04-19T13:30:43Z</time>
      </trkpt>
      <trkpt lat="43.051367" lon="-2.959400">
        <ele>837.0</ele>
        <time>2014-04-19T13:30:44Z</time>
      </trkpt>
      <trkpt lat="43.051350" lon="-2.959300">
        <ele>839.0</ele>
        <time>2014-04-19T13:30:45Z</time>
      </trkpt>
      <trkpt lat="43.051300" lon="-2.959217">
        <ele>840.0</ele>
        <time>2014-04-19T13:30:46Z</time>
      </trkpt>
      <trkpt lat="43.051250" lon="-2.959133">
        <ele>839.0</ele>
        <time>2014-04-19T13:30:47Z</time>
      </trkpt>
      <trkpt lat="43.051183" lon="-2.959017">
        <ele>840.0</ele>
        <time>2014-04-19T13:30:48Z</time>
      </trkpt>
      <trkpt lat="43.051117" lon="-2.958900">
        <ele>840.0</ele>
        <time>2014-04-19T13:30:49Z</time>
      </trkpt>
      <trkpt lat="43.051050" lon="-2.958800">
        <ele>843.0</ele>
        <time>2014-04-19T13:30:50Z</time>
      </trkpt>
      <trkpt lat="43.051017" lon="-2.958733">
        <ele>850.0</ele>
        <time>2014-04-19T13:30:51Z</time>
      </trkpt>
      <trkpt lat="43.050983" lon="-2.958667">
        <ele>855.0</ele>
        <time>2014-04-19T13:30:52Z</time>
      </trkpt>
      <trkpt lat="43.050950" lon="-2.958617">
        <ele>859.0</ele>
        <time>2014-04-19T13:30:53Z</time>
      </trkpt>
      <trkpt lat="43.050900" lon="-2.958533">
        <ele>861.0</ele>
        <time>2014-04-19T13:30:54Z</time>
      </trkpt>
      <trkpt lat="43.050817" lon="-2.958467">
        <ele>861.0</ele>
        <time>2014-04-19T13:30:55Z</time>
      </trkpt>
      <trkpt lat="43.050733" lon="-2.958400">
        <ele>863.0</ele>
        <time>2014-04-19T13:30:56Z</time>
      </trkpt>
      <trkpt lat="43.050667" lon="-2.958367">
        <ele>866.0</ele>
        <time>2014-04-19T13:30:57Z</time>
      </trkpt>
      <trkpt lat="43.050600" lon="-2.958317">
        <ele>868.0</ele>
        <time>2014-04-19T13:30:58Z</time>
      </trkpt>
      <trkpt lat="43.050517" lon="-2.958283">
        <ele>870.0</ele>
        <time>2014-04-19T13:30:59Z</time>
      </trkpt>
      <trkpt lat="43.050433" lon="-2.958250">
        <ele>870.0</ele>
        <time>2014-04-19T13:31:00Z</time>
      </trkpt>
      <trkpt lat="43.050350" lon="-2.958233">
        <ele>871.0</ele>
        <time>2014-04-19T13:31:01Z</time>
      </trkpt>
      <trkpt lat="43.050250" lon="-2.958250">
        <ele>872.0</ele>
        <time>2014-04-19T13:31:02Z</time>
      </trkpt>
      <trkpt lat="43.050167" lon="-2.958283">
        <ele>874.0</ele>
        <time>2014-04-19T13:31:03Z</time>
      </trkpt>
      <trkpt lat="43.050100" lon="-2.958350">
        <ele>876.0</ele>
        <time>2014-04-19T13:31:04Z</time>
      </trkpt>
      <trkpt lat="43.050083" lon="-2.958433">
        <ele>878.0</ele>
        <time>2014-04-19T13:31:05Z</time>
      </trkpt>
      <trkpt lat="43.050083" lon="-2.958500">
        <ele>879.0</ele>
        <time>2014-04-19T13:31:06Z</time>
      </trkpt>
      <trkpt lat="43.050083" lon="-2.958550">
        <ele>880.0</ele>
        <time>2014-04-19T13:31:07Z</time>
      </trkpt>
      <trkpt lat="43.050100" lon="-2.958617">
        <ele>880.0</ele>
        <time>2014-04-19T13:31:08Z</time>
      </trkpt>
      <trkpt lat="43.050117" lon="-2.958700">
        <ele>880.0</ele>
        <time>2014-04-19T13:31:09Z</time>
      </trkpt>
      <trkpt lat="43.050133" lon="-2.958750">
        <ele>880.0</ele>
        <time>2014-04-19T13:31:10Z</time>
      </trkpt>
      <trkpt lat="43.050167" lon="-2.958800">
        <ele>881.0</ele>
        <time>2014-04-19T13:31:11Z</time>
      </trkpt>
      <trkpt lat="43.050200" lon="-2.958817">
        <ele>881.0</ele>
        <time>2014-04-19T13:31:12Z</time>
      </trkpt>
      <trkpt lat="43.050267" lon="-2.958850">
        <ele>881.0</ele>
        <time>2014-04-19T13:31:13Z</time>
      </trkpt>
      <trkpt lat="43.050317" lon="-2.958867">
        <ele>881.0</ele>
        <time>2014-04-19T13:31:14Z</time>
      </trkpt>
      <trkpt lat="43.050367" lon="-2.958867">
        <ele>882.0</ele>
        <time>2014-04-19T13:31:15Z</time>
      </trkpt>
      <trkpt lat="43.050433" lon="-2.958833">
        <ele>882.0</ele>
        <time>2014-04-19T13:31:16Z</time>
      </trkpt>
      <trkpt lat="43.050483" lon="-2.958800">
        <ele>882.0</ele>
        <time>2014-04-19T13:31:17Z</time>
      </trkpt>
      <trkpt lat="43.050533" lon="-2.958750">
        <ele>883.0</ele>
        <time>2014-04-19T13:31:18Z</time>
      </trkpt>
      <trkpt lat="43.050583" lon="-2.958683">
        <ele>884.0</ele>
        <time>2014-04-19T13:31:19Z</time>
      </trkpt>
      <trkpt lat="43.050617" lon="-2.958600">
        <ele>887.0</ele>
        <time>2014-04-19T13:31:20Z</time>
      </trkpt>
      <trkpt lat="43.050667" lon="-2.958533">
        <ele>889.0</ele>
        <time>2014-04-19T13:31:21Z</time>
      </trkpt>
      <trkpt lat="43.050700" lon="-2.958467">
        <ele>892.0</ele>
        <time>2014-04-19T13:31:22Z</time>
      </trkpt>
      <trkpt lat="43.050750" lon="-2.958367">
        <ele>894.0</ele>
        <time>2014-04-19T13:31:23Z</time>
      </trkpt>
      <trkpt lat="43.050783" lon="-2.958250">
        <ele>896.0</ele>
        <time>2014-04-19T13:31:24Z</time>
      </trkpt>
      <trkpt lat="43.050800" lon="-2.958150">
        <ele>899.0</ele>
        <time>2014-04-19T13:31:25Z</time>
      </trkpt>
      <trkpt lat="43.050783" lon="-2.958033">
        <ele>902.0</ele>
        <time>2014-04-19T13:31:26Z</time>
      </trkpt>
      <trkpt lat="43.050750" lon="-2.957933">
        <ele>906.0</ele>
        <time>2014-04-19T13:31:27Z</time>
      </trkpt>
      <trkpt lat="43.050717" lon="-2.957817">
        <ele>908.0</ele>
        <time>2014-04-19T13:31:28Z</time>
      </trkpt>
      <trkpt lat="43.050683" lon="-2.957717">
        <ele>910.0</ele>
        <time>2014-04-19T13:31:29Z</time>
      </trkpt>
      <trkpt lat="43.050633" lon="-2.957617">
        <ele>913.0</ele>
        <time>2014-04-19T13:31:30Z</time>
      </trkpt>
      <trkpt lat="43.050567" lon="-2.957533">
        <ele>914.0</ele>
        <time>2014-04-19T13:31:31Z</time>
      </trkpt>
      <trkpt lat="43.050483" lon="-2.957450">
        <ele>915.0</ele>
        <time>2014-04-19T13:31:32Z</time>
      </trkpt>
      <trkpt lat="43.050383" lon="-2.957367">
        <ele>917.0</ele>
        <time>2014-04-19T13:31:33Z</time>
      </trkpt>
      <trkpt lat="43.050283" lon="-2.957300">
        <ele>920.0</ele>
        <time>2014-04-19T13:31:34Z</time>
      </trkpt>
      <trkpt lat="43.050183" lon="-2.957250">
        <ele>925.0</ele>
        <time>2014-04-19T13:31:35Z</time>
      </trkpt>
      <trkpt lat="43.050083" lon="-2.957217">
        <ele>929.0</ele>
        <time>2014-04-19T13:31:36Z</time>
      </trkpt>
      <trkpt lat="43.049983" lon="-2.957217">
        <ele>933.0</ele>
        <time>2014-04-19T13:31:37Z</time>
      </trkpt>
      <trkpt lat="43.049883" lon="-2.957250">
        <ele>936.0</ele>
        <time>2014-04-19T13:31:38Z</time>
      </trkpt>
      <trkpt lat="43.049783" lon="-2.957283">
        <ele>939.0</ele>
        <time>2014-04-19T13:31:39Z</time>
      </trkpt>
      <trkpt lat="43.049717" lon="-2.957333">
        <ele>943.0</ele>
        <time>2014-04-19T13:31:40Z</time>
      </trkpt>
      <trkpt lat="43.049650" lon="-2.957383">
        <ele>946.0</ele>
        <time>2014-04-19T13:31:41Z</time>
      </trkpt>
      <trkpt lat="43.049600" lon="-2.957450">
        <ele>948.0</ele>
        <time>2014-04-19T13:31:42Z</time>
      </trkpt>
      <trkpt lat="43.049550" lon="-2.957550">
        <ele>949.0</ele>
        <time>2014-04-19T13:31:43Z</time>
      </trkpt>
      <trkpt lat="43.049500" lon="-2.957650">
        <ele>950.0</ele>
        <time>2014-04-19T13:31:44Z</time>
      </trkpt>
      <trkpt lat="43.049500" lon="-2.957733">
        <ele>954.0</ele>
        <time>2014-04-19T13:31:45Z</time>
      </trkpt>
      <trkpt lat="43.049517" lon="-2.957800">
        <ele>958.0</ele>
        <time>2014-04-19T13:31:46Z</time>
      </trkpt>
      <trkpt lat="43.049567" lon="-2.957817">
        <ele>961.0</ele>
        <time>2014-04-19T13:31:47Z</time>
      </trkpt>
      <trkpt lat="43.049600" lon="-2.957833">
        <ele>965.0</ele>
        <time>2014-04-19T13:31:48Z</time>
      </trkpt>
      <trkpt lat="43.049633" lon="-2.957850">
        <ele>968.0</ele>
        <time>2014-04-19T13:31:49Z</time>
      </trkpt>
      <trkpt lat="43.049683" lon="-2.957867">
        <ele>971.0</ele>
        <time>2014-04-19T13:31:50Z</time>
      </trkpt>
      <trkpt lat="43.049733" lon="-2.957867">
        <ele>973.0</ele>
        <time>2014-04-19T13:31:51Z</time>
      </trkpt>
      <trkpt lat="43.049783" lon="-2.957850">
        <ele>976.0</ele>
        <time>2014-04-19T13:31:52Z</time>
      </trkpt>
      <trkpt lat="43.049833" lon="-2.957800">
        <ele>979.0</ele>
        <time>2014-04-19T13:31:53Z</time>
      </trkpt>
      <trkpt lat="43.049883" lon="-2.957733">
        <ele>982.0</ele>
        <time>2014-04-19T13:31:54Z</time>
      </trkpt>
      <trkpt lat="43.049900" lon="-2.957650">
        <ele>987.0</ele>
        <time>2014-04-19T13:31:55Z</time>
      </trkpt>
      <trkpt lat="43.049917" lon="-2.957567">
        <ele>990.0</ele>
        <time>2014-04-19T13:31:56Z</time>
      </trkpt>
      <trkpt lat="43.049917" lon="-2.957467">
        <ele>993.0</ele>
        <time>2014-04-19T13:31:57Z</time>
      </trkpt>
      <trkpt lat="43.049917" lon="-2.957333">
        <ele>996.0</ele>
        <time>2014-04-19T13:31:58Z</time>
      </trkpt>
      <trkpt lat="43.049867" lon="-2.957217">
        <ele>998.0</ele>
        <time>2014-04-19T13:31:59Z</time>
      </trkpt>
      <trkpt lat="43.049800" lon="-2.957117">
        <ele>999.0</ele>
        <time>2014-04-19T13:32:00Z</time>
      </trkpt>
      <trkpt lat="43.049717" lon="-2.957033">
        <ele>1001.0</ele>
        <time>2014-04-19T13:32:01Z</time>
      </trkpt>
      <trkpt lat="43.049617" lon="-2.957017">
        <ele>1003.0</ele>
        <time>2014-04-19T13:32:02Z</time>
      </trkpt>
      <trkpt lat="43.049500" lon="-2.957033">
        <ele>1005.0</ele>
        <time>2014-04-19T13:32:03Z</time>
      </trkpt>
      <trkpt lat="43.049433" lon="-2.957083">
        <ele>1008.0</ele>
        <time>2014-04-19T13:32:04Z</time>
      </trkpt>
      <trkpt lat="43.049367" lon="-2.957167">
        <ele>1011.0</ele>
        <time>2014-04-19T13:32:05Z</time>
      </trkpt>
      <trkpt lat="43.049350" lon="-2.957233">
        <ele>1014.0</ele>
        <time>2014-04-19T13:32:06Z</time>
      </trkpt>
      <trkpt lat="43.049333" lon="-2.957317">
        <ele>1016.0</ele>
        <time>2014-04-19T13:32:07Z</time>
      </trkpt>
      <trkpt lat="43.049333" lon="-2.957417">
        <ele>1017.0</ele>
        <time>2014-04-19T13:32:08Z</time>
      </trkpt>
      <trkpt lat="43.049350" lon="-2.957500">
        <ele>1020.0</ele>
        <time>2014-04-19T13:32:09Z</time>
      </trkpt>
      <trkpt lat="43.049367" lon="-2.957567">
        <ele>1023.0</ele>
        <time>2014-04-19T13:32:10Z</time>
      </trkpt>
      <trkpt lat="43.049417" lon="-2.957600">
        <ele>1027.0</ele>
        <time>2014-04-19T13:32:11Z</time>
      </trkpt>
      <trkpt lat="43.049467" lon="-2.957583">
        <ele>1031.0</ele>
        <time>2014-04-19T13:32:12Z</time>
      </trkpt>
      <trkpt lat="43.049500" lon="-2.957533">
        <ele>1034.0</ele>
        <time>2014-04-19T13:32:13Z</time>
      </trkpt>
      <trkpt lat="43.049550" lon="-2.957467">
        <ele>1037.0</ele>
        <time>2014-04-19T13:32:14Z</time>
      </trkpt>
      <trkpt lat="43.049600" lon="-2.957400">
        <ele>1039.0</ele>
        <time>2014-04-19T13:32:15Z</time>
      </trkpt>
      <trkpt lat="43.049650" lon="-2.957300">
        <ele>1040.0</ele>
        <time>2014-04-19T13:32:16Z</time>
      </trkpt>
      <trkpt lat="43.049683" lon="-2.957167">
        <ele>1042.0</ele>
        <time>2014-04-19T13:32:17Z</time>
      </trkpt>
      <trkpt lat="43.049700" lon="-2.957033">
        <ele>1044.0</ele>
        <time>2014-04-19T13:32:18Z</time>
      </trkpt>
      <trkpt lat="43.049700" lon="-2.956883">
        <ele>1046.0</ele>
        <time>2014-04-19T13:32:19Z</time>
      </trkpt>
      <trkpt lat="43.049667" lon="-2.956733">
        <ele>1047.0</ele>
        <time>2014-04-19T13:32:20Z</time>
      </trkpt>
      <trkpt lat="43.049617" lon="-2.956617">
        <ele>1048.0</ele>
        <time>2014-04-19T13:32:21Z</time>
      </trkpt>
      <trkpt lat="43.049533" lon="-2.956500">
        <ele>1049.0</ele>
        <time>2014-04-19T13:32:22Z</time>
      </trkpt>
      <trkpt lat="43.049433" lon="-2.956417">
        <ele>1049.0</ele>
        <time>2014-04-19T13:32:23Z</time>
      </trkpt>
      <trkpt lat="43.049333" lon="-2.956367">
        <ele>1048.0</ele>
        <time>2014-04-19T13:32:24Z</time>
      </trkpt>
      <trkpt lat="43.049217" lon="-2.956300">
        <ele>1047.0</ele>
        <time>2014-04-19T13:32:25Z</time>
      </trkpt>
      <trkpt lat="43.049100" lon="-2.956267">
        <ele>1047.0</ele>
        <time>2014-04-19T13:32:26Z</time>
      </trkpt>
      <trkpt lat="43.049000" lon="-2.956250">
        <ele>1047.0</ele>
        <time>2014-04-19T13:32:27Z</time>
      </trkpt>
      <trkpt lat="43.048883" lon="-2.956233">
        <ele>1049.0</ele>
        <time>2014-04-19T13:32:28Z</time>
      </trkpt>
      <trkpt lat="43.048783" lon="-2.956233">
        <ele>1051.0</ele>
        <time>2014-04-19T13:32:29Z</time>
      </trkpt>
      <trkpt lat="43.048667" lon="-2.956250">
        <ele>1053.0</ele>
        <time>2014-04-19T13:32:30Z</time>
      </trkpt>
      <trkpt lat="43.048567" lon="-2.956283">
        <ele>1053.0</ele>
        <time>2014-04-19T13:32:31Z</time>
      </trkpt>
      <trkpt lat="43.048467" lon="-2.956317">
        <ele>1054.0</ele>
        <time>2014-04-19T13:32:32Z</time>
      </trkpt>
      <trkpt lat="43.048367" lon="-2.956350">
        <ele>1054.0</ele>
        <time>2014-04-19T13:32:33Z</time>
      </trkpt>
      <trkpt lat="43.048250" lon="-2.956367">
        <ele>1055.0</ele>
        <time>2014-04-19T13:32:34Z</time>
      </trkpt>
      <trkpt lat="43.048117" lon="-2.956417">
        <ele>1055.0</ele>
        <time>2014-04-19T13:32:35Z</time>
      </trkpt>
      <trkpt lat="43.048017" lon="-2.956450">
        <ele>1057.0</ele>
        <time>2014-04-19T13:32:36Z</time>
      </trkpt>
      <trkpt lat="43.047917" lon="-2.956483">
        <ele>1063.0</ele>
        <time>2014-04-19T13:32:37Z</time>
      </trkpt>
      <trkpt lat="43.047833" lon="-2.956500">
        <ele>1067.0</ele>
        <time>2014-04-19T13:32:38Z</time>
      </trkpt>
      <trkpt lat="43.047750" lon="-2.956500">
        <ele>1070.0</ele>
        <time>2014-04-19T13:32:39Z</time>
      </trkpt>
      <trkpt lat="43.047667" lon="-2.956517">
        <ele>1073.0</ele>
        <time>2014-04-19T13:32:40Z</time>
      </trkpt>
      <trkpt lat="43.047583" lon="-2.956533">
        <ele>1074.0</ele>
        <time>2014-04-19T13:32:41Z</time>
      </trkpt>
      <trkpt lat="43.047517" lon="-2.956583">
        <ele>1075.0</ele>
        <time>2014-04-19T13:32:42Z</time>
      </trkpt>
      <trkpt lat="43.047467" lon="-2.956667">
        <ele>1075.0</ele>
        <time>2014-04-19T13:32:43Z</time>
      </trkpt>
      <trkpt lat="43.047433" lon="-2.956750">
        <ele>1076.0</ele>
        <time>2014-04-19T13:32:44Z</time>
      </trkpt>
      <trkpt lat="43.047450" lon="-2.956800">
        <ele>1078.0</ele>
        <time>2014-04-19T13:32:45Z</time>
      </trkpt>
      <trkpt lat="43.047467" lon="-2.956833">
        <ele>1079.0</ele>
        <time>2014-04-19T13:32:46Z</time>
      </trkpt>
      <trkpt lat="43.047500" lon="-2.956850">
        <ele>1081.0</ele>
        <time>2014-04-19T13:32:47Z</time>
      </trkpt>
      <trkpt lat="43.047533" lon="-2.956833">
        <ele>1082.0</ele>
        <time>2014-04-19T13:32:48Z</time>
      </trkpt>
      <trkpt lat="43.047567" lon="-2.956783">
        <ele>1083.0</ele>
        <time>2014-04-19T13:32:49Z</time>
      </trkpt>
      <trkpt lat="43.047600" lon="-2.956717">
        <ele>1085.0</ele>
        <time>2014-04-19T13:32:50Z</time>
      </trkpt>
      <trkpt lat="43.047633" lon="-2.956617">
        <ele>1086.0</ele>
        <time>2014-04-19T13:32:51Z</time>
      </trkpt>
      <trkpt lat="43.047650" lon="-2.956500">
        <ele>1087.0</ele>
        <time>2014-04-19T13:32:52Z</time>
      </trkpt>
      <trkpt lat="43.047667" lon="-2.956383">
        <ele>1088.0</ele>
        <time>2014-04-19T13:32:53Z</time>
      </trkpt>
      <trkpt lat="43.047667" lon="-2.956267">
        <ele>1090.0</ele>
        <time>2014-04-19T13:32:54Z</time>
      </trkpt>
      <trkpt lat="43.047633" lon="-2.956133">
        <ele>1092.0</ele>
        <time>2014-04-19T13:32:55Z</time>
      </trkpt>
      <trkpt lat="43.047583" lon="-2.956017">
        <ele>1095.0</ele>
        <time>2014-04-19T13:32:56Z</time>
      </trkpt>
      <trkpt lat="43.047533" lon="-2.955933">
        <ele>1097.0</ele>
        <time>2014-04-19T13:32:57Z</time>
      </trkpt>
      <trkpt lat="43.047483" lon="-2.955833">
        <ele>1100.0</ele>
        <time>2014-04-19T13:32:58Z</time>
      </trkpt>
      <trkpt lat="43.047417" lon="-2.955750">
        <ele>1101.0</ele>
        <time>2014-04-19T13:32:59Z</time>
      </trkpt>
      <trkpt lat="43.047367" lon="-2.955650">
        <ele>1102.0</ele>
        <time>2014-04-19T13:33:00Z</time>
      </trkpt>
      <trkpt lat="43.047283" lon="-2.955583">
        <ele>1103.0</ele>
        <time>2014-04-19T13:33:01Z</time>
      </trkpt>
      <trkpt lat="43.047167" lon="-2.955517">
        <ele>1104.0</ele>
        <time>2014-04-19T13:33:02Z</time>
      </trkpt>
      <trkpt lat="43.047050" lon="-2.955500">
        <ele>1105.0</ele>
        <time>2014-04-19T13:33:03Z</time>
      </trkpt>
      <trkpt lat="43.046933" lon="-2.955517">
        <ele>1106.0</ele>
        <time>2014-04-19T13:33:04Z</time>
      </trkpt>
      <trkpt lat="43.046850" lon="-2.955567">
        <ele>1108.0</ele>
        <time>2014-04-19T13:33:05Z</time>
      </trkpt>
      <trkpt lat="43.046767" lon="-2.955633">
        <ele>1110.0</ele>
        <time>2014-04-19T13:33:06Z</time>
      </trkpt>
      <trkpt lat="43.046700" lon="-2.955717">
        <ele>1111.0</ele>
        <time>2014-04-19T13:33:07Z</time>
      </trkpt>
      <trkpt lat="43.046633" lon="-2.955800">
        <ele>1112.0</ele>
        <time>2014-04-19T13:33:08Z</time>
      </trkpt>
      <trkpt lat="43.046583" lon="-2.955900">
        <ele>1114.0</ele>
        <time>2014-04-19T13:33:09Z</time>
      </trkpt>
      <trkpt lat="43.046533" lon="-2.955967">
        <ele>1116.0</ele>
        <time>2014-04-19T13:33:10Z</time>
      </trkpt>
      <trkpt lat="43.046500" lon="-2.956033">
        <ele>1118.0</ele>
        <time>2014-04-19T13:33:11Z</time>
      </trkpt>
      <trkpt lat="43.046467" lon="-2.956083">
        <ele>1121.0</ele>
        <time>2014-04-19T13:33:12Z</time>
      </trkpt>
      <trkpt lat="43.046467" lon="-2.956133">
        <ele>1122.0</ele>
        <time>2014-04-19T13:33:13Z</time>
      </trkpt>
      <trkpt lat="43.046483" lon="-2.956167">
        <ele>1122.0</ele>
        <time>2014-04-19T13:33:14Z</time>
      </trkpt>
      <trkpt lat="43.046533" lon="-2.956200">
        <ele>1122.0</ele>
        <time>2014-04-19T13:33:15Z</time>
      </trkpt>
      <trkpt lat="43.046583" lon="-2.956200">
        <ele>1122.0</ele>
        <time>2014-04-19T13:33:16Z</time>
      </trkpt>
      <trkpt lat="43.046633" lon="-2.956183">
        <ele>1122.0</ele>
        <time>2014-04-19T13:33:17Z</time>
      </trkpt>
      <trkpt lat="43.046683" lon="-2.956150">
        <ele>1123.0</ele>
        <time>2014-04-19T13:33:18Z</time>
      </trkpt>
      <trkpt lat="43.046733" lon="-2.956117">
        <ele>1124.0</ele>
        <time>2014-04-19T13:33:19Z</time>
      </trkpt>
      <trkpt lat="43.046767" lon="-2.956033">
        <ele>1125.0</ele>
        <time>2014-04-19T13:33:20Z</time>
      </trkpt>
      <trkpt lat="43.046800" lon="-2.955900">
        <ele>1125.0</ele>
        <time>2014-04-19T13:33:21Z</time>
      </trkpt>
      <trkpt lat="43.046817" lon="-2.955767">
        <ele>1125.0</ele>
        <time>2014-04-19T13:33:22Z</time>
      </trkpt>
      <trkpt lat="43.046800" lon="-2.955633">
        <ele>1127.0</ele>
        <time>2014-04-19T13:33:23Z</time>
      </trkpt>
      <trkpt lat="43.046783" lon="-2.955517">
        <ele>1129.0</ele>
        <time>2014-04-19T13:33:24Z</time>
      </trkpt>
      <trkpt lat="43.046750" lon="-2.955400">
        <ele>1132.0</ele>
        <time>2014-04-19T13:33:25Z</time>
      </trkpt>
      <trkpt lat="43.046683" lon="-2.955317">
        <ele>1135.0</ele>
        <time>2014-04-19T13:33:26Z</time>
      </trkpt>
      <trkpt lat="43.046633" lon="-2.955233">
        <ele>1134.0</ele>
        <time>2014-04-19T13:33:27Z</time>
      </trkpt>
      <trkpt lat="43.046567" lon="-2.955117">
        <ele>1135.0</ele>
        <time>2014-04-19T13:33:28Z</time>
      </trkpt>
      <trkpt lat="43.046483" lon="-2.955017">
        <ele>1135.0</ele>
        <time>2014-04-19T13:33:29Z</time>
      </trkpt>
      <trkpt lat="43.046383" lon="-2.954933">
        <ele>1136.0</ele>
        <time>2014-04-19T13:33:30Z</time>
      </trkpt>
      <trkpt lat="43.046283" lon="-2.954867">
        <ele>1137.0</ele>
        <time>2014-04-19T13:33:31Z</time>
      </trkpt>
      <trkpt lat="43.046183" lon="-2.954833">
        <ele>1137.0</ele>
        <time>2014-04-19T13:33:32Z</time>
      </trkpt>
      <trkpt lat="43.046050" lon="-2.954850">
        <ele>1137.0</ele>
        <time>2014-04-19T13:33:33Z</time>
      </trkpt>
      <trkpt lat="43.045933" lon="-2.954900">
        <ele>1137.0</ele>
        <time>2014-04-19T13:33:34Z</time>
      </trkpt>
      <trkpt lat="43.045800" lon="-2.954933">
        <ele>1138.0</ele>
        <time>2014-04-19T13:33:35Z</time>
      </trkpt>
      <trkpt lat="43.045700" lon="-2.954983">
        <ele>1140.0</ele>
        <time>2014-04-19T13:33:36Z</time>
      </trkpt>
      <trkpt lat="43.045600" lon="-2.955000">
        <ele>1142.0</ele>
        <time>2014-04-19T13:33:37Z</time>
      </trkpt>
      <trkpt lat="43.045517" lon="-2.955033">
        <ele>1144.0</ele>
        <time>2014-04-19T13:33:38Z</time>
      </trkpt>
      <trkpt lat="43.045417" lon="-2.955100">
        <ele>1145.0</ele>
        <time>2014-04-19T13:33:39Z</time>
      </trkpt>
      <trkpt lat="43.045300" lon="-2.955167">
        <ele>1143.0</ele>
        <time>2014-04-19T13:33:40Z</time>
      </trkpt>
      <trkpt lat="43.045183" lon="-2.955250">
        <ele>1143.0</ele>
        <time>2014-04-19T13:33:41Z</time>
      </trkpt>
      <trkpt lat="43.045083" lon="-2.955317">
        <ele>1145.0</ele>
        <time>2014-04-19T13:33:42Z</time>
      </trkpt>
      <trkpt lat="43.045000" lon="-2.955350">
        <ele>1148.0</ele>
        <time>2014-04-19T13:33:43Z</time>
      </trkpt>
      <trkpt lat="43.044933" lon="-2.955400">
        <ele>1151.0</ele>
        <time>2014-04-19T13:33:44Z</time>
      </trkpt>
      <trkpt lat="43.044867" lon="-2.955467">
        <ele>1151.0</ele>
        <time>2014-04-19T13:33:45Z</time>
      </trkpt>
      <trkpt lat="43.044800" lon="-2.955533">
        <ele>1150.0</ele>
        <time>2014-04-19T13:33:46Z</time>
      </trkpt>
      <trkpt lat="43.044717" lon="-2.955617">
        <ele>1150.0</ele>
        <time>2014-04-19T13:33:47Z</time>
      </trkpt>
      <trkpt lat="43.044617" lon="-2.955667">
        <ele>1149.0</ele>
        <time>2014-04-19T13:33:48Z</time>
      </trkpt>
      <trkpt lat="43.044533" lon="-2.955733">
        <ele>1149.0</ele>
        <time>2014-04-19T13:33:49Z</time>
      </trkpt>
      <trkpt lat="43.044467" lon="-2.955783">
        <ele>1149.0</ele>
        <time>2014-04-19T13:33:50Z</time>
      </trkpt>
      <trkpt lat="43.044400" lon="-2.955833">
        <ele>1148.0</ele>
        <time>2014-04-19T13:33:51Z</time>
      </trkpt>
      <trkpt lat="43.044333" lon="-2.955917">
        <ele>1147.0</ele>
        <time>2014-04-19T13:33:52Z</time>
      </trkpt>
      <trkpt lat="43.044267" lon="-2.956000">
        <ele>1145.0</ele>
        <time>2014-04-19T13:33:53Z</time>
      </trkpt>
      <trkpt lat="43.044200" lon="-2.956083">
        <ele>1144.0</ele>
        <time>2014-04-19T13:33:54Z</time>
      </trkpt>
      <trkpt lat="43.044133" lon="-2.956167">
        <ele>1144.0</ele>
        <time>2014-04-19T13:33:55Z</time>
      </trkpt>
      <trkpt lat="43.044067" lon="-2.956250">
        <ele>1144.0</ele>
        <time>2014-04-19T13:33:56Z</time>
      </trkpt>
      <trkpt lat="43.044000" lon="-2.956333">
        <ele>1143.0</ele>
        <time>2014-04-19T13:33:57Z</time>
      </trkpt>
      <trkpt lat="43.043933" lon="-2.956417">
        <ele>1143.0</ele>
        <time>2014-04-19T13:33:58Z</time>
      </trkpt>
      <trkpt lat="43.043850" lon="-2.956483">
        <ele>1143.0</ele>
        <time>2014-04-19T13:33:59Z</time>
      </trkpt>
      <trkpt lat="43.043767" lon="-2.956550">
        <ele>1142.0</ele>
        <time>2014-04-19T13:34:00Z</time>
      </trkpt>
      <trkpt lat="43.043683" lon="-2.956617">
        <ele>1142.0</ele>
        <time>2014-04-19T13:34:01Z</time>
      </trkpt>
      <trkpt lat="43.043600" lon="-2.956683">
        <ele>1142.0</ele>
        <time>2014-04-19T13:34:02Z</time>
      </trkpt>
      <trkpt lat="43.043517" lon="-2.956767">
        <ele>1142.0</ele>
        <time>2014-04-19T13:34:03Z</time>
      </trkpt>
      <trkpt lat="43.043433" lon="-2.956833">
        <ele>1143.0</ele>
        <time>2014-04-19T13:34:04Z</time>
      </trkpt>
      <trkpt lat="43.043350" lon="-2.956917">
        <ele>1144.0</ele>
        <time>2014-04-19T13:34:05Z</time>
      </trkpt>
      <trkpt lat="43.043300" lon="-2.957000">
        <ele>1144.0</ele>
        <time>2014-04-19T13:34:06Z</time>
      </trkpt>
      <trkpt lat="43.043233" lon="-2.957083">
        <ele>1144.0</ele>
        <time>2014-04-19T13:34:07Z</time>
      </trkpt>
      <trkpt lat="43.043167" lon="-2.957183">
        <ele>1144.0</ele>
        <time>2014-04-19T13:34:08Z</time>
      </trkpt>
      <trkpt lat="43.043083" lon="-2.957267">
        <ele>1143.0</ele>
        <time>2014-04-19T13:34:09Z</time>
      </trkpt>
      <trkpt lat="43.043000" lon="-2.957367">
        <ele>1143.0</ele>
        <time>2014-04-19T13:34:10Z</time>
      </trkpt>
      <trkpt lat="43.042917" lon="-2.957450">
        <ele>1143.0</ele>
        <time>2014-04-19T13:34:11Z</time>
      </trkpt>
      <trkpt lat="43.042833" lon="-2.957517">
        <ele>1144.0</ele>
        <time>2014-04-19T13:34:12Z</time>
      </trkpt>
      <trkpt lat="43.042767" lon="-2.957583">
        <ele>1145.0</ele>
        <time>2014-04-19T13:34:13Z</time>
      </trkpt>
      <trkpt lat="43.042683" lon="-2.957650">
        <ele>1144.0</ele>
        <time>2014-04-19T13:34:14Z</time>
      </trkpt>
      <trkpt lat="43.042583" lon="-2.957717">
        <ele>1144.0</ele>
        <time>2014-04-19T13:34:15Z</time>
      </trkpt>
      <trkpt lat="43.042500" lon="-2.957783">
        <ele>1143.0</ele>
        <time>2014-04-19T13:34:16Z</time>
      </trkpt>
      <trkpt lat="43.042400" lon="-2.957850">
        <ele>1141.0</ele>
        <time>2014-04-19T13:34:17Z</time>
      </trkpt>
      <trkpt lat="43.042300" lon="-2.957917">
        <ele>1140.0</ele>
        <time>2014-04-19T13:34:18Z</time>
      </trkpt>
      <trkpt lat="43.042200" lon="-2.957983">
        <ele>1140.0</ele>
        <time>2014-04-19T13:34:19Z</time>
      </trkpt>
      <trkpt lat="43.042100" lon="-2.958067">
        <ele>1139.0</ele>
        <time>2014-04-19T13:34:20Z</time>
      </trkpt>
      <trkpt lat="43.042017" lon="-2.958150">
        <ele>1139.0</ele>
        <time>2014-04-19T13:34:21Z</time>
      </trkpt>
      <trkpt lat="43.041933" lon="-2.958233">
        <ele>1138.0</ele>
        <time>2014-04-19T13:34:22Z</time>
      </trkpt>
      <trkpt lat="43.041850" lon="-2.958317">
        <ele>1138.0</ele>
        <time>2014-04-19T13:34:23Z</time>
      </trkpt>
      <trkpt lat="43.041783" lon="-2.958400">
        <ele>1137.0</ele>
        <time>2014-04-19T13:34:24Z</time>
      </trkpt>
      <trkpt lat="43.041700" lon="-2.958467">
        <ele>1137.0</ele>
        <time>2014-04-19T13:34:25Z</time>
      </trkpt>
      <trkpt lat="43.041617" lon="-2.958550">
        <ele>1137.0</ele>
        <time>2014-04-19T13:34:26Z</time>
      </trkpt>
      <trkpt lat="43.041550" lon="-2.958617">
        <ele>1137.0</ele>
        <time>2014-04-19T13:34:27Z</time>
      </trkpt>
      <trkpt lat="43.041483" lon="-2.958700">
        <ele>1137.0</ele>
        <time>2014-04-19T13:34:28Z</time>
      </trkpt>
      <trkpt lat="43.041417" lon="-2.958783">
        <ele>1137.0</ele>
        <time>2014-04-19T13:34:29Z</time>
      </trkpt>
      <trkpt lat="43.041333" lon="-2.958867">
        <ele>1138.0</ele>
        <time>2014-04-19T13:34:30Z</time>
      </trkpt>
      <trkpt lat="43.041267" lon="-2.958933">
        <ele>1138.0</ele>
        <time>2014-04-19T13:34:31Z</time>
      </trkpt>
      <trkpt lat="43.041200" lon="-2.958983">
        <ele>1139.0</ele>
        <time>2014-04-19T13:34:32Z</time>
      </trkpt>
      <trkpt lat="43.041133" lon="-2.959033">
        <ele>1140.0</ele>
        <time>2014-04-19T13:34:33Z</time>
      </trkpt>
      <trkpt lat="43.041067" lon="-2.959083">
        <ele>1140.0</ele>
        <time>2014-04-19T13:34:34Z</time>
      </trkpt>
      <trkpt lat="43.041000" lon="-2.959150">
        <ele>1139.0</ele>
        <time>2014-04-19T13:34:35Z</time>
      </trkpt>
      <trkpt lat="43.040917" lon="-2.959200">
        <ele>1137.0</ele>
        <time>2014-04-19T13:34:36Z</time>
      </trkpt>
      <trkpt lat="43.040833" lon="-2.959267">
        <ele>1136.0</ele>
        <time>2014-04-19T13:34:37Z</time>
      </trkpt>
      <trkpt lat="43.040750" lon="-2.959317">
        <ele>1135.0</ele>
        <time>2014-04-19T13:34:38Z</time>
      </trkpt>
      <trkpt lat="43.040667" lon="-2.959367">
        <ele>1134.0</ele>
        <time>2014-04-19T13:34:39Z</time>
      </trkpt>
      <trkpt lat="43.040583" lon="-2.959417">
        <ele>1134.0</ele>
        <time>2014-04-19T13:34:40Z</time>
      </trkpt>
      <trkpt lat="43.040517" lon="-2.959450">
        <ele>1133.0</ele>
        <time>2014-04-19T13:34:41Z</time>
      </trkpt>
      <trkpt lat="43.040433" lon="-2.959500">
        <ele>1132.0</ele>
        <time>2014-04-19T13:34:42Z</time>
      </trkpt>
      <trkpt lat="43.040333" lon="-2.959550">
        <ele>1130.0</ele>
        <time>2014-04-19T13:34:43Z</time>
      </trkpt>
      <trkpt lat="43.040250" lon="-2.959633">
        <ele>1128.0</ele>
        <time>2014-04-19T13:34:44Z</time>
      </trkpt>
      <trkpt lat="43.040183" lon="-2.959717">
        <ele>1127.0</ele>
        <time>2014-04-19T13:34:45Z</time>
      </trkpt>
      <trkpt lat="43.040117" lon="-2.959783">
        <ele>1126.0</ele>
        <time>2014-04-19T13:34:46Z</time>
      </trkpt>
      <trkpt lat="43.040033" lon="-2.959867">
        <ele>1125.0</ele>
        <time>2014-04-19T13:34:47Z</time>
      </trkpt>
      <trkpt lat="43.039950" lon="-2.959933">
        <ele>1124.0</ele>
        <time>2014-04-19T13:34:48Z</time>
      </trkpt>
      <trkpt lat="43.039850" lon="-2.959983">
        <ele>1123.0</ele>
        <time>2014-04-19T13:34:49Z</time>
      </trkpt>
      <trkpt lat="43.039750" lon="-2.960000">
        <ele>1123.0</ele>
        <time>2014-04-19T13:34:50Z</time>
      </trkpt>
      <trkpt lat="43.039667" lon="-2.960033">
        <ele>1121.0</ele>
        <time>2014-04-19T13:34:51Z</time>
      </trkpt>
      <trkpt lat="43.039567" lon="-2.960067">
        <ele>1120.0</ele>
        <time>2014-04-19T13:34:52Z</time>
      </trkpt>
      <trkpt lat="43.039467" lon="-2.960117">
        <ele>1119.0</ele>
        <time>2014-04-19T13:34:53Z</time>
      </trkpt>
      <trkpt lat="43.039367" lon="-2.960183">
        <ele>1117.0</ele>
        <time>2014-04-19T13:34:54Z</time>
      </trkpt>
      <trkpt lat="43.039267" lon="-2.960250">
        <ele>1116.0</ele>
        <time>2014-04-19T13:34:55Z</time>
      </trkpt>
      <trkpt lat="43.039167" lon="-2.960300">
        <ele>1115.0</ele>
        <time>2014-04-19T13:34:56Z</time>
      </trkpt>
      <trkpt lat="43.039067" lon="-2.960350">
        <ele>1114.0</ele>
        <time>2014-04-19T13:34:57Z</time>
      </trkpt>
      <trkpt lat="43.038967" lon="-2.960400">
        <ele>1113.0</ele>
        <time>2014-04-19T13:34:58Z</time>
      </trkpt>
      <trkpt lat="43.038867" lon="-2.960467">
        <ele>1112.0</ele>
        <time>2014-04-19T13:34:59Z</time>
      </trkpt>
      <trkpt lat="43.038783" lon="-2.960517">
        <ele>1111.0</ele>
        <time>2014-04-19T13:35:00Z</time>
      </trkpt>
      <trkpt lat="43.038683" lon="-2.960550">
        <ele>1110.0</ele>
        <time>2014-04-19T13:35:01Z</time>
      </trkpt>
      <trkpt lat="43.038583" lon="-2.960583">
        <ele>1110.0</ele>
        <time>2014-04-19T13:35:02Z</time>
      </trkpt>
      <trkpt lat="43.038500" lon="-2.960583">
        <ele>1110.0</ele>
        <time>2014-04-19T13:35:03Z</time>
      </trkpt>
      <trkpt lat="43.038400" lon="-2.960600">
        <ele>1108.0</ele>
        <time>2014-04-19T13:35:04Z</time>
      </trkpt>
      <trkpt lat="43.038300" lon="-2.960617">
        <ele>1106.0</ele>
        <time>2014-04-19T13:35:05Z</time>
      </trkpt>
      <trkpt lat="43.038200" lon="-2.960650">
        <ele>1104.0</ele>
        <time>2014-04-19T13:35:06Z</time>
      </trkpt>
      <trkpt lat="43.038100" lon="-2.960700">
        <ele>1103.0</ele>
        <time>2014-04-19T13:35:07Z</time>
      </trkpt>
      <trkpt lat="43.038000" lon="-2.960750">
        <ele>1101.0</ele>
        <time>2014-04-19T13:35:08Z</time>
      </trkpt>
      <trkpt lat="43.037917" lon="-2.960783">
        <ele>1100.0</ele>
        <time>2014-04-19T13:35:09Z</time>
      </trkpt>
      <trkpt lat="43.037833" lon="-2.960817">
        <ele>1098.0</ele>
        <time>2014-04-19T13:35:10Z</time>
      </trkpt>
      <trkpt lat="43.037750" lon="-2.960867">
        <ele>1096.0</ele>
        <time>2014-04-19T13:35:11Z</time>
      </trkpt>
      <trkpt lat="43.037650" lon="-2.960917">
        <ele>1093.0</ele>
        <time>2014-04-19T13:35:12Z</time>
      </trkpt>
      <trkpt lat="43.037550" lon="-2.960967">
        <ele>1089.0</ele>
        <time>2014-04-19T13:35:13Z</time>
      </trkpt>
      <trkpt lat="43.037450" lon="-2.961000">
        <ele>1086.0</ele>
        <time>2014-04-19T13:35:14Z</time>
      </trkpt>
      <trkpt lat="43.037350" lon="-2.961050">
        <ele>1085.0</ele>
        <time>2014-04-19T13:35:15Z</time>
      </trkpt>
      <trkpt lat="43.037267" lon="-2.961083">
        <ele>1083.0</ele>
        <time>2014-04-19T13:35:16Z</time>
      </trkpt>
      <trkpt lat="43.037183" lon="-2.961150">
        <ele>1081.0</ele>
        <time>2014-04-19T13:35:17Z</time>
      </trkpt>
      <trkpt lat="43.037100" lon="-2.961217">
        <ele>1079.0</ele>
        <time>2014-04-19T13:35:18Z</time>
      </trkpt>
      <trkpt lat="43.037000" lon="-2.961283">
        <ele>1077.0</ele>
        <time>2014-04-19T13:35:19Z</time>
      </trkpt>
      <trkpt lat="43.036900" lon="-2.961350">
        <ele>1074.0</ele>
        <time>2014-04-19T13:35:20Z</time>
      </trkpt>
      <trkpt lat="43.036800" lon="-2.961417">
        <ele>1072.0</ele>
        <time>2014-04-19T13:35:21Z</time>
      </trkpt>
      <trkpt lat="43.036700" lon="-2.961483">
        <ele>1071.0</ele>
        <time>2014-04-19T13:35:22Z</time>
      </trkpt>
      <trkpt lat="43.036617" lon="-2.961550">
        <ele>1070.0</ele>
        <time>2014-04-19T13:35:23Z</time>
      </trkpt>
      <trkpt lat="43.036517" lon="-2.961617">
        <ele>1069.0</ele>
        <time>2014-04-19T13:35:24Z</time>
      </trkpt>
      <trkpt lat="43.036433" lon="-2.961700">
        <ele>1068.0</ele>
        <time>2014-04-19T13:35:25Z</time>
      </trkpt>
      <trkpt lat="43.036333" lon="-2.961783">
        <ele>1066.0</ele>
        <time>2014-04-19T13:35:26Z</time>
      </trkpt>
      <trkpt lat="43.036233" lon="-2.961867">
        <ele>1066.0</ele>
        <time>2014-04-19T13:35:27Z</time>
      </trkpt>
      <trkpt lat="43.036150" lon="-2.961950">
        <ele>1066.0</ele>
        <time>2014-04-19T13:35:28Z</time>
      </trkpt>
      <trkpt lat="43.036083" lon="-2.962050">
        <ele>1065.0</ele>
        <time>2014-04-19T13:35:29Z</time>
      </trkpt>
      <trkpt lat="43.036000" lon="-2.962133">
        <ele>1064.0</ele>
        <time>2014-04-19T13:35:30Z</time>
      </trkpt>
      <trkpt lat="43.035917" lon="-2.962233">
        <ele>1063.0</ele>
        <time>2014-04-19T13:35:31Z</time>
      </trkpt>
      <trkpt lat="43.035833" lon="-2.962333">
        <ele>1061.0</ele>
        <time>2014-04-19T13:35:32Z</time>
      </trkpt>
      <trkpt lat="43.035733" lon="-2.962417">
        <ele>1060.0</ele>
        <time>2014-04-19T13:35:33Z</time>
      </trkpt>
      <trkpt lat="43.035633" lon="-2.962517">
        <ele>1061.0</ele>
        <time>2014-04-19T13:35:34Z</time>
      </trkpt>
      <trkpt lat="43.035550" lon="-2.962617">
        <ele>1061.0</ele>
        <time>2014-04-19T13:35:35Z</time>
      </trkpt>
      <trkpt lat="43.035483" lon="-2.962717">
        <ele>1060.0</ele>
        <time>2014-04-19T13:35:36Z</time>
      </trkpt>
      <trkpt lat="43.035400" lon="-2.962800">
        <ele>1060.0</ele>
        <time>2014-04-19T13:35:37Z</time>
      </trkpt>
      <trkpt lat="43.035333" lon="-2.962900">
        <ele>1060.0</ele>
        <time>2014-04-19T13:35:38Z</time>
      </trkpt>
      <trkpt lat="43.035250" lon="-2.962983">
        <ele>1059.0</ele>
        <time>2014-04-19T13:35:39Z</time>
      </trkpt>
      <trkpt lat="43.035167" lon="-2.963067">
        <ele>1058.0</ele>
        <time>2014-04-19T13:35:40Z</time>
      </trkpt>
      <trkpt lat="43.035083" lon="-2.963167">
        <ele>1057.0</ele>
        <time>2014-04-19T13:35:41Z</time>
      </trkpt>
      <trkpt lat="43.035017" lon="-2.963250">
        <ele>1056.0</ele>
        <time>2014-04-19T13:35:42Z</time>
      </trkpt>
      <trkpt lat="43.034933" lon="-2.963333">
        <ele>1055.0</ele>
        <time>2014-04-19T13:35:43Z</time>
      </trkpt>
      <trkpt lat="43.034867" lon="-2.963417">
        <ele>1054.0</ele>
        <time>2014-04-19T13:35:44Z</time>
      </trkpt>
      <trkpt lat="43.034783" lon="-2.963500">
        <ele>1053.0</ele>
        <time>2014-04-19T13:35:45Z</time>
      </trkpt>
      <trkpt lat="43.034700" lon="-2.963600">
        <ele>1050.0</ele>
        <time>2014-04-19T13:35:46Z</time>
      </trkpt>
      <trkpt lat="43.034617" lon="-2.963700">
        <ele>1048.0</ele>
        <time>2014-04-19T13:35:47Z</time>
      </trkpt>
      <trkpt lat="43.034533" lon="-2.963800">
        <ele>1046.0</ele>
        <time>2014-04-19T13:35:48Z</time>
      </trkpt>
      <trkpt lat="43.034450" lon="-2.963900">
        <ele>1045.0</ele>
        <time>2014-04-19T13:35:49Z</time>
      </trkpt>
      <trkpt lat="43.034367" lon="-2.963983">
        <ele>1044.0</ele>
        <time>2014-04-19T13:35:50Z</time>
      </trkpt>
      <trkpt lat="43.034300" lon="-2.964067">
        <ele>1044.0</ele>
        <time>2014-04-19T13:35:51Z</time>
      </trkpt>
      <trkpt lat="43.034217" lon="-2.964150">
        <ele>1043.0</ele>
        <time>2014-04-19T13:35:52Z</time>
      </trkpt>
      <trkpt lat="43.034150" lon="-2.964233">
        <ele>1041.0</ele>
        <time>2014-04-19T13:35:53Z</time>
      </trkpt>
      <trkpt lat="43.034067" lon="-2.964317">
        <ele>1041.0</ele>
        <time>2014-04-19T13:35:54Z</time>
      </trkpt>
      <trkpt lat="43.033983" lon="-2.964417">
        <ele>1040.0</ele>
        <time>2014-04-19T13:35:55Z</time>
      </trkpt>
      <trkpt lat="43.033917" lon="-2.964483">
        <ele>1040.0</ele>
        <time>2014-04-19T13:35:56Z</time>
      </trkpt>
      <trkpt lat="43.033850" lon="-2.964583">
        <ele>1040.0</ele>
        <time>2014-04-19T13:35:57Z</time>
      </trkpt>
      <trkpt lat="43.033767" lon="-2.964683">
        <ele>1040.0</ele>
        <time>2014-04-19T13:35:58Z</time>
      </trkpt>
      <trkpt lat="43.033683" lon="-2.964783">
        <ele>1039.0</ele>
        <time>2014-04-19T13:35:59Z</time>
      </trkpt>
      <trkpt lat="43.033583" lon="-2.964900">
        <ele>1039.0</ele>
        <time>2014-04-19T13:36:00Z</time>
      </trkpt>
      <trkpt lat="43.033483" lon="-2.964983">
        <ele>1041.0</ele>
        <time>2014-04-19T13:36:01Z</time>
      </trkpt>
      <trkpt lat="43.033400" lon="-2.965067">
        <ele>1044.0</ele>
        <time>2014-04-19T13:36:02Z</time>
      </trkpt>
      <trkpt lat="43.033317" lon="-2.965133">
        <ele>1046.0</ele>
        <time>2014-04-19T13:36:03Z</time>
      </trkpt>
      <trkpt lat="43.033233" lon="-2.965217">
        <ele>1047.0</ele>
        <time>2014-04-19T13:36:04Z</time>
      </trkpt>
      <trkpt lat="43.033167" lon="-2.965317">
        <ele>1047.0</ele>
        <time>2014-04-19T13:36:05Z</time>
      </trkpt>
      <trkpt lat="43.033117" lon="-2.965450">
        <ele>1047.0</ele>
        <time>2014-04-19T13:36:06Z</time>
      </trkpt>
      <trkpt lat="43.033100" lon="-2.965583">
        <ele>1047.0</ele>
        <time>2014-04-19T13:36:07Z</time>
      </trkpt>
      <trkpt lat="43.033117" lon="-2.965717">
        <ele>1047.0</ele>
        <time>2014-04-19T13:36:08Z</time>
      </trkpt>
      <trkpt lat="43.033167" lon="-2.965800">
        <ele>1047.0</ele>
        <time>2014-04-19T13:36:09Z</time>
      </trkpt>
      <trkpt lat="43.033200" lon="-2.965850">
        <ele>1048.0</ele>
        <time>2014-04-19T13:36:10Z</time>
      </trkpt>
      <trkpt lat="43.033250" lon="-2.965867">
        <ele>1049.0</ele>
        <time>2014-04-19T13:36:11Z</time>
      </trkpt>
      <trkpt lat="43.033300" lon="-2.965883">
        <ele>1050.0</ele>
        <time>2014-04-19T13:36:12Z</time>
      </trkpt>
      <trkpt lat="43.033350" lon="-2.965867">
        <ele>1050.0</ele>
        <time>2014-04-19T13:36:13Z</time>
      </trkpt>
      <trkpt lat="43.033400" lon="-2.965850">
        <ele>1051.0</ele>
        <time>2014-04-19T13:36:14Z</time>
      </trkpt>
      <trkpt lat="43.033433" lon="-2.965817">
        <ele>1053.0</ele>
        <time>2014-04-19T13:36:15Z</time>
      </trkpt>
      <trkpt lat="43.033467" lon="-2.965750">
        <ele>1053.0</ele>
        <time>2014-04-19T13:36:16Z</time>
      </trkpt>
      <trkpt lat="43.033467" lon="-2.965667">
        <ele>1053.0</ele>
        <time>2014-04-19T13:36:17Z</time>
      </trkpt>
      <trkpt lat="43.033433" lon="-2.965567">
        <ele>1053.0</ele>
        <time>2014-04-19T13:36:18Z</time>
      </trkpt>
      <trkpt lat="43.033400" lon="-2.965467">
        <ele>1054.0</ele>
        <time>2014-04-19T13:36:19Z</time>
      </trkpt>
      <trkpt lat="43.033333" lon="-2.965400">
        <ele>1055.0</ele>
        <time>2014-04-19T13:36:20Z</time>
      </trkpt>
      <trkpt lat="43.033267" lon="-2.965350">
        <ele>1056.0</ele>
        <time>2014-04-19T13:36:21Z</time>
      </trkpt>
      <trkpt lat="43.033167" lon="-2.965300">
        <ele>1056.0</ele>
        <time>2014-04-19T13:36:22Z</time>
      </trkpt>
      <trkpt lat="43.033067" lon="-2.965267">
        <ele>1055.0</ele>
        <time>2014-04-19T13:36:23Z</time>
      </trkpt>
      <trkpt lat="43.032950" lon="-2.965250">
        <ele>1055.0</ele>
        <time>2014-04-19T13:36:24Z</time>
      </trkpt>
      <trkpt lat="43.032833" lon="-2.965250">
        <ele>1055.0</ele>
        <time>2014-04-19T13:36:25Z</time>
      </trkpt>
      <trkpt lat="43.032717" lon="-2.965267">
        <ele>1057.0</ele>
        <time>2014-04-19T13:36:26Z</time>
      </trkpt>
      <trkpt lat="43.032600" lon="-2.965350">
        <ele>1058.0</ele>
        <time>2014-04-19T13:36:27Z</time>
      </trkpt>
      <trkpt lat="43.032517" lon="-2.965450">
        <ele>1059.0</ele>
        <time>2014-04-19T13:36:28Z</time>
      </trkpt>
      <trkpt lat="43.032467" lon="-2.965567">
        <ele>1061.0</ele>
        <time>2014-04-19T13:36:29Z</time>
      </trkpt>
      <trkpt lat="43.032433" lon="-2.965683">
        <ele>1062.0</ele>
        <time>2014-04-19T13:36:30Z</time>
      </trkpt>
      <trkpt lat="43.032417" lon="-2.965817">
        <ele>1064.0</ele>
        <time>2014-04-19T13:36:31Z</time>
      </trkpt>
      <trkpt lat="43.032417" lon="-2.965933">
        <ele>1065.0</ele>
        <time>2014-04-19T13:36:32Z</time>
      </trkpt>
      <trkpt lat="43.032450" lon="-2.966017">
        <ele>1068.0</ele>
        <time>2014-04-19T13:36:33Z</time>
      </trkpt>
      <trkpt lat="43.032483" lon="-2.966067">
        <ele>1070.0</ele>
        <time>2014-04-19T13:36:34Z</time>
      </trkpt>
      <trkpt lat="43.032533" lon="-2.966083">
        <ele>1070.0</ele>
        <time>2014-04-19T13:36:35Z</time>
      </trkpt>
      <trkpt lat="43.032567" lon="-2.966117">
        <ele>1071.0</ele>
        <time>2014-04-19T13:36:36Z</time>
      </trkpt>
      <trkpt lat="43.032617" lon="-2.966133">
        <ele>1071.0</ele>
        <time>2014-04-19T13:36:37Z</time>
      </trkpt>
      <trkpt lat="43.032650" lon="-2.966117">
        <ele>1072.0</ele>
        <time>2014-04-19T13:36:38Z</time>
      </trkpt>
      <trkpt lat="43.032683" lon="-2.966083">
        <ele>1072.0</ele>
        <time>2014-04-19T13:36:39Z</time>
      </trkpt>
      <trkpt lat="43.032700" lon="-2.966000">
        <ele>1072.0</ele>
        <time>2014-04-19T13:36:40Z</time>
      </trkpt>
      <trkpt lat="43.032700" lon="-2.965900">
        <ele>1072.0</ele>
        <time>2014-04-19T13:36:41Z</time>
      </trkpt>
      <trkpt lat="43.032667" lon="-2.965800">
        <ele>1071.0</ele>
        <time>2014-04-19T13:36:42Z</time>
      </trkpt>
      <trkpt lat="43.032617" lon="-2.965717">
        <ele>1074.0</ele>
        <time>2014-04-19T13:36:43Z</time>
      </trkpt>
      <trkpt lat="43.032550" lon="-2.965633">
        <ele>1075.0</ele>
        <time>2014-04-19T13:36:44Z</time>
      </trkpt>
      <trkpt lat="43.032450" lon="-2.965583">
        <ele>1076.0</ele>
        <time>2014-04-19T13:36:45Z</time>
      </trkpt>
      <trkpt lat="43.032350" lon="-2.965533">
        <ele>1076.0</ele>
        <time>2014-04-19T13:36:46Z</time>
      </trkpt>
      <trkpt lat="43.032233" lon="-2.965517">
        <ele>1077.0</ele>
        <time>2014-04-19T13:36:47Z</time>
      </trkpt>
      <trkpt lat="43.032117" lon="-2.965533">
        <ele>1077.0</ele>
        <time>2014-04-19T13:36:48Z</time>
      </trkpt>
      <trkpt lat="43.032000" lon="-2.965583">
        <ele>1079.0</ele>
        <time>2014-04-19T13:36:49Z</time>
      </trkpt>
      <trkpt lat="43.031900" lon="-2.965667">
        <ele>1080.0</ele>
        <time>2014-04-19T13:36:50Z</time>
      </trkpt>
      <trkpt lat="43.031833" lon="-2.965783">
        <ele>1081.0</ele>
        <time>2014-04-19T13:36:51Z</time>
      </trkpt>
      <trkpt lat="43.031783" lon="-2.965900">
        <ele>1082.0</ele>
        <time>2014-04-19T13:36:52Z</time>
      </trkpt>
      <trkpt lat="43.031767" lon="-2.966017">
        <ele>1083.0</ele>
        <time>2014-04-19T13:36:53Z</time>
      </trkpt>
      <trkpt lat="43.031767" lon="-2.966117">
        <ele>1084.0</ele>
        <time>2014-04-19T13:36:54Z</time>
      </trkpt>
      <trkpt lat="43.031783" lon="-2.966200">
        <ele>1085.0</ele>
        <time>2014-04-19T13:36:55Z</time>
      </trkpt>
      <trkpt lat="43.031817" lon="-2.966250">
        <ele>1085.0</ele>
        <time>2014-04-19T13:36:56Z</time>
      </trkpt>
      <trkpt lat="43.031867" lon="-2.966283">
        <ele>1086.0</ele>
        <time>2014-04-19T13:36:57Z</time>
      </trkpt>
      <trkpt lat="43.031900" lon="-2.966283">
        <ele>1086.0</ele>
        <time>2014-04-19T13:36:58Z</time>
      </trkpt>
      <trkpt lat="43.031933" lon="-2.966250">
        <ele>1086.0</ele>
        <time>2014-04-19T13:36:59Z</time>
      </trkpt>
      <trkpt lat="43.031950" lon="-2.966200">
        <ele>1086.0</ele>
        <time>2014-04-19T13:37:00Z</time>
      </trkpt>
      <trkpt lat="43.031967" lon="-2.966117">
        <ele>1086.0</ele>
        <time>2014-04-19T13:37:01Z</time>
      </trkpt>
      <trkpt lat="43.031933" lon="-2.966017">
        <ele>1086.0</ele>
        <time>2014-04-19T13:37:02Z</time>
      </trkpt>
      <trkpt lat="43.031883" lon="-2.965917">
        <ele>1087.0</ele>
        <time>2014-04-19T13:37:03Z</time>
      </trkpt>
      <trkpt lat="43.031800" lon="-2.965850">
        <ele>1088.0</ele>
        <time>2014-04-19T13:37:04Z</time>
      </trkpt>
      <trkpt lat="43.031700" lon="-2.965783">
        <ele>1089.0</ele>
        <time>2014-04-19T13:37:05Z</time>
      </trkpt>
      <trkpt lat="43.031600" lon="-2.965733">
        <ele>1091.0</ele>
        <time>2014-04-19T13:37:06Z</time>
      </trkpt>
      <trkpt lat="43.031500" lon="-2.965717">
        <ele>1092.0</ele>
        <time>2014-04-19T13:37:07Z</time>
      </trkpt>
      <trkpt lat="43.031383" lon="-2.965700">
        <ele>1093.0</ele>
        <time>2014-04-19T13:37:08Z</time>
      </trkpt>
      <trkpt lat="43.031267" lon="-2.965700">
        <ele>1094.0</ele>
        <time>2014-04-19T13:37:09Z</time>
      </trkpt>
      <trkpt lat="43.031167" lon="-2.965717">
        <ele>1094.0</ele>
        <time>2014-04-19T13:37:10Z</time>
      </trkpt>
      <trkpt lat="43.031067" lon="-2.965767">
        <ele>1096.0</ele>
        <time>2014-04-19T13:37:11Z</time>
      </trkpt>
      <trkpt lat="43.030967" lon="-2.965833">
        <ele>1097.0</ele>
        <time>2014-04-19T13:37:12Z</time>
      </trkpt>
      <trkpt lat="43.030900" lon="-2.965933">
        <ele>1098.0</ele>
        <time>2014-04-19T13:37:13Z</time>
      </trkpt>
      <trkpt lat="43.030833" lon="-2.966050">
        <ele>1098.0</ele>
        <time>2014-04-19T13:37:14Z</time>
      </trkpt>
      <trkpt lat="43.030800" lon="-2.966167">
        <ele>1099.0</ele>
        <time>2014-04-19T13:37:15Z</time>
      </trkpt>
      <trkpt lat="43.030800" lon="-2.966283">
        <ele>1099.0</ele>
        <time>2014-04-19T13:37:16Z</time>
      </trkpt>
      <trkpt lat="43.030817" lon="-2.966383">
        <ele>1100.0</ele>
        <time>2014-04-19T13:37:17Z</time>
      </trkpt>
      <trkpt lat="43.030850" lon="-2.966467">
        <ele>1100.0</ele>
        <time>2014-04-19T13:37:18Z</time>
      </trkpt>
      <trkpt lat="43.030883" lon="-2.966517">
        <ele>1100.0</ele>
        <time>2014-04-19T13:37:19Z</time>
      </trkpt>
      <trkpt lat="43.030933" lon="-2.966550">
        <ele>1100.0</ele>
        <time>2014-04-19T13:37:20Z</time>
      </trkpt>
      <trkpt lat="43.030967" lon="-2.966550">
        <ele>1100.0</ele>
        <time>2014-04-19T13:37:21Z</time>
      </trkpt>
      <trkpt lat="43.031000" lon="-2.966533">
        <ele>1101.0</ele>
        <time>2014-04-19T13:37:22Z</time>
      </trkpt>
      <trkpt lat="43.031017" lon="-2.966483">
        <ele>1100.0</ele>
        <time>2014-04-19T13:37:23Z</time>
      </trkpt>
      <trkpt lat="43.031017" lon="-2.966383">
        <ele>1100.0</ele>
        <time>2014-04-19T13:37:24Z</time>
      </trkpt>
      <trkpt lat="43.031000" lon="-2.966300">
        <ele>1100.0</ele>
        <time>2014-04-19T13:37:25Z</time>
      </trkpt>
      <trkpt lat="43.030967" lon="-2.966200">
        <ele>1100.0</ele>
        <time>2014-04-19T13:37:26Z</time>
      </trkpt>
      <trkpt lat="43.030917" lon="-2.966133">
        <ele>1101.0</ele>
        <time>2014-04-19T13:37:27Z</time>
      </trkpt>
      <trkpt lat="43.030850" lon="-2.966067">
        <ele>1101.0</ele>
        <time>2014-04-19T13:37:28Z</time>
      </trkpt>
      <trkpt lat="43.030767" lon="-2.966000">
        <ele>1102.0</ele>
        <time>2014-04-19T13:37:29Z</time>
      </trkpt>
      <trkpt lat="43.030667" lon="-2.965950">
        <ele>1101.0</ele>
        <time>2014-04-19T13:37:30Z</time>
      </trkpt>
      <trkpt lat="43.030567" lon="-2.965917">
        <ele>1101.0</ele>
        <time>2014-04-19T13:37:31Z</time>
      </trkpt>
      <trkpt lat="43.030483" lon="-2.965900">
        <ele>1101.0</ele>
        <time>2014-04-19T13:37:32Z</time>
      </trkpt>
      <trkpt lat="43.030383" lon="-2.965900">
        <ele>1102.0</ele>
        <time>2014-04-19T13:37:33Z</time>
      </trkpt>
      <trkpt lat="43.030283" lon="-2.965917">
        <ele>1103.0</ele>
        <time>2014-04-19T13:37:34Z</time>
      </trkpt>
      <trkpt lat="43.030183" lon="-2.965983">
        <ele>1102.0</ele>
        <time>2014-04-19T13:37:35Z</time>
      </trkpt>
      <trkpt lat="43.030100" lon="-2.966050">
        <ele>1102.0</ele>
        <time>2014-04-19T13:37:36Z</time>
      </trkpt>
      <trkpt lat="43.030033" lon="-2.966150">
        <ele>1101.0</ele>
        <time>2014-04-19T13:37:37Z</time>
      </trkpt>
      <trkpt lat="43.029967" lon="-2.966267">
        <ele>1101.0</ele>
        <time>2014-04-19T13:37:38Z</time>
      </trkpt>
      <trkpt lat="43.029933" lon="-2.966367">
        <ele>1100.0</ele>
        <time>2014-04-19T13:37:39Z</time>
      </trkpt>
      <trkpt lat="43.029900" lon="-2.966483">
        <ele>1100.0</ele>
        <time>2014-04-19T13:37:40Z</time>
      </trkpt>
      <trkpt lat="43.029900" lon="-2.966600">
        <ele>1098.0</ele>
        <time>2014-04-19T13:37:41Z</time>
      </trkpt>
      <trkpt lat="43.029917" lon="-2.966717">
        <ele>1096.0</ele>
        <time>2014-04-19T13:37:42Z</time>
      </trkpt>
      <trkpt lat="43.029933" lon="-2.966850">
        <ele>1095.0</ele>
        <time>2014-04-19T13:37:43Z</time>
      </trkpt>
      <trkpt lat="43.029950" lon="-2.966967">
        <ele>1095.0</ele>
        <time>2014-04-19T13:37:44Z</time>
      </trkpt>
      <trkpt lat="43.029933" lon="-2.967083">
        <ele>1097.0</ele>
        <time>2014-04-19T13:37:45Z</time>
      </trkpt>
      <trkpt lat="43.029883" lon="-2.967183">
        <ele>1099.0</ele>
        <time>2014-04-19T13:37:46Z</time>
      </trkpt>
      <trkpt lat="43.029833" lon="-2.967300">
        <ele>1099.0</ele>
        <time>2014-04-19T13:37:47Z</time>
      </trkpt>
      <trkpt lat="43.029783" lon="-2.967433">
        <ele>1098.0</ele>
        <time>2014-04-19T13:37:48Z</time>
      </trkpt>
      <trkpt lat="43.029733" lon="-2.967567">
        <ele>1097.0</ele>
        <time>2014-04-19T13:37:49Z</time>
      </trkpt>
      <trkpt lat="43.029667" lon="-2.967683">
        <ele>1096.0</ele>
        <time>2014-04-19T13:37:50Z</time>
      </trkpt>
      <trkpt lat="43.029583" lon="-2.967767">
        <ele>1096.0</ele>
        <time>2014-04-19T13:37:51Z</time>
      </trkpt>
      <trkpt lat="43.029483" lon="-2.967833">
        <ele>1096.0</ele>
        <time>2014-04-19T13:37:52Z</time>
      </trkpt>
      <trkpt lat="43.029367" lon="-2.967883">
        <ele>1095.0</ele>
        <time>2014-04-19T13:37:53Z</time>
      </trkpt>
      <trkpt lat="43.029233" lon="-2.967900">
        <ele>1094.0</ele>
        <time>2014-04-19T13:37:54Z</time>
      </trkpt>
      <trkpt lat="43.029117" lon="-2.967950">
        <ele>1094.0</ele>
        <time>2014-04-19T13:37:55Z</time>
      </trkpt>
      <trkpt lat="43.029000" lon="-2.967983">
        <ele>1095.0</ele>
        <time>2014-04-19T13:37:56Z</time>
      </trkpt>
      <trkpt lat="43.028883" lon="-2.968050">
        <ele>1095.0</ele>
        <time>2014-04-19T13:37:57Z</time>
      </trkpt>
      <trkpt lat="43.028783" lon="-2.968133">
        <ele>1095.0</ele>
        <time>2014-04-19T13:37:58Z</time>
      </trkpt>
      <trkpt lat="43.028700" lon="-2.968233">
        <ele>1095.0</ele>
        <time>2014-04-19T13:37:59Z</time>
      </trkpt>
      <trkpt lat="43.028600" lon="-2.968333">
        <ele>1093.0</ele>
        <time>2014-04-19T13:38:00Z</time>
      </trkpt>
      <trkpt lat="43.028483" lon="-2.968433">
        <ele>1092.0</ele>
        <time>2014-04-19T13:38:01Z</time>
      </trkpt>
      <trkpt lat="43.028367" lon="-2.968517">
        <ele>1090.0</ele>
        <time>2014-04-19T13:38:02Z</time>
      </trkpt>
      <trkpt lat="43.028250" lon="-2.968600">
        <ele>1088.0</ele>
        <time>2014-04-19T13:38:03Z</time>
      </trkpt>
      <trkpt lat="43.028133" lon="-2.968683">
        <ele>1088.0</ele>
        <time>2014-04-19T13:38:04Z</time>
      </trkpt>
      <trkpt lat="43.028033" lon="-2.968733">
        <ele>1088.0</ele>
        <time>2014-04-19T13:38:05Z</time>
      </trkpt>
      <trkpt lat="43.027917" lon="-2.968783">
        <ele>1089.0</ele>
        <time>2014-04-19T13:38:06Z</time>
      </trkpt>
      <trkpt lat="43.027800" lon="-2.968833">
        <ele>1089.0</ele>
        <time>2014-04-19T13:38:07Z</time>
      </trkpt>
      <trkpt lat="43.027700" lon="-2.968883">
        <ele>1089.0</ele>
        <time>2014-04-19T13:38:08Z</time>
      </trkpt>
      <trkpt lat="43.027583" lon="-2.968933">
        <ele>1089.0</ele>
        <time>2014-04-19T13:38:09Z</time>
      </trkpt>
      <trkpt lat="43.027467" lon="-2.969000">
        <ele>1089.0</ele>
        <time>2014-04-19T13:38:10Z</time>
      </trkpt>
      <trkpt lat="43.027350" lon="-2.969067">
        <ele>1089.0</ele>
        <time>2014-04-19T13:38:11Z</time>
      </trkpt>
      <trkpt lat="43.027233" lon="-2.969117">
        <ele>1089.0</ele>
        <time>2014-04-19T13:38:12Z</time>
      </trkpt>
      <trkpt lat="43.027117" lon="-2.969183">
        <ele>1088.0</ele>
        <time>2014-04-19T13:38:13Z</time>
      </trkpt>
      <trkpt lat="43.027000" lon="-2.969250">
        <ele>1088.0</ele>
        <time>2014-04-19T13:38:14Z</time>
      </trkpt>
      <trkpt lat="43.026883" lon="-2.969300">
        <ele>1088.0</ele>
        <time>2014-04-19T13:38:15Z</time>
      </trkpt>
      <trkpt lat="43.026783" lon="-2.969350">
        <ele>1087.0</ele>
        <time>2014-04-19T13:38:16Z</time>
      </trkpt>
      <trkpt lat="43.026667" lon="-2.969400">
        <ele>1086.0</ele>
        <time>2014-04-19T13:38:17Z</time>
      </trkpt>
      <trkpt lat="43.026533" lon="-2.969450">
        <ele>1085.0</ele>
        <time>2014-04-19T13:38:18Z</time>
      </trkpt>
      <trkpt lat="43.026417" lon="-2.969500">
        <ele>1084.0</ele>
        <time>2014-04-19T13:38:19Z</time>
      </trkpt>
      <trkpt lat="43.026300" lon="-2.969567">
        <ele>1084.0</ele>
        <time>2014-04-19T13:38:20Z</time>
      </trkpt>
      <trkpt lat="43.026183" lon="-2.969633">
        <ele>1085.0</ele>
        <time>2014-04-19T13:38:21Z</time>
      </trkpt>
      <trkpt lat="43.026083" lon="-2.969683">
        <ele>1087.0</ele>
        <time>2014-04-19T13:38:22Z</time>
      </trkpt>
      <trkpt lat="43.025983" lon="-2.969750">
        <ele>1088.0</ele>
        <time>2014-04-19T13:38:23Z</time>
      </trkpt>
      <trkpt lat="43.025900" lon="-2.969833">
        <ele>1089.0</ele>
        <time>2014-04-19T13:38:24Z</time>
      </trkpt>
      <trkpt lat="43.025833" lon="-2.969950">
        <ele>1089.0</ele>
        <time>2014-04-19T13:38:25Z</time>
      </trkpt>
      <trkpt lat="43.025783" lon="-2.970067">
        <ele>1089.0</ele>
        <time>2014-04-19T13:38:26Z</time>
      </trkpt>
      <trkpt lat="43.025767" lon="-2.970183">
        <ele>1090.0</ele>
        <time>2014-04-19T13:38:27Z</time>
      </trkpt>
      <trkpt lat="43.025783" lon="-2.970267">
        <ele>1091.0</ele>
        <time>2014-04-19T13:38:28Z</time>
      </trkpt>
      <trkpt lat="43.025800" lon="-2.970317">
        <ele>1092.0</ele>
        <time>2014-04-19T13:38:29Z</time>
      </trkpt>
      <trkpt lat="43.025833" lon="-2.970333">
        <ele>1094.0</ele>
        <time>2014-04-19T13:38:30Z</time>
      </trkpt>
      <trkpt lat="43.025867" lon="-2.970333">
        <ele>1095.0</ele>
        <time>2014-04-19T13:38:31Z</time>
      </trkpt>
      <trkpt lat="43.025900" lon="-2.970333">
        <ele>1096.0</ele>
        <time>2014-04-19T13:38:32Z</time>
      </trkpt>
      <trkpt lat="43.025933" lon="-2.970283">
        <ele>1097.0</ele>
        <time>2014-04-19T13:38:33Z</time>
      </trkpt>
      <trkpt lat="43.025950" lon="-2.970217">
        <ele>1099.0</ele>
        <time>2014-04-19T13:38:34Z</time>
      </trkpt>
      <trkpt lat="43.025933" lon="-2.970133">
        <ele>1100.0</ele>
        <time>2014-04-19T13:38:35Z</time>
      </trkpt>
      <trkpt lat="43.025900" lon="-2.970033">
        <ele>1101.0</ele>
        <time>2014-04-19T13:38:36Z</time>
      </trkpt>
      <trkpt lat="43.025850" lon="-2.969950">
        <ele>1101.0</ele>
        <time>2014-04-19T13:38:37Z</time>
      </trkpt>
      <trkpt lat="43.025783" lon="-2.969867">
        <ele>1101.0</ele>
        <time>2014-04-19T13:38:38Z</time>
      </trkpt>
      <trkpt lat="43.025700" lon="-2.969767">
        <ele>1101.0</ele>
        <time>2014-04-19T13:38:39Z</time>
      </trkpt>
      <trkpt lat="43.025600" lon="-2.969700">
        <ele>1100.0</ele>
        <time>2014-04-19T13:38:40Z</time>
      </trkpt>
      <trkpt lat="43.025500" lon="-2.969650">
        <ele>1100.0</ele>
        <time>2014-04-19T13:38:41Z</time>
      </trkpt>
      <trkpt lat="43.025383" lon="-2.969617">
        <ele>1101.0</ele>
        <time>2014-04-19T13:38:42Z</time>
      </trkpt>
      <trkpt lat="43.025250" lon="-2.969617">
        <ele>1101.0</ele>
        <time>2014-04-19T13:38:43Z</time>
      </trkpt>
      <trkpt lat="43.025133" lon="-2.969617">
        <ele>1102.0</ele>
        <time>2014-04-19T13:38:44Z</time>
      </trkpt>
      <trkpt lat="43.025017" lon="-2.969650">
        <ele>1103.0</ele>
        <time>2014-04-19T13:38:45Z</time>
      </trkpt>
      <trkpt lat="43.024917" lon="-2.969717">
        <ele>1105.0</ele>
        <time>2014-04-19T13:38:46Z</time>
      </trkpt>
      <trkpt lat="43.024817" lon="-2.969800">
        <ele>1106.0</ele>
        <time>2014-04-19T13:38:47Z</time>
      </trkpt>
      <trkpt lat="43.024733" lon="-2.969900">
        <ele>1107.0</ele>
        <time>2014-04-19T13:38:48Z</time>
      </trkpt>
      <trkpt lat="43.024667" lon="-2.970000">
        <ele>1108.0</ele>
        <time>2014-04-19T13:38:49Z</time>
      </trkpt>
      <trkpt lat="43.024617" lon="-2.970100">
        <ele>1109.0</ele>
        <time>2014-04-19T13:38:50Z</time>
      </trkpt>
      <trkpt lat="43.024583" lon="-2.970183">
        <ele>1111.0</ele>
        <time>2014-04-19T13:38:51Z</time>
      </trkpt>
      <trkpt lat="43.024550" lon="-2.970267">
        <ele>1112.0</ele>
        <time>2014-04-19T13:38:52Z</time>
      </trkpt>
      <trkpt lat="43.024533" lon="-2.970367">
        <ele>1112.0</ele>
        <time>2014-04-19T13:38:53Z</time>
      </trkpt>
      <trkpt lat="43.024517" lon="-2.970450">
        <ele>1111.0</ele>
        <time>2014-04-19T13:38:54Z</time>
      </trkpt>
      <trkpt lat="43.024517" lon="-2.970533">
        <ele>1111.0</ele>
        <time>2014-04-19T13:38:55Z</time>
      </trkpt>
      <trkpt lat="43.024533" lon="-2.970600">
        <ele>1112.0</ele>
        <time>2014-04-19T13:38:56Z</time>
      </trkpt>
      <trkpt lat="43.024567" lon="-2.970617">
        <ele>1112.0</ele>
        <time>2014-04-19T13:38:57Z</time>
      </trkpt>
      <trkpt lat="43.024600" lon="-2.970633">
        <ele>1112.0</ele>
        <time>2014-04-19T13:38:58Z</time>
      </trkpt>
      <trkpt lat="43.024650" lon="-2.970617">
        <ele>1113.0</ele>
        <time>2014-04-19T13:38:59Z</time>
      </trkpt>
      <trkpt lat="43.024667" lon="-2.970583">
        <ele>1113.0</ele>
        <time>2014-04-19T13:39:00Z</time>
      </trkpt>
      <trkpt lat="43.024700" lon="-2.970517">
        <ele>1114.0</ele>
        <time>2014-04-19T13:39:01Z</time>
      </trkpt>
      <trkpt lat="43.024683" lon="-2.970400">
        <ele>1114.0</ele>
        <time>2014-04-19T13:39:02Z</time>
      </trkpt>
      <trkpt lat="43.024667" lon="-2.970300">
        <ele>1114.0</ele>
        <time>2014-04-19T13:39:03Z</time>
      </trkpt>
      <trkpt lat="43.024617" lon="-2.970200">
        <ele>1115.0</ele>
        <time>2014-04-19T13:39:04Z</time>
      </trkpt>
      <trkpt lat="43.024550" lon="-2.970117">
        <ele>1117.0</ele>
        <time>2014-04-19T13:39:05Z</time>
      </trkpt>
      <trkpt lat="43.024467" lon="-2.970033">
        <ele>1117.0</ele>
        <time>2014-04-19T13:39:06Z</time>
      </trkpt>
      <trkpt lat="43.024367" lon="-2.969967">
        <ele>1118.0</ele>
        <time>2014-04-19T13:39:07Z</time>
      </trkpt>
      <trkpt lat="43.024267" lon="-2.969900">
        <ele>1118.0</ele>
        <time>2014-04-19T13:39:08Z</time>
      </trkpt>
      <trkpt lat="43.024150" lon="-2.969833">
        <ele>1118.0</ele>
        <time>2014-04-19T13:39:09Z</time>
      </trkpt>
      <trkpt lat="43.024033" lon="-2.969783">
        <ele>1119.0</ele>
        <time>2014-04-19T13:39:10Z</time>
      </trkpt>
      <trkpt lat="43.023917" lon="-2.969767">
        <ele>1120.0</ele>
        <time>2014-04-19T13:39:11Z</time>
      </trkpt>
      <trkpt lat="43.023800" lon="-2.969767">
        <ele>1120.0</ele>
        <time>2014-04-19T13:39:12Z</time>
      </trkpt>
      <trkpt lat="43.023683" lon="-2.969783">
        <ele>1121.0</ele>
        <time>2014-04-19T13:39:13Z</time>
      </trkpt>
      <trkpt lat="43.023583" lon="-2.969800">
        <ele>1122.0</ele>
        <time>2014-04-19T13:39:14Z</time>
      </trkpt>
      <trkpt lat="43.023483" lon="-2.969817">
        <ele>1124.0</ele>
        <time>2014-04-19T13:39:15Z</time>
      </trkpt>
      <trkpt lat="43.023383" lon="-2.969867">
        <ele>1125.0</ele>
        <time>2014-04-19T13:39:16Z</time>
      </trkpt>
      <trkpt lat="43.023300" lon="-2.969950">
        <ele>1125.0</ele>
        <time>2014-04-19T13:39:17Z</time>
      </trkpt>
      <trkpt lat="43.023217" lon="-2.970067">
        <ele>1124.0</ele>
        <time>2014-04-19T13:39:18Z</time>
      </trkpt>
      <trkpt lat="43.023167" lon="-2.970167">
        <ele>1124.0</ele>
        <time>2014-04-19T13:39:19Z</time>
      </trkpt>
      <trkpt lat="43.023117" lon="-2.970250">
        <ele>1124.0</ele>
        <time>2014-04-19T13:39:20Z</time>
      </trkpt>
      <trkpt lat="43.023083" lon="-2.970333">
        <ele>1125.0</ele>
        <time>2014-04-19T13:39:21Z</time>
      </trkpt>
      <trkpt lat="43.023067" lon="-2.970417">
        <ele>1124.0</ele>
        <time>2014-04-19T13:39:22Z</time>
      </trkpt>
      <trkpt lat="43.023067" lon="-2.970517">
        <ele>1123.0</ele>
        <time>2014-04-19T13:39:23Z</time>
      </trkpt>
      <trkpt lat="43.023050" lon="-2.970617">
        <ele>1122.0</ele>
        <time>2014-04-19T13:39:24Z</time>
      </trkpt>
      <trkpt lat="43.023017" lon="-2.970733">
        <ele>1121.0</ele>
        <time>2014-04-19T13:39:25Z</time>
      </trkpt>
      <trkpt lat="43.023000" lon="-2.970833">
        <ele>1122.0</ele>
        <time>2014-04-19T13:39:26Z</time>
      </trkpt>
      <trkpt lat="43.023017" lon="-2.970900">
        <ele>1123.0</ele>
        <time>2014-04-19T13:39:27Z</time>
      </trkpt>
      <trkpt lat="43.023033" lon="-2.970950">
        <ele>1123.0</ele>
        <time>2014-04-19T13:39:28Z</time>
      </trkpt>
      <trkpt lat="43.023067" lon="-2.970967">
        <ele>1123.0</ele>
        <time>2014-04-19T13:39:29Z</time>
      </trkpt>
      <trkpt lat="43.023117" lon="-2.970967">
        <ele>1123.0</ele>
        <time>2014-04-19T13:39:30Z</time>
      </trkpt>
      <trkpt lat="43.023150" lon="-2.970933">
        <ele>1123.0</ele>
        <time>2014-04-19T13:39:31Z</time>
      </trkpt>
      <trkpt lat="43.023167" lon="-2.970883">
        <ele>1124.0</ele>
        <time>2014-04-19T13:39:32Z</time>
      </trkpt>
      <trkpt lat="43.023183" lon="-2.970817">
        <ele>1124.0</ele>
        <time>2014-04-19T13:39:33Z</time>
      </trkpt>
      <trkpt lat="43.023183" lon="-2.970733">
        <ele>1123.0</ele>
        <time>2014-04-19T13:39:34Z</time>
      </trkpt>
      <trkpt lat="43.023183" lon="-2.970617">
        <ele>1123.0</ele>
        <time>2014-04-19T13:39:35Z</time>
      </trkpt>
      <trkpt lat="43.023150" lon="-2.970500">
        <ele>1122.0</ele>
        <time>2014-04-19T13:39:36Z</time>
      </trkpt>
      <trkpt lat="43.023100" lon="-2.970383">
        <ele>1122.0</ele>
        <time>2014-04-19T13:39:37Z</time>
      </trkpt>
      <trkpt lat="43.023033" lon="-2.970283">
        <ele>1123.0</ele>
        <time>2014-04-19T13:39:38Z</time>
      </trkpt>
      <trkpt lat="43.022950" lon="-2.970200">
        <ele>1122.0</ele>
        <time>2014-04-19T13:39:39Z</time>
      </trkpt>
      <trkpt lat="43.022850" lon="-2.970100">
        <ele>1122.0</ele>
        <time>2014-04-19T13:39:40Z</time>
      </trkpt>
      <trkpt lat="43.022733" lon="-2.970017">
        <ele>1122.0</ele>
        <time>2014-04-19T13:39:41Z</time>
      </trkpt>
      <trkpt lat="43.022650" lon="-2.969933">
        <ele>1122.0</ele>
        <time>2014-04-19T13:39:42Z</time>
      </trkpt>
      <trkpt lat="43.022567" lon="-2.969867">
        <ele>1124.0</ele>
        <time>2014-04-19T13:39:43Z</time>
      </trkpt>
      <trkpt lat="43.022483" lon="-2.969800">
        <ele>1125.0</ele>
        <time>2014-04-19T13:39:44Z</time>
      </trkpt>
      <trkpt lat="43.022383" lon="-2.969767">
        <ele>1125.0</ele>
        <time>2014-04-19T13:39:45Z</time>
      </trkpt>
      <trkpt lat="43.022267" lon="-2.969750">
        <ele>1124.0</ele>
        <time>2014-04-19T13:39:46Z</time>
      </trkpt>
      <trkpt lat="43.022133" lon="-2.969767">
        <ele>1122.0</ele>
        <time>2014-04-19T13:39:47Z</time>
      </trkpt>
      <trkpt lat="43.022000" lon="-2.969800">
        <ele>1121.0</ele>
        <time>2014-04-19T13:39:48Z</time>
      </trkpt>
      <trkpt lat="43.021900" lon="-2.969850">
        <ele>1121.0</ele>
        <time>2014-04-19T13:39:49Z</time>
      </trkpt>
      <trkpt lat="43.021800" lon="-2.969900">
        <ele>1122.0</ele>
        <time>2014-04-19T13:39:50Z</time>
      </trkpt>
      <trkpt lat="43.021700" lon="-2.969917">
        <ele>1124.0</ele>
        <time>2014-04-19T13:39:51Z</time>
      </trkpt>
      <trkpt lat="43.021600" lon="-2.969950">
        <ele>1124.0</ele>
        <time>2014-04-19T13:39:52Z</time>
      </trkpt>
      <trkpt lat="43.021500" lon="-2.969983">
        <ele>1123.0</ele>
        <time>2014-04-19T13:39:53Z</time>
      </trkpt>
      <trkpt lat="43.021417" lon="-2.970050">
        <ele>1123.0</ele>
        <time>2014-04-19T13:39:54Z</time>
      </trkpt>
      <trkpt lat="43.021350" lon="-2.970150">
        <ele>1122.0</ele>
        <time>2014-04-19T13:39:55Z</time>
      </trkpt>
      <trkpt lat="43.021300" lon="-2.970250">
        <ele>1121.0</ele>
        <time>2014-04-19T13:39:56Z</time>
      </trkpt>
      <trkpt lat="43.021300" lon="-2.970367">
        <ele>1121.0</ele>
        <time>2014-04-19T13:39:57Z</time>
      </trkpt>
      <trkpt lat="43.021300" lon="-2.970450">
        <ele>1121.0</ele>
        <time>2014-04-19T13:39:58Z</time>
      </trkpt>
      <trkpt lat="43.021317" lon="-2.970517">
        <ele>1122.0</ele>
        <time>2014-04-19T13:39:59Z</time>
      </trkpt>
      <trkpt lat="43.021333" lon="-2.970567">
        <ele>1122.0</ele>
        <time>2014-04-19T13:40:00Z</time>
      </trkpt>
      <trkpt lat="43.021383" lon="-2.970600">
        <ele>1121.0</ele>
        <time>2014-04-19T13:40:01Z</time>
      </trkpt>
      <trkpt lat="43.021417" lon="-2.970600">
        <ele>1121.0</ele>
        <time>2014-04-19T13:40:02Z</time>
      </trkpt>
      <trkpt lat="43.021467" lon="-2.970583">
        <ele>1121.0</ele>
        <time>2014-04-19T13:40:03Z</time>
      </trkpt>
      <trkpt lat="43.021500" lon="-2.970550">
        <ele>1121.0</ele>
        <time>2014-04-19T13:40:04Z</time>
      </trkpt>
      <trkpt lat="43.021533" lon="-2.970500">
        <ele>1122.0</ele>
        <time>2014-04-19T13:40:05Z</time>
      </trkpt>
      <trkpt lat="43.021550" lon="-2.970450">
        <ele>1123.0</ele>
        <time>2014-04-19T13:40:06Z</time>
      </trkpt>
      <trkpt lat="43.021583" lon="-2.970400">
        <ele>1123.0</ele>
        <time>2014-04-19T13:40:07Z</time>
      </trkpt>
      <trkpt lat="43.021600" lon="-2.970333">
        <ele>1122.0</ele>
        <time>2014-04-19T13:40:08Z</time>
      </trkpt>
      <trkpt lat="43.021617" lon="-2.970267">
        <ele>1121.0</ele>
        <time>2014-04-19T13:40:09Z</time>
      </trkpt>
      <trkpt lat="43.021600" lon="-2.970167">
        <ele>1121.0</ele>
        <time>2014-04-19T13:40:10Z</time>
      </trkpt>
      <trkpt lat="43.021567" lon="-2.970083">
        <ele>1121.0</ele>
        <time>2014-04-19T13:40:11Z</time>
      </trkpt>
      <trkpt lat="43.021517" lon="-2.969983">
        <ele>1121.0</ele>
        <time>2014-04-19T13:40:12Z</time>
      </trkpt>
      <trkpt lat="43.021450" lon="-2.969900">
        <ele>1121.0</ele>
        <time>2014-04-19T13:40:13Z</time>
      </trkpt>
      <trkpt lat="43.021350" lon="-2.969817">
        <ele>1121.0</ele>
        <time>2014-04-19T13:40:14Z</time>
      </trkpt>
      <trkpt lat="43.021250" lon="-2.969767">
        <ele>1122.0</ele>
        <time>2014-04-19T13:40:15Z</time>
      </trkpt>
      <trkpt lat="43.021133" lon="-2.969733">
        <ele>1122.0</ele>
        <time>2014-04-19T13:40:16Z</time>
      </trkpt>
      <trkpt lat="43.021000" lon="-2.969717">
        <ele>1122.0</ele>
        <time>2014-04-19T13:40:17Z</time>
      </trkpt>
      <trkpt lat="43.020883" lon="-2.969717">
        <ele>1122.0</ele>
        <time>2014-04-19T13:40:18Z</time>
      </trkpt>
      <trkpt lat="43.020767" lon="-2.969700">
        <ele>1121.0</ele>
        <time>2014-04-19T13:40:19Z</time>
      </trkpt>
      <trkpt lat="43.020667" lon="-2.969683">
        <ele>1121.0</ele>
        <time>2014-04-19T13:40:20Z</time>
      </trkpt>
      <trkpt lat="43.020550" lon="-2.969683">
        <ele>1121.0</ele>
        <time>2014-04-19T13:40:21Z</time>
      </trkpt>
      <trkpt lat="43.020433" lon="-2.969717">
        <ele>1120.0</ele>
        <time>2014-04-19T13:40:22Z</time>
      </trkpt>
      <trkpt lat="43.020317" lon="-2.969750">
        <ele>1118.0</ele>
        <time>2014-04-19T13:40:23Z</time>
      </trkpt>
      <trkpt lat="43.020217" lon="-2.969817">
        <ele>1118.0</ele>
        <time>2014-04-19T13:40:24Z</time>
      </trkpt>
      <trkpt lat="43.020117" lon="-2.969867">
        <ele>1119.0</ele>
        <time>2014-04-19T13:40:25Z</time>
      </trkpt>
      <trkpt lat="43.020033" lon="-2.969917">
        <ele>1120.0</ele>
        <time>2014-04-19T13:40:26Z</time>
      </trkpt>
      <trkpt lat="43.019950" lon="-2.969983">
        <ele>1121.0</ele>
        <time>2014-04-19T13:40:27Z</time>
      </trkpt>
      <trkpt lat="43.019883" lon="-2.970083">
        <ele>1120.0</ele>
        <time>2014-04-19T13:40:28Z</time>
      </trkpt>
      <trkpt lat="43.019850" lon="-2.970217">
        <ele>1118.0</ele>
        <time>2014-04-19T13:40:29Z</time>
      </trkpt>
      <trkpt lat="43.019817" lon="-2.970333">
        <ele>1118.0</ele>
        <time>2014-04-19T13:40:30Z</time>
      </trkpt>
      <trkpt lat="43.019800" lon="-2.970417">
        <ele>1119.0</ele>
        <time>2014-04-19T13:40:31Z</time>
      </trkpt>
      <trkpt lat="43.019800" lon="-2.970500">
        <ele>1120.0</ele>
        <time>2014-04-19T13:40:32Z</time>
      </trkpt>
      <trkpt lat="43.019817" lon="-2.970567">
        <ele>1120.0</ele>
        <time>2014-04-19T13:40:33Z</time>
      </trkpt>
      <trkpt lat="43.019833" lon="-2.970633">
        <ele>1120.0</ele>
        <time>2014-04-19T13:40:34Z</time>
      </trkpt>
      <trkpt lat="43.019850" lon="-2.970733">
        <ele>1119.0</ele>
        <time>2014-04-19T13:40:35Z</time>
      </trkpt>
      <trkpt lat="43.019867" lon="-2.970833">
        <ele>1118.0</ele>
        <time>2014-04-19T13:40:36Z</time>
      </trkpt>
      <trkpt lat="43.019850" lon="-2.970933">
        <ele>1118.0</ele>
        <time>2014-04-19T13:40:37Z</time>
      </trkpt>
      <trkpt lat="43.019817" lon="-2.971050">
        <ele>1118.0</ele>
        <time>2014-04-19T13:40:38Z</time>
      </trkpt>
      <trkpt lat="43.019783" lon="-2.971150">
        <ele>1117.0</ele>
        <time>2014-04-19T13:40:39Z</time>
      </trkpt>
      <trkpt lat="43.019717" lon="-2.971267">
        <ele>1116.0</ele>
        <time>2014-04-19T13:40:40Z</time>
      </trkpt>
      <trkpt lat="43.019650" lon="-2.971367">
        <ele>1116.0</ele>
        <time>2014-04-19T13:40:41Z</time>
      </trkpt>
      <trkpt lat="43.019583" lon="-2.971483">
        <ele>1115.0</ele>
        <time>2014-04-19T13:40:42Z</time>
      </trkpt>
      <trkpt lat="43.019500" lon="-2.971583">
        <ele>1114.0</ele>
        <time>2014-04-19T13:40:43Z</time>
      </trkpt>
      <trkpt lat="43.019433" lon="-2.971700">
        <ele>1113.0</ele>
        <time>2014-04-19T13:40:44Z</time>
      </trkpt>
      <trkpt lat="43.019367" lon="-2.971800">
        <ele>1113.0</ele>
        <time>2014-04-19T13:40:45Z</time>
      </trkpt>
      <trkpt lat="43.019283" lon="-2.971900">
        <ele>1113.0</ele>
        <time>2014-04-19T13:40:46Z</time>
      </trkpt>
      <trkpt lat="43.019217" lon="-2.972000">
        <ele>1112.0</ele>
        <time>2014-04-19T13:40:47Z</time>
      </trkpt>
      <trkpt lat="43.019133" lon="-2.972100">
        <ele>1112.0</ele>
        <time>2014-04-19T13:40:48Z</time>
      </trkpt>
      <trkpt lat="43.019067" lon="-2.972217">
        <ele>1111.0</ele>
        <time>2014-04-19T13:40:49Z</time>
      </trkpt>
      <trkpt lat="43.019000" lon="-2.972317">
        <ele>1111.0</ele>
        <time>2014-04-19T13:40:50Z</time>
      </trkpt>
      <trkpt lat="43.018933" lon="-2.972417">
        <ele>1110.0</ele>
        <time>2014-04-19T13:40:51Z</time>
      </trkpt>
      <trkpt lat="43.018850" lon="-2.972517">
        <ele>1110.0</ele>
        <time>2014-04-19T13:40:52Z</time>
      </trkpt>
      <trkpt lat="43.018767" lon="-2.972617">
        <ele>1109.0</ele>
        <time>2014-04-19T13:40:53Z</time>
      </trkpt>
      <trkpt lat="43.018683" lon="-2.972700">
        <ele>1109.0</ele>
        <time>2014-04-19T13:40:54Z</time>
      </trkpt>
      <trkpt lat="43.018583" lon="-2.972767">
        <ele>1108.0</ele>
        <time>2014-04-19T13:40:55Z</time>
      </trkpt>
      <trkpt lat="43.018483" lon="-2.972833">
        <ele>1107.0</ele>
        <time>2014-04-19T13:40:56Z</time>
      </trkpt>
      <trkpt lat="43.018383" lon="-2.972933">
        <ele>1106.0</ele>
        <time>2014-04-19T13:40:57Z</time>
      </trkpt>
      <trkpt lat="43.018300" lon="-2.973033">
        <ele>1104.0</ele>
        <time>2014-04-19T13:40:58Z</time>
      </trkpt>
      <trkpt lat="43.018217" lon="-2.973133">
        <ele>1103.0</ele>
        <time>2014-04-19T13:40:59Z</time>
      </trkpt>
      <trkpt lat="43.018133" lon="-2.973233">
        <ele>1103.0</ele>
        <time>2014-04-19T13:41:00Z</time>
      </trkpt>
      <trkpt lat="43.018067" lon="-2.973317">
        <ele>1102.0</ele>
        <time>2014-04-19T13:41:01Z</time>
      </trkpt>
      <trkpt lat="43.017983" lon="-2.973417">
        <ele>1101.0</ele>
        <time>2014-04-19T13:41:02Z</time>
      </trkpt>
      <trkpt lat="43.017900" lon="-2.973533">
        <ele>1100.0</ele>
        <time>2014-04-19T13:41:03Z</time>
      </trkpt>
      <trkpt lat="43.017833" lon="-2.973633">
        <ele>1099.0</ele>
        <time>2014-04-19T13:41:04Z</time>
      </trkpt>
      <trkpt lat="43.017750" lon="-2.973733">
        <ele>1098.0</ele>
        <time>2014-04-19T13:41:05Z</time>
      </trkpt>
      <trkpt lat="43.017667" lon="-2.973817">
        <ele>1098.0</ele>
        <time>2014-04-19T13:41:06Z</time>
      </trkpt>
      <trkpt lat="43.017600" lon="-2.973917">
        <ele>1097.0</ele>
        <time>2014-04-19T13:41:07Z</time>
      </trkpt>
      <trkpt lat="43.017533" lon="-2.974017">
        <ele>1097.0</ele>
        <time>2014-04-19T13:41:08Z</time>
      </trkpt>
      <trkpt lat="43.017450" lon="-2.974117">
        <ele>1097.0</ele>
        <time>2014-04-19T13:41:09Z</time>
      </trkpt>
      <trkpt lat="43.017383" lon="-2.974183">
        <ele>1098.0</ele>
        <time>2014-04-19T13:41:10Z</time>
      </trkpt>
      <trkpt lat="43.017317" lon="-2.974267">
        <ele>1099.0</ele>
        <time>2014-04-19T13:41:11Z</time>
      </trkpt>
      <trkpt lat="43.017267" lon="-2.974333">
        <ele>1099.0</ele>
        <time>2014-04-19T13:41:12Z</time>
      </trkpt>
      <trkpt lat="43.017217" lon="-2.974417">
        <ele>1099.0</ele>
        <time>2014-04-19T13:41:13Z</time>
      </trkpt>
      <trkpt lat="43.017183" lon="-2.974517">
        <ele>1099.0</ele>
        <time>2014-04-19T13:41:14Z</time>
      </trkpt>
      <trkpt lat="43.017183" lon="-2.974633">
        <ele>1098.0</ele>
        <time>2014-04-19T13:41:15Z</time>
      </trkpt>
      <trkpt lat="43.017217" lon="-2.974700">
        <ele>1099.0</ele>
        <time>2014-04-19T13:41:16Z</time>
      </trkpt>
      <trkpt lat="43.017250" lon="-2.974767">
        <ele>1099.0</ele>
        <time>2014-04-19T13:41:17Z</time>
      </trkpt>
      <trkpt lat="43.017300" lon="-2.974783">
        <ele>1100.0</ele>
        <time>2014-04-19T13:41:18Z</time>
      </trkpt>
      <trkpt lat="43.017350" lon="-2.974767">
        <ele>1101.0</ele>
        <time>2014-04-19T13:41:19Z</time>
      </trkpt>
      <trkpt lat="43.017400" lon="-2.974733">
        <ele>1101.0</ele>
        <time>2014-04-19T13:41:20Z</time>
      </trkpt>
      <trkpt lat="43.017450" lon="-2.974667">
        <ele>1101.0</ele>
        <time>2014-04-19T13:41:21Z</time>
      </trkpt>
      <trkpt lat="43.017483" lon="-2.974567">
        <ele>1101.0</ele>
        <time>2014-04-19T13:41:22Z</time>
      </trkpt>
      <trkpt lat="43.017483" lon="-2.974467">
        <ele>1101.0</ele>
        <time>2014-04-19T13:41:23Z</time>
      </trkpt>
      <trkpt lat="43.017483" lon="-2.974350">
        <ele>1101.0</ele>
        <time>2014-04-19T13:41:24Z</time>
      </trkpt>
      <trkpt lat="43.017450" lon="-2.974250">
        <ele>1102.0</ele>
        <time>2014-04-19T13:41:25Z</time>
      </trkpt>
      <trkpt lat="43.017400" lon="-2.974150">
        <ele>1102.0</ele>
        <time>2014-04-19T13:41:26Z</time>
      </trkpt>
      <trkpt lat="43.017333" lon="-2.974067">
        <ele>1101.0</ele>
        <time>2014-04-19T13:41:27Z</time>
      </trkpt>
      <trkpt lat="43.017250" lon="-2.974000">
        <ele>1100.0</ele>
        <time>2014-04-19T13:41:28Z</time>
      </trkpt>
      <trkpt lat="43.017150" lon="-2.973967">
        <ele>1099.0</ele>
        <time>2014-04-19T13:41:29Z</time>
      </trkpt>
      <trkpt lat="43.017050" lon="-2.973933">
        <ele>1099.0</ele>
        <time>2014-04-19T13:41:30Z</time>
      </trkpt>
      <trkpt lat="43.016950" lon="-2.973917">
        <ele>1099.0</ele>
        <time>2014-04-19T13:41:31Z</time>
      </trkpt>
      <trkpt lat="43.016850" lon="-2.973933">
        <ele>1100.0</ele>
        <time>2014-04-19T13:41:32Z</time>
      </trkpt>
      <trkpt lat="43.016750" lon="-2.973950">
        <ele>1100.0</ele>
        <time>2014-04-19T13:41:33Z</time>
      </trkpt>
      <trkpt lat="43.016650" lon="-2.973983">
        <ele>1099.0</ele>
        <time>2014-04-19T13:41:34Z</time>
      </trkpt>
      <trkpt lat="43.016550" lon="-2.974033">
        <ele>1099.0</ele>
        <time>2014-04-19T13:41:35Z</time>
      </trkpt>
      <trkpt lat="43.016450" lon="-2.974083">
        <ele>1099.0</ele>
        <time>2014-04-19T13:41:36Z</time>
      </trkpt>
      <trkpt lat="43.016367" lon="-2.974117">
        <ele>1100.0</ele>
        <time>2014-04-19T13:41:37Z</time>
      </trkpt>
      <trkpt lat="43.016283" lon="-2.974183">
        <ele>1100.0</ele>
        <time>2014-04-19T13:41:38Z</time>
      </trkpt>
      <trkpt lat="43.016217" lon="-2.974267">
        <ele>1100.0</ele>
        <time>2014-04-19T13:41:39Z</time>
      </trkpt>
      <trkpt lat="43.016167" lon="-2.974383">
        <ele>1099.0</ele>
        <time>2014-04-19T13:41:40Z</time>
      </trkpt>
      <trkpt lat="43.016133" lon="-2.974500">
        <ele>1099.0</ele>
        <time>2014-04-19T13:41:41Z</time>
      </trkpt>
      <trkpt lat="43.016117" lon="-2.974600">
        <ele>1100.0</ele>
        <time>2014-04-19T13:41:42Z</time>
      </trkpt>
      <trkpt lat="43.016133" lon="-2.974667">
        <ele>1102.0</ele>
        <time>2014-04-19T13:41:43Z</time>
      </trkpt>
      <trkpt lat="43.016133" lon="-2.974733">
        <ele>1102.0</ele>
        <time>2014-04-19T13:41:44Z</time>
      </trkpt>
      <trkpt lat="43.016150" lon="-2.974800">
        <ele>1103.0</ele>
        <time>2014-04-19T13:41:45Z</time>
      </trkpt>
      <trkpt lat="43.016183" lon="-2.974900">
        <ele>1102.0</ele>
        <time>2014-04-19T13:41:46Z</time>
      </trkpt>
      <trkpt lat="43.016217" lon="-2.974967">
        <ele>1102.0</ele>
        <time>2014-04-19T13:41:47Z</time>
      </trkpt>
      <trkpt lat="43.016267" lon="-2.975000">
        <ele>1102.0</ele>
        <time>2014-04-19T13:41:48Z</time>
      </trkpt>
      <trkpt lat="43.016333" lon="-2.974983">
        <ele>1101.0</ele>
        <time>2014-04-19T13:41:49Z</time>
      </trkpt>
      <trkpt lat="43.016383" lon="-2.974917">
        <ele>1101.0</ele>
        <time>2014-04-19T13:41:50Z</time>
      </trkpt>
      <trkpt lat="43.016417" lon="-2.974817">
        <ele>1100.0</ele>
        <time>2014-04-19T13:41:51Z</time>
      </trkpt>
      <trkpt lat="43.016417" lon="-2.974700">
        <ele>1100.0</ele>
        <time>2014-04-19T13:41:52Z</time>
      </trkpt>
      <trkpt lat="43.016383" lon="-2.974583">
        <ele>1100.0</ele>
        <time>2014-04-19T13:41:53Z</time>
      </trkpt>
      <trkpt lat="43.016333" lon="-2.974483">
        <ele>1099.0</ele>
        <time>2014-04-19T13:41:54Z</time>
      </trkpt>
      <trkpt lat="43.016267" lon="-2.974367">
        <ele>1099.0</ele>
        <time>2014-04-19T13:41:55Z</time>
      </trkpt>
      <trkpt lat="43.016183" lon="-2.974267">
        <ele>1098.0</ele>
        <time>2014-04-19T13:41:56Z</time>
      </trkpt>
      <trkpt lat="43.016100" lon="-2.974183">
        <ele>1098.0</ele>
        <time>2014-04-19T13:41:57Z</time>
      </trkpt>
      <trkpt lat="43.016000" lon="-2.974133">
        <ele>1099.0</ele>
        <time>2014-04-19T13:41:58Z</time>
      </trkpt>
      <trkpt lat="43.015917" lon="-2.974083">
        <ele>1100.0</ele>
        <time>2014-04-19T13:41:59Z</time>
      </trkpt>
      <trkpt lat="43.015833" lon="-2.974067">
        <ele>1101.0</ele>
        <time>2014-04-19T13:42:00Z</time>
      </trkpt>
      <trkpt lat="43.015750" lon="-2.974067">
        <ele>1102.0</ele>
        <time>2014-04-19T13:42:01Z</time>
      </trkpt>
      <trkpt lat="43.015650" lon="-2.974083">
        <ele>1102.0</ele>
        <time>2014-04-19T13:42:02Z</time>
      </trkpt>
      <trkpt lat="43.015550" lon="-2.974117">
        <ele>1101.0</ele>
        <time>2014-04-19T13:42:03Z</time>
      </trkpt>
      <trkpt lat="43.015433" lon="-2.974167">
        <ele>1100.0</ele>
        <time>2014-04-19T13:42:04Z</time>
      </trkpt>
      <trkpt lat="43.015333" lon="-2.974217">
        <ele>1100.0</ele>
        <time>2014-04-19T13:42:05Z</time>
      </trkpt>
      <trkpt lat="43.015250" lon="-2.974250">
        <ele>1101.0</ele>
        <time>2014-04-19T13:42:06Z</time>
      </trkpt>
      <trkpt lat="43.015167" lon="-2.974317">
        <ele>1102.0</ele>
        <time>2014-04-19T13:42:07Z</time>
      </trkpt>
      <trkpt lat="43.015100" lon="-2.974400">
        <ele>1100.0</ele>
        <time>2014-04-19T13:42:08Z</time>
      </trkpt>
      <trkpt lat="43.015033" lon="-2.974517">
        <ele>1099.0</ele>
        <time>2014-04-19T13:42:09Z</time>
      </trkpt>
      <trkpt lat="43.014983" lon="-2.974633">
        <ele>1098.0</ele>
        <time>2014-04-19T13:42:10Z</time>
      </trkpt>
      <trkpt lat="43.014933" lon="-2.974733">
        <ele>1099.0</ele>
        <time>2014-04-19T13:42:11Z</time>
      </trkpt>
      <trkpt lat="43.014883" lon="-2.974817">
        <ele>1100.0</ele>
        <time>2014-04-19T13:42:12Z</time>
      </trkpt>
      <trkpt lat="43.014833" lon="-2.974900">
        <ele>1100.0</ele>
        <time>2014-04-19T13:42:13Z</time>
      </trkpt>
      <trkpt lat="43.014767" lon="-2.975000">
        <ele>1100.0</ele>
        <time>2014-04-19T13:42:14Z</time>
      </trkpt>
      <trkpt lat="43.014683" lon="-2.975100">
        <ele>1098.0</ele>
        <time>2014-04-19T13:42:15Z</time>
      </trkpt>
      <trkpt lat="43.014617" lon="-2.975200">
        <ele>1097.0</ele>
        <time>2014-04-19T13:42:16Z</time>
      </trkpt>
      <trkpt lat="43.014533" lon="-2.975300">
        <ele>1096.0</ele>
        <time>2014-04-19T13:42:17Z</time>
      </trkpt>
      <trkpt lat="43.014450" lon="-2.975367">
        <ele>1096.0</ele>
        <time>2014-04-19T13:42:18Z</time>
      </trkpt>
      <trkpt lat="43.014383" lon="-2.975450">
        <ele>1096.0</ele>
        <time>2014-04-19T13:42:19Z</time>
      </trkpt>
      <trkpt lat="43.014333" lon="-2.975533">
        <ele>1095.0</ele>
        <time>2014-04-19T13:42:20Z</time>
      </trkpt>
      <trkpt lat="43.014300" lon="-2.975633">
        <ele>1094.0</ele>
        <time>2014-04-19T13:42:21Z</time>
      </trkpt>
      <trkpt lat="43.014250" lon="-2.975733">
        <ele>1092.0</ele>
        <time>2014-04-19T13:42:22Z</time>
      </trkpt>
      <trkpt lat="43.014200" lon="-2.975833">
        <ele>1091.0</ele>
        <time>2014-04-19T13:42:23Z</time>
      </trkpt>
      <trkpt lat="43.014150" lon="-2.975933">
        <ele>1090.0</ele>
        <time>2014-04-19T13:42:24Z</time>
      </trkpt>
      <trkpt lat="43.014083" lon="-2.976033">
        <ele>1088.0</ele>
        <time>2014-04-19T13:42:25Z</time>
      </trkpt>
      <trkpt lat="43.014017" lon="-2.976150">
        <ele>1087.0</ele>
        <time>2014-04-19T13:42:26Z</time>
      </trkpt>
      <trkpt lat="43.013967" lon="-2.976250">
        <ele>1087.0</ele>
        <time>2014-04-19T13:42:27Z</time>
      </trkpt>
      <trkpt lat="43.013900" lon="-2.976333">
        <ele>1087.0</ele>
        <time>2014-04-19T13:42:28Z</time>
      </trkpt>
      <trkpt lat="43.013833" lon="-2.976433">
        <ele>1087.0</ele>
        <time>2014-04-19T13:42:29Z</time>
      </trkpt>
      <trkpt lat="43.013767" lon="-2.976533">
        <ele>1086.0</ele>
        <time>2014-04-19T13:42:30Z</time>
      </trkpt>
      <trkpt lat="43.013683" lon="-2.976650">
        <ele>1085.0</ele>
        <time>2014-04-19T13:42:31Z</time>
      </trkpt>
      <trkpt lat="43.013617" lon="-2.976767">
        <ele>1083.0</ele>
        <time>2014-04-19T13:42:32Z</time>
      </trkpt>
      <trkpt lat="43.013550" lon="-2.976867">
        <ele>1082.0</ele>
        <time>2014-04-19T13:42:33Z</time>
      </trkpt>
      <trkpt lat="43.013483" lon="-2.976950">
        <ele>1082.0</ele>
        <time>2014-04-19T13:42:34Z</time>
      </trkpt>
      <trkpt lat="43.013433" lon="-2.977033">
        <ele>1082.0</ele>
        <time>2014-04-19T13:42:35Z</time>
      </trkpt>
      <trkpt lat="43.013383" lon="-2.977117">
        <ele>1082.0</ele>
        <time>2014-04-19T13:42:36Z</time>
      </trkpt>
      <trkpt lat="43.013317" lon="-2.977200">
        <ele>1080.0</ele>
        <time>2014-04-19T13:42:37Z</time>
      </trkpt>
      <trkpt lat="43.013267" lon="-2.977317">
        <ele>1078.0</ele>
        <time>2014-04-19T13:42:38Z</time>
      </trkpt>
      <trkpt lat="43.013200" lon="-2.977417">
        <ele>1077.0</ele>
        <time>2014-04-19T13:42:39Z</time>
      </trkpt>
      <trkpt lat="43.013150" lon="-2.977517">
        <ele>1076.0</ele>
        <time>2014-04-19T13:42:40Z</time>
      </trkpt>
      <trkpt lat="43.013100" lon="-2.977617">
        <ele>1075.0</ele>
        <time>2014-04-19T13:42:41Z</time>
      </trkpt>
      <trkpt lat="43.013050" lon="-2.977717">
        <ele>1074.0</ele>
        <time>2014-04-19T13:42:42Z</time>
      </trkpt>
      <trkpt lat="43.013000" lon="-2.977817">
        <ele>1072.0</ele>
        <time>2014-04-19T13:42:43Z</time>
      </trkpt>
      <trkpt lat="43.012950" lon="-2.977933">
        <ele>1069.0</ele>
        <time>2014-04-19T13:42:44Z</time>
      </trkpt>
      <trkpt lat="43.012900" lon="-2.978033">
        <ele>1068.0</ele>
        <time>2014-04-19T13:42:45Z</time>
      </trkpt>
      <trkpt lat="43.012833" lon="-2.978117">
        <ele>1067.0</ele>
        <time>2014-04-19T13:42:46Z</time>
      </trkpt>
      <trkpt lat="43.012783" lon="-2.978217">
        <ele>1064.0</ele>
        <time>2014-04-19T13:42:47Z</time>
      </trkpt>
      <trkpt lat="43.012717" lon="-2.978317">
        <ele>1062.0</ele>
        <time>2014-04-19T13:42:48Z</time>
      </trkpt>
      <trkpt lat="43.012650" lon="-2.978417">
        <ele>1059.0</ele>
        <time>2014-04-19T13:42:49Z</time>
      </trkpt>
      <trkpt lat="43.012583" lon="-2.978533">
        <ele>1055.0</ele>
        <time>2014-04-19T13:42:50Z</time>
      </trkpt>
      <trkpt lat="43.012517" lon="-2.978633">
        <ele>1053.0</ele>
        <time>2014-04-19T13:42:51Z</time>
      </trkpt>
      <trkpt lat="43.012467" lon="-2.978717">
        <ele>1051.0</ele>
        <time>2014-04-19T13:42:52Z</time>
      </trkpt>
      <trkpt lat="43.012417" lon="-2.978800">
        <ele>1049.0</ele>
        <time>2014-04-19T13:42:53Z</time>
      </trkpt>
      <trkpt lat="43.012350" lon="-2.978900">
        <ele>1047.0</ele>
        <time>2014-04-19T13:42:54Z</time>
      </trkpt>
      <trkpt lat="43.012283" lon="-2.978983">
        <ele>1044.0</ele>
        <time>2014-04-19T13:42:55Z</time>
      </trkpt>
      <trkpt lat="43.012233" lon="-2.979083">
        <ele>1041.0</ele>
        <time>2014-04-19T13:42:56Z</time>
      </trkpt>
      <trkpt lat="43.012183" lon="-2.979200">
        <ele>1040.0</ele>
        <time>2014-04-19T13:42:57Z</time>
      </trkpt>
      <trkpt lat="43.012117" lon="-2.979283">
        <ele>1039.0</ele>
        <time>2014-04-19T13:42:58Z</time>
      </trkpt>
      <trkpt lat="43.012067" lon="-2.979383">
        <ele>1038.0</ele>
        <time>2014-04-19T13:42:59Z</time>
      </trkpt>
      <trkpt lat="43.012000" lon="-2.979483">
        <ele>1037.0</ele>
        <time>2014-04-19T13:43:00Z</time>
      </trkpt>
      <trkpt lat="43.011933" lon="-2.979567">
        <ele>1036.0</ele>
        <time>2014-04-19T13:43:01Z</time>
      </trkpt>
      <trkpt lat="43.011850" lon="-2.979667">
        <ele>1034.0</ele>
        <time>2014-04-19T13:43:02Z</time>
      </trkpt>
      <trkpt lat="43.011783" lon="-2.979767">
        <ele>1033.0</ele>
        <time>2014-04-19T13:43:03Z</time>
      </trkpt>
      <trkpt lat="43.011700" lon="-2.979850">
        <ele>1032.0</ele>
        <time>2014-04-19T13:43:04Z</time>
      </trkpt>
      <trkpt lat="43.011633" lon="-2.979933">
        <ele>1031.0</ele>
        <time>2014-04-19T13:43:05Z</time>
      </trkpt>
      <trkpt lat="43.011550" lon="-2.980033">
        <ele>1029.0</ele>
        <time>2014-04-19T13:43:06Z</time>
      </trkpt>
      <trkpt lat="43.011467" lon="-2.980117">
        <ele>1028.0</ele>
        <time>2014-04-19T13:43:07Z</time>
      </trkpt>
      <trkpt lat="43.011400" lon="-2.980217">
        <ele>1027.0</ele>
        <time>2014-04-19T13:43:08Z</time>
      </trkpt>
      <trkpt lat="43.011317" lon="-2.980300">
        <ele>1025.0</ele>
        <time>2014-04-19T13:43:09Z</time>
      </trkpt>
      <trkpt lat="43.011250" lon="-2.980400">
        <ele>1024.0</ele>
        <time>2014-04-19T13:43:10Z</time>
      </trkpt>
      <trkpt lat="43.011167" lon="-2.980483">
        <ele>1023.0</ele>
        <time>2014-04-19T13:43:11Z</time>
      </trkpt>
      <trkpt lat="43.011083" lon="-2.980567">
        <ele>1023.0</ele>
        <time>2014-04-19T13:43:12Z</time>
      </trkpt>
      <trkpt lat="43.011017" lon="-2.980650">
        <ele>1022.0</ele>
        <time>2014-04-19T13:43:13Z</time>
      </trkpt>
      <trkpt lat="43.010950" lon="-2.980733">
        <ele>1021.0</ele>
        <time>2014-04-19T13:43:14Z</time>
      </trkpt>
      <trkpt lat="43.010900" lon="-2.980800">
        <ele>1020.0</ele>
        <time>2014-04-19T13:43:15Z</time>
      </trkpt>
      <trkpt lat="43.010833" lon="-2.980900">
        <ele>1018.0</ele>
        <time>2014-04-19T13:43:16Z</time>
      </trkpt>
      <trkpt lat="43.010767" lon="-2.980983">
        <ele>1015.0</ele>
        <time>2014-04-19T13:43:17Z</time>
      </trkpt>
      <trkpt lat="43.010717" lon="-2.981083">
        <ele>1014.0</ele>
        <time>2014-04-19T13:43:18Z</time>
      </trkpt>
      <trkpt lat="43.010650" lon="-2.981183">
        <ele>1013.0</ele>
        <time>2014-04-19T13:43:19Z</time>
      </trkpt>
      <trkpt lat="43.010583" lon="-2.981283">
        <ele>1011.0</ele>
        <time>2014-04-19T13:43:20Z</time>
      </trkpt>
      <trkpt lat="43.010517" lon="-2.981383">
        <ele>1010.0</ele>
        <time>2014-04-19T13:43:21Z</time>
      </trkpt>
      <trkpt lat="43.010450" lon="-2.981467">
        <ele>1009.0</ele>
        <time>2014-04-19T13:43:22Z</time>
      </trkpt>
      <trkpt lat="43.010383" lon="-2.981550">
        <ele>1008.0</ele>
        <time>2014-04-19T13:43:23Z</time>
      </trkpt>
      <trkpt lat="43.010300" lon="-2.981633">
        <ele>1007.0</ele>
        <time>2014-04-19T13:43:24Z</time>
      </trkpt>
      <trkpt lat="43.010233" lon="-2.981733">
        <ele>1006.0</ele>
        <time>2014-04-19T13:43:25Z</time>
      </trkpt>
      <trkpt lat="43.010183" lon="-2.981817">
        <ele>1005.0</ele>
        <time>2014-04-19T13:43:26Z</time>
      </trkpt>
      <trkpt lat="43.010117" lon="-2.981900">
        <ele>1005.0</ele>
        <time>2014-04-19T13:43:27Z</time>
      </trkpt>
      <trkpt lat="43.010050" lon="-2.981967">
        <ele>1004.0</ele>
        <time>2014-04-19T13:43:28Z</time>
      </trkpt>
      <trkpt lat="43.009983" lon="-2.982033">
        <ele>1003.0</ele>
        <time>2014-04-19T13:43:29Z</time>
      </trkpt>
      <trkpt lat="43.009917" lon="-2.982117">
        <ele>1000.0</ele>
        <time>2014-04-19T13:43:30Z</time>
      </trkpt>
      <trkpt lat="43.009833" lon="-2.982200">
        <ele>998.0</ele>
        <time>2014-04-19T13:43:31Z</time>
      </trkpt>
      <trkpt lat="43.009767" lon="-2.982283">
        <ele>995.0</ele>
        <time>2014-04-19T13:43:32Z</time>
      </trkpt>
      <trkpt lat="43.009700" lon="-2.982383">
        <ele>992.0</ele>
        <time>2014-04-19T13:43:33Z</time>
      </trkpt>
      <trkpt lat="43.009633" lon="-2.982467">
        <ele>989.0</ele>
        <time>2014-04-19T13:43:34Z</time>
      </trkpt>
      <trkpt lat="43.009567" lon="-2.982550">
        <ele>987.0</ele>
        <time>2014-04-19T13:43:35Z</time>
      </trkpt>
      <trkpt lat="43.009517" lon="-2.982633">
        <ele>985.0</ele>
        <time>2014-04-19T13:43:36Z</time>
      </trkpt>
      <trkpt lat="43.009450" lon="-2.982733">
        <ele>982.0</ele>
        <time>2014-04-19T13:43:37Z</time>
      </trkpt>
      <trkpt lat="43.009383" lon="-2.982817">
        <ele>980.0</ele>
        <time>2014-04-19T13:43:38Z</time>
      </trkpt>
      <trkpt lat="43.009333" lon="-2.982883">
        <ele>979.0</ele>
        <time>2014-04-19T13:43:39Z</time>
      </trkpt>
      <trkpt lat="43.009283" lon="-2.982950">
        <ele>978.0</ele>
        <time>2014-04-19T13:43:40Z</time>
      </trkpt>
      <trkpt lat="43.009233" lon="-2.983017">
        <ele>977.0</ele>
        <time>2014-04-19T13:43:41Z</time>
      </trkpt>
      <trkpt lat="43.009167" lon="-2.983083">
        <ele>976.0</ele>
        <time>2014-04-19T13:43:42Z</time>
      </trkpt>
      <trkpt lat="43.009117" lon="-2.983167">
        <ele>974.0</ele>
        <time>2014-04-19T13:43:43Z</time>
      </trkpt>
      <trkpt lat="43.009050" lon="-2.983233">
        <ele>972.0</ele>
        <time>2014-04-19T13:43:44Z</time>
      </trkpt>
      <trkpt lat="43.009000" lon="-2.983283">
        <ele>970.0</ele>
        <time>2014-04-19T13:43:45Z</time>
      </trkpt>
      <trkpt lat="43.008933" lon="-2.983333">
        <ele>967.0</ele>
        <time>2014-04-19T13:43:46Z</time>
      </trkpt>
      <trkpt lat="43.008883" lon="-2.983400">
        <ele>964.0</ele>
        <time>2014-04-19T13:43:47Z</time>
      </trkpt>
      <trkpt lat="43.008817" lon="-2.983483">
        <ele>959.0</ele>
        <time>2014-04-19T13:43:48Z</time>
      </trkpt>
      <trkpt lat="43.008750" lon="-2.983583">
        <ele>954.0</ele>
        <time>2014-04-19T13:43:49Z</time>
      </trkpt>
      <trkpt lat="43.008667" lon="-2.983700">
        <ele>950.0</ele>
        <time>2014-04-19T13:43:50Z</time>
      </trkpt>
      <trkpt lat="43.008583" lon="-2.983800">
        <ele>947.0</ele>
        <time>2014-04-19T13:43:51Z</time>
      </trkpt>
      <trkpt lat="43.008517" lon="-2.983883">
        <ele>946.0</ele>
        <time>2014-04-19T13:43:52Z</time>
      </trkpt>
      <trkpt lat="43.008450" lon="-2.983967">
        <ele>945.0</ele>
        <time>2014-04-19T13:43:53Z</time>
      </trkpt>
      <trkpt lat="43.008383" lon="-2.984050">
        <ele>943.0</ele>
        <time>2014-04-19T13:43:54Z</time>
      </trkpt>
      <trkpt lat="43.008317" lon="-2.984150">
        <ele>941.0</ele>
        <time>2014-04-19T13:43:55Z</time>
      </trkpt>
      <trkpt lat="43.008250" lon="-2.984267">
        <ele>938.0</ele>
        <time>2014-04-19T13:43:56Z</time>
      </trkpt>
      <trkpt lat="43.008183" lon="-2.984350">
        <ele>936.0</ele>
        <time>2014-04-19T13:43:57Z</time>
      </trkpt>
      <trkpt lat="43.008117" lon="-2.984450">
        <ele>934.0</ele>
        <time>2014-04-19T13:43:58Z</time>
      </trkpt>
      <trkpt lat="43.008050" lon="-2.984550">
        <ele>932.0</ele>
        <time>2014-04-19T13:43:59Z</time>
      </trkpt>
      <trkpt lat="43.007983" lon="-2.984650">
        <ele>929.0</ele>
        <time>2014-04-19T13:44:00Z</time>
      </trkpt>
      <trkpt lat="43.007917" lon="-2.984750">
        <ele>927.0</ele>
        <time>2014-04-19T13:44:01Z</time>
      </trkpt>
      <trkpt lat="43.007867" lon="-2.984850">
        <ele>926.0</ele>
        <time>2014-04-19T13:44:02Z</time>
      </trkpt>
      <trkpt lat="43.007817" lon="-2.984950">
        <ele>926.0</ele>
        <time>2014-04-19T13:44:03Z</time>
      </trkpt>
      <trkpt lat="43.007783" lon="-2.985033">
        <ele>926.0</ele>
        <time>2014-04-19T13:44:04Z</time>
      </trkpt>
      <trkpt lat="43.007733" lon="-2.985117">
        <ele>926.0</ele>
        <time>2014-04-19T13:44:05Z</time>
      </trkpt>
      <trkpt lat="43.007667" lon="-2.985200">
        <ele>926.0</ele>
        <time>2014-04-19T13:44:06Z</time>
      </trkpt>
      <trkpt lat="43.007617" lon="-2.985283">
        <ele>925.0</ele>
        <time>2014-04-19T13:44:07Z</time>
      </trkpt>
      <trkpt lat="43.007567" lon="-2.985383">
        <ele>925.0</ele>
        <time>2014-04-19T13:44:08Z</time>
      </trkpt>
      <trkpt lat="43.007517" lon="-2.985467">
        <ele>926.0</ele>
        <time>2014-04-19T13:44:09Z</time>
      </trkpt>
      <trkpt lat="43.007467" lon="-2.985550">
        <ele>926.0</ele>
        <time>2014-04-19T13:44:10Z</time>
      </trkpt>
      <trkpt lat="43.007400" lon="-2.985617">
        <ele>926.0</ele>
        <time>2014-04-19T13:44:11Z</time>
      </trkpt>
      <trkpt lat="43.007350" lon="-2.985700">
        <ele>925.0</ele>
        <time>2014-04-19T13:44:12Z</time>
      </trkpt>
      <trkpt lat="43.007283" lon="-2.985767">
        <ele>925.0</ele>
        <time>2014-04-19T13:44:13Z</time>
      </trkpt>
      <trkpt lat="43.007233" lon="-2.985850">
        <ele>924.0</ele>
        <time>2014-04-19T13:44:14Z</time>
      </trkpt>
      <trkpt lat="43.007183" lon="-2.985933">
        <ele>921.0</ele>
        <time>2014-04-19T13:44:15Z</time>
      </trkpt>
      <trkpt lat="43.007133" lon="-2.986017">
        <ele>919.0</ele>
        <time>2014-04-19T13:44:16Z</time>
      </trkpt>
      <trkpt lat="43.007067" lon="-2.986100">
        <ele>917.0</ele>
        <time>2014-04-19T13:44:17Z</time>
      </trkpt>
      <trkpt lat="43.007017" lon="-2.986167">
        <ele>915.0</ele>
        <time>2014-04-19T13:44:18Z</time>
      </trkpt>
      <trkpt lat="43.006967" lon="-2.986233">
        <ele>913.0</ele>
        <time>2014-04-19T13:44:19Z</time>
      </trkpt>
      <trkpt lat="43.006917" lon="-2.986333">
        <ele>910.0</ele>
        <time>2014-04-19T13:44:20Z</time>
      </trkpt>
      <trkpt lat="43.006867" lon="-2.986417">
        <ele>908.0</ele>
        <time>2014-04-19T13:44:21Z</time>
      </trkpt>
      <trkpt lat="43.006833" lon="-2.986517">
        <ele>906.0</ele>
        <time>2014-04-19T13:44:22Z</time>
      </trkpt>
      <trkpt lat="43.006783" lon="-2.986600">
        <ele>905.0</ele>
        <time>2014-04-19T13:44:23Z</time>
      </trkpt>
      <trkpt lat="43.006717" lon="-2.986683">
        <ele>903.0</ele>
        <time>2014-04-19T13:44:24Z</time>
      </trkpt>
      <trkpt lat="43.006667" lon="-2.986767">
        <ele>902.0</ele>
        <time>2014-04-19T13:44:25Z</time>
      </trkpt>
      <trkpt lat="43.006600" lon="-2.986850">
        <ele>901.0</ele>
        <time>2014-04-19T13:44:26Z</time>
      </trkpt>
      <trkpt lat="43.006550" lon="-2.986917">
        <ele>900.0</ele>
        <time>2014-04-19T13:44:27Z</time>
      </trkpt>
      <trkpt lat="43.006467" lon="-2.987000">
        <ele>898.0</ele>
        <time>2014-04-19T13:44:28Z</time>
      </trkpt>
      <trkpt lat="43.006383" lon="-2.987083">
        <ele>895.0</ele>
        <time>2014-04-19T13:44:29Z</time>
      </trkpt>
      <trkpt lat="43.006300" lon="-2.987167">
        <ele>893.0</ele>
        <time>2014-04-19T13:44:30Z</time>
      </trkpt>
      <trkpt lat="43.006233" lon="-2.987267">
        <ele>892.0</ele>
        <time>2014-04-19T13:44:31Z</time>
      </trkpt>
      <trkpt lat="43.006150" lon="-2.987333">
        <ele>892.0</ele>
        <time>2014-04-19T13:44:32Z</time>
      </trkpt>
      <trkpt lat="43.006083" lon="-2.987417">
        <ele>892.0</ele>
        <time>2014-04-19T13:44:33Z</time>
      </trkpt>
      <trkpt lat="43.006017" lon="-2.987483">
        <ele>891.0</ele>
        <time>2014-04-19T13:44:34Z</time>
      </trkpt>
      <trkpt lat="43.005933" lon="-2.987567">
        <ele>890.0</ele>
        <time>2014-04-19T13:44:35Z</time>
      </trkpt>
      <trkpt lat="43.005850" lon="-2.987650">
        <ele>889.0</ele>
        <time>2014-04-19T13:44:36Z</time>
      </trkpt>
      <trkpt lat="43.005767" lon="-2.987717">
        <ele>889.0</ele>
        <time>2014-04-19T13:44:37Z</time>
      </trkpt>
      <trkpt lat="43.005667" lon="-2.987783">
        <ele>889.0</ele>
        <time>2014-04-19T13:44:38Z</time>
      </trkpt>
      <trkpt lat="43.005583" lon="-2.987867">
        <ele>889.0</ele>
        <time>2014-04-19T13:44:39Z</time>
      </trkpt>
      <trkpt lat="43.005483" lon="-2.987950">
        <ele>888.0</ele>
        <time>2014-04-19T13:44:40Z</time>
      </trkpt>
      <trkpt lat="43.005383" lon="-2.988033">
        <ele>888.0</ele>
        <time>2014-04-19T13:44:41Z</time>
      </trkpt>
      <trkpt lat="43.005300" lon="-2.988100">
        <ele>887.0</ele>
        <time>2014-04-19T13:44:42Z</time>
      </trkpt>
      <trkpt lat="43.005200" lon="-2.988200">
        <ele>886.0</ele>
        <time>2014-04-19T13:44:43Z</time>
      </trkpt>
      <trkpt lat="43.005100" lon="-2.988283">
        <ele>886.0</ele>
        <time>2014-04-19T13:44:44Z</time>
      </trkpt>
      <trkpt lat="43.005000" lon="-2.988383">
        <ele>885.0</ele>
        <time>2014-04-19T13:44:45Z</time>
      </trkpt>
      <trkpt lat="43.004900" lon="-2.988483">
        <ele>884.0</ele>
        <time>2014-04-19T13:44:46Z</time>
      </trkpt>
      <trkpt lat="43.004783" lon="-2.988583">
        <ele>883.0</ele>
        <time>2014-04-19T13:44:47Z</time>
      </trkpt>
      <trkpt lat="43.004683" lon="-2.988683">
        <ele>883.0</ele>
        <time>2014-04-19T13:44:48Z</time>
      </trkpt>
      <trkpt lat="43.004567" lon="-2.988783">
        <ele>884.0</ele>
        <time>2014-04-19T13:44:49Z</time>
      </trkpt>
      <trkpt lat="43.004467" lon="-2.988867">
        <ele>885.0</ele>
        <time>2014-04-19T13:44:50Z</time>
      </trkpt>
      <trkpt lat="43.004350" lon="-2.988967">
        <ele>885.0</ele>
        <time>2014-04-19T13:44:51Z</time>
      </trkpt>
      <trkpt lat="43.004250" lon="-2.989083">
        <ele>885.0</ele>
        <time>2014-04-19T13:44:52Z</time>
      </trkpt>
      <trkpt lat="43.004150" lon="-2.989183">
        <ele>885.0</ele>
        <time>2014-04-19T13:44:53Z</time>
      </trkpt>
      <trkpt lat="43.004050" lon="-2.989267">
        <ele>885.0</ele>
        <time>2014-04-19T13:44:54Z</time>
      </trkpt>
      <trkpt lat="43.003950" lon="-2.989350">
        <ele>887.0</ele>
        <time>2014-04-19T13:44:55Z</time>
      </trkpt>
      <trkpt lat="43.003850" lon="-2.989433">
        <ele>888.0</ele>
        <time>2014-04-19T13:44:56Z</time>
      </trkpt>
      <trkpt lat="43.003733" lon="-2.989517">
        <ele>890.0</ele>
        <time>2014-04-19T13:44:57Z</time>
      </trkpt>
      <trkpt lat="43.003633" lon="-2.989583">
        <ele>891.0</ele>
        <time>2014-04-19T13:44:58Z</time>
      </trkpt>
      <trkpt lat="43.003533" lon="-2.989683">
        <ele>892.0</ele>
        <time>2014-04-19T13:44:59Z</time>
      </trkpt>
      <trkpt lat="43.003450" lon="-2.989767">
        <ele>893.0</ele>
        <time>2014-04-19T13:45:00Z</time>
      </trkpt>
      <trkpt lat="43.003367" lon="-2.989833">
        <ele>894.0</ele>
        <time>2014-04-19T13:45:01Z</time>
      </trkpt>
      <trkpt lat="43.003317" lon="-2.989917">
        <ele>894.0</ele>
        <time>2014-04-19T13:45:02Z</time>
      </trkpt>
      <trkpt lat="43.003267" lon="-2.989983">
        <ele>894.0</ele>
        <time>2014-04-19T13:45:03Z</time>
      </trkpt>
      <trkpt lat="43.003217" lon="-2.990083">
        <ele>892.0</ele>
        <time>2014-04-19T13:45:04Z</time>
      </trkpt>
      <trkpt lat="43.003167" lon="-2.990200">
        <ele>890.0</ele>
        <time>2014-04-19T13:45:05Z</time>
      </trkpt>
      <trkpt lat="43.003100" lon="-2.990300">
        <ele>887.0</ele>
        <time>2014-04-19T13:45:06Z</time>
      </trkpt>
      <trkpt lat="43.003017" lon="-2.990400">
        <ele>886.0</ele>
        <time>2014-04-19T13:45:07Z</time>
      </trkpt>
      <trkpt lat="43.002917" lon="-2.990467">
        <ele>886.0</ele>
        <time>2014-04-19T13:45:08Z</time>
      </trkpt>
      <trkpt lat="43.002833" lon="-2.990550">
        <ele>884.0</ele>
        <time>2014-04-19T13:45:09Z</time>
      </trkpt>
      <trkpt lat="43.002750" lon="-2.990633">
        <ele>883.0</ele>
        <time>2014-04-19T13:45:10Z</time>
      </trkpt>
      <trkpt lat="43.002650" lon="-2.990717">
        <ele>881.0</ele>
        <time>2014-04-19T13:45:11Z</time>
      </trkpt>
      <trkpt lat="43.002550" lon="-2.990800">
        <ele>879.0</ele>
        <time>2014-04-19T13:45:12Z</time>
      </trkpt>
      <trkpt lat="43.002450" lon="-2.990867">
        <ele>877.0</ele>
        <time>2014-04-19T13:45:13Z</time>
      </trkpt>
      <trkpt lat="43.002350" lon="-2.990933">
        <ele>874.0</ele>
        <time>2014-04-19T13:45:14Z</time>
      </trkpt>
      <trkpt lat="43.002250" lon="-2.991000">
        <ele>873.0</ele>
        <time>2014-04-19T13:45:15Z</time>
      </trkpt>
      <trkpt lat="43.002150" lon="-2.991083">
        <ele>870.0</ele>
        <time>2014-04-19T13:45:16Z</time>
      </trkpt>
      <trkpt lat="43.002067" lon="-2.991150">
        <ele>867.0</ele>
        <time>2014-04-19T13:45:17Z</time>
      </trkpt>
      <trkpt lat="43.001967" lon="-2.991233">
        <ele>864.0</ele>
        <time>2014-04-19T13:45:18Z</time>
      </trkpt>
      <trkpt lat="43.001883" lon="-2.991317">
        <ele>861.0</ele>
        <time>2014-04-19T13:45:19Z</time>
      </trkpt>
      <trkpt lat="43.001783" lon="-2.991400">
        <ele>858.0</ele>
        <time>2014-04-19T13:45:20Z</time>
      </trkpt>
      <trkpt lat="43.001700" lon="-2.991483">
        <ele>855.0</ele>
        <time>2014-04-19T13:45:21Z</time>
      </trkpt>
      <trkpt lat="43.001617" lon="-2.991583">
        <ele>852.0</ele>
        <time>2014-04-19T13:45:22Z</time>
      </trkpt>
      <trkpt lat="43.001517" lon="-2.991667">
        <ele>849.0</ele>
        <time>2014-04-19T13:45:23Z</time>
      </trkpt>
      <trkpt lat="43.001433" lon="-2.991750">
        <ele>846.0</ele>
        <time>2014-04-19T13:45:24Z</time>
      </trkpt>
      <trkpt lat="43.001333" lon="-2.991817">
        <ele>844.0</ele>
        <time>2014-04-19T13:45:25Z</time>
      </trkpt>
      <trkpt lat="43.001250" lon="-2.991883">
        <ele>843.0</ele>
        <time>2014-04-19T13:45:26Z</time>
      </trkpt>
      <trkpt lat="43.001167" lon="-2.991950">
        <ele>840.0</ele>
        <time>2014-04-19T13:45:27Z</time>
      </trkpt>
      <trkpt lat="43.001083" lon="-2.992050">
        <ele>837.0</ele>
        <time>2014-04-19T13:45:28Z</time>
      </trkpt>
      <trkpt lat="43.001017" lon="-2.992167">
        <ele>836.0</ele>
        <time>2014-04-19T13:45:29Z</time>
      </trkpt>
      <trkpt lat="43.000950" lon="-2.992267">
        <ele>837.0</ele>
        <time>2014-04-19T13:45:30Z</time>
      </trkpt>
      <trkpt lat="43.000900" lon="-2.992333">
        <ele>840.0</ele>
        <time>2014-04-19T13:45:31Z</time>
      </trkpt>
      <trkpt lat="43.000867" lon="-2.992417">
        <ele>841.0</ele>
        <time>2014-04-19T13:45:32Z</time>
      </trkpt>
      <trkpt lat="43.000833" lon="-2.992500">
        <ele>840.0</ele>
        <time>2014-04-19T13:45:33Z</time>
      </trkpt>
      <trkpt lat="43.000800" lon="-2.992600">
        <ele>838.0</ele>
        <time>2014-04-19T13:45:34Z</time>
      </trkpt>
      <trkpt lat="43.000767" lon="-2.992700">
        <ele>836.0</ele>
        <time>2014-04-19T13:45:35Z</time>
      </trkpt>
      <trkpt lat="43.000717" lon="-2.992833">
        <ele>834.0</ele>
        <time>2014-04-19T13:45:36Z</time>
      </trkpt>
      <trkpt lat="43.000667" lon="-2.992950">
        <ele>831.0</ele>
        <time>2014-04-19T13:45:37Z</time>
      </trkpt>
      <trkpt lat="43.000600" lon="-2.993067">
        <ele>830.0</ele>
        <time>2014-04-19T13:45:38Z</time>
      </trkpt>
      <trkpt lat="43.000533" lon="-2.993167">
        <ele>828.0</ele>
        <time>2014-04-19T13:45:39Z</time>
      </trkpt>
      <trkpt lat="43.000467" lon="-2.993267">
        <ele>827.0</ele>
        <time>2014-04-19T13:45:40Z</time>
      </trkpt>
      <trkpt lat="43.000400" lon="-2.993383">
        <ele>825.0</ele>
        <time>2014-04-19T13:45:41Z</time>
      </trkpt>
      <trkpt lat="43.000317" lon="-2.993467">
        <ele>824.0</ele>
        <time>2014-04-19T13:45:42Z</time>
      </trkpt>
      <trkpt lat="43.000217" lon="-2.993517">
        <ele>823.0</ele>
        <time>2014-04-19T13:45:43Z</time>
      </trkpt>
      <trkpt lat="43.000100" lon="-2.993550">
        <ele>821.0</ele>
        <time>2014-04-19T13:45:44Z</time>
      </trkpt>
      <trkpt lat="43.000000" lon="-2.993600">
        <ele>821.0</ele>
        <time>2014-04-19T13:45:45Z</time>
      </trkpt>
      <trkpt lat="42.999917" lon="-2.993667">
        <ele>823.0</ele>
        <time>2014-04-19T13:45:46Z</time>
      </trkpt>
      <trkpt lat="42.999850" lon="-2.993750">
        <ele>824.0</ele>
        <time>2014-04-19T13:45:47Z</time>
      </trkpt>
      <trkpt lat="42.999767" lon="-2.993817">
        <ele>824.0</ele>
        <time>2014-04-19T13:45:48Z</time>
      </trkpt>
      <trkpt lat="42.999667" lon="-2.993883">
        <ele>824.0</ele>
        <time>2014-04-19T13:45:49Z</time>
      </trkpt>
      <trkpt lat="42.999550" lon="-2.993950">
        <ele>825.0</ele>
        <time>2014-04-19T13:45:50Z</time>
      </trkpt>
      <trkpt lat="42.999467" lon="-2.994017">
        <ele>826.0</ele>
        <time>2014-04-19T13:45:51Z</time>
      </trkpt>
      <trkpt lat="42.999417" lon="-2.994083">
        <ele>829.0</ele>
        <time>2014-04-19T13:45:52Z</time>
      </trkpt>
      <trkpt lat="42.999367" lon="-2.994133">
        <ele>831.0</ele>
        <time>2014-04-19T13:45:53Z</time>
      </trkpt>
      <trkpt lat="42.999300" lon="-2.994183">
        <ele>831.0</ele>
        <time>2014-04-19T13:45:54Z</time>
      </trkpt>
      <trkpt lat="42.999217" lon="-2.994250">
        <ele>830.0</ele>
        <time>2014-04-19T13:45:55Z</time>
      </trkpt>
      <trkpt lat="42.999133" lon="-2.994317">
        <ele>829.0</ele>
        <time>2014-04-19T13:45:56Z</time>
      </trkpt>
      <trkpt lat="42.999033" lon="-2.994400">
        <ele>828.0</ele>
        <time>2014-04-19T13:45:57Z</time>
      </trkpt>
      <trkpt lat="42.998950" lon="-2.994467">
        <ele>828.0</ele>
        <time>2014-04-19T13:45:58Z</time>
      </trkpt>
      <trkpt lat="42.998883" lon="-2.994533">
        <ele>828.0</ele>
        <time>2014-04-19T13:45:59Z</time>
      </trkpt>
      <trkpt lat="42.998817" lon="-2.994600">
        <ele>828.0</ele>
        <time>2014-04-19T13:46:00Z</time>
      </trkpt>
      <trkpt lat="42.998733" lon="-2.994650">
        <ele>827.0</ele>
        <time>2014-04-19T13:46:01Z</time>
      </trkpt>
      <trkpt lat="42.998650" lon="-2.994717">
        <ele>825.0</ele>
        <time>2014-04-19T13:46:02Z</time>
      </trkpt>
      <trkpt lat="42.998567" lon="-2.994800">
        <ele>822.0</ele>
        <time>2014-04-19T13:46:03Z</time>
      </trkpt>
      <trkpt lat="42.998450" lon="-2.994900">
        <ele>819.0</ele>
        <time>2014-04-19T13:46:04Z</time>
      </trkpt>
      <trkpt lat="42.998367" lon="-2.994967">
        <ele>818.0</ele>
        <time>2014-04-19T13:46:05Z</time>
      </trkpt>
      <trkpt lat="42.998267" lon="-2.995033">
        <ele>818.0</ele>
        <time>2014-04-19T13:46:06Z</time>
      </trkpt>
      <trkpt lat="42.998167" lon="-2.995083">
        <ele>817.0</ele>
        <time>2014-04-19T13:46:07Z</time>
      </trkpt>
      <trkpt lat="42.998083" lon="-2.995150">
        <ele>815.0</ele>
        <time>2014-04-19T13:46:08Z</time>
      </trkpt>
      <trkpt lat="42.997983" lon="-2.995217">
        <ele>814.0</ele>
        <time>2014-04-19T13:46:09Z</time>
      </trkpt>
      <trkpt lat="42.997883" lon="-2.995300">
        <ele>812.0</ele>
        <time>2014-04-19T13:46:10Z</time>
      </trkpt>
      <trkpt lat="42.997783" lon="-2.995367">
        <ele>811.0</ele>
        <time>2014-04-19T13:46:11Z</time>
      </trkpt>
      <trkpt lat="42.997700" lon="-2.995433">
        <ele>810.0</ele>
        <time>2014-04-19T13:46:12Z</time>
      </trkpt>
      <trkpt lat="42.997600" lon="-2.995500">
        <ele>809.0</ele>
        <time>2014-04-19T13:46:13Z</time>
      </trkpt>
      <trkpt lat="42.997517" lon="-2.995567">
        <ele>808.0</ele>
        <time>2014-04-19T13:46:14Z</time>
      </trkpt>
      <trkpt lat="42.997417" lon="-2.995650">
        <ele>806.0</ele>
        <time>2014-04-19T13:46:15Z</time>
      </trkpt>
      <trkpt lat="42.997317" lon="-2.995733">
        <ele>804.0</ele>
        <time>2014-04-19T13:46:16Z</time>
      </trkpt>
      <trkpt lat="42.997217" lon="-2.995800">
        <ele>803.0</ele>
        <time>2014-04-19T13:46:17Z</time>
      </trkpt>
      <trkpt lat="42.997133" lon="-2.995850">
        <ele>802.0</ele>
        <time>2014-04-19T13:46:18Z</time>
      </trkpt>
      <trkpt lat="42.997033" lon="-2.995917">
        <ele>801.0</ele>
        <time>2014-04-19T13:46:19Z</time>
      </trkpt>
      <trkpt lat="42.996950" lon="-2.995983">
        <ele>800.0</ele>
        <time>2014-04-19T13:46:20Z</time>
      </trkpt>
      <trkpt lat="42.996867" lon="-2.996050">
        <ele>798.0</ele>
        <time>2014-04-19T13:46:21Z</time>
      </trkpt>
      <trkpt lat="42.996767" lon="-2.996117">
        <ele>796.0</ele>
        <time>2014-04-19T13:46:22Z</time>
      </trkpt>
      <trkpt lat="42.996667" lon="-2.996200">
        <ele>795.0</ele>
        <time>2014-04-19T13:46:23Z</time>
      </trkpt>
      <trkpt lat="42.996567" lon="-2.996283">
        <ele>794.0</ele>
        <time>2014-04-19T13:46:24Z</time>
      </trkpt>
      <trkpt lat="42.996483" lon="-2.996367">
        <ele>794.0</ele>
        <time>2014-04-19T13:46:25Z</time>
      </trkpt>
      <trkpt lat="42.996400" lon="-2.996467">
        <ele>794.0</ele>
        <time>2014-04-19T13:46:26Z</time>
      </trkpt>
      <trkpt lat="42.996333" lon="-2.996550">
        <ele>794.0</ele>
        <time>2014-04-19T13:46:27Z</time>
      </trkpt>
      <trkpt lat="42.996250" lon="-2.996633">
        <ele>794.0</ele>
        <time>2014-04-19T13:46:28Z</time>
      </trkpt>
      <trkpt lat="42.996183" lon="-2.996717">
        <ele>794.0</ele>
        <time>2014-04-19T13:46:29Z</time>
      </trkpt>
      <trkpt lat="42.996100" lon="-2.996800">
        <ele>794.0</ele>
        <time>2014-04-19T13:46:30Z</time>
      </trkpt>
      <trkpt lat="42.996033" lon="-2.996883">
        <ele>793.0</ele>
        <time>2014-04-19T13:46:31Z</time>
      </trkpt>
      <trkpt lat="42.995950" lon="-2.996983">
        <ele>792.0</ele>
        <time>2014-04-19T13:46:32Z</time>
      </trkpt>
      <trkpt lat="42.995867" lon="-2.997083">
        <ele>790.0</ele>
        <time>2014-04-19T13:46:33Z</time>
      </trkpt>
      <trkpt lat="42.995783" lon="-2.997183">
        <ele>789.0</ele>
        <time>2014-04-19T13:46:34Z</time>
      </trkpt>
      <trkpt lat="42.995700" lon="-2.997283">
        <ele>789.0</ele>
        <time>2014-04-19T13:46:35Z</time>
      </trkpt>
      <trkpt lat="42.995633" lon="-2.997383">
        <ele>790.0</ele>
        <time>2014-04-19T13:46:36Z</time>
      </trkpt>
      <trkpt lat="42.995567" lon="-2.997467">
        <ele>791.0</ele>
        <time>2014-04-19T13:46:37Z</time>
      </trkpt>
      <trkpt lat="42.995500" lon="-2.997533">
        <ele>793.0</ele>
        <time>2014-04-19T13:46:38Z</time>
      </trkpt>
      <trkpt lat="42.995433" lon="-2.997600">
        <ele>793.0</ele>
        <time>2014-04-19T13:46:39Z</time>
      </trkpt>
      <trkpt lat="42.995367" lon="-2.997683">
        <ele>793.0</ele>
        <time>2014-04-19T13:46:40Z</time>
      </trkpt>
      <trkpt lat="42.995317" lon="-2.997783">
        <ele>792.0</ele>
        <time>2014-04-19T13:46:41Z</time>
      </trkpt>
      <trkpt lat="42.995300" lon="-2.997883">
        <ele>791.0</ele>
        <time>2014-04-19T13:46:42Z</time>
      </trkpt>
      <trkpt lat="42.995300" lon="-2.997983">
        <ele>791.0</ele>
        <time>2014-04-19T13:46:43Z</time>
      </trkpt>
      <trkpt lat="42.995300" lon="-2.998067">
        <ele>791.0</ele>
        <time>2014-04-19T13:46:44Z</time>
      </trkpt>
      <trkpt lat="42.995333" lon="-2.998117">
        <ele>791.0</ele>
        <time>2014-04-19T13:46:45Z</time>
      </trkpt>
      <trkpt lat="42.995367" lon="-2.998167">
        <ele>791.0</ele>
        <time>2014-04-19T13:46:46Z</time>
      </trkpt>
      <trkpt lat="42.995400" lon="-2.998200">
        <ele>790.0</ele>
        <time>2014-04-19T13:46:47Z</time>
      </trkpt>
      <trkpt lat="42.995450" lon="-2.998200">
        <ele>790.0</ele>
        <time>2014-04-19T13:46:48Z</time>
      </trkpt>
      <trkpt lat="42.995500" lon="-2.998183">
        <ele>789.0</ele>
        <time>2014-04-19T13:46:49Z</time>
      </trkpt>
      <trkpt lat="42.995550" lon="-2.998133">
        <ele>789.0</ele>
        <time>2014-04-19T13:46:50Z</time>
      </trkpt>
      <trkpt lat="42.995567" lon="-2.998067">
        <ele>790.0</ele>
        <time>2014-04-19T13:46:51Z</time>
      </trkpt>
      <trkpt lat="42.995583" lon="-2.997983">
        <ele>790.0</ele>
        <time>2014-04-19T13:46:52Z</time>
      </trkpt>
      <trkpt lat="42.995583" lon="-2.997883">
        <ele>790.0</ele>
        <time>2014-04-19T13:46:53Z</time>
      </trkpt>
      <trkpt lat="42.995550" lon="-2.997767">
        <ele>790.0</ele>
        <time>2014-04-19T13:46:54Z</time>
      </trkpt>
      <trkpt lat="42.995517" lon="-2.997650">
        <ele>790.0</ele>
        <time>2014-04-19T13:46:55Z</time>
      </trkpt>
      <trkpt lat="42.995467" lon="-2.997533">
        <ele>789.0</ele>
        <time>2014-04-19T13:46:56Z</time>
      </trkpt>
      <trkpt lat="42.995417" lon="-2.997433">
        <ele>789.0</ele>
        <time>2014-04-19T13:46:57Z</time>
      </trkpt>
      <trkpt lat="42.995333" lon="-2.997350">
        <ele>790.0</ele>
        <time>2014-04-19T13:46:58Z</time>
      </trkpt>
      <trkpt lat="42.995267" lon="-2.997300">
        <ele>791.0</ele>
        <time>2014-04-19T13:46:59Z</time>
      </trkpt>
      <trkpt lat="42.995183" lon="-2.997267">
        <ele>791.0</ele>
        <time>2014-04-19T13:47:00Z</time>
      </trkpt>
      <trkpt lat="42.995083" lon="-2.997250">
        <ele>791.0</ele>
        <time>2014-04-19T13:47:01Z</time>
      </trkpt>
      <trkpt lat="42.994983" lon="-2.997250">
        <ele>790.0</ele>
        <time>2014-04-19T13:47:02Z</time>
      </trkpt>
      <trkpt lat="42.994867" lon="-2.997267">
        <ele>789.0</ele>
        <time>2014-04-19T13:47:03Z</time>
      </trkpt>
      <trkpt lat="42.994767" lon="-2.997300">
        <ele>789.0</ele>
        <time>2014-04-19T13:47:04Z</time>
      </trkpt>
      <trkpt lat="42.994667" lon="-2.997350">
        <ele>788.0</ele>
        <time>2014-04-19T13:47:05Z</time>
      </trkpt>
      <trkpt lat="42.994583" lon="-2.997417">
        <ele>788.0</ele>
        <time>2014-04-19T13:47:06Z</time>
      </trkpt>
      <trkpt lat="42.994500" lon="-2.997467">
        <ele>788.0</ele>
        <time>2014-04-19T13:47:07Z</time>
      </trkpt>
      <trkpt lat="42.994417" lon="-2.997533">
        <ele>788.0</ele>
        <time>2014-04-19T13:47:08Z</time>
      </trkpt>
      <trkpt lat="42.994350" lon="-2.997617">
        <ele>788.0</ele>
        <time>2014-04-19T13:47:09Z</time>
      </trkpt>
      <trkpt lat="42.994300" lon="-2.997717">
        <ele>787.0</ele>
        <time>2014-04-19T13:47:10Z</time>
      </trkpt>
      <trkpt lat="42.994233" lon="-2.997800">
        <ele>786.0</ele>
        <time>2014-04-19T13:47:11Z</time>
      </trkpt>
      <trkpt lat="42.994167" lon="-2.997883">
        <ele>786.0</ele>
        <time>2014-04-19T13:47:12Z</time>
      </trkpt>
      <trkpt lat="42.994083" lon="-2.997950">
        <ele>786.0</ele>
        <time>2014-04-19T13:47:13Z</time>
      </trkpt>
      <trkpt lat="42.994000" lon="-2.998017">
        <ele>786.0</ele>
        <time>2014-04-19T13:47:14Z</time>
      </trkpt>
      <trkpt lat="42.993917" lon="-2.998083">
        <ele>786.0</ele>
        <time>2014-04-19T13:47:15Z</time>
      </trkpt>
      <trkpt lat="42.993833" lon="-2.998167">
        <ele>785.0</ele>
        <time>2014-04-19T13:47:16Z</time>
      </trkpt>
      <trkpt lat="42.993750" lon="-2.998233">
        <ele>785.0</ele>
        <time>2014-04-19T13:47:17Z</time>
      </trkpt>
      <trkpt lat="42.993683" lon="-2.998317">
        <ele>785.0</ele>
        <time>2014-04-19T13:47:18Z</time>
      </trkpt>
      <trkpt lat="42.993600" lon="-2.998383">
        <ele>785.0</ele>
        <time>2014-04-19T13:47:19Z</time>
      </trkpt>
      <trkpt lat="42.993533" lon="-2.998450">
        <ele>784.0</ele>
        <time>2014-04-19T13:47:20Z</time>
      </trkpt>
      <trkpt lat="42.993450" lon="-2.998533">
        <ele>783.0</ele>
        <time>2014-04-19T13:47:21Z</time>
      </trkpt>
      <trkpt lat="42.993383" lon="-2.998633">
        <ele>782.0</ele>
        <time>2014-04-19T13:47:22Z</time>
      </trkpt>
      <trkpt lat="42.993300" lon="-2.998717">
        <ele>782.0</ele>
        <time>2014-04-19T13:47:23Z</time>
      </trkpt>
      <trkpt lat="42.993217" lon="-2.998783">
        <ele>781.0</ele>
        <time>2014-04-19T13:47:24Z</time>
      </trkpt>
      <trkpt lat="42.993150" lon="-2.998867">
        <ele>781.0</ele>
        <time>2014-04-19T13:47:25Z</time>
      </trkpt>
      <trkpt lat="42.993083" lon="-2.998933">
        <ele>780.0</ele>
        <time>2014-04-19T13:47:26Z</time>
      </trkpt>
      <trkpt lat="42.993017" lon="-2.999017">
        <ele>779.0</ele>
        <time>2014-04-19T13:47:27Z</time>
      </trkpt>
      <trkpt lat="42.992933" lon="-2.999083">
        <ele>778.0</ele>
        <time>2014-04-19T13:47:28Z</time>
      </trkpt>
      <trkpt lat="42.992850" lon="-2.999150">
        <ele>777.0</ele>
        <time>2014-04-19T13:47:29Z</time>
      </trkpt>
      <trkpt lat="42.992783" lon="-2.999217">
        <ele>775.0</ele>
        <time>2014-04-19T13:47:30Z</time>
      </trkpt>
      <trkpt lat="42.992700" lon="-2.999267">
        <ele>774.0</ele>
        <time>2014-04-19T13:47:31Z</time>
      </trkpt>
      <trkpt lat="42.992633" lon="-2.999333">
        <ele>773.0</ele>
        <time>2014-04-19T13:47:32Z</time>
      </trkpt>
      <trkpt lat="42.992550" lon="-2.999400">
        <ele>772.0</ele>
        <time>2014-04-19T13:47:33Z</time>
      </trkpt>
      <trkpt lat="42.992483" lon="-2.999483">
        <ele>771.0</ele>
        <time>2014-04-19T13:47:34Z</time>
      </trkpt>
      <trkpt lat="42.992417" lon="-2.999550">
        <ele>770.0</ele>
        <time>2014-04-19T13:47:35Z</time>
      </trkpt>
      <trkpt lat="42.992333" lon="-2.999633">
        <ele>769.0</ele>
        <time>2014-04-19T13:47:36Z</time>
      </trkpt>
      <trkpt lat="42.992267" lon="-2.999700">
        <ele>768.0</ele>
        <time>2014-04-19T13:47:37Z</time>
      </trkpt>
      <trkpt lat="42.992200" lon="-2.999783">
        <ele>766.0</ele>
        <time>2014-04-19T13:47:38Z</time>
      </trkpt>
      <trkpt lat="42.992133" lon="-2.999850">
        <ele>765.0</ele>
        <time>2014-04-19T13:47:39Z</time>
      </trkpt>
      <trkpt lat="42.992050" lon="-2.999933">
        <ele>763.0</ele>
        <time>2014-04-19T13:47:40Z</time>
      </trkpt>
      <trkpt lat="42.991983" lon="-3.000000">
        <ele>762.0</ele>
        <time>2014-04-19T13:47:41Z</time>
      </trkpt>
      <trkpt lat="42.991900" lon="-3.000067">
        <ele>761.0</ele>
        <time>2014-04-19T13:47:42Z</time>
      </trkpt>
      <trkpt lat="42.991817" lon="-3.000133">
        <ele>760.0</ele>
        <time>2014-04-19T13:47:43Z</time>
      </trkpt>
      <trkpt lat="42.991750" lon="-3.000200">
        <ele>759.0</ele>
        <time>2014-04-19T13:47:44Z</time>
      </trkpt>
      <trkpt lat="42.991683" lon="-3.000267">
        <ele>758.0</ele>
        <time>2014-04-19T13:47:45Z</time>
      </trkpt>
      <trkpt lat="42.991617" lon="-3.000350">
        <ele>756.0</ele>
        <time>2014-04-19T13:47:46Z</time>
      </trkpt>
      <trkpt lat="42.991550" lon="-3.000417">
        <ele>755.0</ele>
        <time>2014-04-19T13:47:47Z</time>
      </trkpt>
      <trkpt lat="42.991467" lon="-3.000483">
        <ele>753.0</ele>
        <time>2014-04-19T13:47:48Z</time>
      </trkpt>
      <trkpt lat="42.991383" lon="-3.000550">
        <ele>751.0</ele>
        <time>2014-04-19T13:47:49Z</time>
      </trkpt>
      <trkpt lat="42.991300" lon="-3.000617">
        <ele>749.0</ele>
        <time>2014-04-19T13:47:50Z</time>
      </trkpt>
      <trkpt lat="42.991217" lon="-3.000683">
        <ele>747.0</ele>
        <time>2014-04-19T13:47:51Z</time>
      </trkpt>
      <trkpt lat="42.991133" lon="-3.000750">
        <ele>746.0</ele>
        <time>2014-04-19T13:47:52Z</time>
      </trkpt>
      <trkpt lat="42.991050" lon="-3.000833">
        <ele>744.0</ele>
        <time>2014-04-19T13:47:53Z</time>
      </trkpt>
      <trkpt lat="42.990950" lon="-3.000900">
        <ele>743.0</ele>
        <time>2014-04-19T13:47:54Z</time>
      </trkpt>
      <trkpt lat="42.990867" lon="-3.000967">
        <ele>741.0</ele>
        <time>2014-04-19T13:47:55Z</time>
      </trkpt>
      <trkpt lat="42.990800" lon="-3.001033">
        <ele>740.0</ele>
        <time>2014-04-19T13:47:56Z</time>
      </trkpt>
      <trkpt lat="42.990717" lon="-3.001100">
        <ele>739.0</ele>
        <time>2014-04-19T13:47:57Z</time>
      </trkpt>
      <trkpt lat="42.990633" lon="-3.001167">
        <ele>737.0</ele>
        <time>2014-04-19T13:47:58Z</time>
      </trkpt>
      <trkpt lat="42.990533" lon="-3.001250">
        <ele>735.0</ele>
        <time>2014-04-19T13:47:59Z</time>
      </trkpt>
      <trkpt lat="42.990450" lon="-3.001333">
        <ele>734.0</ele>
        <time>2014-04-19T13:48:00Z</time>
      </trkpt>
      <trkpt lat="42.990350" lon="-3.001400">
        <ele>733.0</ele>
        <time>2014-04-19T13:48:01Z</time>
      </trkpt>
      <trkpt lat="42.990267" lon="-3.001450">
        <ele>732.0</ele>
        <time>2014-04-19T13:48:02Z</time>
      </trkpt>
      <trkpt lat="42.990167" lon="-3.001500">
        <ele>732.0</ele>
        <time>2014-04-19T13:48:03Z</time>
      </trkpt>
      <trkpt lat="42.990067" lon="-3.001567">
        <ele>732.0</ele>
        <time>2014-04-19T13:48:04Z</time>
      </trkpt>
      <trkpt lat="42.989983" lon="-3.001633">
        <ele>731.0</ele>
        <time>2014-04-19T13:48:05Z</time>
      </trkpt>
      <trkpt lat="42.989883" lon="-3.001700">
        <ele>730.0</ele>
        <time>2014-04-19T13:48:06Z</time>
      </trkpt>
      <trkpt lat="42.989783" lon="-3.001767">
        <ele>730.0</ele>
        <time>2014-04-19T13:48:07Z</time>
      </trkpt>
      <trkpt lat="42.989700" lon="-3.001850">
        <ele>729.0</ele>
        <time>2014-04-19T13:48:08Z</time>
      </trkpt>
      <trkpt lat="42.989617" lon="-3.001917">
        <ele>729.0</ele>
        <time>2014-04-19T13:48:09Z</time>
      </trkpt>
      <trkpt lat="42.989533" lon="-3.002000">
        <ele>728.0</ele>
        <time>2014-04-19T13:48:10Z</time>
      </trkpt>
      <trkpt lat="42.989433" lon="-3.002067">
        <ele>726.0</ele>
        <time>2014-04-19T13:48:11Z</time>
      </trkpt>
      <trkpt lat="42.989317" lon="-3.002133">
        <ele>725.0</ele>
        <time>2014-04-19T13:48:12Z</time>
      </trkpt>
      <trkpt lat="42.989200" lon="-3.002217">
        <ele>724.0</ele>
        <time>2014-04-19T13:48:13Z</time>
      </trkpt>
      <trkpt lat="42.989100" lon="-3.002300">
        <ele>724.0</ele>
        <time>2014-04-19T13:48:14Z</time>
      </trkpt>
      <trkpt lat="42.989017" lon="-3.002383">
        <ele>725.0</ele>
        <time>2014-04-19T13:48:15Z</time>
      </trkpt>
      <trkpt lat="42.988933" lon="-3.002467">
        <ele>724.0</ele>
        <time>2014-04-19T13:48:16Z</time>
      </trkpt>
      <trkpt lat="42.988833" lon="-3.002550">
        <ele>724.0</ele>
        <time>2014-04-19T13:48:17Z</time>
      </trkpt>
      <trkpt lat="42.988733" lon="-3.002650">
        <ele>722.0</ele>
        <time>2014-04-19T13:48:18Z</time>
      </trkpt>
      <trkpt lat="42.988617" lon="-3.002717">
        <ele>721.0</ele>
        <time>2014-04-19T13:48:19Z</time>
      </trkpt>
      <trkpt lat="42.988517" lon="-3.002800">
        <ele>721.0</ele>
        <time>2014-04-19T13:48:20Z</time>
      </trkpt>
      <trkpt lat="42.988433" lon="-3.002883">
        <ele>721.0</ele>
        <time>2014-04-19T13:48:21Z</time>
      </trkpt>
      <trkpt lat="42.988333" lon="-3.002967">
        <ele>722.0</ele>
        <time>2014-04-19T13:48:22Z</time>
      </trkpt>
      <trkpt lat="42.988250" lon="-3.003050">
        <ele>722.0</ele>
        <time>2014-04-19T13:48:23Z</time>
      </trkpt>
      <trkpt lat="42.988167" lon="-3.003133">
        <ele>723.0</ele>
        <time>2014-04-19T13:48:24Z</time>
      </trkpt>
      <trkpt lat="42.988100" lon="-3.003233">
        <ele>723.0</ele>
        <time>2014-04-19T13:48:25Z</time>
      </trkpt>
      <trkpt lat="42.988033" lon="-3.003350">
        <ele>721.0</ele>
        <time>2014-04-19T13:48:26Z</time>
      </trkpt>
      <trkpt lat="42.987983" lon="-3.003467">
        <ele>720.0</ele>
        <time>2014-04-19T13:48:27Z</time>
      </trkpt>
      <trkpt lat="42.987950" lon="-3.003600">
        <ele>720.0</ele>
        <time>2014-04-19T13:48:28Z</time>
      </trkpt>
      <trkpt lat="42.987933" lon="-3.003733">
        <ele>719.0</ele>
        <time>2014-04-19T13:48:29Z</time>
      </trkpt>
      <trkpt lat="42.987933" lon="-3.003833">
        <ele>719.0</ele>
        <time>2014-04-19T13:48:30Z</time>
      </trkpt>
      <trkpt lat="42.987950" lon="-3.003917">
        <ele>720.0</ele>
        <time>2014-04-19T13:48:31Z</time>
      </trkpt>
      <trkpt lat="42.987950" lon="-3.003967">
        <ele>720.0</ele>
        <time>2014-04-19T13:48:32Z</time>
      </trkpt>
      <trkpt lat="42.987983" lon="-3.004017">
        <ele>719.0</ele>
        <time>2014-04-19T13:48:33Z</time>
      </trkpt>
      <trkpt lat="42.988017" lon="-3.004067">
        <ele>718.0</ele>
        <time>2014-04-19T13:48:34Z</time>
      </trkpt>
      <trkpt lat="42.988050" lon="-3.004100">
        <ele>716.0</ele>
        <time>2014-04-19T13:48:35Z</time>
      </trkpt>
      <trkpt lat="42.988083" lon="-3.004150">
        <ele>715.0</ele>
        <time>2014-04-19T13:48:36Z</time>
      </trkpt>
      <trkpt lat="42.988117" lon="-3.004217">
        <ele>714.0</ele>
        <time>2014-04-19T13:48:37Z</time>
      </trkpt>
      <trkpt lat="42.988133" lon="-3.004300">
        <ele>713.0</ele>
        <time>2014-04-19T13:48:38Z</time>
      </trkpt>
      <trkpt lat="42.988117" lon="-3.004400">
        <ele>713.0</ele>
        <time>2014-04-19T13:48:39Z</time>
      </trkpt>
      <trkpt lat="42.988117" lon="-3.004517">
        <ele>711.0</ele>
        <time>2014-04-19T13:48:40Z</time>
      </trkpt>
      <trkpt lat="42.988100" lon="-3.004633">
        <ele>710.0</ele>
        <time>2014-04-19T13:48:41Z</time>
      </trkpt>
      <trkpt lat="42.988067" lon="-3.004750">
        <ele>709.0</ele>
        <time>2014-04-19T13:48:42Z</time>
      </trkpt>
      <trkpt lat="42.988017" lon="-3.004867">
        <ele>709.0</ele>
        <time>2014-04-19T13:48:43Z</time>
      </trkpt>
      <trkpt lat="42.987950" lon="-3.004967">
        <ele>708.0</ele>
        <time>2014-04-19T13:48:44Z</time>
      </trkpt>
      <trkpt lat="42.987867" lon="-3.005067">
        <ele>708.0</ele>
        <time>2014-04-19T13:48:45Z</time>
      </trkpt>
      <trkpt lat="42.987783" lon="-3.005167">
        <ele>707.0</ele>
        <time>2014-04-19T13:48:46Z</time>
      </trkpt>
      <trkpt lat="42.987700" lon="-3.005250">
        <ele>706.0</ele>
        <time>2014-04-19T13:48:47Z</time>
      </trkpt>
      <trkpt lat="42.987617" lon="-3.005350">
        <ele>706.0</ele>
        <time>2014-04-19T13:48:48Z</time>
      </trkpt>
      <trkpt lat="42.987533" lon="-3.005450">
        <ele>705.0</ele>
        <time>2014-04-19T13:48:49Z</time>
      </trkpt>
      <trkpt lat="42.987433" lon="-3.005550">
        <ele>704.0</ele>
        <time>2014-04-19T13:48:50Z</time>
      </trkpt>
      <trkpt lat="42.987350" lon="-3.005633">
        <ele>704.0</ele>
        <time>2014-04-19T13:48:51Z</time>
      </trkpt>
      <trkpt lat="42.987267" lon="-3.005733">
        <ele>703.0</ele>
        <time>2014-04-19T13:48:52Z</time>
      </trkpt>
      <trkpt lat="42.987167" lon="-3.005833">
        <ele>702.0</ele>
        <time>2014-04-19T13:48:53Z</time>
      </trkpt>
      <trkpt lat="42.987083" lon="-3.005917">
        <ele>701.0</ele>
        <time>2014-04-19T13:48:54Z</time>
      </trkpt>
      <trkpt lat="42.986983" lon="-3.006017">
        <ele>700.0</ele>
        <time>2014-04-19T13:48:55Z</time>
      </trkpt>
      <trkpt lat="42.986900" lon="-3.006100">
        <ele>700.0</ele>
        <time>2014-04-19T13:48:56Z</time>
      </trkpt>
      <trkpt lat="42.986800" lon="-3.006200">
        <ele>699.0</ele>
        <time>2014-04-19T13:48:57Z</time>
      </trkpt>
      <trkpt lat="42.986717" lon="-3.006300">
        <ele>699.0</ele>
        <time>2014-04-19T13:48:58Z</time>
      </trkpt>
      <trkpt lat="42.986617" lon="-3.006383">
        <ele>698.0</ele>
        <time>2014-04-19T13:48:59Z</time>
      </trkpt>
      <trkpt lat="42.986533" lon="-3.006467">
        <ele>698.0</ele>
        <time>2014-04-19T13:49:00Z</time>
      </trkpt>
      <trkpt lat="42.986433" lon="-3.006550">
        <ele>698.0</ele>
        <time>2014-04-19T13:49:01Z</time>
      </trkpt>
      <trkpt lat="42.986333" lon="-3.006617">
        <ele>698.0</ele>
        <time>2014-04-19T13:49:02Z</time>
      </trkpt>
      <trkpt lat="42.986250" lon="-3.006700">
        <ele>697.0</ele>
        <time>2014-04-19T13:49:03Z</time>
      </trkpt>
      <trkpt lat="42.986167" lon="-3.006783">
        <ele>698.0</ele>
        <time>2014-04-19T13:49:04Z</time>
      </trkpt>
      <trkpt lat="42.986083" lon="-3.006850">
        <ele>700.0</ele>
        <time>2014-04-19T13:49:05Z</time>
      </trkpt>
      <trkpt lat="42.986033" lon="-3.006900">
        <ele>701.0</ele>
        <time>2014-04-19T13:49:06Z</time>
      </trkpt>
      <trkpt lat="42.985967" lon="-3.006950">
        <ele>702.0</ele>
        <time>2014-04-19T13:49:07Z</time>
      </trkpt>
      <trkpt lat="42.985883" lon="-3.007033">
        <ele>703.0</ele>
        <time>2014-04-19T13:49:08Z</time>
      </trkpt>
      <trkpt lat="42.985817" lon="-3.007117">
        <ele>703.0</ele>
        <time>2014-04-19T13:49:09Z</time>
      </trkpt>
      <trkpt lat="42.985750" lon="-3.007233">
        <ele>702.0</ele>
        <time>2014-04-19T13:49:10Z</time>
      </trkpt>
      <trkpt lat="42.985733" lon="-3.007333">
        <ele>703.0</ele>
        <time>2014-04-19T13:49:11Z</time>
      </trkpt>
      <trkpt lat="42.985733" lon="-3.007433">
        <ele>703.0</ele>
        <time>2014-04-19T13:49:12Z</time>
      </trkpt>
      <trkpt lat="42.985750" lon="-3.007517">
        <ele>703.0</ele>
        <time>2014-04-19T13:49:13Z</time>
      </trkpt>
      <trkpt lat="42.985767" lon="-3.007600">
        <ele>702.0</ele>
        <time>2014-04-19T13:49:14Z</time>
      </trkpt>
      <trkpt lat="42.985800" lon="-3.007683">
        <ele>702.0</ele>
        <time>2014-04-19T13:49:15Z</time>
      </trkpt>
      <trkpt lat="42.985833" lon="-3.007783">
        <ele>701.0</ele>
        <time>2014-04-19T13:49:16Z</time>
      </trkpt>
      <trkpt lat="42.985850" lon="-3.007883">
        <ele>700.0</ele>
        <time>2014-04-19T13:49:17Z</time>
      </trkpt>
      <trkpt lat="42.985850" lon="-3.008000">
        <ele>700.0</ele>
        <time>2014-04-19T13:49:18Z</time>
      </trkpt>
      <trkpt lat="42.985833" lon="-3.008117">
        <ele>699.0</ele>
        <time>2014-04-19T13:49:19Z</time>
      </trkpt>
      <trkpt lat="42.985800" lon="-3.008250">
        <ele>698.0</ele>
        <time>2014-04-19T13:49:20Z</time>
      </trkpt>
      <trkpt lat="42.985750" lon="-3.008383">
        <ele>697.0</ele>
        <time>2014-04-19T13:49:21Z</time>
      </trkpt>
      <trkpt lat="42.985700" lon="-3.008483">
        <ele>697.0</ele>
        <time>2014-04-19T13:49:22Z</time>
      </trkpt>
      <trkpt lat="42.985633" lon="-3.008583">
        <ele>697.0</ele>
        <time>2014-04-19T13:49:23Z</time>
      </trkpt>
      <trkpt lat="42.985567" lon="-3.008700">
        <ele>697.0</ele>
        <time>2014-04-19T13:49:24Z</time>
      </trkpt>
      <trkpt lat="42.985483" lon="-3.008800">
        <ele>697.0</ele>
        <time>2014-04-19T13:49:25Z</time>
      </trkpt>
      <trkpt lat="42.985383" lon="-3.008900">
        <ele>696.0</ele>
        <time>2014-04-19T13:49:26Z</time>
      </trkpt>
      <trkpt lat="42.985300" lon="-3.009000">
        <ele>695.0</ele>
        <time>2014-04-19T13:49:27Z</time>
      </trkpt>
      <trkpt lat="42.985200" lon="-3.009083">
        <ele>695.0</ele>
        <time>2014-04-19T13:49:28Z</time>
      </trkpt>
      <trkpt lat="42.985117" lon="-3.009183">
        <ele>695.0</ele>
        <time>2014-04-19T13:49:29Z</time>
      </trkpt>
      <trkpt lat="42.985017" lon="-3.009267">
        <ele>695.0</ele>
        <time>2014-04-19T13:49:30Z</time>
      </trkpt>
      <trkpt lat="42.984917" lon="-3.009350">
        <ele>694.0</ele>
        <time>2014-04-19T13:49:31Z</time>
      </trkpt>
      <trkpt lat="42.984817" lon="-3.009433">
        <ele>693.0</ele>
        <time>2014-04-19T13:49:32Z</time>
      </trkpt>
      <trkpt lat="42.984717" lon="-3.009517">
        <ele>692.0</ele>
        <time>2014-04-19T13:49:33Z</time>
      </trkpt>
      <trkpt lat="42.984600" lon="-3.009600">
        <ele>692.0</ele>
        <time>2014-04-19T13:49:34Z</time>
      </trkpt>
      <trkpt lat="42.984517" lon="-3.009667">
        <ele>691.0</ele>
        <time>2014-04-19T13:49:35Z</time>
      </trkpt>
      <trkpt lat="42.984417" lon="-3.009750">
        <ele>691.0</ele>
        <time>2014-04-19T13:49:36Z</time>
      </trkpt>
      <trkpt lat="42.984317" lon="-3.009833">
        <ele>690.0</ele>
        <time>2014-04-19T13:49:37Z</time>
      </trkpt>
      <trkpt lat="42.984200" lon="-3.009900">
        <ele>689.0</ele>
        <time>2014-04-19T13:49:38Z</time>
      </trkpt>
      <trkpt lat="42.984100" lon="-3.009983">
        <ele>689.0</ele>
        <time>2014-04-19T13:49:39Z</time>
      </trkpt>
      <trkpt lat="42.984000" lon="-3.010050">
        <ele>689.0</ele>
        <time>2014-04-19T13:49:40Z</time>
      </trkpt>
      <trkpt lat="42.983917" lon="-3.010117">
        <ele>690.0</ele>
        <time>2014-04-19T13:49:41Z</time>
      </trkpt>
      <trkpt lat="42.983817" lon="-3.010183">
        <ele>691.0</ele>
        <time>2014-04-19T13:49:42Z</time>
      </trkpt>
      <trkpt lat="42.983717" lon="-3.010250">
        <ele>691.0</ele>
        <time>2014-04-19T13:49:43Z</time>
      </trkpt>
      <trkpt lat="42.983633" lon="-3.010317">
        <ele>691.0</ele>
        <time>2014-04-19T13:49:44Z</time>
      </trkpt>
      <trkpt lat="42.983550" lon="-3.010400">
        <ele>690.0</ele>
        <time>2014-04-19T13:49:45Z</time>
      </trkpt>
      <trkpt lat="42.983500" lon="-3.010500">
        <ele>690.0</ele>
        <time>2014-04-19T13:49:46Z</time>
      </trkpt>
      <trkpt lat="42.983467" lon="-3.010617">
        <ele>690.0</ele>
        <time>2014-04-19T13:49:47Z</time>
      </trkpt>
      <trkpt lat="42.983433" lon="-3.010733">
        <ele>689.0</ele>
        <time>2014-04-19T13:49:48Z</time>
      </trkpt>
      <trkpt lat="42.983417" lon="-3.010850">
        <ele>689.0</ele>
        <time>2014-04-19T13:49:49Z</time>
      </trkpt>
      <trkpt lat="42.983400" lon="-3.010950">
        <ele>689.0</ele>
        <time>2014-04-19T13:49:50Z</time>
      </trkpt>
      <trkpt lat="42.983400" lon="-3.011067">
        <ele>689.0</ele>
        <time>2014-04-19T13:49:51Z</time>
      </trkpt>
      <trkpt lat="42.983400" lon="-3.011167">
        <ele>689.0</ele>
        <time>2014-04-19T13:49:52Z</time>
      </trkpt>
      <trkpt lat="42.983417" lon="-3.011267">
        <ele>689.0</ele>
        <time>2014-04-19T13:49:53Z</time>
      </trkpt>
      <trkpt lat="42.983450" lon="-3.011350">
        <ele>689.0</ele>
        <time>2014-04-19T13:49:54Z</time>
      </trkpt>
      <trkpt lat="42.983483" lon="-3.011417">
        <ele>689.0</ele>
        <time>2014-04-19T13:49:55Z</time>
      </trkpt>
      <trkpt lat="42.983533" lon="-3.011450">
        <ele>689.0</ele>
        <time>2014-04-19T13:49:56Z</time>
      </trkpt>
      <trkpt lat="42.983583" lon="-3.011467">
        <ele>688.0</ele>
        <time>2014-04-19T13:49:57Z</time>
      </trkpt>
      <trkpt lat="42.983633" lon="-3.011450">
        <ele>687.0</ele>
        <time>2014-04-19T13:49:58Z</time>
      </trkpt>
      <trkpt lat="42.983667" lon="-3.011400">
        <ele>686.0</ele>
        <time>2014-04-19T13:49:59Z</time>
      </trkpt>
      <trkpt lat="42.983683" lon="-3.011317">
        <ele>685.0</ele>
        <time>2014-04-19T13:50:00Z</time>
      </trkpt>
      <trkpt lat="42.983683" lon="-3.011233">
        <ele>684.0</ele>
        <time>2014-04-19T13:50:01Z</time>
      </trkpt>
      <trkpt lat="42.983667" lon="-3.011133">
        <ele>683.0</ele>
        <time>2014-04-19T13:50:02Z</time>
      </trkpt>
      <trkpt lat="42.983633" lon="-3.011033">
        <ele>682.0</ele>
        <time>2014-04-19T13:50:03Z</time>
      </trkpt>
      <trkpt lat="42.983583" lon="-3.010933">
        <ele>682.0</ele>
        <time>2014-04-19T13:50:04Z</time>
      </trkpt>
      <trkpt lat="42.983517" lon="-3.010850">
        <ele>682.0</ele>
        <time>2014-04-19T13:50:05Z</time>
      </trkpt>
      <trkpt lat="42.983433" lon="-3.010783">
        <ele>681.0</ele>
        <time>2014-04-19T13:50:06Z</time>
      </trkpt>
      <trkpt lat="42.983317" lon="-3.010733">
        <ele>680.0</ele>
        <time>2014-04-19T13:50:07Z</time>
      </trkpt>
      <trkpt lat="42.983217" lon="-3.010717">
        <ele>680.0</ele>
        <time>2014-04-19T13:50:08Z</time>
      </trkpt>
      <trkpt lat="42.983100" lon="-3.010717">
        <ele>679.0</ele>
        <time>2014-04-19T13:50:09Z</time>
      </trkpt>
      <trkpt lat="42.982983" lon="-3.010750">
        <ele>679.0</ele>
        <time>2014-04-19T13:50:10Z</time>
      </trkpt>
      <trkpt lat="42.982883" lon="-3.010800">
        <ele>679.0</ele>
        <time>2014-04-19T13:50:11Z</time>
      </trkpt>
      <trkpt lat="42.982783" lon="-3.010867">
        <ele>679.0</ele>
        <time>2014-04-19T13:50:12Z</time>
      </trkpt>
      <trkpt lat="42.982700" lon="-3.010950">
        <ele>678.0</ele>
        <time>2014-04-19T13:50:13Z</time>
      </trkpt>
      <trkpt lat="42.982633" lon="-3.011067">
        <ele>678.0</ele>
        <time>2014-04-19T13:50:14Z</time>
      </trkpt>
      <trkpt lat="42.982583" lon="-3.011183">
        <ele>679.0</ele>
        <time>2014-04-19T13:50:15Z</time>
      </trkpt>
      <trkpt lat="42.982533" lon="-3.011283">
        <ele>679.0</ele>
        <time>2014-04-19T13:50:16Z</time>
      </trkpt>
      <trkpt lat="42.982483" lon="-3.011383">
        <ele>679.0</ele>
        <time>2014-04-19T13:50:17Z</time>
      </trkpt>
      <trkpt lat="42.982417" lon="-3.011483">
        <ele>678.0</ele>
        <time>2014-04-19T13:50:18Z</time>
      </trkpt>
      <trkpt lat="42.982350" lon="-3.011617">
        <ele>677.0</ele>
        <time>2014-04-19T13:50:19Z</time>
      </trkpt>
      <trkpt lat="42.982283" lon="-3.011750">
        <ele>675.0</ele>
        <time>2014-04-19T13:50:20Z</time>
      </trkpt>
      <trkpt lat="42.982217" lon="-3.011867">
        <ele>676.0</ele>
        <time>2014-04-19T13:50:21Z</time>
      </trkpt>
      <trkpt lat="42.982167" lon="-3.011967">
        <ele>676.0</ele>
        <time>2014-04-19T13:50:22Z</time>
      </trkpt>
      <trkpt lat="42.982117" lon="-3.012083">
        <ele>676.0</ele>
        <time>2014-04-19T13:50:23Z</time>
      </trkpt>
      <trkpt lat="42.982083" lon="-3.012200">
        <ele>676.0</ele>
        <time>2014-04-19T13:50:24Z</time>
      </trkpt>
      <trkpt lat="42.982067" lon="-3.012317">
        <ele>675.0</ele>
        <time>2014-04-19T13:50:25Z</time>
      </trkpt>
      <trkpt lat="42.982050" lon="-3.012450">
        <ele>674.0</ele>
        <time>2014-04-19T13:50:26Z</time>
      </trkpt>
      <trkpt lat="42.982033" lon="-3.012567">
        <ele>673.0</ele>
        <time>2014-04-19T13:50:27Z</time>
      </trkpt>
      <trkpt lat="42.982017" lon="-3.012700">
        <ele>672.0</ele>
        <time>2014-04-19T13:50:28Z</time>
      </trkpt>
      <trkpt lat="42.981983" lon="-3.012817">
        <ele>671.0</ele>
        <time>2014-04-19T13:50:29Z</time>
      </trkpt>
      <trkpt lat="42.981950" lon="-3.012933">
        <ele>671.0</ele>
        <time>2014-04-19T13:50:30Z</time>
      </trkpt>
      <trkpt lat="42.981917" lon="-3.013067">
        <ele>669.0</ele>
        <time>2014-04-19T13:50:31Z</time>
      </trkpt>
      <trkpt lat="42.981883" lon="-3.013200">
        <ele>668.0</ele>
        <time>2014-04-19T13:50:32Z</time>
      </trkpt>
      <trkpt lat="42.981867" lon="-3.013333">
        <ele>667.0</ele>
        <time>2014-04-19T13:50:33Z</time>
      </trkpt>
      <trkpt lat="42.981833" lon="-3.013467">
        <ele>667.0</ele>
        <time>2014-04-19T13:50:34Z</time>
      </trkpt>
      <trkpt lat="42.981800" lon="-3.013583">
        <ele>667.0</ele>
        <time>2014-04-19T13:50:35Z</time>
      </trkpt>
      <trkpt lat="42.981767" lon="-3.013717">
        <ele>667.0</ele>
        <time>2014-04-19T13:50:36Z</time>
      </trkpt>
      <trkpt lat="42.981733" lon="-3.013833">
        <ele>667.0</ele>
        <time>2014-04-19T13:50:37Z</time>
      </trkpt>
      <trkpt lat="42.981700" lon="-3.013933">
        <ele>667.0</ele>
        <time>2014-04-19T13:50:38Z</time>
      </trkpt>
      <trkpt lat="42.981667" lon="-3.014017">
        <ele>668.0</ele>
        <time>2014-04-19T13:50:39Z</time>
      </trkpt>
      <trkpt lat="42.981633" lon="-3.014100">
        <ele>667.0</ele>
        <time>2014-04-19T13:50:40Z</time>
      </trkpt>
      <trkpt lat="42.981600" lon="-3.014217">
        <ele>665.0</ele>
        <time>2014-04-19T13:50:41Z</time>
      </trkpt>
      <trkpt lat="42.981583" lon="-3.014350">
        <ele>663.0</ele>
        <time>2014-04-19T13:50:42Z</time>
      </trkpt>
      <trkpt lat="42.981550" lon="-3.014467">
        <ele>662.0</ele>
        <time>2014-04-19T13:50:43Z</time>
      </trkpt>
      <trkpt lat="42.981533" lon="-3.014583">
        <ele>662.0</ele>
        <time>2014-04-19T13:50:44Z</time>
      </trkpt>
      <trkpt lat="42.981517" lon="-3.014683">
        <ele>661.0</ele>
        <time>2014-04-19T13:50:45Z</time>
      </trkpt>
      <trkpt lat="42.981500" lon="-3.014783">
        <ele>661.0</ele>
        <time>2014-04-19T13:50:46Z</time>
      </trkpt>
      <trkpt lat="42.981467" lon="-3.014900">
        <ele>659.0</ele>
        <time>2014-04-19T13:50:47Z</time>
      </trkpt>
      <trkpt lat="42.981433" lon="-3.015033">
        <ele>657.0</ele>
        <time>2014-04-19T13:50:48Z</time>
      </trkpt>
      <trkpt lat="42.981400" lon="-3.015150">
        <ele>654.0</ele>
        <time>2014-04-19T13:50:49Z</time>
      </trkpt>
      <trkpt lat="42.981367" lon="-3.015283">
        <ele>653.0</ele>
        <time>2014-04-19T13:50:50Z</time>
      </trkpt>
      <trkpt lat="42.981350" lon="-3.015417">
        <ele>651.0</ele>
        <time>2014-04-19T13:50:51Z</time>
      </trkpt>
      <trkpt lat="42.981317" lon="-3.015533">
        <ele>650.0</ele>
        <time>2014-04-19T13:50:52Z</time>
      </trkpt>
      <trkpt lat="42.981300" lon="-3.015667">
        <ele>649.0</ele>
        <time>2014-04-19T13:50:53Z</time>
      </trkpt>
      <trkpt lat="42.981283" lon="-3.015800">
        <ele>647.0</ele>
        <time>2014-04-19T13:50:54Z</time>
      </trkpt>
      <trkpt lat="42.981250" lon="-3.015917">
        <ele>645.0</ele>
        <time>2014-04-19T13:50:55Z</time>
      </trkpt>
      <trkpt lat="42.981233" lon="-3.016050">
        <ele>644.0</ele>
        <time>2014-04-19T13:50:56Z</time>
      </trkpt>
      <trkpt lat="42.981200" lon="-3.016183">
        <ele>642.0</ele>
        <time>2014-04-19T13:50:57Z</time>
      </trkpt>
      <trkpt lat="42.981150" lon="-3.016317">
        <ele>641.0</ele>
        <time>2014-04-19T13:50:58Z</time>
      </trkpt>
      <trkpt lat="42.981117" lon="-3.016450">
        <ele>639.0</ele>
        <time>2014-04-19T13:50:59Z</time>
      </trkpt>
      <trkpt lat="42.981083" lon="-3.016567">
        <ele>637.0</ele>
        <time>2014-04-19T13:51:00Z</time>
      </trkpt>
      <trkpt lat="42.981033" lon="-3.016700">
        <ele>636.0</ele>
        <time>2014-04-19T13:51:01Z</time>
      </trkpt>
      <trkpt lat="42.981000" lon="-3.016817">
        <ele>634.0</ele>
        <time>2014-04-19T13:51:02Z</time>
      </trkpt>
      <trkpt lat="42.980950" lon="-3.016933">
        <ele>633.0</ele>
        <time>2014-04-19T13:51:03Z</time>
      </trkpt>
      <trkpt lat="42.980900" lon="-3.017050">
        <ele>631.0</ele>
        <time>2014-04-19T13:51:04Z</time>
      </trkpt>
      <trkpt lat="42.980867" lon="-3.017167">
        <ele>629.0</ele>
        <time>2014-04-19T13:51:05Z</time>
      </trkpt>
      <trkpt lat="42.980833" lon="-3.017283">
        <ele>627.0</ele>
        <time>2014-04-19T13:51:06Z</time>
      </trkpt>
      <trkpt lat="42.980817" lon="-3.017400">
        <ele>624.0</ele>
        <time>2014-04-19T13:51:07Z</time>
      </trkpt>
      <trkpt lat="42.980783" lon="-3.017533">
        <ele>621.0</ele>
        <time>2014-04-19T13:51:08Z</time>
      </trkpt>
      <trkpt lat="42.980767" lon="-3.017650">
        <ele>619.0</ele>
        <time>2014-04-19T13:51:09Z</time>
      </trkpt>
      <trkpt lat="42.980750" lon="-3.017767">
        <ele>616.0</ele>
        <time>2014-04-19T13:51:10Z</time>
      </trkpt>
      <trkpt lat="42.980733" lon="-3.017900">
        <ele>614.0</ele>
        <time>2014-04-19T13:51:11Z</time>
      </trkpt>
      <trkpt lat="42.980733" lon="-3.018017">
        <ele>612.0</ele>
        <time>2014-04-19T13:51:12Z</time>
      </trkpt>
      <trkpt lat="42.980717" lon="-3.018133">
        <ele>610.0</ele>
        <time>2014-04-19T13:51:13Z</time>
      </trkpt>
      <trkpt lat="42.980700" lon="-3.018250">
        <ele>609.0</ele>
        <time>2014-04-19T13:51:14Z</time>
      </trkpt>
      <trkpt lat="42.980683" lon="-3.018367">
        <ele>606.0</ele>
        <time>2014-04-19T13:51:15Z</time>
      </trkpt>
      <trkpt lat="42.980650" lon="-3.018483">
        <ele>603.0</ele>
        <time>2014-04-19T13:51:16Z</time>
      </trkpt>
      <trkpt lat="42.980617" lon="-3.018617">
        <ele>600.0</ele>
        <time>2014-04-19T13:51:17Z</time>
      </trkpt>
      <trkpt lat="42.980583" lon="-3.018750">
        <ele>598.0</ele>
        <time>2014-04-19T13:51:18Z</time>
      </trkpt>
      <trkpt lat="42.980533" lon="-3.018867">
        <ele>595.0</ele>
        <time>2014-04-19T13:51:19Z</time>
      </trkpt>
      <trkpt lat="42.980467" lon="-3.018967">
        <ele>593.0</ele>
        <time>2014-04-19T13:51:20Z</time>
      </trkpt>
      <trkpt lat="42.980417" lon="-3.019067">
        <ele>591.0</ele>
        <time>2014-04-19T13:51:21Z</time>
      </trkpt>
      <trkpt lat="42.980350" lon="-3.019183">
        <ele>588.0</ele>
        <time>2014-04-19T13:51:22Z</time>
      </trkpt>
      <trkpt lat="42.980283" lon="-3.019283">
        <ele>586.0</ele>
        <time>2014-04-19T13:51:23Z</time>
      </trkpt>
      <trkpt lat="42.980217" lon="-3.019400">
        <ele>584.0</ele>
        <time>2014-04-19T13:51:24Z</time>
      </trkpt>
      <trkpt lat="42.980150" lon="-3.019500">
        <ele>582.0</ele>
        <time>2014-04-19T13:51:25Z</time>
      </trkpt>
      <trkpt lat="42.980083" lon="-3.019583">
        <ele>580.0</ele>
        <time>2014-04-19T13:51:26Z</time>
      </trkpt>
      <trkpt lat="42.980000" lon="-3.019650">
        <ele>578.0</ele>
        <time>2014-04-19T13:51:27Z</time>
      </trkpt>
      <trkpt lat="42.979933" lon="-3.019733">
        <ele>576.0</ele>
        <time>2014-04-19T13:51:28Z</time>
      </trkpt>
      <trkpt lat="42.979850" lon="-3.019817">
        <ele>573.0</ele>
        <time>2014-04-19T13:51:29Z</time>
      </trkpt>
      <trkpt lat="42.979750" lon="-3.019900">
        <ele>570.0</ele>
        <time>2014-04-19T13:51:30Z</time>
      </trkpt>
      <trkpt lat="42.979667" lon="-3.019983">
        <ele>568.0</ele>
        <time>2014-04-19T13:51:31Z</time>
      </trkpt>
      <trkpt lat="42.979583" lon="-3.020050">
        <ele>567.0</ele>
        <time>2014-04-19T13:51:32Z</time>
      </trkpt>
      <trkpt lat="42.979483" lon="-3.020117">
        <ele>565.0</ele>
        <time>2014-04-19T13:51:33Z</time>
      </trkpt>
      <trkpt lat="42.979400" lon="-3.020167">
        <ele>563.0</ele>
        <time>2014-04-19T13:51:34Z</time>
      </trkpt>
      <trkpt lat="42.979300" lon="-3.020217">
        <ele>561.0</ele>
        <time>2014-04-19T13:51:35Z</time>
      </trkpt>
      <trkpt lat="42.979200" lon="-3.020267">
        <ele>559.0</ele>
        <time>2014-04-19T13:51:36Z</time>
      </trkpt>
      <trkpt lat="42.979117" lon="-3.020333">
        <ele>558.0</ele>
        <time>2014-04-19T13:51:37Z</time>
      </trkpt>
      <trkpt lat="42.979017" lon="-3.020383">
        <ele>556.0</ele>
        <time>2014-04-19T13:51:38Z</time>
      </trkpt>
      <trkpt lat="42.978917" lon="-3.020433">
        <ele>554.0</ele>
        <time>2014-04-19T13:51:39Z</time>
      </trkpt>
      <trkpt lat="42.978833" lon="-3.020467">
        <ele>551.0</ele>
        <time>2014-04-19T13:51:40Z</time>
      </trkpt>
      <trkpt lat="42.978733" lon="-3.020517">
        <ele>549.0</ele>
        <time>2014-04-19T13:51:41Z</time>
      </trkpt>
      <trkpt lat="42.978633" lon="-3.020567">
        <ele>547.0</ele>
        <time>2014-04-19T13:51:42Z</time>
      </trkpt>
      <trkpt lat="42.978533" lon="-3.020600">
        <ele>545.0</ele>
        <time>2014-04-19T13:51:43Z</time>
      </trkpt>
      <trkpt lat="42.978433" lon="-3.020633">
        <ele>543.0</ele>
        <time>2014-04-19T13:51:44Z</time>
      </trkpt>
      <trkpt lat="42.978333" lon="-3.020683">
        <ele>541.0</ele>
        <time>2014-04-19T13:51:45Z</time>
      </trkpt>
      <trkpt lat="42.978233" lon="-3.020717">
        <ele>539.0</ele>
        <time>2014-04-19T13:51:46Z</time>
      </trkpt>
      <trkpt lat="42.978133" lon="-3.020750">
        <ele>537.0</ele>
        <time>2014-04-19T13:51:47Z</time>
      </trkpt>
      <trkpt lat="42.978050" lon="-3.020800">
        <ele>535.0</ele>
        <time>2014-04-19T13:51:48Z</time>
      </trkpt>
      <trkpt lat="42.977950" lon="-3.020833">
        <ele>533.0</ele>
        <time>2014-04-19T13:51:49Z</time>
      </trkpt>
      <trkpt lat="42.977850" lon="-3.020867">
        <ele>531.0</ele>
        <time>2014-04-19T13:51:50Z</time>
      </trkpt>
      <trkpt lat="42.977750" lon="-3.020883">
        <ele>529.0</ele>
        <time>2014-04-19T13:51:51Z</time>
      </trkpt>
      <trkpt lat="42.977650" lon="-3.020900">
        <ele>526.0</ele>
        <time>2014-04-19T13:51:52Z</time>
      </trkpt>
      <trkpt lat="42.977550" lon="-3.020900">
        <ele>524.0</ele>
        <time>2014-04-19T13:51:53Z</time>
      </trkpt>
      <trkpt lat="42.977450" lon="-3.020917">
        <ele>522.0</ele>
        <time>2014-04-19T13:51:54Z</time>
      </trkpt>
      <trkpt lat="42.977350" lon="-3.020917">
        <ele>520.0</ele>
        <time>2014-04-19T13:51:55Z</time>
      </trkpt>
      <trkpt lat="42.977250" lon="-3.020917">
        <ele>517.0</ele>
        <time>2014-04-19T13:51:56Z</time>
      </trkpt>
      <trkpt lat="42.977150" lon="-3.020900">
        <ele>515.0</ele>
        <time>2014-04-19T13:51:57Z</time>
      </trkpt>
      <trkpt lat="42.977050" lon="-3.020883">
        <ele>513.0</ele>
        <time>2014-04-19T13:51:58Z</time>
      </trkpt>
      <trkpt lat="42.976950" lon="-3.020867">
        <ele>510.0</ele>
        <time>2014-04-19T13:51:59Z</time>
      </trkpt>
      <trkpt lat="42.976850" lon="-3.020850">
        <ele>508.0</ele>
        <time>2014-04-19T13:52:00Z</time>
      </trkpt>
      <trkpt lat="42.976750" lon="-3.020817">
        <ele>507.0</ele>
        <time>2014-04-19T13:52:01Z</time>
      </trkpt>
      <trkpt lat="42.976650" lon="-3.020800">
        <ele>505.0</ele>
        <time>2014-04-19T13:52:02Z</time>
      </trkpt>
      <trkpt lat="42.976567" lon="-3.020783">
        <ele>503.0</ele>
        <time>2014-04-19T13:52:03Z</time>
      </trkpt>
      <trkpt lat="42.976450" lon="-3.020783">
        <ele>501.0</ele>
        <time>2014-04-19T13:52:04Z</time>
      </trkpt>
      <trkpt lat="42.976350" lon="-3.020767">
        <ele>499.0</ele>
        <time>2014-04-19T13:52:05Z</time>
      </trkpt>
      <trkpt lat="42.976250" lon="-3.020767">
        <ele>498.0</ele>
        <time>2014-04-19T13:52:06Z</time>
      </trkpt>
      <trkpt lat="42.976150" lon="-3.020767">
        <ele>497.0</ele>
        <time>2014-04-19T13:52:07Z</time>
      </trkpt>
      <trkpt lat="42.976050" lon="-3.020767">
        <ele>496.0</ele>
        <time>2014-04-19T13:52:08Z</time>
      </trkpt>
      <trkpt lat="42.975950" lon="-3.020767">
        <ele>494.0</ele>
        <time>2014-04-19T13:52:09Z</time>
      </trkpt>
      <trkpt lat="42.975833" lon="-3.020767">
        <ele>493.0</ele>
        <time>2014-04-19T13:52:10Z</time>
      </trkpt>
      <trkpt lat="42.975733" lon="-3.020750">
        <ele>492.0</ele>
        <time>2014-04-19T13:52:11Z</time>
      </trkpt>
      <trkpt lat="42.975633" lon="-3.020733">
        <ele>491.0</ele>
        <time>2014-04-19T13:52:12Z</time>
      </trkpt>
      <trkpt lat="42.975550" lon="-3.020717">
        <ele>490.0</ele>
        <time>2014-04-19T13:52:13Z</time>
      </trkpt>
      <trkpt lat="42.975450" lon="-3.020683">
        <ele>488.0</ele>
        <time>2014-04-19T13:52:14Z</time>
      </trkpt>
      <trkpt lat="42.975367" lon="-3.020633">
        <ele>486.0</ele>
        <time>2014-04-19T13:52:15Z</time>
      </trkpt>
      <trkpt lat="42.975283" lon="-3.020567">
        <ele>484.0</ele>
        <time>2014-04-19T13:52:16Z</time>
      </trkpt>
      <trkpt lat="42.975217" lon="-3.020483">
        <ele>482.0</ele>
        <time>2014-04-19T13:52:17Z</time>
      </trkpt>
      <trkpt lat="42.975150" lon="-3.020400">
        <ele>482.0</ele>
        <time>2014-04-19T13:52:18Z</time>
      </trkpt>
      <trkpt lat="42.975083" lon="-3.020350">
        <ele>482.0</ele>
        <time>2014-04-19T13:52:19Z</time>
      </trkpt>
      <trkpt lat="42.975017" lon="-3.020300">
        <ele>481.0</ele>
        <time>2014-04-19T13:52:20Z</time>
      </trkpt>
      <trkpt lat="42.974950" lon="-3.020250">
        <ele>480.0</ele>
        <time>2014-04-19T13:52:21Z</time>
      </trkpt>
      <trkpt lat="42.974867" lon="-3.020200">
        <ele>479.0</ele>
        <time>2014-04-19T13:52:22Z</time>
      </trkpt>
      <trkpt lat="42.974800" lon="-3.020133">
        <ele>477.0</ele>
        <time>2014-04-19T13:52:23Z</time>
      </trkpt>
      <trkpt lat="42.974733" lon="-3.020067">
        <ele>475.0</ele>
        <time>2014-04-19T13:52:24Z</time>
      </trkpt>
      <trkpt lat="42.974667" lon="-3.020000">
        <ele>474.0</ele>
        <time>2014-04-19T13:52:25Z</time>
      </trkpt>
      <trkpt lat="42.974633" lon="-3.019917">
        <ele>473.0</ele>
        <time>2014-04-19T13:52:26Z</time>
      </trkpt>
      <trkpt lat="42.974617" lon="-3.019800">
        <ele>470.0</ele>
        <time>2014-04-19T13:52:27Z</time>
      </trkpt>
      <trkpt lat="42.974617" lon="-3.019700">
        <ele>468.0</ele>
        <time>2014-04-19T13:52:28Z</time>
      </trkpt>
      <trkpt lat="42.974617" lon="-3.019617">
        <ele>467.0</ele>
        <time>2014-04-19T13:52:29Z</time>
      </trkpt>
      <trkpt lat="42.974633" lon="-3.019533">
        <ele>467.0</ele>
        <time>2014-04-19T13:52:30Z</time>
      </trkpt>
      <trkpt lat="42.974650" lon="-3.019467">
        <ele>466.0</ele>
        <time>2014-04-19T13:52:31Z</time>
      </trkpt>
      <trkpt lat="42.974667" lon="-3.019400">
        <ele>465.0</ele>
        <time>2014-04-19T13:52:32Z</time>
      </trkpt>
      <trkpt lat="42.974717" lon="-3.019333">
        <ele>463.0</ele>
        <time>2014-04-19T13:52:33Z</time>
      </trkpt>
      <trkpt lat="42.974750" lon="-3.019283">
        <ele>462.0</ele>
        <time>2014-04-19T13:52:34Z</time>
      </trkpt>
      <trkpt lat="42.974800" lon="-3.019233">
        <ele>460.0</ele>
        <time>2014-04-19T13:52:35Z</time>
      </trkpt>
      <trkpt lat="42.974850" lon="-3.019183">
        <ele>458.0</ele>
        <time>2014-04-19T13:52:36Z</time>
      </trkpt>
      <trkpt lat="42.974900" lon="-3.019150">
        <ele>457.0</ele>
        <time>2014-04-19T13:52:37Z</time>
      </trkpt>
      <trkpt lat="42.974967" lon="-3.019133">
        <ele>456.0</ele>
        <time>2014-04-19T13:52:38Z</time>
      </trkpt>
      <trkpt lat="42.975017" lon="-3.019117">
        <ele>455.0</ele>
        <time>2014-04-19T13:52:39Z</time>
      </trkpt>
      <trkpt lat="42.975083" lon="-3.019100">
        <ele>454.0</ele>
        <time>2014-04-19T13:52:40Z</time>
      </trkpt>
      <trkpt lat="42.975133" lon="-3.019100">
        <ele>452.0</ele>
        <time>2014-04-19T13:52:41Z</time>
      </trkpt>
      <trkpt lat="42.975200" lon="-3.019083">
        <ele>451.0</ele>
        <time>2014-04-19T13:52:42Z</time>
      </trkpt>
      <trkpt lat="42.975250" lon="-3.019083">
        <ele>450.0</ele>
        <time>2014-04-19T13:52:43Z</time>
      </trkpt>
      <trkpt lat="42.975300" lon="-3.019050">
        <ele>448.0</ele>
        <time>2014-04-19T13:52:44Z</time>
      </trkpt>
      <trkpt lat="42.975350" lon="-3.019033">
        <ele>447.0</ele>
        <time>2014-04-19T13:52:45Z</time>
      </trkpt>
      <trkpt lat="42.975400" lon="-3.019000">
        <ele>446.0</ele>
        <time>2014-04-19T13:52:46Z</time>
      </trkpt>
      <trkpt lat="42.975450" lon="-3.018967">
        <ele>445.0</ele>
        <time>2014-04-19T13:52:47Z</time>
      </trkpt>
      <trkpt lat="42.975483" lon="-3.018917">
        <ele>443.0</ele>
        <time>2014-04-19T13:52:48Z</time>
      </trkpt>
      <trkpt lat="42.975517" lon="-3.018850">
        <ele>441.0</ele>
        <time>2014-04-19T13:52:49Z</time>
      </trkpt>
      <trkpt lat="42.975533" lon="-3.018767">
        <ele>440.0</ele>
        <time>2014-04-19T13:52:50Z</time>
      </trkpt>
      <trkpt lat="42.975550" lon="-3.018667">
        <ele>438.0</ele>
        <time>2014-04-19T13:52:51Z</time>
      </trkpt>
      <trkpt lat="42.975567" lon="-3.018567">
        <ele>437.0</ele>
        <time>2014-04-19T13:52:52Z</time>
      </trkpt>
      <trkpt lat="42.975583" lon="-3.018467">
        <ele>436.0</ele>
        <time>2014-04-19T13:52:53Z</time>
      </trkpt>
      <trkpt lat="42.975583" lon="-3.018383">
        <ele>435.0</ele>
        <time>2014-04-19T13:52:54Z</time>
      </trkpt>
      <trkpt lat="42.975600" lon="-3.018300">
        <ele>433.0</ele>
        <time>2014-04-19T13:52:55Z</time>
      </trkpt>
      <trkpt lat="42.975617" lon="-3.018217">
        <ele>432.0</ele>
        <time>2014-04-19T13:52:56Z</time>
      </trkpt>
      <trkpt lat="42.975650" lon="-3.018150">
        <ele>430.0</ele>
        <time>2014-04-19T13:52:57Z</time>
      </trkpt>
      <trkpt lat="42.975700" lon="-3.018117">
        <ele>429.0</ele>
        <time>2014-04-19T13:52:58Z</time>
      </trkpt>
      <trkpt lat="42.975767" lon="-3.018100">
        <ele>428.0</ele>
        <time>2014-04-19T13:52:59Z</time>
      </trkpt>
      <trkpt lat="42.975833" lon="-3.018117">
        <ele>426.0</ele>
        <time>2014-04-19T13:53:00Z</time>
      </trkpt>
      <trkpt lat="42.975900" lon="-3.018150">
        <ele>424.0</ele>
        <time>2014-04-19T13:53:01Z</time>
      </trkpt>
      <trkpt lat="42.975950" lon="-3.018183">
        <ele>422.0</ele>
        <time>2014-04-19T13:53:02Z</time>
      </trkpt>
      <trkpt lat="42.976017" lon="-3.018233">
        <ele>420.0</ele>
        <time>2014-04-19T13:53:03Z</time>
      </trkpt>
      <trkpt lat="42.976083" lon="-3.018300">
        <ele>418.0</ele>
        <time>2014-04-19T13:53:04Z</time>
      </trkpt>
      <trkpt lat="42.976133" lon="-3.018367">
        <ele>416.0</ele>
        <time>2014-04-19T13:53:05Z</time>
      </trkpt>
      <trkpt lat="42.976183" lon="-3.018450">
        <ele>415.0</ele>
        <time>2014-04-19T13:53:06Z</time>
      </trkpt>
      <trkpt lat="42.976217" lon="-3.018533">
        <ele>414.0</ele>
        <time>2014-04-19T13:53:07Z</time>
      </trkpt>
      <trkpt lat="42.976250" lon="-3.018633">
        <ele>412.0</ele>
        <time>2014-04-19T13:53:08Z</time>
      </trkpt>
      <trkpt lat="42.976283" lon="-3.018717">
        <ele>411.0</ele>
        <time>2014-04-19T13:53:09Z</time>
      </trkpt>
      <trkpt lat="42.976350" lon="-3.018800">
        <ele>411.0</ele>
        <time>2014-04-19T13:53:10Z</time>
      </trkpt>
      <trkpt lat="42.976400" lon="-3.018867">
        <ele>411.0</ele>
        <time>2014-04-19T13:53:11Z</time>
      </trkpt>
      <trkpt lat="42.976467" lon="-3.018917">
        <ele>410.0</ele>
        <time>2014-04-19T13:53:12Z</time>
      </trkpt>
      <trkpt lat="42.976517" lon="-3.018933">
        <ele>410.0</ele>
        <time>2014-04-19T13:53:13Z</time>
      </trkpt>
      <trkpt lat="42.976567" lon="-3.018933">
        <ele>408.0</ele>
        <time>2014-04-19T13:53:14Z</time>
      </trkpt>
      <trkpt lat="42.976617" lon="-3.018917">
        <ele>407.0</ele>
        <time>2014-04-19T13:53:15Z</time>
      </trkpt>
      <trkpt lat="42.976683" lon="-3.018883">
        <ele>404.0</ele>
        <time>2014-04-19T13:53:16Z</time>
      </trkpt>
      <trkpt lat="42.976733" lon="-3.018833">
        <ele>401.0</ele>
        <time>2014-04-19T13:53:17Z</time>
      </trkpt>
      <trkpt lat="42.976783" lon="-3.018767">
        <ele>399.0</ele>
        <time>2014-04-19T13:53:18Z</time>
      </trkpt>
      <trkpt lat="42.976783" lon="-3.018683">
        <ele>398.0</ele>
        <time>2014-04-19T13:53:19Z</time>
      </trkpt>
      <trkpt lat="42.976783" lon="-3.018600">
        <ele>397.0</ele>
        <time>2014-04-19T13:53:20Z</time>
      </trkpt>
      <trkpt lat="42.976767" lon="-3.018517">
        <ele>396.0</ele>
        <time>2014-04-19T13:53:21Z</time>
      </trkpt>
      <trkpt lat="42.976733" lon="-3.018433">
        <ele>395.0</ele>
        <time>2014-04-19T13:53:22Z</time>
      </trkpt>
      <trkpt lat="42.976717" lon="-3.018333">
        <ele>394.0</ele>
        <time>2014-04-19T13:53:23Z</time>
      </trkpt>
      <trkpt lat="42.976717" lon="-3.018217">
        <ele>392.0</ele>
        <time>2014-04-19T13:53:24Z</time>
      </trkpt>
      <trkpt lat="42.976717" lon="-3.018100">
        <ele>392.0</ele>
        <time>2014-04-19T13:53:25Z</time>
      </trkpt>
      <trkpt lat="42.976717" lon="-3.018000">
        <ele>392.0</ele>
        <time>2014-04-19T13:53:26Z</time>
      </trkpt>
      <trkpt lat="42.976733" lon="-3.017900">
        <ele>393.0</ele>
        <time>2014-04-19T13:53:27Z</time>
      </trkpt>
      <trkpt lat="42.976733" lon="-3.017817">
        <ele>394.0</ele>
        <time>2014-04-19T13:53:28Z</time>
      </trkpt>
      <trkpt lat="42.976750" lon="-3.017733">
        <ele>394.0</ele>
        <time>2014-04-19T13:53:29Z</time>
      </trkpt>
      <trkpt lat="42.976783" lon="-3.017650">
        <ele>393.0</ele>
        <time>2014-04-19T13:53:30Z</time>
      </trkpt>
      <trkpt lat="42.976800" lon="-3.017550">
        <ele>393.0</ele>
        <time>2014-04-19T13:53:31Z</time>
      </trkpt>
      <trkpt lat="42.976833" lon="-3.017433">
        <ele>393.0</ele>
        <time>2014-04-19T13:53:32Z</time>
      </trkpt>
      <trkpt lat="42.976867" lon="-3.017333">
        <ele>392.0</ele>
        <time>2014-04-19T13:53:33Z</time>
      </trkpt>
      <trkpt lat="42.976883" lon="-3.017267">
        <ele>391.0</ele>
        <time>2014-04-19T13:53:34Z</time>
      </trkpt>
      <trkpt lat="42.976917" lon="-3.017200">
        <ele>391.0</ele>
        <time>2014-04-19T13:53:35Z</time>
      </trkpt>
      <trkpt lat="42.976933" lon="-3.017133">
        <ele>390.0</ele>
        <time>2014-04-19T13:53:36Z</time>
      </trkpt>
      <trkpt lat="42.976950" lon="-3.017067">
        <ele>388.0</ele>
        <time>2014-04-19T13:53:37Z</time>
      </trkpt>
      <trkpt lat="42.976967" lon="-3.017000">
        <ele>387.0</ele>
        <time>2014-04-19T13:53:38Z</time>
      </trkpt>
      <trkpt lat="42.976983" lon="-3.016933">
        <ele>386.0</ele>
        <time>2014-04-19T13:53:39Z</time>
      </trkpt>
      <trkpt lat="42.976983" lon="-3.016867">
        <ele>385.0</ele>
        <time>2014-04-19T13:53:40Z</time>
      </trkpt>
      <trkpt lat="42.977000" lon="-3.016783">
        <ele>385.0</ele>
        <time>2014-04-19T13:53:41Z</time>
      </trkpt>
      <trkpt lat="42.977000" lon="-3.016717">
        <ele>383.0</ele>
        <time>2014-04-19T13:53:42Z</time>
      </trkpt>
      <trkpt lat="42.977000" lon="-3.016633">
        <ele>382.0</ele>
        <time>2014-04-19T13:53:43Z</time>
      </trkpt>
      <trkpt lat="42.976983" lon="-3.016533">
        <ele>381.0</ele>
        <time>2014-04-19T13:53:44Z</time>
      </trkpt>
      <trkpt lat="42.977000" lon="-3.016450">
        <ele>381.0</ele>
        <time>2014-04-19T13:53:45Z</time>
      </trkpt>
      <trkpt lat="42.977000" lon="-3.016383">
        <ele>380.0</ele>
        <time>2014-04-19T13:53:46Z</time>
      </trkpt>
      <trkpt lat="42.977017" lon="-3.016300">
        <ele>380.0</ele>
        <time>2014-04-19T13:53:47Z</time>
      </trkpt>
      <trkpt lat="42.977033" lon="-3.016233">
        <ele>380.0</ele>
        <time>2014-04-19T13:53:48Z</time>
      </trkpt>
      <trkpt lat="42.977050" lon="-3.016167">
        <ele>379.0</ele>
        <time>2014-04-19T13:53:49Z</time>
      </trkpt>
      <trkpt lat="42.977100" lon="-3.016117">
        <ele>377.0</ele>
        <time>2014-04-19T13:53:50Z</time>
      </trkpt>
      <trkpt lat="42.977150" lon="-3.016100">
        <ele>375.0</ele>
        <time>2014-04-19T13:53:51Z</time>
      </trkpt>
      <trkpt lat="42.977200" lon="-3.016100">
        <ele>374.0</ele>
        <time>2014-04-19T13:53:52Z</time>
      </trkpt>
      <trkpt lat="42.977250" lon="-3.016150">
        <ele>372.0</ele>
        <time>2014-04-19T13:53:53Z</time>
      </trkpt>
      <trkpt lat="42.977283" lon="-3.016217">
        <ele>370.0</ele>
        <time>2014-04-19T13:53:54Z</time>
      </trkpt>
      <trkpt lat="42.977300" lon="-3.016300">
        <ele>368.0</ele>
        <time>2014-04-19T13:53:55Z</time>
      </trkpt>
      <trkpt lat="42.977317" lon="-3.016400">
        <ele>366.0</ele>
        <time>2014-04-19T13:53:56Z</time>
      </trkpt>
      <trkpt lat="42.977333" lon="-3.016517">
        <ele>363.0</ele>
        <time>2014-04-19T13:53:57Z</time>
      </trkpt>
      <trkpt lat="42.977333" lon="-3.016617">
        <ele>362.0</ele>
        <time>2014-04-19T13:53:58Z</time>
      </trkpt>
      <trkpt lat="42.977333" lon="-3.016717">
        <ele>360.0</ele>
        <time>2014-04-19T13:53:59Z</time>
      </trkpt>
      <trkpt lat="42.977333" lon="-3.016833">
        <ele>359.0</ele>
        <time>2014-04-19T13:54:00Z</time>
      </trkpt>
      <trkpt lat="42.977333" lon="-3.016933">
        <ele>357.0</ele>
        <time>2014-04-19T13:54:01Z</time>
      </trkpt>
      <trkpt lat="42.977333" lon="-3.017050">
        <ele>355.0</ele>
        <time>2014-04-19T13:54:02Z</time>
      </trkpt>
      <trkpt lat="42.977367" lon="-3.017133">
        <ele>354.0</ele>
        <time>2014-04-19T13:54:03Z</time>
      </trkpt>
      <trkpt lat="42.977400" lon="-3.017233">
        <ele>354.0</ele>
        <time>2014-04-19T13:54:04Z</time>
      </trkpt>
      <trkpt lat="42.977450" lon="-3.017300">
        <ele>354.0</ele>
        <time>2014-04-19T13:54:05Z</time>
      </trkpt>
      <trkpt lat="42.977483" lon="-3.017367">
        <ele>354.0</ele>
        <time>2014-04-19T13:54:06Z</time>
      </trkpt>
      <trkpt lat="42.977533" lon="-3.017450">
        <ele>355.0</ele>
        <time>2014-04-19T13:54:07Z</time>
      </trkpt>
      <trkpt lat="42.977550" lon="-3.017550">
        <ele>355.0</ele>
        <time>2014-04-19T13:54:08Z</time>
      </trkpt>
      <trkpt lat="42.977550" lon="-3.017650">
        <ele>356.0</ele>
        <time>2014-04-19T13:54:09Z</time>
      </trkpt>
      <trkpt lat="42.977567" lon="-3.017733">
        <ele>355.0</ele>
        <time>2014-04-19T13:54:10Z</time>
      </trkpt>
      <trkpt lat="42.977567" lon="-3.017817">
        <ele>354.0</ele>
        <time>2014-04-19T13:54:11Z</time>
      </trkpt>
      <trkpt lat="42.977600" lon="-3.017917">
        <ele>352.0</ele>
        <time>2014-04-19T13:54:12Z</time>
      </trkpt>
      <trkpt lat="42.977633" lon="-3.018017">
        <ele>351.0</ele>
        <time>2014-04-19T13:54:13Z</time>
      </trkpt>
      <trkpt lat="42.977667" lon="-3.018100">
        <ele>349.0</ele>
        <time>2014-04-19T13:54:14Z</time>
      </trkpt>
      <trkpt lat="42.977700" lon="-3.018167">
        <ele>350.0</ele>
        <time>2014-04-19T13:54:15Z</time>
      </trkpt>
      <trkpt lat="42.977750" lon="-3.018200">
        <ele>348.0</ele>
        <time>2014-04-19T13:54:16Z</time>
      </trkpt>
      <trkpt lat="42.977800" lon="-3.018200">
        <ele>346.0</ele>
        <time>2014-04-19T13:54:17Z</time>
      </trkpt>
      <trkpt lat="42.977850" lon="-3.018150">
        <ele>343.0</ele>
        <time>2014-04-19T13:54:18Z</time>
      </trkpt>
      <trkpt lat="42.977867" lon="-3.018083">
        <ele>341.0</ele>
        <time>2014-04-19T13:54:19Z</time>
      </trkpt>
      <trkpt lat="42.977833" lon="-3.018000">
        <ele>339.0</ele>
        <time>2014-04-19T13:54:20Z</time>
      </trkpt>
      <trkpt lat="42.977800" lon="-3.017933">
        <ele>337.0</ele>
        <time>2014-04-19T13:54:21Z</time>
      </trkpt>
      <trkpt lat="42.977750" lon="-3.017867">
        <ele>336.0</ele>
        <time>2014-04-19T13:54:22Z</time>
      </trkpt>
      <trkpt lat="42.977700" lon="-3.017817">
        <ele>335.0</ele>
        <time>2014-04-19T13:54:23Z</time>
      </trkpt>
      <trkpt lat="42.977683" lon="-3.017750">
        <ele>335.0</ele>
        <time>2014-04-19T13:54:24Z</time>
      </trkpt>
      <trkpt lat="42.977683" lon="-3.017667">
        <ele>333.0</ele>
        <time>2014-04-19T13:54:25Z</time>
      </trkpt>
      <trkpt lat="42.977683" lon="-3.017600">
        <ele>331.0</ele>
        <time>2014-04-19T13:54:26Z</time>
      </trkpt>
      <trkpt lat="42.977683" lon="-3.017533">
        <ele>331.0</ele>
        <time>2014-04-19T13:54:27Z</time>
      </trkpt>
      <trkpt lat="42.977683" lon="-3.017483">
        <ele>330.0</ele>
        <time>2014-04-19T13:54:28Z</time>
      </trkpt>
      <trkpt lat="42.977683" lon="-3.017433">
        <ele>329.0</ele>
        <time>2014-04-19T13:54:29Z</time>
      </trkpt>
      <trkpt lat="42.977700" lon="-3.017367">
        <ele>328.0</ele>
        <time>2014-04-19T13:54:30Z</time>
      </trkpt>
      <trkpt lat="42.977717" lon="-3.017333">
        <ele>327.0</ele>
        <time>2014-04-19T13:54:31Z</time>
      </trkpt>
      <trkpt lat="42.977733" lon="-3.017317">
        <ele>327.0</ele>
        <time>2014-04-19T13:54:32Z</time>
      </trkpt>
      <trkpt lat="42.977717" lon="-3.017317">
        <ele>326.0</ele>
        <time>2014-04-19T13:54:33Z</time>
      </trkpt>
      <trkpt lat="42.977717" lon="-3.017317">
        <ele>326.0</ele>
        <time>2014-04-19T13:54:34Z</time>
      </trkpt>
      <trkpt lat="42.977717" lon="-3.017333">
        <ele>327.0</ele>
        <time>2014-04-19T13:54:35Z</time>
      </trkpt>
      <trkpt lat="42.977717" lon="-3.017333">
        <ele>327.0</ele>
        <time>2014-04-19T13:54:36Z</time>
      </trkpt>
      <trkpt lat="42.977717" lon="-3.017333">
        <ele>327.0</ele>
        <time>2014-04-19T13:54:37Z</time>
      </trkpt>
      <trkpt lat="42.977717" lon="-3.017333">
        <ele>327.0</ele>
        <time>2014-04-19T13:54:38Z</time>
      </trkpt>
      <trkpt lat="42.977717" lon="-3.017333">
        <ele>327.0</ele>
        <time>2014-04-19T13:54:39Z</time>
      </trkpt>
      <trkpt lat="42.977717" lon="-3.017333">
        <ele>327.0</ele>
        <time>2014-04-19T13:54:40Z</time>
      </trkpt>
      <trkpt lat="42.977717" lon="-3.017333">
        <ele>327.0</ele>
        <time>2014-04-19T13:54:41Z</time>
      </trkpt>
      <trkpt lat="42.977717" lon="-3.017333">
        <ele>327.0</ele>
        <time>2014-04-19T13:54:42Z</time>
      </trkpt>
      <trkpt lat="42.977717" lon="-3.017333">
        <ele>327.0</ele>
        <time>2014-04-19T13:54:43Z</time>
      </trkpt>
      <trkpt lat="42.977700" lon="-3.017350">
        <ele>327.0</ele>
        <time>2014-04-19T13:54:44Z</time>
      </trkpt>
      <trkpt lat="42.977700" lon="-3.017350">
        <ele>328.0</ele>
        <time>2014-04-19T13:54:45Z</time>
      </trkpt>
      <trkpt lat="42.977700" lon="-3.017350">
        <ele>327.0</ele>
        <time>2014-04-19T13:54:46Z</time>
      </trkpt>
      <trkpt lat="42.977700" lon="-3.017350">
        <ele>327.0</ele>
        <time>2014-04-19T13:54:47Z</time>
      </trkpt>
    </trkseg>
  </trk>
</gpx>
